<?xml version='1.0' encoding='UTF-8'?><gpx version="1.1" creator="JPX - https://github.com/jenetics/jpx" xmlns="http://www.topografix.com/GPX/1/1"><trk><trkseg><trkpt lat="34.4149571" lon="8.7794964"><ele>288.0</ele><time>2026-03-21T08:46:04.401Z</time></trkpt><trkpt lat="34.4150195" lon="8.7794746"><ele>288.0</ele><time>2026-03-21T08:46:07.4Z</time></trkpt><trkpt lat="34.415075" lon="8.7794383"><ele>288.0</ele><time>2026-03-21T08:46:19.404Z</time></trkpt><trkpt lat="34.41514" lon="8.779385"><ele>288.0</ele><time>2026-03-21T08:46:23.4Z</time></trkpt><trkpt lat="34.4152083" lon="8.7794117"><ele>288.0</ele><time>2026-03-21T08:46:26.401Z</time></trkpt><trkpt lat="34.4152817" lon="8.7794683"><ele>288.0</ele><time>2026-03-21T08:46:28.401Z</time></trkpt><trkpt lat="34.4153633" lon="8.779525"><ele>288.0</ele><time>2026-03-21T08:46:30.401Z</time></trkpt><trkpt lat="34.4154717" lon="8.7795883"><ele>288.0</ele><time>2026-03-21T08:46:32.403Z</time></trkpt><trkpt lat="34.4155883" lon="8.7796183"><ele>288.0</ele><time>2026-03-21T08:46:34.402Z</time></trkpt><trkpt lat="34.4156983" lon="8.779625"><ele>288.0</ele><time>2026-03-21T08:46:36.4Z</time></trkpt><trkpt lat="34.4158167" lon="8.7796233"><ele>287.75</ele><time>2026-03-21T08:46:38.403Z</time></trkpt><trkpt lat="34.4159517" lon="8.7796183"><ele>287.5</ele><time>2026-03-21T08:46:40.4Z</time></trkpt><trkpt lat="34.41607" lon="8.7796067"><ele>287.25</ele><time>2026-03-21T08:46:42.401Z</time></trkpt><trkpt lat="34.4161833" lon="8.779595"><ele>287.0</ele><time>2026-03-21T08:46:44.401Z</time></trkpt><trkpt lat="34.4163067" lon="8.7795767"><ele>287.5</ele><time>2026-03-21T08:46:46.4Z</time></trkpt><trkpt lat="34.416375" lon="8.779565"><ele>288.0</ele><time>2026-03-21T08:46:47.4Z</time></trkpt><trkpt lat="34.41644" lon="8.77955"><ele>288.5</ele><time>2026-03-21T08:46:48.401Z</time></trkpt><trkpt lat="34.41652" lon="8.77953"><ele>289.0</ele><time>2026-03-21T08:46:49.401Z</time></trkpt><trkpt lat="34.4165983" lon="8.7795117"><ele>289.5</ele><time>2026-03-21T08:46:50.401Z</time></trkpt><trkpt lat="34.41667" lon="8.7795067"><ele>290.0</ele><time>2026-03-21T08:46:51.4Z</time></trkpt><trkpt lat="34.416765" lon="8.7794967"><ele>290.0</ele><time>2026-03-21T08:46:53.402Z</time></trkpt><trkpt lat="34.4168367" lon="8.7794783"><ele>290.0</ele><time>2026-03-21T08:47:33.4Z</time></trkpt><trkpt lat="34.416915" lon="8.7795183"><ele>290.0</ele><time>2026-03-21T08:47:35.4Z</time></trkpt><trkpt lat="34.416985" lon="8.7795933"><ele>290.0</ele><time>2026-03-21T08:47:37.4Z</time></trkpt><trkpt lat="34.4170383" lon="8.7796967"><ele>290.0</ele><time>2026-03-21T08:47:39.401Z</time></trkpt><trkpt lat="34.417095" lon="8.77983"><ele>290.0</ele><time>2026-03-21T08:47:41.401Z</time></trkpt><trkpt lat="34.417125" lon="8.7799133"><ele>290.0</ele><time>2026-03-21T08:47:42.401Z</time></trkpt><trkpt lat="34.4171717" lon="8.780055"><ele>290.0</ele><time>2026-03-21T08:47:44.401Z</time></trkpt><trkpt lat="34.4172267" lon="8.7801867"><ele>290.0</ele><time>2026-03-21T08:47:46.402Z</time></trkpt><trkpt lat="34.4172717" lon="8.7803167"><ele>290.0</ele><time>2026-03-21T08:47:48.401Z</time></trkpt><trkpt lat="34.4173183" lon="8.78046"><ele>290.6666666666667</ele><time>2026-03-21T08:47:50.401Z</time></trkpt><trkpt lat="34.4173483" lon="8.7805317"><ele>291.33333333333337</ele><time>2026-03-21T08:47:51.4Z</time></trkpt><trkpt lat="34.417405" lon="8.7806417"><ele>292.0</ele><time>2026-03-21T08:47:53.401Z</time></trkpt><trkpt lat="34.417465" lon="8.780705"><ele>292.6666666666667</ele><time>2026-03-21T08:47:55.4Z</time></trkpt><trkpt lat="34.41752" lon="8.7807533"><ele>293.3333333333333</ele><time>2026-03-21T08:47:57.4Z</time></trkpt><trkpt lat="34.4175933" lon="8.7808083"><ele>294.0</ele><time>2026-03-21T08:47:59.402Z</time></trkpt><trkpt lat="34.4176733" lon="8.7808917"><ele>294.0</ele><time>2026-03-21T08:48:01.4Z</time></trkpt><trkpt lat="34.4177483" lon="8.7809917"><ele>294.0</ele><time>2026-03-21T08:48:03.4Z</time></trkpt><trkpt lat="34.4178183" lon="8.7810917"><ele>294.0</ele><time>2026-03-21T08:48:05.401Z</time></trkpt><trkpt lat="34.4179017" lon="8.7812117"><ele>294.0</ele><time>2026-03-21T08:48:07.4Z</time></trkpt><trkpt lat="34.41796" lon="8.7812733"><ele>294.0</ele><time>2026-03-21T08:48:08.403Z</time></trkpt><trkpt lat="34.4180333" lon="8.78134"><ele>294.1666666666667</ele><time>2026-03-21T08:48:09.401Z</time></trkpt><trkpt lat="34.4181033" lon="8.7814117"><ele>294.3333333333333</ele><time>2026-03-21T08:48:10.4Z</time></trkpt><trkpt lat="34.418175" lon="8.781475"><ele>294.5</ele><time>2026-03-21T08:48:11.4Z</time></trkpt><trkpt lat="34.4182383" lon="8.781545"><ele>294.66666666666663</ele><time>2026-03-21T08:48:12.4Z</time></trkpt><trkpt lat="34.4182967" lon="8.7816133"><ele>294.8333333333333</ele><time>2026-03-21T08:48:13.401Z</time></trkpt><trkpt lat="34.418355" lon="8.7816817"><ele>295.0</ele><time>2026-03-21T08:48:14.401Z</time></trkpt><trkpt lat="34.418415" lon="8.781745"><ele>295.0</ele><time>2026-03-21T08:48:15.4Z</time></trkpt><trkpt lat="34.418475" lon="8.7818083"><ele>295.0</ele><time>2026-03-21T08:48:16.4Z</time></trkpt><trkpt lat="34.4185367" lon="8.7818683"><ele>295.0</ele><time>2026-03-21T08:48:17.401Z</time></trkpt><trkpt lat="34.4186033" lon="8.78193"><ele>295.0</ele><time>2026-03-21T08:48:18.4Z</time></trkpt><trkpt lat="34.41867" lon="8.7819967"><ele>295.0</ele><time>2026-03-21T08:48:19.4Z</time></trkpt><trkpt lat="34.4187283" lon="8.78206"><ele>295.0</ele><time>2026-03-21T08:48:20.401Z</time></trkpt><trkpt lat="34.4187833" lon="8.7821183"><ele>294.4</ele><time>2026-03-21T08:48:21.4Z</time></trkpt><trkpt lat="34.4188383" lon="8.7821717"><ele>293.8</ele><time>2026-03-21T08:48:22.402Z</time></trkpt><trkpt lat="34.41889" lon="8.782225"><ele>293.2</ele><time>2026-03-21T08:48:23.401Z</time></trkpt><trkpt lat="34.4189867" lon="8.782315"><ele>292.6</ele><time>2026-03-21T08:48:25.401Z</time></trkpt><trkpt lat="34.41909" lon="8.782395"><ele>292.0</ele><time>2026-03-21T08:48:27.4Z</time></trkpt><trkpt lat="34.4191783" lon="8.78246"><ele>292.0</ele><time>2026-03-21T08:48:29.402Z</time></trkpt><trkpt lat="34.4192417" lon="8.7825117"><ele>292.0</ele><time>2026-03-21T08:48:31.4Z</time></trkpt><trkpt lat="34.4192983" lon="8.78255"><ele>292.0</ele><time>2026-03-21T08:48:33.4Z</time></trkpt><trkpt lat="34.4193583" lon="8.7825883"><ele>292.0</ele><time>2026-03-21T08:48:36.401Z</time></trkpt><trkpt lat="34.4194433" lon="8.7825617"><ele>292.0</ele><time>2026-03-21T08:48:53.402Z</time></trkpt><trkpt lat="34.4195033" lon="8.782465"><ele>292.0</ele><time>2026-03-21T08:48:55.402Z</time></trkpt><trkpt lat="34.419515" lon="8.7823867"><ele>292.0</ele><time>2026-03-21T08:48:56.401Z</time></trkpt><trkpt lat="34.4195267" lon="8.7822983"><ele>292.0</ele><time>2026-03-21T08:48:57.401Z</time></trkpt><trkpt lat="34.41953" lon="8.782165"><ele>292.0</ele><time>2026-03-21T08:48:58.401Z</time></trkpt><trkpt lat="34.41954" lon="8.7820517"><ele>292.0</ele><time>2026-03-21T08:48:59.401Z</time></trkpt><trkpt lat="34.4195483" lon="8.7819333"><ele>292.0</ele><time>2026-03-21T08:49:00.401Z</time></trkpt><trkpt lat="34.4195683" lon="8.78181"><ele>292.6</ele><time>2026-03-21T08:49:01.401Z</time></trkpt><trkpt lat="34.4196033" lon="8.7816883"><ele>293.2</ele><time>2026-03-21T08:49:02.402Z</time></trkpt><trkpt lat="34.41964" lon="8.7815683"><ele>293.8</ele><time>2026-03-21T08:49:03.4Z</time></trkpt><trkpt lat="34.4196817" lon="8.7814517"><ele>294.4</ele><time>2026-03-21T08:49:04.401Z</time></trkpt><trkpt lat="34.419725" lon="8.7813333"><ele>295.0</ele><time>2026-03-21T08:49:05.402Z</time></trkpt><trkpt lat="34.4197767" lon="8.78121"><ele>295.2</ele><time>2026-03-21T08:49:06.401Z</time></trkpt><trkpt lat="34.4198217" lon="8.7810917"><ele>295.4</ele><time>2026-03-21T08:49:07.404Z</time></trkpt><trkpt lat="34.4198667" lon="8.7809717"><ele>295.6</ele><time>2026-03-21T08:49:08.401Z</time></trkpt><trkpt lat="34.41991" lon="8.7808533"><ele>295.8</ele><time>2026-03-21T08:49:09.4Z</time></trkpt><trkpt lat="34.4199533" lon="8.78074"><ele>296.0</ele><time>2026-03-21T08:49:10.402Z</time></trkpt><trkpt lat="34.4199983" lon="8.7806217"><ele>296.0</ele><time>2026-03-21T08:49:11.401Z</time></trkpt><trkpt lat="34.4200467" lon="8.780505"><ele>296.0</ele><time>2026-03-21T08:49:12.403Z</time></trkpt><trkpt lat="34.420095" lon="8.78039"><ele>296.0</ele><time>2026-03-21T08:49:13.402Z</time></trkpt><trkpt lat="34.42014" lon="8.780275"><ele>296.0</ele><time>2026-03-21T08:49:14.401Z</time></trkpt><trkpt lat="34.4201833" lon="8.7801583"><ele>296.0</ele><time>2026-03-21T08:49:15.402Z</time></trkpt><trkpt lat="34.4202283" lon="8.7800483"><ele>296.33333333333337</ele><time>2026-03-21T08:49:16.402Z</time></trkpt><trkpt lat="34.4202633" lon="8.7799483"><ele>296.6666666666667</ele><time>2026-03-21T08:49:17.401Z</time></trkpt><trkpt lat="34.420295" lon="8.77986"><ele>297.0</ele><time>2026-03-21T08:49:18.401Z</time></trkpt><trkpt lat="34.420325" lon="8.7797683"><ele>297.3333333333333</ele><time>2026-03-21T08:49:19.403Z</time></trkpt><trkpt lat="34.4203583" lon="8.77967"><ele>297.66666666666663</ele><time>2026-03-21T08:49:20.401Z</time></trkpt><trkpt lat="34.4203983" lon="8.7795683"><ele>298.0</ele><time>2026-03-21T08:49:21.401Z</time></trkpt><trkpt lat="34.4204333" lon="8.7794583"><ele>297.2</ele><time>2026-03-21T08:49:22.403Z</time></trkpt><trkpt lat="34.4204683" lon="8.7793483"><ele>296.4</ele><time>2026-03-21T08:49:23.401Z</time></trkpt><trkpt lat="34.4205067" lon="8.779235"><ele>295.59999999999997</ele><time>2026-03-21T08:49:24.401Z</time></trkpt><trkpt lat="34.4205417" lon="8.7791233"><ele>294.8</ele><time>2026-03-21T08:49:25.402Z</time></trkpt><trkpt lat="34.4205783" lon="8.7790267"><ele>294.0</ele><time>2026-03-21T08:49:26.402Z</time></trkpt><trkpt lat="34.420615" lon="8.7789383"><ele>293.3333333333333</ele><time>2026-03-21T08:49:27.401Z</time></trkpt><trkpt lat="34.4206517" lon="8.7788533"><ele>292.6666666666667</ele><time>2026-03-21T08:49:28.401Z</time></trkpt><trkpt lat="34.4206983" lon="8.7787717"><ele>292.0</ele><time>2026-03-21T08:49:29.401Z</time></trkpt><trkpt lat="34.4207383" lon="8.7786917"><ele>291.33333333333337</ele><time>2026-03-21T08:49:30.402Z</time></trkpt><trkpt lat="34.4207833" lon="8.778615"><ele>290.6666666666667</ele><time>2026-03-21T08:49:31.401Z</time></trkpt><trkpt lat="34.4208333" lon="8.778545"><ele>290.0</ele><time>2026-03-21T08:49:32.402Z</time></trkpt><trkpt lat="34.4208717" lon="8.7784683"><ele>289.6</ele><time>2026-03-21T08:49:33.401Z</time></trkpt><trkpt lat="34.4209" lon="8.778395"><ele>289.2</ele><time>2026-03-21T08:49:34.4Z</time></trkpt><trkpt lat="34.420915" lon="8.7782417"><ele>288.8</ele><time>2026-03-21T08:49:36.401Z</time></trkpt><trkpt lat="34.4209017" lon="8.7781367"><ele>288.4</ele><time>2026-03-21T08:49:37.401Z</time></trkpt><trkpt lat="34.4208833" lon="8.778015"><ele>288.0</ele><time>2026-03-21T08:49:38.403Z</time></trkpt><trkpt lat="34.4208733" lon="8.77788"><ele>288.0</ele><time>2026-03-21T08:49:39.401Z</time></trkpt><trkpt lat="34.420875" lon="8.777755"><ele>288.0</ele><time>2026-03-21T08:49:40.402Z</time></trkpt><trkpt lat="34.420875" lon="8.7776267"><ele>288.0</ele><time>2026-03-21T08:49:41.401Z</time></trkpt><trkpt lat="34.4208733" lon="8.777495"><ele>288.0</ele><time>2026-03-21T08:49:42.401Z</time></trkpt><trkpt lat="34.4208767" lon="8.777365"><ele>288.0</ele><time>2026-03-21T08:49:43.402Z</time></trkpt><trkpt lat="34.4208767" lon="8.7772267"><ele>287.75</ele><time>2026-03-21T08:49:44.402Z</time></trkpt><trkpt lat="34.4208783" lon="8.7770867"><ele>287.5</ele><time>2026-03-21T08:49:45.401Z</time></trkpt><trkpt lat="34.4208833" lon="8.7769333"><ele>287.25</ele><time>2026-03-21T08:49:46.401Z</time></trkpt><trkpt lat="34.4208883" lon="8.7767817"><ele>287.0</ele><time>2026-03-21T08:49:47.402Z</time></trkpt><trkpt lat="34.4209" lon="8.7766317"><ele>287.0</ele><time>2026-03-21T08:49:48.401Z</time></trkpt><trkpt lat="34.4209067" lon="8.7764833"><ele>287.0</ele><time>2026-03-21T08:49:49.401Z</time></trkpt><trkpt lat="34.4209167" lon="8.7763317"><ele>287.0</ele><time>2026-03-21T08:49:50.401Z</time></trkpt><trkpt lat="34.4209317" lon="8.7761933"><ele>287.0</ele><time>2026-03-21T08:49:51.401Z</time></trkpt><trkpt lat="34.4209433" lon="8.776055"><ele>287.25</ele><time>2026-03-21T08:49:52.4Z</time></trkpt><trkpt lat="34.4209483" lon="8.7759083"><ele>287.5</ele><time>2026-03-21T08:49:53.402Z</time></trkpt><trkpt lat="34.4209617" lon="8.77576"><ele>287.75</ele><time>2026-03-21T08:49:54.401Z</time></trkpt><trkpt lat="34.4209683" lon="8.7756083"><ele>288.0</ele><time>2026-03-21T08:49:55.401Z</time></trkpt><trkpt lat="34.42097" lon="8.7754567"><ele>288.0</ele><time>2026-03-21T08:49:56.401Z</time></trkpt><trkpt lat="34.4209767" lon="8.7753133"><ele>288.0</ele><time>2026-03-21T08:49:57.401Z</time></trkpt><trkpt lat="34.42098" lon="8.775165"><ele>288.0</ele><time>2026-03-21T08:49:58.401Z</time></trkpt><trkpt lat="34.420995" lon="8.7750183"><ele>288.0</ele><time>2026-03-21T08:49:59.401Z</time></trkpt><trkpt lat="34.421005" lon="8.7748733"><ele>288.25</ele><time>2026-03-21T08:50:00.402Z</time></trkpt><trkpt lat="34.42101" lon="8.7747333"><ele>288.5</ele><time>2026-03-21T08:50:01.401Z</time></trkpt><trkpt lat="34.4210133" lon="8.77459"><ele>288.75</ele><time>2026-03-21T08:50:02.403Z</time></trkpt><trkpt lat="34.421025" lon="8.7744483"><ele>289.0</ele><time>2026-03-21T08:50:03.401Z</time></trkpt><trkpt lat="34.4210317" lon="8.774305"><ele>289.0</ele><time>2026-03-21T08:50:04.401Z</time></trkpt><trkpt lat="34.42104" lon="8.7741667"><ele>289.0</ele><time>2026-03-21T08:50:05.401Z</time></trkpt><trkpt lat="34.421045" lon="8.774025"><ele>289.0</ele><time>2026-03-21T08:50:06.402Z</time></trkpt><trkpt lat="34.4210483" lon="8.7738867"><ele>289.0</ele><time>2026-03-21T08:50:07.401Z</time></trkpt><trkpt lat="34.4210517" lon="8.7737483"><ele>289.0</ele><time>2026-03-21T08:50:08.402Z</time></trkpt><trkpt lat="34.4210567" lon="8.7736133"><ele>289.0</ele><time>2026-03-21T08:50:09.4Z</time></trkpt><trkpt lat="34.4210633" lon="8.7734783"><ele>289.0</ele><time>2026-03-21T08:50:10.4Z</time></trkpt><trkpt lat="34.4210767" lon="8.77334"><ele>289.0</ele><time>2026-03-21T08:50:11.401Z</time></trkpt><trkpt lat="34.421085" lon="8.7731967"><ele>288.0</ele><time>2026-03-21T08:50:12.402Z</time></trkpt><trkpt lat="34.4210917" lon="8.77306"><ele>287.0</ele><time>2026-03-21T08:50:13.401Z</time></trkpt><trkpt lat="34.421095" lon="8.7729167"><ele>286.0</ele><time>2026-03-21T08:50:14.402Z</time></trkpt><trkpt lat="34.4211067" lon="8.7727733"><ele>285.0</ele><time>2026-03-21T08:50:15.402Z</time></trkpt><trkpt lat="34.42112" lon="8.7726317"><ele>284.75</ele><time>2026-03-21T08:50:16.402Z</time></trkpt><trkpt lat="34.4211317" lon="8.7724917"><ele>284.5</ele><time>2026-03-21T08:50:17.401Z</time></trkpt><trkpt lat="34.4211383" lon="8.7723567"><ele>284.25</ele><time>2026-03-21T08:50:18.402Z</time></trkpt><trkpt lat="34.421145" lon="8.7722183"><ele>284.0</ele><time>2026-03-21T08:50:19.401Z</time></trkpt><trkpt lat="34.42115" lon="8.77208"><ele>284.0</ele><time>2026-03-21T08:50:20.402Z</time></trkpt><trkpt lat="34.4211567" lon="8.7719383"><ele>284.0</ele><time>2026-03-21T08:50:21.401Z</time></trkpt><trkpt lat="34.4211633" lon="8.7717983"><ele>284.0</ele><time>2026-03-21T08:50:22.401Z</time></trkpt><trkpt lat="34.4211717" lon="8.7716517"><ele>284.0</ele><time>2026-03-21T08:50:23.401Z</time></trkpt><trkpt lat="34.4211817" lon="8.7715167"><ele>284.0</ele><time>2026-03-21T08:50:24.402Z</time></trkpt><trkpt lat="34.4211967" lon="8.7713917"><ele>284.0</ele><time>2026-03-21T08:50:25.401Z</time></trkpt><trkpt lat="34.4212083" lon="8.7712833"><ele>284.0</ele><time>2026-03-21T08:50:26.403Z</time></trkpt><trkpt lat="34.421225" lon="8.77119"><ele>284.0</ele><time>2026-03-21T08:50:27.401Z</time></trkpt><trkpt lat="34.4212433" lon="8.7711133"><ele>284.0</ele><time>2026-03-21T08:50:28.401Z</time></trkpt><trkpt lat="34.42131" lon="8.7710133"><ele>284.0</ele><time>2026-03-21T08:50:30.401Z</time></trkpt><trkpt lat="34.42141" lon="8.770935"><ele>283.5</ele><time>2026-03-21T08:50:32.401Z</time></trkpt><trkpt lat="34.4214533" lon="8.7708767"><ele>283.0</ele><time>2026-03-21T08:50:33.401Z</time></trkpt><trkpt lat="34.4214883" lon="8.770805"><ele>282.5</ele><time>2026-03-21T08:50:34.403Z</time></trkpt><trkpt lat="34.4215" lon="8.770645"><ele>282.0</ele><time>2026-03-21T08:50:36.402Z</time></trkpt><trkpt lat="34.4214967" lon="8.7705483"><ele>281.5</ele><time>2026-03-21T08:50:37.402Z</time></trkpt><trkpt lat="34.42149" lon="8.7704383"><ele>281.0</ele><time>2026-03-21T08:50:38.401Z</time></trkpt><trkpt lat="34.4214933" lon="8.7703217"><ele>281.0</ele><time>2026-03-21T08:50:39.402Z</time></trkpt><trkpt lat="34.4215117" lon="8.770195"><ele>281.0</ele><time>2026-03-21T08:50:40.401Z</time></trkpt><trkpt lat="34.4215433" lon="8.7700617"><ele>281.0</ele><time>2026-03-21T08:50:41.401Z</time></trkpt><trkpt lat="34.42158" lon="8.7699283"><ele>281.0</ele><time>2026-03-21T08:50:42.402Z</time></trkpt><trkpt lat="34.4216133" lon="8.76979"><ele>282.0</ele><time>2026-03-21T08:50:43.401Z</time></trkpt><trkpt lat="34.421645" lon="8.7696483"><ele>283.0</ele><time>2026-03-21T08:50:44.401Z</time></trkpt><trkpt lat="34.4216817" lon="8.7695033"><ele>284.0</ele><time>2026-03-21T08:50:45.401Z</time></trkpt><trkpt lat="34.4217217" lon="8.7693533"><ele>285.0</ele><time>2026-03-21T08:50:46.401Z</time></trkpt><trkpt lat="34.4217617" lon="8.7692017"><ele>285.0</ele><time>2026-03-21T08:50:47.402Z</time></trkpt><trkpt lat="34.4217983" lon="8.7690533"><ele>285.0</ele><time>2026-03-21T08:50:48.401Z</time></trkpt><trkpt lat="34.4218367" lon="8.7689017"><ele>285.0</ele><time>2026-03-21T08:50:49.401Z</time></trkpt><trkpt lat="34.4218767" lon="8.768755"><ele>285.0</ele><time>2026-03-21T08:50:50.402Z</time></trkpt><trkpt lat="34.4219117" lon="8.768615"><ele>284.6</ele><time>2026-03-21T08:50:51.401Z</time></trkpt><trkpt lat="34.421945" lon="8.76849"><ele>284.2</ele><time>2026-03-21T08:50:52.402Z</time></trkpt><trkpt lat="34.4219717" lon="8.7683767"><ele>283.8</ele><time>2026-03-21T08:50:53.401Z</time></trkpt><trkpt lat="34.422" lon="8.768265"><ele>283.4</ele><time>2026-03-21T08:50:54.402Z</time></trkpt><trkpt lat="34.4220333" lon="8.768145"><ele>283.0</ele><time>2026-03-21T08:50:55.401Z</time></trkpt><trkpt lat="34.4220617" lon="8.7680167"><ele>283.0</ele><time>2026-03-21T08:50:56.403Z</time></trkpt><trkpt lat="34.4220917" lon="8.7678867"><ele>283.0</ele><time>2026-03-21T08:50:57.402Z</time></trkpt><trkpt lat="34.4221233" lon="8.7677617"><ele>283.0</ele><time>2026-03-21T08:50:58.401Z</time></trkpt><trkpt lat="34.4221567" lon="8.7676367"><ele>283.0</ele><time>2026-03-21T08:50:59.402Z</time></trkpt><trkpt lat="34.4221833" lon="8.76751"><ele>283.0</ele><time>2026-03-21T08:51:00.401Z</time></trkpt><trkpt lat="34.42221" lon="8.7673817"><ele>283.0</ele><time>2026-03-21T08:51:01.402Z</time></trkpt><trkpt lat="34.422235" lon="8.7672483"><ele>283.0</ele><time>2026-03-21T08:51:02.401Z</time></trkpt><trkpt lat="34.42226" lon="8.7671183"><ele>283.0</ele><time>2026-03-21T08:51:03.402Z</time></trkpt><trkpt lat="34.4222833" lon="8.7670033"><ele>283.0</ele><time>2026-03-21T08:51:04.402Z</time></trkpt><trkpt lat="34.4223067" lon="8.7668983"><ele>283.0</ele><time>2026-03-21T08:51:05.402Z</time></trkpt><trkpt lat="34.4223283" lon="8.7667833"><ele>283.0</ele><time>2026-03-21T08:51:06.401Z</time></trkpt><trkpt lat="34.4223533" lon="8.7666583"><ele>283.0</ele><time>2026-03-21T08:51:07.402Z</time></trkpt><trkpt lat="34.4223767" lon="8.76652"><ele>283.0</ele><time>2026-03-21T08:51:08.401Z</time></trkpt><trkpt lat="34.4223983" lon="8.766375"><ele>283.0</ele><time>2026-03-21T08:51:09.401Z</time></trkpt><trkpt lat="34.4224233" lon="8.7662283"><ele>283.0</ele><time>2026-03-21T08:51:10.401Z</time></trkpt><trkpt lat="34.4224417" lon="8.766105"><ele>283.0</ele><time>2026-03-21T08:51:11.401Z</time></trkpt><trkpt lat="34.4224667" lon="8.76598"><ele>283.0</ele><time>2026-03-21T08:51:12.402Z</time></trkpt><trkpt lat="34.4224917" lon="8.76586"><ele>283.0</ele><time>2026-03-21T08:51:13.401Z</time></trkpt><trkpt lat="34.42251" lon="8.76574"><ele>283.0</ele><time>2026-03-21T08:51:14.402Z</time></trkpt><trkpt lat="34.4225367" lon="8.7656117"><ele>283.0</ele><time>2026-03-21T08:51:15.401Z</time></trkpt><trkpt lat="34.4225617" lon="8.7654867"><ele>283.0</ele><time>2026-03-21T08:51:16.401Z</time></trkpt><trkpt lat="34.4225917" lon="8.76536"><ele>283.0</ele><time>2026-03-21T08:51:17.401Z</time></trkpt><trkpt lat="34.4226167" lon="8.7652267"><ele>283.0</ele><time>2026-03-21T08:51:18.402Z</time></trkpt><trkpt lat="34.422645" lon="8.7650933"><ele>283.0</ele><time>2026-03-21T08:51:19.403Z</time></trkpt><trkpt lat="34.42267" lon="8.7649633"><ele>283.0</ele><time>2026-03-21T08:51:20.401Z</time></trkpt><trkpt lat="34.4226933" lon="8.7648383"><ele>283.0</ele><time>2026-03-21T08:51:21.401Z</time></trkpt><trkpt lat="34.4227133" lon="8.76472"><ele>283.0</ele><time>2026-03-21T08:51:22.401Z</time></trkpt><trkpt lat="34.4227317" lon="8.7646067"><ele>283.0</ele><time>2026-03-21T08:51:23.403Z</time></trkpt><trkpt lat="34.4227517" lon="8.7644967"><ele>283.0</ele><time>2026-03-21T08:51:24.401Z</time></trkpt><trkpt lat="34.4227683" lon="8.764385"><ele>282.8</ele><time>2026-03-21T08:51:25.401Z</time></trkpt><trkpt lat="34.422785" lon="8.7642783"><ele>282.6</ele><time>2026-03-21T08:51:26.402Z</time></trkpt><trkpt lat="34.4227983" lon="8.7641667"><ele>282.4</ele><time>2026-03-21T08:51:27.401Z</time></trkpt><trkpt lat="34.42282" lon="8.7640483"><ele>282.2</ele><time>2026-03-21T08:51:28.401Z</time></trkpt><trkpt lat="34.4228383" lon="8.7639317"><ele>282.0</ele><time>2026-03-21T08:51:29.401Z</time></trkpt><trkpt lat="34.42286" lon="8.7638133"><ele>282.0</ele><time>2026-03-21T08:51:30.401Z</time></trkpt><trkpt lat="34.4228783" lon="8.7636967"><ele>282.0</ele><time>2026-03-21T08:51:31.402Z</time></trkpt><trkpt lat="34.4228983" lon="8.7635867"><ele>282.0</ele><time>2026-03-21T08:51:32.401Z</time></trkpt><trkpt lat="34.4229133" lon="8.76348"><ele>282.0</ele><time>2026-03-21T08:51:33.402Z</time></trkpt><trkpt lat="34.4229383" lon="8.76337"><ele>282.0</ele><time>2026-03-21T08:51:34.401Z</time></trkpt><trkpt lat="34.422965" lon="8.76326"><ele>281.8</ele><time>2026-03-21T08:51:35.401Z</time></trkpt><trkpt lat="34.4229867" lon="8.7631533"><ele>281.6</ele><time>2026-03-21T08:51:36.401Z</time></trkpt><trkpt lat="34.4230083" lon="8.7630417"><ele>281.40000000000003</ele><time>2026-03-21T08:51:37.402Z</time></trkpt><trkpt lat="34.4230317" lon="8.7629283"><ele>281.2</ele><time>2026-03-21T08:51:38.402Z</time></trkpt><trkpt lat="34.4230567" lon="8.7628183"><ele>281.0</ele><time>2026-03-21T08:51:39.401Z</time></trkpt><trkpt lat="34.42309" lon="8.762705"><ele>281.0</ele><time>2026-03-21T08:51:40.402Z</time></trkpt><trkpt lat="34.4231217" lon="8.7625967"><ele>281.0</ele><time>2026-03-21T08:51:41.402Z</time></trkpt><trkpt lat="34.4231533" lon="8.76249"><ele>281.0</ele><time>2026-03-21T08:51:42.401Z</time></trkpt><trkpt lat="34.4231817" lon="8.7623817"><ele>281.0</ele><time>2026-03-21T08:51:43.403Z</time></trkpt><trkpt lat="34.4232167" lon="8.76228"><ele>281.0</ele><time>2026-03-21T08:51:44.402Z</time></trkpt><trkpt lat="34.423255" lon="8.7621867"><ele>281.0</ele><time>2026-03-21T08:51:45.401Z</time></trkpt><trkpt lat="34.4232983" lon="8.7620983"><ele>281.0</ele><time>2026-03-21T08:51:46.401Z</time></trkpt><trkpt lat="34.4233383" lon="8.7620183"><ele>281.0</ele><time>2026-03-21T08:51:47.403Z</time></trkpt><trkpt lat="34.4233733" lon="8.7619417"><ele>281.0</ele><time>2026-03-21T08:51:48.402Z</time></trkpt><trkpt lat="34.4233867" lon="8.7618667"><ele>281.0</ele><time>2026-03-21T08:51:49.402Z</time></trkpt><trkpt lat="34.423375" lon="8.7617233"><ele>281.0</ele><time>2026-03-21T08:51:51.401Z</time></trkpt><trkpt lat="34.4233133" lon="8.761625"><ele>281.2</ele><time>2026-03-21T08:51:53.403Z</time></trkpt><trkpt lat="34.4232383" lon="8.7615233"><ele>281.40000000000003</ele><time>2026-03-21T08:51:55.401Z</time></trkpt><trkpt lat="34.4231783" lon="8.7613817"><ele>281.6</ele><time>2026-03-21T08:51:57.401Z</time></trkpt><trkpt lat="34.4231667" lon="8.7612783"><ele>281.8</ele><time>2026-03-21T08:51:58.402Z</time></trkpt><trkpt lat="34.4231583" lon="8.7611533"><ele>282.0</ele><time>2026-03-21T08:51:59.402Z</time></trkpt><trkpt lat="34.42316" lon="8.7610067"><ele>281.25</ele><time>2026-03-21T08:52:00.403Z</time></trkpt><trkpt lat="34.423175" lon="8.7608333"><ele>280.5</ele><time>2026-03-21T08:52:01.404Z</time></trkpt><trkpt lat="34.4231833" lon="8.76068"><ele>279.75</ele><time>2026-03-21T08:52:02.405Z</time></trkpt><trkpt lat="34.42319" lon="8.7605283"><ele>279.0</ele><time>2026-03-21T08:52:03.402Z</time></trkpt><trkpt lat="34.4231933" lon="8.76038"><ele>279.0</ele><time>2026-03-21T08:52:04.403Z</time></trkpt><trkpt lat="34.4231983" lon="8.7602283"><ele>279.0</ele><time>2026-03-21T08:52:05.404Z</time></trkpt><trkpt lat="34.4232017" lon="8.76008"><ele>279.0</ele><time>2026-03-21T08:52:06.404Z</time></trkpt><trkpt lat="34.4232083" lon="8.759935"><ele>279.0</ele><time>2026-03-21T08:52:07.402Z</time></trkpt><trkpt lat="34.423215" lon="8.759795"><ele>278.75</ele><time>2026-03-21T08:52:08.404Z</time></trkpt><trkpt lat="34.4232183" lon="8.7596517"><ele>278.5</ele><time>2026-03-21T08:52:09.402Z</time></trkpt><trkpt lat="34.4232183" lon="8.7595083"><ele>278.25</ele><time>2026-03-21T08:52:10.403Z</time></trkpt><trkpt lat="34.4232183" lon="8.7593617"><ele>278.0</ele><time>2026-03-21T08:52:11.403Z</time></trkpt><trkpt lat="34.423215" lon="8.7592083"><ele>277.75</ele><time>2026-03-21T08:52:12.402Z</time></trkpt><trkpt lat="34.4232133" lon="8.7590517"><ele>277.5</ele><time>2026-03-21T08:52:13.402Z</time></trkpt><trkpt lat="34.42321" lon="8.7588983"><ele>277.25</ele><time>2026-03-21T08:52:14.406Z</time></trkpt><trkpt lat="34.423215" lon="8.7587483"><ele>277.0</ele><time>2026-03-21T08:52:15.402Z</time></trkpt><trkpt lat="34.4232167" lon="8.758595"><ele>276.75</ele><time>2026-03-21T08:52:16.402Z</time></trkpt><trkpt lat="34.4232167" lon="8.75844"><ele>276.5</ele><time>2026-03-21T08:52:17.403Z</time></trkpt><trkpt lat="34.42322" lon="8.7582833"><ele>276.25</ele><time>2026-03-21T08:52:18.403Z</time></trkpt><trkpt lat="34.4232183" lon="8.7581283"><ele>276.0</ele><time>2026-03-21T08:52:19.403Z</time></trkpt><trkpt lat="34.4232183" lon="8.7579767"><ele>276.0</ele><time>2026-03-21T08:52:20.404Z</time></trkpt><trkpt lat="34.4232183" lon="8.7578267"><ele>276.0</ele><time>2026-03-21T08:52:21.402Z</time></trkpt><trkpt lat="34.4232167" lon="8.7576767"><ele>276.0</ele><time>2026-03-21T08:52:22.402Z</time></trkpt><trkpt lat="34.42321" lon="8.7575267"><ele>276.0</ele><time>2026-03-21T08:52:23.403Z</time></trkpt><trkpt lat="34.4232067" lon="8.75738"><ele>275.8</ele><time>2026-03-21T08:52:24.403Z</time></trkpt><trkpt lat="34.4232033" lon="8.7572383"><ele>275.6</ele><time>2026-03-21T08:52:25.402Z</time></trkpt><trkpt lat="34.4232" lon="8.7571017"><ele>275.4</ele><time>2026-03-21T08:52:26.403Z</time></trkpt><trkpt lat="34.4231967" lon="8.7569733"><ele>275.2</ele><time>2026-03-21T08:52:27.402Z</time></trkpt><trkpt lat="34.42319" lon="8.756845"><ele>275.0</ele><time>2026-03-21T08:52:28.402Z</time></trkpt><trkpt lat="34.4231833" lon="8.7567217"><ele>274.6666666666667</ele><time>2026-03-21T08:52:29.403Z</time></trkpt><trkpt lat="34.42318" lon="8.7566"><ele>274.33333333333337</ele><time>2026-03-21T08:52:30.402Z</time></trkpt><trkpt lat="34.4231817" lon="8.7564883"><ele>274.0</ele><time>2026-03-21T08:52:31.402Z</time></trkpt><trkpt lat="34.4231867" lon="8.756385"><ele>273.6666666666667</ele><time>2026-03-21T08:52:32.404Z</time></trkpt><trkpt lat="34.42319" lon="8.756285"><ele>273.3333333333333</ele><time>2026-03-21T08:52:33.402Z</time></trkpt><trkpt lat="34.4232017" lon="8.7561933"><ele>273.0</ele><time>2026-03-21T08:52:34.403Z</time></trkpt><trkpt lat="34.4232117" lon="8.756105"><ele>273.0</ele><time>2026-03-21T08:52:35.403Z</time></trkpt><trkpt lat="34.423215" lon="8.7559683"><ele>273.0</ele><time>2026-03-21T08:52:37.402Z</time></trkpt><trkpt lat="34.42317" lon="8.7558883"><ele>273.0</ele><time>2026-03-21T08:52:39.402Z</time></trkpt><trkpt lat="34.4231" lon="8.7558833"><ele>273.0</ele><time>2026-03-21T08:52:41.402Z</time></trkpt><trkpt lat="34.423055" lon="8.7559683"><ele>273.0</ele><time>2026-03-21T08:52:43.402Z</time></trkpt><trkpt lat="34.4230467" lon="8.756095"><ele>273.0</ele><time>2026-03-21T08:52:45.402Z</time></trkpt><trkpt lat="34.4230567" lon="8.7562"><ele>273.0</ele><time>2026-03-21T08:52:46.403Z</time></trkpt><trkpt lat="34.4230667" lon="8.7563367"><ele>273.0</ele><time>2026-03-21T08:52:47.403Z</time></trkpt><trkpt lat="34.4230783" lon="8.7565067"><ele>273.0</ele><time>2026-03-21T08:52:48.404Z</time></trkpt><trkpt lat="34.4230833" lon="8.7566767"><ele>273.0</ele><time>2026-03-21T08:52:49.402Z</time></trkpt><trkpt lat="34.4230833" lon="8.756845"><ele>273.0</ele><time>2026-03-21T08:52:50.402Z</time></trkpt><trkpt lat="34.4230883" lon="8.7570033"><ele>273.0</ele><time>2026-03-21T08:52:51.402Z</time></trkpt><trkpt lat="34.4230933" lon="8.7571567"><ele>273.0</ele><time>2026-03-21T08:52:52.401Z</time></trkpt><trkpt lat="34.4230967" lon="8.7573083"><ele>273.5</ele><time>2026-03-21T08:52:53.402Z</time></trkpt><trkpt lat="34.423095" lon="8.7574683"><ele>274.0</ele><time>2026-03-21T08:52:54.402Z</time></trkpt><trkpt lat="34.423095" lon="8.7576467"><ele>274.5</ele><time>2026-03-21T08:52:55.401Z</time></trkpt><trkpt lat="34.4231" lon="8.7578433"><ele>275.0</ele><time>2026-03-21T08:52:56.403Z</time></trkpt><trkpt lat="34.4231033" lon="8.7580333"><ele>275.25</ele><time>2026-03-21T08:52:57.4Z</time></trkpt><trkpt lat="34.4231017" lon="8.7582133"><ele>275.5</ele><time>2026-03-21T08:52:58.403Z</time></trkpt><trkpt lat="34.4231033" lon="8.7583933"><ele>275.75</ele><time>2026-03-21T08:52:59.401Z</time></trkpt><trkpt lat="34.4231083" lon="8.7585633"><ele>276.0</ele><time>2026-03-21T08:53:00.401Z</time></trkpt><trkpt lat="34.4231183" lon="8.7587333"><ele>276.25</ele><time>2026-03-21T08:53:01.401Z</time></trkpt><trkpt lat="34.4231217" lon="8.7589067"><ele>276.5</ele><time>2026-03-21T08:53:02.402Z</time></trkpt><trkpt lat="34.4231267" lon="8.75908"><ele>276.75</ele><time>2026-03-21T08:53:03.401Z</time></trkpt><trkpt lat="34.4231283" lon="8.7592583"><ele>277.0</ele><time>2026-03-21T08:53:04.401Z</time></trkpt><trkpt lat="34.4231233" lon="8.7594417"><ele>277.25</ele><time>2026-03-21T08:53:05.402Z</time></trkpt><trkpt lat="34.4231183" lon="8.759615"><ele>277.5</ele><time>2026-03-21T08:53:06.401Z</time></trkpt><trkpt lat="34.4231133" lon="8.75979"><ele>277.75</ele><time>2026-03-21T08:53:07.402Z</time></trkpt><trkpt lat="34.4231083" lon="8.759965"><ele>278.0</ele><time>2026-03-21T08:53:08.403Z</time></trkpt><trkpt lat="34.423105" lon="8.760145"><ele>278.25</ele><time>2026-03-21T08:53:09.401Z</time></trkpt><trkpt lat="34.4230967" lon="8.760325"><ele>278.5</ele><time>2026-03-21T08:53:10.401Z</time></trkpt><trkpt lat="34.4230867" lon="8.7604967"><ele>278.75</ele><time>2026-03-21T08:53:11.402Z</time></trkpt><trkpt lat="34.4230783" lon="8.76066"><ele>279.0</ele><time>2026-03-21T08:53:12.402Z</time></trkpt><trkpt lat="34.4230667" lon="8.7608217"><ele>279.0</ele><time>2026-03-21T08:53:13.402Z</time></trkpt><trkpt lat="34.4230567" lon="8.7609783"><ele>279.0</ele><time>2026-03-21T08:53:14.4Z</time></trkpt><trkpt lat="34.4230483" lon="8.761125"><ele>279.0</ele><time>2026-03-21T08:53:15.401Z</time></trkpt><trkpt lat="34.4230433" lon="8.7612583"><ele>279.0</ele><time>2026-03-21T08:53:16.401Z</time></trkpt><trkpt lat="34.42304" lon="8.7613833"><ele>279.3333333333333</ele><time>2026-03-21T08:53:17.401Z</time></trkpt><trkpt lat="34.4230417" lon="8.7614983"><ele>279.6666666666667</ele><time>2026-03-21T08:53:18.401Z</time></trkpt><trkpt lat="34.42304" lon="8.761595"><ele>280.0</ele><time>2026-03-21T08:53:19.401Z</time></trkpt><trkpt lat="34.4230383" lon="8.7616733"><ele>280.33333333333337</ele><time>2026-03-21T08:53:20.402Z</time></trkpt><trkpt lat="34.42303" lon="8.761775"><ele>280.6666666666667</ele><time>2026-03-21T08:53:22.402Z</time></trkpt><trkpt lat="34.423005" lon="8.761885"><ele>281.0</ele><time>2026-03-21T08:53:24.403Z</time></trkpt><trkpt lat="34.4229967" lon="8.7619617"><ele>281.0</ele><time>2026-03-21T08:53:25.401Z</time></trkpt><trkpt lat="34.42299" lon="8.7620533"><ele>281.0</ele><time>2026-03-21T08:53:26.403Z</time></trkpt><trkpt lat="34.4229833" lon="8.76216"><ele>281.0</ele><time>2026-03-21T08:53:27.402Z</time></trkpt><trkpt lat="34.4229783" lon="8.7622833"><ele>281.0</ele><time>2026-03-21T08:53:28.402Z</time></trkpt><trkpt lat="34.42297" lon="8.7624183"><ele>281.0</ele><time>2026-03-21T08:53:29.402Z</time></trkpt><trkpt lat="34.4229333" lon="8.7626167"><ele>280.75</ele><time>2026-03-21T08:53:30.403Z</time></trkpt><trkpt lat="34.422905" lon="8.7627833"><ele>280.5</ele><time>2026-03-21T08:53:31.401Z</time></trkpt><trkpt lat="34.4228767" lon="8.7629467"><ele>280.25</ele><time>2026-03-21T08:53:32.402Z</time></trkpt><trkpt lat="34.4228517" lon="8.7631083"><ele>280.0</ele><time>2026-03-21T08:53:33.401Z</time></trkpt><trkpt lat="34.422825" lon="8.763265"><ele>280.0</ele><time>2026-03-21T08:53:34.401Z</time></trkpt><trkpt lat="34.4228017" lon="8.7634317"><ele>280.0</ele><time>2026-03-21T08:53:35.402Z</time></trkpt><trkpt lat="34.42278" lon="8.7635933"><ele>280.0</ele><time>2026-03-21T08:53:36.401Z</time></trkpt><trkpt lat="34.42276" lon="8.7637517"><ele>280.0</ele><time>2026-03-21T08:53:37.401Z</time></trkpt><trkpt lat="34.42274" lon="8.7639"><ele>280.5</ele><time>2026-03-21T08:53:38.403Z</time></trkpt><trkpt lat="34.4227233" lon="8.76404"><ele>281.0</ele><time>2026-03-21T08:53:39.401Z</time></trkpt><trkpt lat="34.4227" lon="8.7641733"><ele>281.5</ele><time>2026-03-21T08:53:40.401Z</time></trkpt><trkpt lat="34.422675" lon="8.7643117"><ele>282.0</ele><time>2026-03-21T08:53:41.403Z</time></trkpt><trkpt lat="34.4226483" lon="8.764455"><ele>282.25</ele><time>2026-03-21T08:53:42.402Z</time></trkpt><trkpt lat="34.4226233" lon="8.7645917"><ele>282.5</ele><time>2026-03-21T08:53:43.403Z</time></trkpt><trkpt lat="34.4225967" lon="8.7647333"><ele>282.75</ele><time>2026-03-21T08:53:44.402Z</time></trkpt><trkpt lat="34.422575" lon="8.764865"><ele>283.0</ele><time>2026-03-21T08:53:45.403Z</time></trkpt><trkpt lat="34.4225533" lon="8.764995"><ele>283.0</ele><time>2026-03-21T08:53:46.401Z</time></trkpt><trkpt lat="34.4225333" lon="8.7651233"><ele>283.0</ele><time>2026-03-21T08:53:47.401Z</time></trkpt><trkpt lat="34.42251" lon="8.7652567"><ele>283.0</ele><time>2026-03-21T08:53:48.402Z</time></trkpt><trkpt lat="34.4224867" lon="8.7654033"><ele>283.0</ele><time>2026-03-21T08:53:49.403Z</time></trkpt><trkpt lat="34.42246" lon="8.7655467"><ele>283.0</ele><time>2026-03-21T08:53:50.402Z</time></trkpt><trkpt lat="34.422435" lon="8.7656867"><ele>283.0</ele><time>2026-03-21T08:53:51.402Z</time></trkpt><trkpt lat="34.42241" lon="8.7658183"><ele>283.0</ele><time>2026-03-21T08:53:52.404Z</time></trkpt><trkpt lat="34.42239" lon="8.7659433"><ele>283.0</ele><time>2026-03-21T08:53:53.401Z</time></trkpt><trkpt lat="34.4223733" lon="8.7660683"><ele>283.0</ele><time>2026-03-21T08:53:54.402Z</time></trkpt><trkpt lat="34.4223533" lon="8.7661817"><ele>283.0</ele><time>2026-03-21T08:53:55.403Z</time></trkpt><trkpt lat="34.4223317" lon="8.76629"><ele>283.0</ele><time>2026-03-21T08:53:56.403Z</time></trkpt><trkpt lat="34.42231" lon="8.7664017"><ele>283.0</ele><time>2026-03-21T08:53:57.401Z</time></trkpt><trkpt lat="34.42229" lon="8.7665067"><ele>283.0</ele><time>2026-03-21T08:53:58.402Z</time></trkpt><trkpt lat="34.4222717" lon="8.76661"><ele>283.0</ele><time>2026-03-21T08:53:59.401Z</time></trkpt><trkpt lat="34.4222567" lon="8.7667083"><ele>283.0</ele><time>2026-03-21T08:54:00.401Z</time></trkpt><trkpt lat="34.42224" lon="8.76679"><ele>283.16666666666663</ele><time>2026-03-21T08:54:01.401Z</time></trkpt><trkpt lat="34.42222" lon="8.7669183"><ele>283.3333333333333</ele><time>2026-03-21T08:54:03.402Z</time></trkpt><trkpt lat="34.422205" lon="8.7669933"><ele>283.5</ele><time>2026-03-21T08:54:05.402Z</time></trkpt><trkpt lat="34.4222833" lon="8.76698"><ele>283.6666666666667</ele><time>2026-03-21T08:54:13.402Z</time></trkpt><trkpt lat="34.4223683" lon="8.76699"><ele>283.83333333333337</ele><time>2026-03-21T08:54:15.401Z</time></trkpt><trkpt lat="34.42245" lon="8.7669967"><ele>284.0</ele><time>2026-03-21T08:54:17.401Z</time></trkpt><trkpt lat="34.4225283" lon="8.7669467"><ele>284.0</ele><time>2026-03-21T08:54:21.402Z</time></trkpt><trkpt lat="34.4225767" lon="8.7668633"><ele>284.0</ele><time>2026-03-21T08:54:24.403Z</time></trkpt><trkpt lat="34.42251" lon="8.7667667"><ele>284.0</ele><time>2026-03-21T08:57:55.401Z</time></trkpt><trkpt lat="34.4224433" lon="8.76671"><ele>284.0</ele><time>2026-03-21T08:57:58.4Z</time></trkpt><trkpt lat="34.4223933" lon="8.7666517"><ele>284.0</ele><time>2026-03-21T08:58:05.402Z</time></trkpt><trkpt lat="34.422365" lon="8.7665717"><ele>284.0</ele><time>2026-03-21T08:58:25.401Z</time></trkpt><trkpt lat="34.4223833" lon="8.7664867"><ele>283.83333333333337</ele><time>2026-03-21T08:58:27.401Z</time></trkpt><trkpt lat="34.42241" lon="8.7663667"><ele>283.6666666666667</ele><time>2026-03-21T08:58:29.401Z</time></trkpt><trkpt lat="34.4224317" lon="8.7662867"><ele>283.5</ele><time>2026-03-21T08:58:30.401Z</time></trkpt><trkpt lat="34.4224583" lon="8.766195"><ele>283.3333333333333</ele><time>2026-03-21T08:58:31.401Z</time></trkpt><trkpt lat="34.4224817" lon="8.766095"><ele>283.16666666666663</ele><time>2026-03-21T08:58:32.401Z</time></trkpt><trkpt lat="34.4225017" lon="8.7659867"><ele>283.0</ele><time>2026-03-21T08:58:33.401Z</time></trkpt><trkpt lat="34.4225233" lon="8.7658567"><ele>282.8</ele><time>2026-03-21T08:58:34.402Z</time></trkpt><trkpt lat="34.4225417" lon="8.765725"><ele>282.6</ele><time>2026-03-21T08:58:35.401Z</time></trkpt><trkpt lat="34.4225633" lon="8.7655967"><ele>282.4</ele><time>2026-03-21T08:58:36.4Z</time></trkpt><trkpt lat="34.4225867" lon="8.7654683"><ele>282.2</ele><time>2026-03-21T08:58:37.401Z</time></trkpt><trkpt lat="34.4226083" lon="8.7653333"><ele>282.0</ele><time>2026-03-21T08:58:38.402Z</time></trkpt><trkpt lat="34.4226317" lon="8.7651983"><ele>282.2</ele><time>2026-03-21T08:58:39.401Z</time></trkpt><trkpt lat="34.4226517" lon="8.7650683"><ele>282.4</ele><time>2026-03-21T08:58:40.404Z</time></trkpt><trkpt lat="34.422675" lon="8.764945"><ele>282.6</ele><time>2026-03-21T08:58:41.401Z</time></trkpt><trkpt lat="34.4226967" lon="8.7648183"><ele>282.8</ele><time>2026-03-21T08:58:42.401Z</time></trkpt><trkpt lat="34.4227183" lon="8.764695"><ele>283.0</ele><time>2026-03-21T08:58:43.402Z</time></trkpt><trkpt lat="34.4227383" lon="8.7645733"><ele>283.0</ele><time>2026-03-21T08:58:44.402Z</time></trkpt><trkpt lat="34.4227583" lon="8.7644583"><ele>283.0</ele><time>2026-03-21T08:58:45.401Z</time></trkpt><trkpt lat="34.4227767" lon="8.764345"><ele>283.0</ele><time>2026-03-21T08:58:46.401Z</time></trkpt><trkpt lat="34.4227967" lon="8.764235"><ele>283.0</ele><time>2026-03-21T08:58:47.402Z</time></trkpt><trkpt lat="34.4228133" lon="8.7641217"><ele>283.0</ele><time>2026-03-21T08:58:48.402Z</time></trkpt><trkpt lat="34.4228333" lon="8.76401"><ele>282.8</ele><time>2026-03-21T08:58:49.401Z</time></trkpt><trkpt lat="34.422855" lon="8.7638983"><ele>282.6</ele><time>2026-03-21T08:58:50.401Z</time></trkpt><trkpt lat="34.4228717" lon="8.763785"><ele>282.4</ele><time>2026-03-21T08:58:51.402Z</time></trkpt><trkpt lat="34.4228917" lon="8.7636683"><ele>282.2</ele><time>2026-03-21T08:58:52.401Z</time></trkpt><trkpt lat="34.4229117" lon="8.7635517"><ele>282.0</ele><time>2026-03-21T08:58:53.402Z</time></trkpt><trkpt lat="34.42293" lon="8.76344"><ele>281.8</ele><time>2026-03-21T08:58:54.401Z</time></trkpt><trkpt lat="34.422955" lon="8.76333"><ele>281.6</ele><time>2026-03-21T08:58:55.401Z</time></trkpt><trkpt lat="34.4229783" lon="8.7632167"><ele>281.40000000000003</ele><time>2026-03-21T08:58:56.401Z</time></trkpt><trkpt lat="34.4230017" lon="8.7631067"><ele>281.2</ele><time>2026-03-21T08:58:57.401Z</time></trkpt><trkpt lat="34.4230267" lon="8.762995"><ele>281.0</ele><time>2026-03-21T08:58:58.4Z</time></trkpt><trkpt lat="34.42305" lon="8.7628833"><ele>281.0</ele><time>2026-03-21T08:58:59.403Z</time></trkpt><trkpt lat="34.4230783" lon="8.7627683"><ele>281.0</ele><time>2026-03-21T08:59:00.402Z</time></trkpt><trkpt lat="34.4231083" lon="8.7626583"><ele>281.0</ele><time>2026-03-21T08:59:01.401Z</time></trkpt><trkpt lat="34.4231417" lon="8.7625517"><ele>281.0</ele><time>2026-03-21T08:59:02.402Z</time></trkpt><trkpt lat="34.42317" lon="8.7624483"><ele>281.0</ele><time>2026-03-21T08:59:03.4Z</time></trkpt><trkpt lat="34.4232017" lon="8.76235"><ele>281.0</ele><time>2026-03-21T08:59:04.401Z</time></trkpt><trkpt lat="34.4232333" lon="8.7622533"><ele>281.0</ele><time>2026-03-21T08:59:05.402Z</time></trkpt><trkpt lat="34.4232683" lon="8.7621617"><ele>281.0</ele><time>2026-03-21T08:59:06.401Z</time></trkpt><trkpt lat="34.4233117" lon="8.7620783"><ele>281.0</ele><time>2026-03-21T08:59:07.401Z</time></trkpt><trkpt lat="34.4233517" lon="8.7619983"><ele>281.0</ele><time>2026-03-21T08:59:08.401Z</time></trkpt><trkpt lat="34.423385" lon="8.76193"><ele>281.0</ele><time>2026-03-21T08:59:09.401Z</time></trkpt><trkpt lat="34.423405" lon="8.7618167"><ele>281.2</ele><time>2026-03-21T08:59:11.401Z</time></trkpt><trkpt lat="34.4233867" lon="8.7617267"><ele>281.40000000000003</ele><time>2026-03-21T08:59:13.401Z</time></trkpt><trkpt lat="34.4233067" lon="8.7616483"><ele>281.6</ele><time>2026-03-21T08:59:15.401Z</time></trkpt><trkpt lat="34.423235" lon="8.7615517"><ele>281.8</ele><time>2026-03-21T08:59:17.402Z</time></trkpt><trkpt lat="34.4231833" lon="8.761415"><ele>282.0</ele><time>2026-03-21T08:59:19.401Z</time></trkpt><trkpt lat="34.423185" lon="8.7613083"><ele>282.0</ele><time>2026-03-21T08:59:20.401Z</time></trkpt><trkpt lat="34.4231883" lon="8.7611917"><ele>282.0</ele><time>2026-03-21T08:59:21.4Z</time></trkpt><trkpt lat="34.4231967" lon="8.76106"><ele>282.0</ele><time>2026-03-21T08:59:22.4Z</time></trkpt><trkpt lat="34.4232083" lon="8.7609333"><ele>282.0</ele><time>2026-03-21T08:59:23.401Z</time></trkpt><trkpt lat="34.423215" lon="8.7608067"><ele>282.0</ele><time>2026-03-21T08:59:24.401Z</time></trkpt><trkpt lat="34.42322" lon="8.7606683"><ele>281.25</ele><time>2026-03-21T08:59:25.401Z</time></trkpt><trkpt lat="34.42323" lon="8.7605317"><ele>280.5</ele><time>2026-03-21T08:59:26.402Z</time></trkpt><trkpt lat="34.423235" lon="8.7603817"><ele>279.75</ele><time>2026-03-21T08:59:27.4Z</time></trkpt><trkpt lat="34.4232433" lon="8.7602383"><ele>279.0</ele><time>2026-03-21T08:59:28.402Z</time></trkpt><trkpt lat="34.4232467" lon="8.7601033"><ele>278.8</ele><time>2026-03-21T08:59:29.401Z</time></trkpt><trkpt lat="34.4232467" lon="8.7599717"><ele>278.59999999999997</ele><time>2026-03-21T08:59:30.401Z</time></trkpt><trkpt lat="34.4232433" lon="8.7598383"><ele>278.4</ele><time>2026-03-21T08:59:31.401Z</time></trkpt><trkpt lat="34.4232367" lon="8.7597033"><ele>278.2</ele><time>2026-03-21T08:59:32.401Z</time></trkpt><trkpt lat="34.4232333" lon="8.7595617"><ele>278.0</ele><time>2026-03-21T08:59:33.4Z</time></trkpt><trkpt lat="34.4232317" lon="8.7594"><ele>277.6666666666667</ele><time>2026-03-21T08:59:34.402Z</time></trkpt><trkpt lat="34.42323" lon="8.7592217"><ele>277.3333333333333</ele><time>2026-03-21T08:59:35.402Z</time></trkpt><trkpt lat="34.4232283" lon="8.7590283"><ele>277.0</ele><time>2026-03-21T08:59:36.4Z</time></trkpt><trkpt lat="34.4232283" lon="8.7588317"><ele>277.0</ele><time>2026-03-21T08:59:37.401Z</time></trkpt><trkpt lat="34.4232233" lon="8.7586317"><ele>277.0</ele><time>2026-03-21T08:59:38.401Z</time></trkpt><trkpt lat="34.42322" lon="8.7584433"><ele>277.0</ele><time>2026-03-21T08:59:39.4Z</time></trkpt><trkpt lat="34.4232167" lon="8.7582583"><ele>276.75</ele><time>2026-03-21T08:59:40.401Z</time></trkpt><trkpt lat="34.4232133" lon="8.7580817"><ele>276.5</ele><time>2026-03-21T08:59:41.402Z</time></trkpt><trkpt lat="34.423215" lon="8.7579033"><ele>276.25</ele><time>2026-03-21T08:59:42.4Z</time></trkpt><trkpt lat="34.4232133" lon="8.75773"><ele>276.0</ele><time>2026-03-21T08:59:43.401Z</time></trkpt><trkpt lat="34.4232117" lon="8.7575633"><ele>275.75</ele><time>2026-03-21T08:59:44.402Z</time></trkpt><trkpt lat="34.4232083" lon="8.7574017"><ele>275.5</ele><time>2026-03-21T08:59:45.4Z</time></trkpt><trkpt lat="34.423205" lon="8.75724"><ele>275.25</ele><time>2026-03-21T08:59:46.401Z</time></trkpt><trkpt lat="34.423205" lon="8.7570867"><ele>275.0</ele><time>2026-03-21T08:59:47.402Z</time></trkpt><trkpt lat="34.4232067" lon="8.7569367"><ele>274.6</ele><time>2026-03-21T08:59:48.401Z</time></trkpt><trkpt lat="34.4232083" lon="8.756795"><ele>274.2</ele><time>2026-03-21T08:59:49.401Z</time></trkpt><trkpt lat="34.4232133" lon="8.7566633"><ele>273.8</ele><time>2026-03-21T08:59:50.401Z</time></trkpt><trkpt lat="34.4232133" lon="8.75654"><ele>273.4</ele><time>2026-03-21T08:59:51.401Z</time></trkpt><trkpt lat="34.4232083" lon="8.75643"><ele>273.0</ele><time>2026-03-21T08:59:52.4Z</time></trkpt><trkpt lat="34.4232067" lon="8.7563383"><ele>273.0</ele><time>2026-03-21T08:59:53.402Z</time></trkpt><trkpt lat="34.423205" lon="8.7562583"><ele>273.0</ele><time>2026-03-21T08:59:54.402Z</time></trkpt><trkpt lat="34.423205" lon="8.75618"><ele>273.0</ele><time>2026-03-21T08:59:55.401Z</time></trkpt><trkpt lat="34.4232133" lon="8.7561033"><ele>273.0</ele><time>2026-03-21T08:59:56.401Z</time></trkpt><trkpt lat="34.4232167" lon="8.756015"><ele>273.0</ele><time>2026-03-21T08:59:57.401Z</time></trkpt><trkpt lat="34.4232217" lon="8.75592"><ele>273.0</ele><time>2026-03-21T08:59:58.401Z</time></trkpt><trkpt lat="34.4232217" lon="8.75581"><ele>273.0</ele><time>2026-03-21T08:59:59.401Z</time></trkpt><trkpt lat="34.4232133" lon="8.7556783"><ele>272.5</ele><time>2026-03-21T09:00:00.401Z</time></trkpt><trkpt lat="34.423205" lon="8.7555283"><ele>272.0</ele><time>2026-03-21T09:00:01.401Z</time></trkpt><trkpt lat="34.4232" lon="8.755365"><ele>271.5</ele><time>2026-03-21T09:00:02.402Z</time></trkpt><trkpt lat="34.4231917" lon="8.755185"><ele>271.0</ele><time>2026-03-21T09:00:03.401Z</time></trkpt><trkpt lat="34.42319" lon="8.7550067"><ele>271.0</ele><time>2026-03-21T09:00:04.4Z</time></trkpt><trkpt lat="34.4231867" lon="8.7548217"><ele>271.0</ele><time>2026-03-21T09:00:05.402Z</time></trkpt><trkpt lat="34.423185" lon="8.7546383"><ele>271.0</ele><time>2026-03-21T09:00:06.401Z</time></trkpt><trkpt lat="34.42318" lon="8.754455"><ele>270.75</ele><time>2026-03-21T09:00:07.401Z</time></trkpt><trkpt lat="34.4231733" lon="8.754275"><ele>270.5</ele><time>2026-03-21T09:00:08.401Z</time></trkpt><trkpt lat="34.4231683" lon="8.754095"><ele>270.25</ele><time>2026-03-21T09:00:09.401Z</time></trkpt><trkpt lat="34.4231617" lon="8.75392"><ele>270.0</ele><time>2026-03-21T09:00:10.401Z</time></trkpt><trkpt lat="34.4231583" lon="8.7537367"><ele>270.0</ele><time>2026-03-21T09:00:11.401Z</time></trkpt><trkpt lat="34.423155" lon="8.7535467"><ele>270.0</ele><time>2026-03-21T09:00:12.401Z</time></trkpt><trkpt lat="34.4231517" lon="8.7533517"><ele>270.0</ele><time>2026-03-21T09:00:13.401Z</time></trkpt><trkpt lat="34.4231383" lon="8.7531583"><ele>269.3333333333333</ele><time>2026-03-21T09:00:14.402Z</time></trkpt><trkpt lat="34.4231317" lon="8.7529567"><ele>268.66666666666663</ele><time>2026-03-21T09:00:15.401Z</time></trkpt><trkpt lat="34.4231267" lon="8.7527517"><ele>268.0</ele><time>2026-03-21T09:00:16.402Z</time></trkpt><trkpt lat="34.4231183" lon="8.7525333"><ele>267.66666666666663</ele><time>2026-03-21T09:00:17.4Z</time></trkpt><trkpt lat="34.4231133" lon="8.75231"><ele>267.3333333333333</ele><time>2026-03-21T09:00:18.4Z</time></trkpt><trkpt lat="34.4231133" lon="8.75208"><ele>267.0</ele><time>2026-03-21T09:00:19.401Z</time></trkpt><trkpt lat="34.4231067" lon="8.7518633"><ele>267.0</ele><time>2026-03-21T09:00:20.401Z</time></trkpt><trkpt lat="34.4230983" lon="8.75166"><ele>267.0</ele><time>2026-03-21T09:00:21.401Z</time></trkpt><trkpt lat="34.4230933" lon="8.7514633"><ele>267.0</ele><time>2026-03-21T09:00:22.4Z</time></trkpt><trkpt lat="34.4230833" lon="8.751265"><ele>267.0</ele><time>2026-03-21T09:00:23.401Z</time></trkpt><trkpt lat="34.4230617" lon="8.7510583"><ele>267.0</ele><time>2026-03-21T09:00:24.402Z</time></trkpt><trkpt lat="34.42304" lon="8.75085"><ele>267.0</ele><time>2026-03-21T09:00:25.401Z</time></trkpt><trkpt lat="34.423015" lon="8.750645"><ele>266.6666666666667</ele><time>2026-03-21T09:00:26.402Z</time></trkpt><trkpt lat="34.4229867" lon="8.7504417"><ele>266.33333333333337</ele><time>2026-03-21T09:00:27.4Z</time></trkpt><trkpt lat="34.4229533" lon="8.7502417"><ele>266.0</ele><time>2026-03-21T09:00:28.4Z</time></trkpt><trkpt lat="34.4229183" lon="8.7500483"><ele>264.6666666666667</ele><time>2026-03-21T09:00:29.401Z</time></trkpt><trkpt lat="34.4228733" lon="8.749855"><ele>263.3333333333333</ele><time>2026-03-21T09:00:30.401Z</time></trkpt><trkpt lat="34.4228233" lon="8.7496667"><ele>262.0</ele><time>2026-03-21T09:00:31.401Z</time></trkpt><trkpt lat="34.4227667" lon="8.7494817"><ele>261.66666666666663</ele><time>2026-03-21T09:00:32.4Z</time></trkpt><trkpt lat="34.4226967" lon="8.7492933"><ele>261.3333333333333</ele><time>2026-03-21T09:00:33.401Z</time></trkpt><trkpt lat="34.4226267" lon="8.7491067"><ele>261.0</ele><time>2026-03-21T09:00:34.4Z</time></trkpt><trkpt lat="34.4225517" lon="8.7489217"><ele>261.0</ele><time>2026-03-21T09:00:35.4Z</time></trkpt><trkpt lat="34.422475" lon="8.7487333"><ele>261.0</ele><time>2026-03-21T09:00:36.401Z</time></trkpt><trkpt lat="34.4224" lon="8.748545"><ele>261.0</ele><time>2026-03-21T09:00:37.402Z</time></trkpt><trkpt lat="34.4223283" lon="8.7483567"><ele>261.0</ele><time>2026-03-21T09:00:38.401Z</time></trkpt><trkpt lat="34.4222533" lon="8.7481683"><ele>261.0</ele><time>2026-03-21T09:00:39.4Z</time></trkpt><trkpt lat="34.422175" lon="8.7479817"><ele>261.0</ele><time>2026-03-21T09:00:40.401Z</time></trkpt><trkpt lat="34.4220917" lon="8.747795"><ele>260.3333333333333</ele><time>2026-03-21T09:00:41.402Z</time></trkpt><trkpt lat="34.4220083" lon="8.7476183"><ele>259.66666666666663</ele><time>2026-03-21T09:00:42.402Z</time></trkpt><trkpt lat="34.4219217" lon="8.7474467"><ele>259.0</ele><time>2026-03-21T09:00:43.402Z</time></trkpt><trkpt lat="34.4218333" lon="8.74728"><ele>259.0</ele><time>2026-03-21T09:00:44.401Z</time></trkpt><trkpt lat="34.4217433" lon="8.74712"><ele>259.0</ele><time>2026-03-21T09:00:45.401Z</time></trkpt><trkpt lat="34.4216467" lon="8.7469633"><ele>259.0</ele><time>2026-03-21T09:00:46.402Z</time></trkpt><trkpt lat="34.421545" lon="8.7468067"><ele>258.66666666666663</ele><time>2026-03-21T09:00:47.4Z</time></trkpt><trkpt lat="34.4214367" lon="8.746645"><ele>258.3333333333333</ele><time>2026-03-21T09:00:48.4Z</time></trkpt><trkpt lat="34.421315" lon="8.74648"><ele>258.0</ele><time>2026-03-21T09:00:49.4Z</time></trkpt><trkpt lat="34.42118" lon="8.7463183"><ele>257.6666666666667</ele><time>2026-03-21T09:00:50.403Z</time></trkpt><trkpt lat="34.4210433" lon="8.7461617"><ele>257.33333333333337</ele><time>2026-03-21T09:00:51.4Z</time></trkpt><trkpt lat="34.4209033" lon="8.7460133"><ele>257.0</ele><time>2026-03-21T09:00:52.401Z</time></trkpt><trkpt lat="34.4207617" lon="8.745875"><ele>257.0</ele><time>2026-03-21T09:00:53.401Z</time></trkpt><trkpt lat="34.4206133" lon="8.74574"><ele>257.0</ele><time>2026-03-21T09:00:54.401Z</time></trkpt><trkpt lat="34.4204617" lon="8.745605"><ele>257.0</ele><time>2026-03-21T09:00:55.402Z</time></trkpt><trkpt lat="34.4203133" lon="8.7454717"><ele>256.6666666666667</ele><time>2026-03-21T09:00:56.402Z</time></trkpt><trkpt lat="34.42016" lon="8.7453383"><ele>256.3333333333333</ele><time>2026-03-21T09:00:57.403Z</time></trkpt><trkpt lat="34.4200033" lon="8.7452067"><ele>256.0</ele><time>2026-03-21T09:00:58.402Z</time></trkpt><trkpt lat="34.419845" lon="8.7450767"><ele>255.66666666666666</ele><time>2026-03-21T09:00:59.401Z</time></trkpt><trkpt lat="34.4196817" lon="8.744945"><ele>255.33333333333331</ele><time>2026-03-21T09:01:00.401Z</time></trkpt><trkpt lat="34.41952" lon="8.744815"><ele>255.0</ele><time>2026-03-21T09:01:01.402Z</time></trkpt><trkpt lat="34.419355" lon="8.74468"><ele>254.66666666666669</ele><time>2026-03-21T09:01:02.402Z</time></trkpt><trkpt lat="34.4191833" lon="8.7445417"><ele>254.33333333333334</ele><time>2026-03-21T09:01:03.401Z</time></trkpt><trkpt lat="34.419015" lon="8.7444"><ele>254.0</ele><time>2026-03-21T09:01:04.401Z</time></trkpt><trkpt lat="34.4188533" lon="8.7442617"><ele>253.66666666666669</ele><time>2026-03-21T09:01:05.4Z</time></trkpt><trkpt lat="34.4187" lon="8.7441367"><ele>253.33333333333331</ele><time>2026-03-21T09:01:06.401Z</time></trkpt><trkpt lat="34.4185517" lon="8.7440133"><ele>253.0</ele><time>2026-03-21T09:01:07.402Z</time></trkpt><trkpt lat="34.4184017" lon="8.743885"><ele>253.0</ele><time>2026-03-21T09:01:08.401Z</time></trkpt><trkpt lat="34.4182517" lon="8.7437533"><ele>253.0</ele><time>2026-03-21T09:01:09.401Z</time></trkpt><trkpt lat="34.4181" lon="8.74361"><ele>253.0</ele><time>2026-03-21T09:01:10.402Z</time></trkpt><trkpt lat="34.41794" lon="8.74346"><ele>253.33333333333331</ele><time>2026-03-21T09:01:11.402Z</time></trkpt><trkpt lat="34.4177783" lon="8.7433117"><ele>253.66666666666669</ele><time>2026-03-21T09:01:12.402Z</time></trkpt><trkpt lat="34.41761" lon="8.74316"><ele>254.0</ele><time>2026-03-21T09:01:13.4Z</time></trkpt><trkpt lat="34.4174367" lon="8.743005"><ele>254.0</ele><time>2026-03-21T09:01:14.401Z</time></trkpt><trkpt lat="34.4172633" lon="8.74285"><ele>254.0</ele><time>2026-03-21T09:01:15.4Z</time></trkpt><trkpt lat="34.417095" lon="8.7426933"><ele>254.0</ele><time>2026-03-21T09:01:16.401Z</time></trkpt><trkpt lat="34.41692" lon="8.742535"><ele>253.0</ele><time>2026-03-21T09:01:17.403Z</time></trkpt><trkpt lat="34.416745" lon="8.7423817"><ele>252.0</ele><time>2026-03-21T09:01:18.401Z</time></trkpt><trkpt lat="34.416565" lon="8.7422267"><ele>251.0</ele><time>2026-03-21T09:01:19.402Z</time></trkpt><trkpt lat="34.4163883" lon="8.7420733"><ele>251.0</ele><time>2026-03-21T09:01:20.402Z</time></trkpt><trkpt lat="34.4162117" lon="8.7419217"><ele>251.0</ele><time>2026-03-21T09:01:21.401Z</time></trkpt><trkpt lat="34.4160333" lon="8.74177"><ele>251.0</ele><time>2026-03-21T09:01:22.4Z</time></trkpt><trkpt lat="34.4158533" lon="8.7416133"><ele>251.0</ele><time>2026-03-21T09:01:23.402Z</time></trkpt><trkpt lat="34.4156783" lon="8.74146"><ele>251.0</ele><time>2026-03-21T09:01:24.401Z</time></trkpt><trkpt lat="34.4155067" lon="8.7413133"><ele>251.0</ele><time>2026-03-21T09:01:25.401Z</time></trkpt><trkpt lat="34.41534" lon="8.74117"><ele>251.0</ele><time>2026-03-21T09:01:26.401Z</time></trkpt><trkpt lat="34.4151767" lon="8.7410283"><ele>251.0</ele><time>2026-03-21T09:01:27.401Z</time></trkpt><trkpt lat="34.4150083" lon="8.7408833"><ele>251.0</ele><time>2026-03-21T09:01:28.4Z</time></trkpt><trkpt lat="34.4148417" lon="8.7407433"><ele>251.0</ele><time>2026-03-21T09:01:29.401Z</time></trkpt><trkpt lat="34.414675" lon="8.7405983"><ele>251.0</ele><time>2026-03-21T09:01:30.401Z</time></trkpt><trkpt lat="34.4145083" lon="8.7404533"><ele>251.0</ele><time>2026-03-21T09:01:31.401Z</time></trkpt><trkpt lat="34.4143417" lon="8.7403067"><ele>251.0</ele><time>2026-03-21T09:01:32.403Z</time></trkpt><trkpt lat="34.41418" lon="8.740165"><ele>251.0</ele><time>2026-03-21T09:01:33.4Z</time></trkpt><trkpt lat="34.41402" lon="8.7400217"><ele>251.0</ele><time>2026-03-21T09:01:34.4Z</time></trkpt><trkpt lat="34.4138567" lon="8.7398767"><ele>250.33333333333334</ele><time>2026-03-21T09:01:35.402Z</time></trkpt><trkpt lat="34.4136933" lon="8.739735"><ele>249.66666666666669</ele><time>2026-03-21T09:01:36.401Z</time></trkpt><trkpt lat="34.4135283" lon="8.7395917"><ele>249.0</ele><time>2026-03-21T09:01:37.401Z</time></trkpt><trkpt lat="34.4133667" lon="8.7394517"><ele>249.0</ele><time>2026-03-21T09:01:38.401Z</time></trkpt><trkpt lat="34.4132033" lon="8.7393167"><ele>249.0</ele><time>2026-03-21T09:01:39.4Z</time></trkpt><trkpt lat="34.4130417" lon="8.7391783"><ele>249.0</ele><time>2026-03-21T09:01:40.402Z</time></trkpt><trkpt lat="34.4128767" lon="8.73904"><ele>249.0</ele><time>2026-03-21T09:01:41.401Z</time></trkpt><trkpt lat="34.4127183" lon="8.738905"><ele>249.0</ele><time>2026-03-21T09:01:42.402Z</time></trkpt><trkpt lat="34.4125633" lon="8.738765"><ele>249.0</ele><time>2026-03-21T09:01:43.402Z</time></trkpt><trkpt lat="34.41241" lon="8.7386233"><ele>248.33333333333331</ele><time>2026-03-21T09:01:44.401Z</time></trkpt><trkpt lat="34.4122517" lon="8.7384783"><ele>247.66666666666666</ele><time>2026-03-21T09:01:45.4Z</time></trkpt><trkpt lat="34.41209" lon="8.738335"><ele>247.0</ele><time>2026-03-21T09:01:46.401Z</time></trkpt><trkpt lat="34.411925" lon="8.7381917"><ele>246.66666666666666</ele><time>2026-03-21T09:01:47.401Z</time></trkpt><trkpt lat="34.4117617" lon="8.73805"><ele>246.33333333333331</ele><time>2026-03-21T09:01:48.402Z</time></trkpt><trkpt lat="34.411595" lon="8.7379033"><ele>246.0</ele><time>2026-03-21T09:01:49.401Z</time></trkpt><trkpt lat="34.4114283" lon="8.7377567"><ele>245.66666666666669</ele><time>2026-03-21T09:01:50.401Z</time></trkpt><trkpt lat="34.4112617" lon="8.7376117"><ele>245.33333333333334</ele><time>2026-03-21T09:01:51.4Z</time></trkpt><trkpt lat="34.4110967" lon="8.7374717"><ele>245.0</ele><time>2026-03-21T09:01:52.401Z</time></trkpt><trkpt lat="34.4109333" lon="8.7373317"><ele>245.0</ele><time>2026-03-21T09:01:53.401Z</time></trkpt><trkpt lat="34.4107717" lon="8.73719"><ele>245.0</ele><time>2026-03-21T09:01:54.401Z</time></trkpt><trkpt lat="34.410615" lon="8.7370467"><ele>245.0</ele><time>2026-03-21T09:01:55.403Z</time></trkpt><trkpt lat="34.4104533" lon="8.7369033"><ele>245.33333333333334</ele><time>2026-03-21T09:01:56.403Z</time></trkpt><trkpt lat="34.4102883" lon="8.7367583"><ele>245.66666666666669</ele><time>2026-03-21T09:01:57.4Z</time></trkpt><trkpt lat="34.4101267" lon="8.7366167"><ele>246.0</ele><time>2026-03-21T09:01:58.401Z</time></trkpt><trkpt lat="34.409965" lon="8.73648"><ele>246.0</ele><time>2026-03-21T09:01:59.4Z</time></trkpt><trkpt lat="34.4098017" lon="8.73634"><ele>246.0</ele><time>2026-03-21T09:02:00.401Z</time></trkpt><trkpt lat="34.4096433" lon="8.7362033"><ele>246.0</ele><time>2026-03-21T09:02:01.401Z</time></trkpt><trkpt lat="34.409485" lon="8.736065"><ele>245.66666666666669</ele><time>2026-03-21T09:02:02.403Z</time></trkpt><trkpt lat="34.4093233" lon="8.7359283"><ele>245.33333333333334</ele><time>2026-03-21T09:02:03.4Z</time></trkpt><trkpt lat="34.4091617" lon="8.735785"><ele>245.0</ele><time>2026-03-21T09:02:04.401Z</time></trkpt><trkpt lat="34.4090017" lon="8.7356433"><ele>245.0</ele><time>2026-03-21T09:02:05.401Z</time></trkpt><trkpt lat="34.4088383" lon="8.7354967"><ele>245.0</ele><time>2026-03-21T09:02:06.401Z</time></trkpt><trkpt lat="34.4086733" lon="8.7353517"><ele>245.0</ele><time>2026-03-21T09:02:07.402Z</time></trkpt><trkpt lat="34.4085117" lon="8.7352083"><ele>245.33333333333334</ele><time>2026-03-21T09:02:08.404Z</time></trkpt><trkpt lat="34.40835" lon="8.7350667"><ele>245.66666666666669</ele><time>2026-03-21T09:02:09.401Z</time></trkpt><trkpt lat="34.4081917" lon="8.7349267"><ele>246.0</ele><time>2026-03-21T09:02:10.401Z</time></trkpt><trkpt lat="34.4080383" lon="8.734785"><ele>245.33333333333331</ele><time>2026-03-21T09:02:11.401Z</time></trkpt><trkpt lat="34.407885" lon="8.7346367"><ele>244.66666666666666</ele><time>2026-03-21T09:02:12.401Z</time></trkpt><trkpt lat="34.4077383" lon="8.7344833"><ele>244.0</ele><time>2026-03-21T09:02:13.402Z</time></trkpt><trkpt lat="34.4076" lon="8.7343267"><ele>244.0</ele><time>2026-03-21T09:02:14.401Z</time></trkpt><trkpt lat="34.4074683" lon="8.7341633"><ele>244.0</ele><time>2026-03-21T09:02:15.401Z</time></trkpt><trkpt lat="34.4073383" lon="8.7339933"><ele>244.0</ele><time>2026-03-21T09:02:16.402Z</time></trkpt><trkpt lat="34.4072117" lon="8.7338133"><ele>243.66666666666666</ele><time>2026-03-21T09:02:17.401Z</time></trkpt><trkpt lat="34.40709" lon="8.7336233"><ele>243.33333333333331</ele><time>2026-03-21T09:02:18.401Z</time></trkpt><trkpt lat="34.406965" lon="8.73343"><ele>243.0</ele><time>2026-03-21T09:02:19.401Z</time></trkpt><trkpt lat="34.4068433" lon="8.7332333"><ele>243.0</ele><time>2026-03-21T09:02:20.401Z</time></trkpt><trkpt lat="34.40672" lon="8.7330333"><ele>243.0</ele><time>2026-03-21T09:02:21.4Z</time></trkpt><trkpt lat="34.4065983" lon="8.732835"><ele>243.0</ele><time>2026-03-21T09:02:22.401Z</time></trkpt><trkpt lat="34.4064767" lon="8.7326433"><ele>243.33333333333331</ele><time>2026-03-21T09:02:23.401Z</time></trkpt><trkpt lat="34.4063617" lon="8.732455"><ele>243.66666666666666</ele><time>2026-03-21T09:02:24.401Z</time></trkpt><trkpt lat="34.40625" lon="8.7322683"><ele>244.0</ele><time>2026-03-21T09:02:25.402Z</time></trkpt><trkpt lat="34.4061417" lon="8.7320883"><ele>243.0</ele><time>2026-03-21T09:02:26.403Z</time></trkpt><trkpt lat="34.4060367" lon="8.7319117"><ele>242.0</ele><time>2026-03-21T09:02:27.401Z</time></trkpt><trkpt lat="34.4059317" lon="8.731735"><ele>241.0</ele><time>2026-03-21T09:02:28.402Z</time></trkpt><trkpt lat="34.4058267" lon="8.7315583"><ele>241.0</ele><time>2026-03-21T09:02:29.401Z</time></trkpt><trkpt lat="34.4057183" lon="8.7313767"><ele>241.0</ele><time>2026-03-21T09:02:30.401Z</time></trkpt><trkpt lat="34.40561" lon="8.7311967"><ele>241.0</ele><time>2026-03-21T09:02:31.401Z</time></trkpt><trkpt lat="34.4055" lon="8.7310083"><ele>241.0</ele><time>2026-03-21T09:02:32.401Z</time></trkpt><trkpt lat="34.4053917" lon="8.7308283"><ele>241.0</ele><time>2026-03-21T09:02:33.401Z</time></trkpt><trkpt lat="34.4052833" lon="8.7306567"><ele>241.0</ele><time>2026-03-21T09:02:34.401Z</time></trkpt><trkpt lat="34.4051683" lon="8.7304767"><ele>241.0</ele><time>2026-03-21T09:02:35.401Z</time></trkpt><trkpt lat="34.4050517" lon="8.7302933"><ele>241.0</ele><time>2026-03-21T09:02:36.401Z</time></trkpt><trkpt lat="34.40493" lon="8.7301033"><ele>241.0</ele><time>2026-03-21T09:02:37.401Z</time></trkpt><trkpt lat="34.4048117" lon="8.72991"><ele>241.0</ele><time>2026-03-21T09:02:38.401Z</time></trkpt><trkpt lat="34.4047" lon="8.7297283"><ele>241.0</ele><time>2026-03-21T09:02:39.401Z</time></trkpt><trkpt lat="34.4045883" lon="8.7295517"><ele>241.0</ele><time>2026-03-21T09:02:40.402Z</time></trkpt><trkpt lat="34.4044717" lon="8.7293717"><ele>240.66666666666666</ele><time>2026-03-21T09:02:41.401Z</time></trkpt><trkpt lat="34.4043633" lon="8.7292"><ele>240.33333333333331</ele><time>2026-03-21T09:02:42.403Z</time></trkpt><trkpt lat="34.4042533" lon="8.72903"><ele>240.0</ele><time>2026-03-21T09:02:43.401Z</time></trkpt><trkpt lat="34.40414" lon="8.7288533"><ele>240.0</ele><time>2026-03-21T09:02:44.401Z</time></trkpt><trkpt lat="34.4040317" lon="8.7286683"><ele>240.0</ele><time>2026-03-21T09:02:45.4Z</time></trkpt><trkpt lat="34.403925" lon="8.72849"><ele>240.0</ele><time>2026-03-21T09:02:46.401Z</time></trkpt><trkpt lat="34.403815" lon="8.7283133"><ele>238.66666666666669</ele><time>2026-03-21T09:02:47.401Z</time></trkpt><trkpt lat="34.4037033" lon="8.7281333"><ele>237.33333333333334</ele><time>2026-03-21T09:02:48.401Z</time></trkpt><trkpt lat="34.40359" lon="8.727955"><ele>236.0</ele><time>2026-03-21T09:02:49.4Z</time></trkpt><trkpt lat="34.4034717" lon="8.727775"><ele>237.0</ele><time>2026-03-21T09:02:50.4Z</time></trkpt><trkpt lat="34.4033567" lon="8.72759"><ele>238.0</ele><time>2026-03-21T09:02:51.4Z</time></trkpt><trkpt lat="34.403245" lon="8.7274117"><ele>239.0</ele><time>2026-03-21T09:02:52.401Z</time></trkpt><trkpt lat="34.4031383" lon="8.7272333"><ele>239.0</ele><time>2026-03-21T09:02:53.401Z</time></trkpt><trkpt lat="34.4030367" lon="8.7270683"><ele>239.0</ele><time>2026-03-21T09:02:54.401Z</time></trkpt><trkpt lat="34.4029367" lon="8.7269017"><ele>239.0</ele><time>2026-03-21T09:02:55.403Z</time></trkpt><trkpt lat="34.4028317" lon="8.726735"><ele>238.0</ele><time>2026-03-21T09:02:56.402Z</time></trkpt><trkpt lat="34.4027267" lon="8.726575"><ele>237.0</ele><time>2026-03-21T09:02:57.401Z</time></trkpt><trkpt lat="34.402625" lon="8.726415"><ele>236.0</ele><time>2026-03-21T09:02:58.401Z</time></trkpt><trkpt lat="34.4025233" lon="8.7262583"><ele>236.0</ele><time>2026-03-21T09:02:59.401Z</time></trkpt><trkpt lat="34.4024283" lon="8.726105"><ele>236.0</ele><time>2026-03-21T09:03:00.402Z</time></trkpt><trkpt lat="34.402335" lon="8.7259583"><ele>236.0</ele><time>2026-03-21T09:03:01.401Z</time></trkpt><trkpt lat="34.40225" lon="8.7258183"><ele>236.0</ele><time>2026-03-21T09:03:02.401Z</time></trkpt><trkpt lat="34.40217" lon="8.72569"><ele>236.0</ele><time>2026-03-21T09:03:03.401Z</time></trkpt><trkpt lat="34.4021033" lon="8.7255767"><ele>236.0</ele><time>2026-03-21T09:03:04.402Z</time></trkpt><trkpt lat="34.40204" lon="8.7254683"><ele>236.0</ele><time>2026-03-21T09:03:05.401Z</time></trkpt><trkpt lat="34.4019883" lon="8.7253667"><ele>236.20000000000002</ele><time>2026-03-21T09:03:06.401Z</time></trkpt><trkpt lat="34.4019367" lon="8.7252667"><ele>236.40000000000003</ele><time>2026-03-21T09:03:07.401Z</time></trkpt><trkpt lat="34.4018767" lon="8.7251667"><ele>236.6</ele><time>2026-03-21T09:03:08.401Z</time></trkpt><trkpt lat="34.401805" lon="8.7250567"><ele>236.8</ele><time>2026-03-21T09:03:09.4Z</time></trkpt><trkpt lat="34.4017333" lon="8.7249383"><ele>237.0</ele><time>2026-03-21T09:03:10.401Z</time></trkpt><trkpt lat="34.4016617" lon="8.7248217"><ele>237.2</ele><time>2026-03-21T09:03:11.402Z</time></trkpt><trkpt lat="34.40161" lon="8.72473"><ele>237.39999999999998</ele><time>2026-03-21T09:03:12.401Z</time></trkpt><trkpt lat="34.4015567" lon="8.7246433"><ele>237.60000000000002</ele><time>2026-03-21T09:03:13.401Z</time></trkpt><trkpt lat="34.40151" lon="8.72457"><ele>237.8</ele><time>2026-03-21T09:03:14.402Z</time></trkpt><trkpt lat="34.4014517" lon="8.7244783"><ele>238.0</ele><time>2026-03-21T09:03:15.402Z</time></trkpt><trkpt lat="34.4013867" lon="8.7243717"><ele>237.75</ele><time>2026-03-21T09:03:16.401Z</time></trkpt><trkpt lat="34.40131" lon="8.7242533"><ele>237.5</ele><time>2026-03-21T09:03:17.402Z</time></trkpt><trkpt lat="34.4012417" lon="8.7241467"><ele>237.25</ele><time>2026-03-21T09:03:18.401Z</time></trkpt><trkpt lat="34.4011717" lon="8.7240417"><ele>237.0</ele><time>2026-03-21T09:03:19.401Z</time></trkpt><trkpt lat="34.4011033" lon="8.7239417"><ele>237.0</ele><time>2026-03-21T09:03:20.402Z</time></trkpt><trkpt lat="34.4010383" lon="8.7238467"><ele>237.0</ele><time>2026-03-21T09:03:21.401Z</time></trkpt><trkpt lat="34.4009733" lon="8.723755"><ele>237.0</ele><time>2026-03-21T09:03:22.401Z</time></trkpt><trkpt lat="34.4009133" lon="8.7236667"><ele>237.0</ele><time>2026-03-21T09:03:23.402Z</time></trkpt><trkpt lat="34.4008617" lon="8.72359"><ele>237.0</ele><time>2026-03-21T09:03:24.401Z</time></trkpt><trkpt lat="34.400815" lon="8.7235183"><ele>236.8</ele><time>2026-03-21T09:03:25.402Z</time></trkpt><trkpt lat="34.400765" lon="8.7234467"><ele>236.6</ele><time>2026-03-21T09:03:26.401Z</time></trkpt><trkpt lat="34.400705" lon="8.7233733"><ele>236.40000000000003</ele><time>2026-03-21T09:03:27.4Z</time></trkpt><trkpt lat="34.4006367" lon="8.72329"><ele>236.20000000000002</ele><time>2026-03-21T09:03:28.402Z</time></trkpt><trkpt lat="34.4005617" lon="8.7232017"><ele>236.0</ele><time>2026-03-21T09:03:29.402Z</time></trkpt><trkpt lat="34.40048" lon="8.7231083"><ele>235.75</ele><time>2026-03-21T09:03:30.402Z</time></trkpt><trkpt lat="34.400395" lon="8.7230083"><ele>235.5</ele><time>2026-03-21T09:03:31.401Z</time></trkpt><trkpt lat="34.400305" lon="8.7229033"><ele>235.25</ele><time>2026-03-21T09:03:32.403Z</time></trkpt><trkpt lat="34.4002067" lon="8.7227883"><ele>235.0</ele><time>2026-03-21T09:03:33.402Z</time></trkpt><trkpt lat="34.4001083" lon="8.7226733"><ele>235.0</ele><time>2026-03-21T09:03:34.4Z</time></trkpt><trkpt lat="34.400005" lon="8.722555"><ele>235.0</ele><time>2026-03-21T09:03:35.401Z</time></trkpt><trkpt lat="34.3998967" lon="8.7224333"><ele>235.0</ele><time>2026-03-21T09:03:36.402Z</time></trkpt><trkpt lat="34.3997917" lon="8.7223117"><ele>235.0</ele><time>2026-03-21T09:03:37.403Z</time></trkpt><trkpt lat="34.3996917" lon="8.722195"><ele>235.0</ele><time>2026-03-21T09:03:38.403Z</time></trkpt><trkpt lat="34.3995933" lon="8.722075"><ele>235.0</ele><time>2026-03-21T09:03:39.402Z</time></trkpt><trkpt lat="34.3994917" lon="8.7219483"><ele>235.0</ele><time>2026-03-21T09:03:40.4Z</time></trkpt><trkpt lat="34.3993833" lon="8.7218167"><ele>235.0</ele><time>2026-03-21T09:03:41.401Z</time></trkpt><trkpt lat="34.3992683" lon="8.7216817"><ele>235.0</ele><time>2026-03-21T09:03:42.404Z</time></trkpt><trkpt lat="34.3991467" lon="8.7215383"><ele>235.0</ele><time>2026-03-21T09:03:43.401Z</time></trkpt><trkpt lat="34.3990233" lon="8.7213917"><ele>235.0</ele><time>2026-03-21T09:03:44.401Z</time></trkpt><trkpt lat="34.3989017" lon="8.721245"><ele>235.33333333333331</ele><time>2026-03-21T09:03:45.401Z</time></trkpt><trkpt lat="34.3987867" lon="8.7211017"><ele>235.66666666666669</ele><time>2026-03-21T09:03:46.402Z</time></trkpt><trkpt lat="34.3986733" lon="8.720965"><ele>236.0</ele><time>2026-03-21T09:03:47.401Z</time></trkpt><trkpt lat="34.3985583" lon="8.72083"><ele>236.0</ele><time>2026-03-21T09:03:48.401Z</time></trkpt><trkpt lat="34.3984433" lon="8.7206967"><ele>236.0</ele><time>2026-03-21T09:03:49.402Z</time></trkpt><trkpt lat="34.398325" lon="8.7205633"><ele>236.0</ele><time>2026-03-21T09:03:50.401Z</time></trkpt><trkpt lat="34.3982067" lon="8.7204283"><ele>236.0</ele><time>2026-03-21T09:03:51.401Z</time></trkpt><trkpt lat="34.3980917" lon="8.7202867"><ele>236.0</ele><time>2026-03-21T09:03:52.402Z</time></trkpt><trkpt lat="34.3979733" lon="8.7201467"><ele>236.0</ele><time>2026-03-21T09:03:53.401Z</time></trkpt><trkpt lat="34.39785" lon="8.7200033"><ele>235.66666666666669</ele><time>2026-03-21T09:03:54.401Z</time></trkpt><trkpt lat="34.3977267" lon="8.7198617"><ele>235.33333333333331</ele><time>2026-03-21T09:03:55.402Z</time></trkpt><trkpt lat="34.3976033" lon="8.7197167"><ele>235.0</ele><time>2026-03-21T09:03:56.405Z</time></trkpt><trkpt lat="34.3974767" lon="8.71957"><ele>235.0</ele><time>2026-03-21T09:03:57.4Z</time></trkpt><trkpt lat="34.3973567" lon="8.71942"><ele>235.0</ele><time>2026-03-21T09:03:58.402Z</time></trkpt><trkpt lat="34.39723" lon="8.7192717"><ele>235.0</ele><time>2026-03-21T09:03:59.401Z</time></trkpt><trkpt lat="34.3971067" lon="8.7191283"><ele>234.66666666666666</ele><time>2026-03-21T09:04:00.401Z</time></trkpt><trkpt lat="34.39698" lon="8.71898"><ele>234.33333333333331</ele><time>2026-03-21T09:04:01.401Z</time></trkpt><trkpt lat="34.396855" lon="8.71883"><ele>234.0</ele><time>2026-03-21T09:04:02.401Z</time></trkpt><trkpt lat="34.3967283" lon="8.7186817"><ele>233.66666666666669</ele><time>2026-03-21T09:04:03.401Z</time></trkpt><trkpt lat="34.3965967" lon="8.7185317"><ele>233.33333333333334</ele><time>2026-03-21T09:04:04.401Z</time></trkpt><trkpt lat="34.3964667" lon="8.7183817"><ele>233.0</ele><time>2026-03-21T09:04:05.401Z</time></trkpt><trkpt lat="34.3963317" lon="8.71823"><ele>233.0</ele><time>2026-03-21T09:04:06.401Z</time></trkpt><trkpt lat="34.39619" lon="8.7180767"><ele>233.0</ele><time>2026-03-21T09:04:07.401Z</time></trkpt><trkpt lat="34.3960467" lon="8.717925"><ele>233.0</ele><time>2026-03-21T09:04:08.402Z</time></trkpt><trkpt lat="34.39591" lon="8.7177733"><ele>233.0</ele><time>2026-03-21T09:04:09.401Z</time></trkpt><trkpt lat="34.395775" lon="8.71762"><ele>233.0</ele><time>2026-03-21T09:04:10.401Z</time></trkpt><trkpt lat="34.3956417" lon="8.7174667"><ele>233.0</ele><time>2026-03-21T09:04:11.401Z</time></trkpt><trkpt lat="34.3955067" lon="8.717305"><ele>233.0</ele><time>2026-03-21T09:04:12.402Z</time></trkpt><trkpt lat="34.3953683" lon="8.7171433"><ele>233.0</ele><time>2026-03-21T09:04:13.401Z</time></trkpt><trkpt lat="34.395225" lon="8.7169767"><ele>233.0</ele><time>2026-03-21T09:04:14.402Z</time></trkpt><trkpt lat="34.3950833" lon="8.7168117"><ele>232.66666666666669</ele><time>2026-03-21T09:04:15.4Z</time></trkpt><trkpt lat="34.3949433" lon="8.7166433"><ele>232.33333333333331</ele><time>2026-03-21T09:04:16.401Z</time></trkpt><trkpt lat="34.3948033" lon="8.7164767"><ele>232.0</ele><time>2026-03-21T09:04:17.401Z</time></trkpt><trkpt lat="34.3946667" lon="8.7163117"><ele>232.0</ele><time>2026-03-21T09:04:18.401Z</time></trkpt><trkpt lat="34.3945283" lon="8.7161517"><ele>232.0</ele><time>2026-03-21T09:04:19.402Z</time></trkpt><trkpt lat="34.39439" lon="8.715995"><ele>232.0</ele><time>2026-03-21T09:04:20.404Z</time></trkpt><trkpt lat="34.3942567" lon="8.7158383"><ele>232.0</ele><time>2026-03-21T09:04:21.401Z</time></trkpt><trkpt lat="34.3941233" lon="8.7156767"><ele>232.0</ele><time>2026-03-21T09:04:22.401Z</time></trkpt><trkpt lat="34.3939867" lon="8.7155133"><ele>232.0</ele><time>2026-03-21T09:04:23.401Z</time></trkpt><trkpt lat="34.39385" lon="8.71535"><ele>232.33333333333331</ele><time>2026-03-21T09:04:24.401Z</time></trkpt><trkpt lat="34.3937133" lon="8.715185"><ele>232.66666666666669</ele><time>2026-03-21T09:04:25.401Z</time></trkpt><trkpt lat="34.39358" lon="8.7150283"><ele>233.0</ele><time>2026-03-21T09:04:26.401Z</time></trkpt><trkpt lat="34.3934517" lon="8.7148783"><ele>233.0</ele><time>2026-03-21T09:04:27.401Z</time></trkpt><trkpt lat="34.393325" lon="8.7147317"><ele>233.0</ele><time>2026-03-21T09:04:28.401Z</time></trkpt><trkpt lat="34.3932017" lon="8.7145867"><ele>233.0</ele><time>2026-03-21T09:04:29.403Z</time></trkpt><trkpt lat="34.3930833" lon="8.7144467"><ele>232.66666666666669</ele><time>2026-03-21T09:04:30.401Z</time></trkpt><trkpt lat="34.3929633" lon="8.7143067"><ele>232.33333333333331</ele><time>2026-03-21T09:04:31.401Z</time></trkpt><trkpt lat="34.392845" lon="8.7141667"><ele>232.0</ele><time>2026-03-21T09:04:32.401Z</time></trkpt><trkpt lat="34.39273" lon="8.7140333"><ele>232.0</ele><time>2026-03-21T09:04:33.401Z</time></trkpt><trkpt lat="34.3926233" lon="8.71391"><ele>232.0</ele><time>2026-03-21T09:04:34.401Z</time></trkpt><trkpt lat="34.3925233" lon="8.7137917"><ele>232.0</ele><time>2026-03-21T09:04:35.402Z</time></trkpt><trkpt lat="34.39243" lon="8.713685"><ele>232.0</ele><time>2026-03-21T09:04:36.4Z</time></trkpt><trkpt lat="34.3923467" lon="8.713585"><ele>231.5</ele><time>2026-03-21T09:04:37.401Z</time></trkpt><trkpt lat="34.3922617" lon="8.7134883"><ele>231.0</ele><time>2026-03-21T09:04:38.401Z</time></trkpt><trkpt lat="34.3921733" lon="8.71339"><ele>230.5</ele><time>2026-03-21T09:04:39.404Z</time></trkpt><trkpt lat="34.39208" lon="8.7132933"><ele>230.0</ele><time>2026-03-21T09:04:40.401Z</time></trkpt><trkpt lat="34.3919917" lon="8.71319"><ele>230.0</ele><time>2026-03-21T09:04:41.401Z</time></trkpt><trkpt lat="34.391905" lon="8.71309"><ele>230.0</ele><time>2026-03-21T09:04:42.401Z</time></trkpt><trkpt lat="34.391815" lon="8.7129783"><ele>230.0</ele><time>2026-03-21T09:04:43.401Z</time></trkpt><trkpt lat="34.3917183" lon="8.71285"><ele>230.0</ele><time>2026-03-21T09:04:44.401Z</time></trkpt><trkpt lat="34.3916167" lon="8.71271"><ele>230.33333333333334</ele><time>2026-03-21T09:04:45.401Z</time></trkpt><trkpt lat="34.3914933" lon="8.71257"><ele>230.66666666666669</ele><time>2026-03-21T09:04:46.402Z</time></trkpt><trkpt lat="34.391355" lon="8.7124133"><ele>231.0</ele><time>2026-03-21T09:04:47.401Z</time></trkpt><trkpt lat="34.3912133" lon="8.7122483"><ele>231.0</ele><time>2026-03-21T09:04:48.401Z</time></trkpt><trkpt lat="34.39108" lon="8.712095"><ele>231.0</ele><time>2026-03-21T09:04:49.401Z</time></trkpt><trkpt lat="34.3909533" lon="8.7119467"><ele>231.0</ele><time>2026-03-21T09:04:50.402Z</time></trkpt><trkpt lat="34.3908267" lon="8.7118033"><ele>230.33333333333331</ele><time>2026-03-21T09:04:51.402Z</time></trkpt><trkpt lat="34.3906983" lon="8.7116567"><ele>229.66666666666666</ele><time>2026-03-21T09:04:52.401Z</time></trkpt><trkpt lat="34.3905633" lon="8.711505"><ele>229.0</ele><time>2026-03-21T09:04:53.401Z</time></trkpt><trkpt lat="34.390425" lon="8.711345"><ele>229.0</ele><time>2026-03-21T09:04:54.402Z</time></trkpt><trkpt lat="34.390285" lon="8.7111717"><ele>229.0</ele><time>2026-03-21T09:04:55.401Z</time></trkpt><trkpt lat="34.390135" lon="8.7109933"><ele>229.0</ele><time>2026-03-21T09:04:56.401Z</time></trkpt><trkpt lat="34.3899817" lon="8.7108083"><ele>229.0</ele><time>2026-03-21T09:04:57.401Z</time></trkpt><trkpt lat="34.3898283" lon="8.710625"><ele>229.0</ele><time>2026-03-21T09:04:58.401Z</time></trkpt><trkpt lat="34.389675" lon="8.7104383"><ele>229.0</ele><time>2026-03-21T09:04:59.401Z</time></trkpt><trkpt lat="34.389515" lon="8.7102483"><ele>229.0</ele><time>2026-03-21T09:05:00.402Z</time></trkpt><trkpt lat="34.38935" lon="8.7100517"><ele>229.0</ele><time>2026-03-21T09:05:01.401Z</time></trkpt><trkpt lat="34.3891783" lon="8.70985"><ele>229.0</ele><time>2026-03-21T09:05:02.401Z</time></trkpt><trkpt lat="34.389005" lon="8.7096467"><ele>229.0</ele><time>2026-03-21T09:05:03.402Z</time></trkpt><trkpt lat="34.3888383" lon="8.7094483"><ele>228.33333333333331</ele><time>2026-03-21T09:05:04.401Z</time></trkpt><trkpt lat="34.3886783" lon="8.7092567"><ele>227.66666666666669</ele><time>2026-03-21T09:05:05.401Z</time></trkpt><trkpt lat="34.3885233" lon="8.7090733"><ele>227.0</ele><time>2026-03-21T09:05:06.401Z</time></trkpt><trkpt lat="34.38837" lon="8.708895"><ele>227.0</ele><time>2026-03-21T09:05:07.403Z</time></trkpt><trkpt lat="34.38822" lon="8.70872"><ele>227.0</ele><time>2026-03-21T09:05:08.403Z</time></trkpt><trkpt lat="34.3880783" lon="8.7085483"><ele>227.0</ele><time>2026-03-21T09:05:09.4Z</time></trkpt><trkpt lat="34.3879467" lon="8.7083867"><ele>226.66666666666669</ele><time>2026-03-21T09:05:10.401Z</time></trkpt><trkpt lat="34.38782" lon="8.7082333"><ele>226.33333333333331</ele><time>2026-03-21T09:05:11.401Z</time></trkpt><trkpt lat="34.3877017" lon="8.7080883"><ele>226.0</ele><time>2026-03-21T09:05:12.401Z</time></trkpt><trkpt lat="34.3875917" lon="8.7079583"><ele>226.0</ele><time>2026-03-21T09:05:13.401Z</time></trkpt><trkpt lat="34.38749" lon="8.7078367"><ele>226.0</ele><time>2026-03-21T09:05:14.401Z</time></trkpt><trkpt lat="34.3873867" lon="8.7077133"><ele>226.0</ele><time>2026-03-21T09:05:15.401Z</time></trkpt><trkpt lat="34.3872833" lon="8.7075917"><ele>226.0</ele><time>2026-03-21T09:05:16.403Z</time></trkpt><trkpt lat="34.387185" lon="8.7074717"><ele>226.0</ele><time>2026-03-21T09:05:17.401Z</time></trkpt><trkpt lat="34.387095" lon="8.7073583"><ele>226.0</ele><time>2026-03-21T09:05:18.401Z</time></trkpt><trkpt lat="34.387" lon="8.7072467"><ele>226.0</ele><time>2026-03-21T09:05:19.401Z</time></trkpt><trkpt lat="34.3869" lon="8.7071283"><ele>226.0</ele><time>2026-03-21T09:05:20.402Z</time></trkpt><trkpt lat="34.3867917" lon="8.7070033"><ele>226.0</ele><time>2026-03-21T09:05:21.401Z</time></trkpt><trkpt lat="34.38668" lon="8.7068783"><ele>226.0</ele><time>2026-03-21T09:05:22.402Z</time></trkpt><trkpt lat="34.3865667" lon="8.7067517"><ele>226.0</ele><time>2026-03-21T09:05:23.401Z</time></trkpt><trkpt lat="34.38645" lon="8.70662"><ele>225.66666666666666</ele><time>2026-03-21T09:05:24.402Z</time></trkpt><trkpt lat="34.3863333" lon="8.7064883"><ele>225.33333333333331</ele><time>2026-03-21T09:05:25.401Z</time></trkpt><trkpt lat="34.3862167" lon="8.7063533"><ele>225.0</ele><time>2026-03-21T09:05:26.403Z</time></trkpt><trkpt lat="34.3860983" lon="8.7062183"><ele>225.0</ele><time>2026-03-21T09:05:27.401Z</time></trkpt><trkpt lat="34.3859783" lon="8.7060867"><ele>225.0</ele><time>2026-03-21T09:05:28.401Z</time></trkpt><trkpt lat="34.3858583" lon="8.7059433"><ele>225.0</ele><time>2026-03-21T09:05:29.402Z</time></trkpt><trkpt lat="34.3857383" lon="8.7058"><ele>225.33333333333331</ele><time>2026-03-21T09:05:30.401Z</time></trkpt><trkpt lat="34.385615" lon="8.7056583"><ele>225.66666666666666</ele><time>2026-03-21T09:05:31.401Z</time></trkpt><trkpt lat="34.3854883" lon="8.7055117"><ele>226.0</ele><time>2026-03-21T09:05:32.403Z</time></trkpt><trkpt lat="34.38536" lon="8.7053617"><ele>224.33333333333331</ele><time>2026-03-21T09:05:33.402Z</time></trkpt><trkpt lat="34.3852333" lon="8.7052033"><ele>222.66666666666669</ele><time>2026-03-21T09:05:34.403Z</time></trkpt><trkpt lat="34.3851133" lon="8.7050517"><ele>221.0</ele><time>2026-03-21T09:05:35.402Z</time></trkpt><trkpt lat="34.3849717" lon="8.7048817"><ele>221.0</ele><time>2026-03-21T09:05:36.402Z</time></trkpt><trkpt lat="34.3848267" lon="8.7047067"><ele>221.0</ele><time>2026-03-21T09:05:37.402Z</time></trkpt><trkpt lat="34.3846867" lon="8.70454"><ele>221.0</ele><time>2026-03-21T09:05:38.403Z</time></trkpt><trkpt lat="34.38454" lon="8.7043717"><ele>221.33333333333334</ele><time>2026-03-21T09:05:39.403Z</time></trkpt><trkpt lat="34.3843867" lon="8.7041933"><ele>221.66666666666669</ele><time>2026-03-21T09:05:40.403Z</time></trkpt><trkpt lat="34.3842217" lon="8.7040017"><ele>222.0</ele><time>2026-03-21T09:05:41.402Z</time></trkpt><trkpt lat="34.3840483" lon="8.7038033"><ele>222.0</ele><time>2026-03-21T09:05:42.402Z</time></trkpt><trkpt lat="34.3838683" lon="8.7036017"><ele>222.0</ele><time>2026-03-21T09:05:43.403Z</time></trkpt><trkpt lat="34.3836817" lon="8.7033967"><ele>220.5</ele><time>2026-03-21T09:05:44.402Z</time></trkpt><trkpt lat="34.3834883" lon="8.703185"><ele>219.0</ele><time>2026-03-21T09:05:45.402Z</time></trkpt><trkpt lat="34.3832933" lon="8.7029717"><ele>219.0</ele><time>2026-03-21T09:05:46.403Z</time></trkpt><trkpt lat="34.3831033" lon="8.70275"><ele>219.0</ele><time>2026-03-21T09:05:47.402Z</time></trkpt><trkpt lat="34.3829183" lon="8.7025183"><ele>218.5</ele><time>2026-03-21T09:05:48.402Z</time></trkpt><trkpt lat="34.382735" lon="8.7022933"><ele>218.0</ele><time>2026-03-21T09:05:49.403Z</time></trkpt><trkpt lat="34.382555" lon="8.7020867"><ele>218.5</ele><time>2026-03-21T09:05:50.403Z</time></trkpt><trkpt lat="34.3823817" lon="8.70188"><ele>219.0</ele><time>2026-03-21T09:05:51.402Z</time></trkpt><trkpt lat="34.3822133" lon="8.7016817"><ele>218.5</ele><time>2026-03-21T09:05:52.403Z</time></trkpt><trkpt lat="34.3820467" lon="8.7014867"><ele>218.0</ele><time>2026-03-21T09:05:53.402Z</time></trkpt><trkpt lat="34.3818817" lon="8.7012967"><ele>218.0</ele><time>2026-03-21T09:05:54.402Z</time></trkpt><trkpt lat="34.38172" lon="8.701105"><ele>218.0</ele><time>2026-03-21T09:05:55.402Z</time></trkpt><trkpt lat="34.3815583" lon="8.7009133"><ele>217.66666666666669</ele><time>2026-03-21T09:05:56.405Z</time></trkpt><trkpt lat="34.3814" lon="8.7007333"><ele>217.33333333333331</ele><time>2026-03-21T09:05:57.402Z</time></trkpt><trkpt lat="34.3812433" lon="8.700555"><ele>217.0</ele><time>2026-03-21T09:05:58.402Z</time></trkpt><trkpt lat="34.38109" lon="8.700375"><ele>216.33333333333331</ele><time>2026-03-21T09:05:59.402Z</time></trkpt><trkpt lat="34.3809367" lon="8.7001933"><ele>215.66666666666669</ele><time>2026-03-21T09:06:00.402Z</time></trkpt><trkpt lat="34.3807883" lon="8.7000133"><ele>215.0</ele><time>2026-03-21T09:06:01.402Z</time></trkpt><trkpt lat="34.38064" lon="8.6998267"><ele>215.0</ele><time>2026-03-21T09:06:02.403Z</time></trkpt><trkpt lat="34.3804917" lon="8.69963"><ele>215.0</ele><time>2026-03-21T09:06:03.402Z</time></trkpt><trkpt lat="34.3803433" lon="8.6994283"><ele>215.0</ele><time>2026-03-21T09:06:04.403Z</time></trkpt><trkpt lat="34.3801933" lon="8.699225"><ele>215.5</ele><time>2026-03-21T09:06:05.403Z</time></trkpt><trkpt lat="34.3800433" lon="8.69902"><ele>216.0</ele><time>2026-03-21T09:06:06.402Z</time></trkpt><trkpt lat="34.3798967" lon="8.698815"><ele>216.0</ele><time>2026-03-21T09:06:07.403Z</time></trkpt><trkpt lat="34.37975" lon="8.6986067"><ele>216.0</ele><time>2026-03-21T09:06:08.402Z</time></trkpt><trkpt lat="34.3796133" lon="8.6984"><ele>216.0</ele><time>2026-03-21T09:06:09.402Z</time></trkpt><trkpt lat="34.3794783" lon="8.69819"><ele>215.66666666666669</ele><time>2026-03-21T09:06:10.403Z</time></trkpt><trkpt lat="34.3793383" lon="8.6979833"><ele>215.33333333333334</ele><time>2026-03-21T09:06:11.403Z</time></trkpt><trkpt lat="34.3792017" lon="8.697775"><ele>215.0</ele><time>2026-03-21T09:06:12.403Z</time></trkpt><trkpt lat="34.3790633" lon="8.697565"><ele>214.66666666666669</ele><time>2026-03-21T09:06:13.402Z</time></trkpt><trkpt lat="34.3789233" lon="8.697355"><ele>214.33333333333331</ele><time>2026-03-21T09:06:14.403Z</time></trkpt><trkpt lat="34.3787817" lon="8.6971433"><ele>214.0</ele><time>2026-03-21T09:06:15.403Z</time></trkpt><trkpt lat="34.3786383" lon="8.6969317"><ele>213.5</ele><time>2026-03-21T09:06:16.403Z</time></trkpt><trkpt lat="34.378495" lon="8.6967183"><ele>213.0</ele><time>2026-03-21T09:06:17.404Z</time></trkpt><trkpt lat="34.3783567" lon="8.6965067"><ele>213.0</ele><time>2026-03-21T09:06:18.403Z</time></trkpt><trkpt lat="34.3782167" lon="8.6962967"><ele>213.0</ele><time>2026-03-21T09:06:19.403Z</time></trkpt><trkpt lat="34.378075" lon="8.6960917"><ele>213.0</ele><time>2026-03-21T09:06:20.404Z</time></trkpt><trkpt lat="34.3779333" lon="8.69588"><ele>213.0</ele><time>2026-03-21T09:06:21.402Z</time></trkpt><trkpt lat="34.377795" lon="8.6956633"><ele>213.0</ele><time>2026-03-21T09:06:22.403Z</time></trkpt><trkpt lat="34.3776517" lon="8.69545"><ele>212.5</ele><time>2026-03-21T09:06:23.403Z</time></trkpt><trkpt lat="34.3775067" lon="8.6952367"><ele>212.0</ele><time>2026-03-21T09:06:24.403Z</time></trkpt><trkpt lat="34.3773617" lon="8.69502"><ele>212.0</ele><time>2026-03-21T09:06:25.402Z</time></trkpt><trkpt lat="34.3772183" lon="8.6947983"><ele>212.0</ele><time>2026-03-21T09:06:26.402Z</time></trkpt><trkpt lat="34.3770733" lon="8.6945717"><ele>211.0</ele><time>2026-03-21T09:06:27.402Z</time></trkpt><trkpt lat="34.3769267" lon="8.6943467"><ele>210.0</ele><time>2026-03-21T09:06:28.401Z</time></trkpt><trkpt lat="34.376775" lon="8.6941183"><ele>210.0</ele><time>2026-03-21T09:06:29.402Z</time></trkpt><trkpt lat="34.3766217" lon="8.69389"><ele>210.0</ele><time>2026-03-21T09:06:30.403Z</time></trkpt><trkpt lat="34.3764667" lon="8.693655"><ele>210.5</ele><time>2026-03-21T09:06:31.402Z</time></trkpt><trkpt lat="34.3763133" lon="8.6934217"><ele>211.0</ele><time>2026-03-21T09:06:32.402Z</time></trkpt><trkpt lat="34.3761583" lon="8.6931883"><ele>211.0</ele><time>2026-03-21T09:06:33.401Z</time></trkpt><trkpt lat="34.3760033" lon="8.6929533"><ele>211.0</ele><time>2026-03-21T09:06:34.401Z</time></trkpt><trkpt lat="34.3758483" lon="8.69272"><ele>210.5</ele><time>2026-03-21T09:06:35.401Z</time></trkpt><trkpt lat="34.3756983" lon="8.69249"><ele>210.0</ele><time>2026-03-21T09:06:36.402Z</time></trkpt><trkpt lat="34.37555" lon="8.6922633"><ele>210.0</ele><time>2026-03-21T09:06:37.402Z</time></trkpt><trkpt lat="34.3754" lon="8.69204"><ele>210.0</ele><time>2026-03-21T09:06:38.402Z</time></trkpt><trkpt lat="34.3752467" lon="8.6918217"><ele>210.0</ele><time>2026-03-21T09:06:39.402Z</time></trkpt><trkpt lat="34.3750933" lon="8.691605"><ele>210.0</ele><time>2026-03-21T09:06:40.403Z</time></trkpt><trkpt lat="34.3749433" lon="8.691385"><ele>210.0</ele><time>2026-03-21T09:06:41.402Z</time></trkpt><trkpt lat="34.3747933" lon="8.6911683"><ele>210.0</ele><time>2026-03-21T09:06:42.403Z</time></trkpt><trkpt lat="34.3746433" lon="8.6909517"><ele>210.5</ele><time>2026-03-21T09:06:43.401Z</time></trkpt><trkpt lat="34.3744933" lon="8.69073"><ele>211.0</ele><time>2026-03-21T09:06:44.402Z</time></trkpt><trkpt lat="34.3743417" lon="8.6905033"><ele>211.0</ele><time>2026-03-21T09:06:45.401Z</time></trkpt><trkpt lat="34.3741883" lon="8.6902767"><ele>211.0</ele><time>2026-03-21T09:06:46.402Z</time></trkpt><trkpt lat="34.374035" lon="8.69005"><ele>210.0</ele><time>2026-03-21T09:06:47.402Z</time></trkpt><trkpt lat="34.373885" lon="8.689825"><ele>209.0</ele><time>2026-03-21T09:06:48.401Z</time></trkpt><trkpt lat="34.3737333" lon="8.6896"><ele>209.0</ele><time>2026-03-21T09:06:49.402Z</time></trkpt><trkpt lat="34.37358" lon="8.6893717"><ele>209.0</ele><time>2026-03-21T09:06:50.402Z</time></trkpt><trkpt lat="34.3734267" lon="8.6891417"><ele>209.0</ele><time>2026-03-21T09:06:51.403Z</time></trkpt><trkpt lat="34.3732717" lon="8.68891"><ele>209.0</ele><time>2026-03-21T09:06:52.401Z</time></trkpt><trkpt lat="34.3731133" lon="8.6886783"><ele>208.0</ele><time>2026-03-21T09:06:53.401Z</time></trkpt><trkpt lat="34.3729533" lon="8.688445"><ele>207.0</ele><time>2026-03-21T09:06:54.402Z</time></trkpt><trkpt lat="34.372795" lon="8.6882083"><ele>207.0</ele><time>2026-03-21T09:06:55.402Z</time></trkpt><trkpt lat="34.3726333" lon="8.68797"><ele>207.0</ele><time>2026-03-21T09:06:56.403Z</time></trkpt><trkpt lat="34.3724717" lon="8.6877333"><ele>207.0</ele><time>2026-03-21T09:06:57.401Z</time></trkpt><trkpt lat="34.37231" lon="8.6874967"><ele>207.0</ele><time>2026-03-21T09:06:58.402Z</time></trkpt><trkpt lat="34.37215" lon="8.68726"><ele>207.0</ele><time>2026-03-21T09:06:59.402Z</time></trkpt><trkpt lat="34.3719917" lon="8.68702"><ele>207.0</ele><time>2026-03-21T09:07:00.402Z</time></trkpt><trkpt lat="34.37183" lon="8.68678"><ele>206.5</ele><time>2026-03-21T09:07:01.401Z</time></trkpt><trkpt lat="34.3716683" lon="8.6865383"><ele>206.0</ele><time>2026-03-21T09:07:02.402Z</time></trkpt><trkpt lat="34.371505" lon="8.6863"><ele>206.0</ele><time>2026-03-21T09:07:03.401Z</time></trkpt><trkpt lat="34.3713444" lon="8.6860614"><ele>206.0</ele><time>2026-03-21T09:07:04.401Z</time></trkpt><trkpt lat="34.3711833" lon="8.6858194"><ele>206.0</ele><time>2026-03-21T09:07:05.403Z</time></trkpt><trkpt lat="34.3710204" lon="8.6855786"><ele>206.0</ele><time>2026-03-21T09:07:06.405Z</time></trkpt><trkpt lat="34.3708582" lon="8.6853391"><ele>206.0</ele><time>2026-03-21T09:07:07.402Z</time></trkpt><trkpt lat="34.3706982" lon="8.685099"><ele>206.0</ele><time>2026-03-21T09:07:08.402Z</time></trkpt><trkpt lat="34.370505" lon="8.6846092"><ele>205.0</ele><time>2026-03-21T09:07:10.391Z</time></trkpt><trkpt lat="34.3700078" lon="8.6841505"><ele>205.0</ele><time>2026-03-21T09:07:12.097Z</time></trkpt><trkpt lat="34.3698186" lon="8.6838772"><ele>205.0</ele><time>2026-03-21T09:07:13.402Z</time></trkpt><trkpt lat="34.3697083" lon="8.6837024"><ele>205.0</ele><time>2026-03-21T09:07:14.402Z</time></trkpt><trkpt lat="34.3695885" lon="8.6835105"><ele>205.0</ele><time>2026-03-21T09:07:15.401Z</time></trkpt><trkpt lat="34.3694569" lon="8.6832999"><ele>205.0</ele><time>2026-03-21T09:07:16.402Z</time></trkpt><trkpt lat="34.3693169" lon="8.6830802"><ele>205.0</ele><time>2026-03-21T09:07:17.401Z</time></trkpt><trkpt lat="34.3691712" lon="8.6828579"><ele>205.0</ele><time>2026-03-21T09:07:18.402Z</time></trkpt><trkpt lat="34.3690209" lon="8.6826305"><ele>204.5</ele><time>2026-03-21T09:07:19.402Z</time></trkpt><trkpt lat="34.3688661" lon="8.6823978"><ele>204.0</ele><time>2026-03-21T09:07:20.402Z</time></trkpt><trkpt lat="34.368709" lon="8.6821656"><ele>203.0</ele><time>2026-03-21T09:07:21.401Z</time></trkpt><trkpt lat="34.368552" lon="8.6819309"><ele>202.0</ele><time>2026-03-21T09:07:22.401Z</time></trkpt><trkpt lat="34.3683944" lon="8.6816913"><ele>202.0</ele><time>2026-03-21T09:07:23.401Z</time></trkpt><trkpt lat="34.3682383" lon="8.6814508"><ele>202.0</ele><time>2026-03-21T09:07:24.401Z</time></trkpt><trkpt lat="34.3680779" lon="8.6812087"><ele>201.0</ele><time>2026-03-21T09:07:25.402Z</time></trkpt><trkpt lat="34.3679148" lon="8.6809652"><ele>200.0</ele><time>2026-03-21T09:07:26.401Z</time></trkpt><trkpt lat="34.3677484" lon="8.6807223"><ele>200.0</ele><time>2026-03-21T09:07:27.402Z</time></trkpt><trkpt lat="34.367584" lon="8.6804817"><ele>200.0</ele><time>2026-03-21T09:07:28.403Z</time></trkpt><trkpt lat="34.3674234" lon="8.6802437"><ele>200.0</ele><time>2026-03-21T09:07:29.403Z</time></trkpt><trkpt lat="34.3672665" lon="8.68001"><ele>200.0</ele><time>2026-03-21T09:07:30.402Z</time></trkpt><trkpt lat="34.3671152" lon="8.6797823"><ele>200.0</ele><time>2026-03-21T09:07:31.401Z</time></trkpt><trkpt lat="34.3669673" lon="8.6795621"><ele>200.0</ele><time>2026-03-21T09:07:32.402Z</time></trkpt><trkpt lat="34.3668233" lon="8.6793487"><ele>199.33333333333334</ele><time>2026-03-21T09:07:33.401Z</time></trkpt><trkpt lat="34.3666825" lon="8.6791376"><ele>198.66666666666669</ele><time>2026-03-21T09:07:34.401Z</time></trkpt><trkpt lat="34.3665426" lon="8.6789281"><ele>198.0</ele><time>2026-03-21T09:07:35.401Z</time></trkpt><trkpt lat="34.3664017" lon="8.6787183"><ele>198.0</ele><time>2026-03-21T09:07:36.401Z</time></trkpt><trkpt lat="34.3662583" lon="8.6785067"><ele>198.0</ele><time>2026-03-21T09:07:37.401Z</time></trkpt><trkpt lat="34.3661133" lon="8.678295"><ele>198.0</ele><time>2026-03-21T09:07:38.402Z</time></trkpt><trkpt lat="34.3659667" lon="8.6780783"><ele>198.0</ele><time>2026-03-21T09:07:39.402Z</time></trkpt><trkpt lat="34.36582" lon="8.67786"><ele>198.5</ele><time>2026-03-21T09:07:40.402Z</time></trkpt><trkpt lat="34.3656733" lon="8.6776417"><ele>199.0</ele><time>2026-03-21T09:07:41.401Z</time></trkpt><trkpt lat="34.3655267" lon="8.6774217"><ele>197.5</ele><time>2026-03-21T09:07:42.401Z</time></trkpt><trkpt lat="34.3653817" lon="8.6772033"><ele>196.0</ele><time>2026-03-21T09:07:43.401Z</time></trkpt><trkpt lat="34.365235" lon="8.6769867"><ele>196.0</ele><time>2026-03-21T09:07:44.401Z</time></trkpt><trkpt lat="34.3650883" lon="8.6767717"><ele>196.0</ele><time>2026-03-21T09:07:45.401Z</time></trkpt><trkpt lat="34.36494" lon="8.676555"><ele>196.0</ele><time>2026-03-21T09:07:46.401Z</time></trkpt><trkpt lat="34.3647933" lon="8.6763317"><ele>196.0</ele><time>2026-03-21T09:07:47.401Z</time></trkpt><trkpt lat="34.3646467" lon="8.67611"><ele>196.0</ele><time>2026-03-21T09:07:48.401Z</time></trkpt><trkpt lat="34.3644983" lon="8.67589"><ele>196.0</ele><time>2026-03-21T09:07:49.402Z</time></trkpt><trkpt lat="34.3643517" lon="8.67567"><ele>196.0</ele><time>2026-03-21T09:07:50.401Z</time></trkpt><trkpt lat="34.3642033" lon="8.6754533"><ele>196.0</ele><time>2026-03-21T09:07:51.403Z</time></trkpt><trkpt lat="34.3640567" lon="8.67523"><ele>196.0</ele><time>2026-03-21T09:07:52.403Z</time></trkpt><trkpt lat="34.3639083" lon="8.675005"><ele>196.0</ele><time>2026-03-21T09:07:53.402Z</time></trkpt><trkpt lat="34.3637567" lon="8.6747817"><ele>196.0</ele><time>2026-03-21T09:07:54.403Z</time></trkpt><trkpt lat="34.363605" lon="8.6745567"><ele>196.0</ele><time>2026-03-21T09:07:55.404Z</time></trkpt><trkpt lat="34.363455" lon="8.6743383"><ele>195.5</ele><time>2026-03-21T09:07:56.403Z</time></trkpt><trkpt lat="34.3633" lon="8.6741167"><ele>195.0</ele><time>2026-03-21T09:07:57.402Z</time></trkpt><trkpt lat="34.3631367" lon="8.673885"><ele>195.0</ele><time>2026-03-21T09:07:58.402Z</time></trkpt><trkpt lat="34.3629667" lon="8.673645"><ele>195.0</ele><time>2026-03-21T09:07:59.402Z</time></trkpt><trkpt lat="34.3627867" lon="8.673395"><ele>194.0</ele><time>2026-03-21T09:08:00.402Z</time></trkpt><trkpt lat="34.3626017" lon="8.6731283"><ele>193.0</ele><time>2026-03-21T09:08:01.403Z</time></trkpt><trkpt lat="34.36242" lon="8.6728433"><ele>193.5</ele><time>2026-03-21T09:08:02.402Z</time></trkpt><trkpt lat="34.3622367" lon="8.672555"><ele>194.0</ele><time>2026-03-21T09:08:03.402Z</time></trkpt><trkpt lat="34.3620517" lon="8.6722733"><ele>194.0</ele><time>2026-03-21T09:08:04.403Z</time></trkpt><trkpt lat="34.3618717" lon="8.672005"><ele>194.0</ele><time>2026-03-21T09:08:05.402Z</time></trkpt><trkpt lat="34.3617017" lon="8.671755"><ele>194.0</ele><time>2026-03-21T09:08:06.403Z</time></trkpt><trkpt lat="34.361535" lon="8.67151"><ele>194.0</ele><time>2026-03-21T09:08:07.403Z</time></trkpt><trkpt lat="34.3613767" lon="8.6712733"><ele>193.5</ele><time>2026-03-21T09:08:08.403Z</time></trkpt><trkpt lat="34.36122" lon="8.6710417"><ele>193.0</ele><time>2026-03-21T09:08:09.402Z</time></trkpt><trkpt lat="34.3610633" lon="8.670815"><ele>193.0</ele><time>2026-03-21T09:08:10.402Z</time></trkpt><trkpt lat="34.3609067" lon="8.6705917"><ele>193.0</ele><time>2026-03-21T09:08:11.402Z</time></trkpt><trkpt lat="34.360755" lon="8.6703717"><ele>193.0</ele><time>2026-03-21T09:08:12.403Z</time></trkpt><trkpt lat="34.3606067" lon="8.6701467"><ele>193.0</ele><time>2026-03-21T09:08:13.402Z</time></trkpt><trkpt lat="34.3604583" lon="8.66992"><ele>194.5</ele><time>2026-03-21T09:08:14.402Z</time></trkpt><trkpt lat="34.3603083" lon="8.669695"><ele>196.0</ele><time>2026-03-21T09:08:15.402Z</time></trkpt><trkpt lat="34.3601583" lon="8.6694717"><ele>194.0</ele><time>2026-03-21T09:08:16.402Z</time></trkpt><trkpt lat="34.3600067" lon="8.66925"><ele>192.0</ele><time>2026-03-21T09:08:17.402Z</time></trkpt><trkpt lat="34.35986" lon="8.6690267"><ele>192.0</ele><time>2026-03-21T09:08:18.402Z</time></trkpt><trkpt lat="34.3597133" lon="8.668805"><ele>192.0</ele><time>2026-03-21T09:08:19.405Z</time></trkpt><trkpt lat="34.3595683" lon="8.6685883"><ele>191.5</ele><time>2026-03-21T09:08:20.407Z</time></trkpt><trkpt lat="34.3594217" lon="8.6683717"><ele>191.0</ele><time>2026-03-21T09:08:21.405Z</time></trkpt><trkpt lat="34.3592817" lon="8.6681633"><ele>191.0</ele><time>2026-03-21T09:08:22.402Z</time></trkpt><trkpt lat="34.3591383" lon="8.66795"><ele>191.0</ele><time>2026-03-21T09:08:23.402Z</time></trkpt><trkpt lat="34.3589967" lon="8.6677383"><ele>191.0</ele><time>2026-03-21T09:08:24.402Z</time></trkpt><trkpt lat="34.35886" lon="8.667535"><ele>191.0</ele><time>2026-03-21T09:08:25.402Z</time></trkpt><trkpt lat="34.3587217" lon="8.6673317"><ele>191.0</ele><time>2026-03-21T09:08:26.402Z</time></trkpt><trkpt lat="34.3585833" lon="8.6671267"><ele>191.33333333333331</ele><time>2026-03-21T09:08:27.403Z</time></trkpt><trkpt lat="34.3584433" lon="8.6669183"><ele>191.66666666666666</ele><time>2026-03-21T09:08:28.402Z</time></trkpt><trkpt lat="34.3583117" lon="8.666705"><ele>192.0</ele><time>2026-03-21T09:08:29.402Z</time></trkpt><trkpt lat="34.3581883" lon="8.6664867"><ele>192.0</ele><time>2026-03-21T09:08:30.402Z</time></trkpt><trkpt lat="34.35807" lon="8.6662583"><ele>192.0</ele><time>2026-03-21T09:08:31.402Z</time></trkpt><trkpt lat="34.3579567" lon="8.666025"><ele>192.0</ele><time>2026-03-21T09:08:32.403Z</time></trkpt><trkpt lat="34.3578517" lon="8.6657967"><ele>191.33333333333334</ele><time>2026-03-21T09:08:33.402Z</time></trkpt><trkpt lat="34.3577483" lon="8.66557"><ele>190.66666666666669</ele><time>2026-03-21T09:08:34.402Z</time></trkpt><trkpt lat="34.3576483" lon="8.6653417"><ele>190.0</ele><time>2026-03-21T09:08:35.403Z</time></trkpt><trkpt lat="34.3575533" lon="8.6651033"><ele>189.66666666666669</ele><time>2026-03-21T09:08:36.402Z</time></trkpt><trkpt lat="34.357465" lon="8.66486"><ele>189.33333333333334</ele><time>2026-03-21T09:08:37.402Z</time></trkpt><trkpt lat="34.3573817" lon="8.66461"><ele>189.0</ele><time>2026-03-21T09:08:38.405Z</time></trkpt><trkpt lat="34.3573017" lon="8.66436"><ele>188.5</ele><time>2026-03-21T09:08:39.403Z</time></trkpt><trkpt lat="34.3572217" lon="8.664105"><ele>188.0</ele><time>2026-03-21T09:08:40.403Z</time></trkpt><trkpt lat="34.3571433" lon="8.6638483"><ele>189.0</ele><time>2026-03-21T09:08:41.402Z</time></trkpt><trkpt lat="34.3570667" lon="8.6635917"><ele>190.0</ele><time>2026-03-21T09:08:42.402Z</time></trkpt><trkpt lat="34.3569867" lon="8.6633333"><ele>190.0</ele><time>2026-03-21T09:08:43.402Z</time></trkpt><trkpt lat="34.3569083" lon="8.663075"><ele>190.0</ele><time>2026-03-21T09:08:44.403Z</time></trkpt><trkpt lat="34.3568317" lon="8.662815"><ele>189.5</ele><time>2026-03-21T09:08:45.402Z</time></trkpt><trkpt lat="34.356755" lon="8.6625533"><ele>189.0</ele><time>2026-03-21T09:08:46.403Z</time></trkpt><trkpt lat="34.356675" lon="8.662295"><ele>189.0</ele><time>2026-03-21T09:08:47.402Z</time></trkpt><trkpt lat="34.356595" lon="8.6620383"><ele>189.0</ele><time>2026-03-21T09:08:48.402Z</time></trkpt><trkpt lat="34.3565183" lon="8.661775"><ele>189.0</ele><time>2026-03-21T09:08:49.402Z</time></trkpt><trkpt lat="34.3564417" lon="8.6615133"><ele>189.0</ele><time>2026-03-21T09:08:50.405Z</time></trkpt><trkpt lat="34.35636" lon="8.6612517"><ele>189.5</ele><time>2026-03-21T09:08:51.402Z</time></trkpt><trkpt lat="34.3562783" lon="8.6609883"><ele>190.0</ele><time>2026-03-21T09:08:52.403Z</time></trkpt><trkpt lat="34.3561967" lon="8.660725"><ele>190.0</ele><time>2026-03-21T09:08:53.402Z</time></trkpt><trkpt lat="34.3561117" lon="8.66046"><ele>190.0</ele><time>2026-03-21T09:08:54.403Z</time></trkpt><trkpt lat="34.35603" lon="8.66019"><ele>189.5</ele><time>2026-03-21T09:08:55.402Z</time></trkpt><trkpt lat="34.3559483" lon="8.6599167"><ele>189.0</ele><time>2026-03-21T09:08:56.405Z</time></trkpt><trkpt lat="34.3558633" lon="8.659645"><ele>189.0</ele><time>2026-03-21T09:08:57.402Z</time></trkpt><trkpt lat="34.3557817" lon="8.6593733"><ele>189.0</ele><time>2026-03-21T09:08:58.403Z</time></trkpt><trkpt lat="34.3556967" lon="8.6591033"><ele>189.0</ele><time>2026-03-21T09:08:59.402Z</time></trkpt><trkpt lat="34.3556167" lon="8.6588283"><ele>189.0</ele><time>2026-03-21T09:09:00.402Z</time></trkpt><trkpt lat="34.3555317" lon="8.6585567"><ele>188.5</ele><time>2026-03-21T09:09:01.403Z</time></trkpt><trkpt lat="34.355445" lon="8.6582883"><ele>188.0</ele><time>2026-03-21T09:09:02.405Z</time></trkpt><trkpt lat="34.35536" lon="8.6580267"><ele>187.0</ele><time>2026-03-21T09:09:03.402Z</time></trkpt><trkpt lat="34.3552767" lon="8.6577633"><ele>186.0</ele><time>2026-03-21T09:09:04.402Z</time></trkpt><trkpt lat="34.3551917" lon="8.6574983"><ele>186.0</ele><time>2026-03-21T09:09:05.402Z</time></trkpt><trkpt lat="34.35511" lon="8.6572333"><ele>186.0</ele><time>2026-03-21T09:09:06.403Z</time></trkpt><trkpt lat="34.3550267" lon="8.6569717"><ele>186.0</ele><time>2026-03-21T09:09:07.402Z</time></trkpt><trkpt lat="34.354945" lon="8.656705"><ele>186.0</ele><time>2026-03-21T09:09:08.403Z</time></trkpt><trkpt lat="34.3548667" lon="8.65644"><ele>186.0</ele><time>2026-03-21T09:09:09.403Z</time></trkpt><trkpt lat="34.354785" lon="8.656175"><ele>186.0</ele><time>2026-03-21T09:09:10.402Z</time></trkpt><trkpt lat="34.3547017" lon="8.6559117"><ele>186.0</ele><time>2026-03-21T09:09:11.402Z</time></trkpt><trkpt lat="34.3546167" lon="8.6556483"><ele>186.0</ele><time>2026-03-21T09:09:12.403Z</time></trkpt><trkpt lat="34.354535" lon="8.6553817"><ele>186.5</ele><time>2026-03-21T09:09:13.402Z</time></trkpt><trkpt lat="34.3544517" lon="8.6551183"><ele>187.0</ele><time>2026-03-21T09:09:14.403Z</time></trkpt><trkpt lat="34.35437" lon="8.654855"><ele>187.0</ele><time>2026-03-21T09:09:15.403Z</time></trkpt><trkpt lat="34.3542867" lon="8.65459"><ele>187.0</ele><time>2026-03-21T09:09:16.404Z</time></trkpt><trkpt lat="34.354205" lon="8.6543233"><ele>186.5</ele><time>2026-03-21T09:09:17.402Z</time></trkpt><trkpt lat="34.3541233" lon="8.6540583"><ele>186.0</ele><time>2026-03-21T09:09:18.403Z</time></trkpt><trkpt lat="34.3540417" lon="8.653795"><ele>186.0</ele><time>2026-03-21T09:09:19.402Z</time></trkpt><trkpt lat="34.3539583" lon="8.65353"><ele>186.0</ele><time>2026-03-21T09:09:20.404Z</time></trkpt><trkpt lat="34.3538767" lon="8.6532617"><ele>186.0</ele><time>2026-03-21T09:09:21.405Z</time></trkpt><trkpt lat="34.353795" lon="8.652995"><ele>186.0</ele><time>2026-03-21T09:09:22.402Z</time></trkpt><trkpt lat="34.353715" lon="8.652725"><ele>185.0</ele><time>2026-03-21T09:09:23.402Z</time></trkpt><trkpt lat="34.353635" lon="8.6524567"><ele>184.0</ele><time>2026-03-21T09:09:24.402Z</time></trkpt><trkpt lat="34.3535533" lon="8.6521883"><ele>184.5</ele><time>2026-03-21T09:09:25.404Z</time></trkpt><trkpt lat="34.3534717" lon="8.6519183"><ele>185.0</ele><time>2026-03-21T09:09:26.402Z</time></trkpt><trkpt lat="34.3533867" lon="8.6516533"><ele>185.0</ele><time>2026-03-21T09:09:27.402Z</time></trkpt><trkpt lat="34.3533033" lon="8.6513917"><ele>185.0</ele><time>2026-03-21T09:09:28.403Z</time></trkpt><trkpt lat="34.353225" lon="8.651135"><ele>184.5</ele><time>2026-03-21T09:09:29.402Z</time></trkpt><trkpt lat="34.3531467" lon="8.6508783"><ele>184.0</ele><time>2026-03-21T09:09:30.405Z</time></trkpt><trkpt lat="34.3530667" lon="8.650625"><ele>184.0</ele><time>2026-03-21T09:09:31.402Z</time></trkpt><trkpt lat="34.3529867" lon="8.6503733"><ele>184.0</ele><time>2026-03-21T09:09:32.404Z</time></trkpt><trkpt lat="34.3529083" lon="8.6501217"><ele>184.0</ele><time>2026-03-21T09:09:33.402Z</time></trkpt><trkpt lat="34.35283" lon="8.6498683"><ele>184.0</ele><time>2026-03-21T09:09:34.402Z</time></trkpt><trkpt lat="34.35275" lon="8.649615"><ele>184.0</ele><time>2026-03-21T09:09:35.402Z</time></trkpt><trkpt lat="34.35267" lon="8.6493667"><ele>184.0</ele><time>2026-03-21T09:09:36.402Z</time></trkpt><trkpt lat="34.35259" lon="8.6491167"><ele>184.0</ele><time>2026-03-21T09:09:37.407Z</time></trkpt><trkpt lat="34.3525083" lon="8.6488683"><ele>184.0</ele><time>2026-03-21T09:09:38.403Z</time></trkpt><trkpt lat="34.3524267" lon="8.6486167"><ele>184.0</ele><time>2026-03-21T09:09:39.402Z</time></trkpt><trkpt lat="34.352345" lon="8.6483617"><ele>183.5</ele><time>2026-03-21T09:09:40.403Z</time></trkpt><trkpt lat="34.3522667" lon="8.6481067"><ele>183.0</ele><time>2026-03-21T09:09:41.402Z</time></trkpt><trkpt lat="34.3521867" lon="8.6478517"><ele>182.0</ele><time>2026-03-21T09:09:42.403Z</time></trkpt><trkpt lat="34.3521067" lon="8.6475967"><ele>181.0</ele><time>2026-03-21T09:09:43.403Z</time></trkpt><trkpt lat="34.352025" lon="8.6473467"><ele>180.0</ele><time>2026-03-21T09:09:44.402Z</time></trkpt><trkpt lat="34.3519433" lon="8.6470933"><ele>180.5</ele><time>2026-03-21T09:09:45.402Z</time></trkpt><trkpt lat="34.351865" lon="8.6468367"><ele>181.0</ele><time>2026-03-21T09:09:46.402Z</time></trkpt><trkpt lat="34.3517917" lon="8.646575"><ele>181.0</ele><time>2026-03-21T09:09:47.403Z</time></trkpt><trkpt lat="34.351715" lon="8.6463117"><ele>181.0</ele><time>2026-03-21T09:09:48.402Z</time></trkpt><trkpt lat="34.3516367" lon="8.6460517"><ele>181.5</ele><time>2026-03-21T09:09:49.403Z</time></trkpt><trkpt lat="34.3515567" lon="8.6457933"><ele>182.0</ele><time>2026-03-21T09:09:50.404Z</time></trkpt><trkpt lat="34.3514783" lon="8.6455367"><ele>182.33333333333331</ele><time>2026-03-21T09:09:51.403Z</time></trkpt><trkpt lat="34.3513967" lon="8.6452833"><ele>182.66666666666666</ele><time>2026-03-21T09:09:52.402Z</time></trkpt><trkpt lat="34.3513167" lon="8.6450317"><ele>183.0</ele><time>2026-03-21T09:09:53.402Z</time></trkpt><trkpt lat="34.3512417" lon="8.644775"><ele>182.0</ele><time>2026-03-21T09:09:54.402Z</time></trkpt><trkpt lat="34.351165" lon="8.6445183"><ele>181.0</ele><time>2026-03-21T09:09:55.403Z</time></trkpt><trkpt lat="34.3510867" lon="8.6442633"><ele>181.0</ele><time>2026-03-21T09:09:56.402Z</time></trkpt><trkpt lat="34.3510067" lon="8.6440117"><ele>181.0</ele><time>2026-03-21T09:09:57.402Z</time></trkpt><trkpt lat="34.3509233" lon="8.6437617"><ele>181.0</ele><time>2026-03-21T09:09:58.403Z</time></trkpt><trkpt lat="34.3508433" lon="8.6435083"><ele>180.66666666666669</ele><time>2026-03-21T09:09:59.402Z</time></trkpt><trkpt lat="34.350765" lon="8.643255"><ele>180.33333333333334</ele><time>2026-03-21T09:10:00.402Z</time></trkpt><trkpt lat="34.3506867" lon="8.643"><ele>180.0</ele><time>2026-03-21T09:10:01.402Z</time></trkpt><trkpt lat="34.3506083" lon="8.6427433"><ele>180.33333333333334</ele><time>2026-03-21T09:10:02.402Z</time></trkpt><trkpt lat="34.3505317" lon="8.6424867"><ele>180.66666666666669</ele><time>2026-03-21T09:10:03.402Z</time></trkpt><trkpt lat="34.3504567" lon="8.6422333"><ele>181.0</ele><time>2026-03-21T09:10:04.402Z</time></trkpt><trkpt lat="34.35038" lon="8.6419817"><ele>181.0</ele><time>2026-03-21T09:10:05.403Z</time></trkpt><trkpt lat="34.3503017" lon="8.6417317"><ele>181.0</ele><time>2026-03-21T09:10:06.403Z</time></trkpt><trkpt lat="34.3502217" lon="8.64148"><ele>181.0</ele><time>2026-03-21T09:10:07.403Z</time></trkpt><trkpt lat="34.35014" lon="8.6412267"><ele>180.0</ele><time>2026-03-21T09:10:08.402Z</time></trkpt><trkpt lat="34.35006" lon="8.640975"><ele>179.0</ele><time>2026-03-21T09:10:09.402Z</time></trkpt><trkpt lat="34.3499817" lon="8.6407233"><ele>178.0</ele><time>2026-03-21T09:10:10.402Z</time></trkpt><trkpt lat="34.349905" lon="8.64047"><ele>178.0</ele><time>2026-03-21T09:10:11.403Z</time></trkpt><trkpt lat="34.3498267" lon="8.6402133"><ele>178.0</ele><time>2026-03-21T09:10:12.403Z</time></trkpt><trkpt lat="34.3497483" lon="8.6399583"><ele>178.33333333333334</ele><time>2026-03-21T09:10:13.402Z</time></trkpt><trkpt lat="34.3496717" lon="8.6397033"><ele>178.66666666666666</ele><time>2026-03-21T09:10:14.402Z</time></trkpt><trkpt lat="34.3495967" lon="8.6394467"><ele>179.0</ele><time>2026-03-21T09:10:15.401Z</time></trkpt><trkpt lat="34.34952" lon="8.6391883"><ele>179.0</ele><time>2026-03-21T09:10:16.401Z</time></trkpt><trkpt lat="34.34944" lon="8.63893"><ele>179.0</ele><time>2026-03-21T09:10:17.402Z</time></trkpt><trkpt lat="34.34936" lon="8.63867"><ele>178.0</ele><time>2026-03-21T09:10:18.402Z</time></trkpt><trkpt lat="34.34928" lon="8.63841"><ele>177.0</ele><time>2026-03-21T09:10:19.402Z</time></trkpt><trkpt lat="34.3491983" lon="8.6381533"><ele>177.0</ele><time>2026-03-21T09:10:20.402Z</time></trkpt><trkpt lat="34.3491183" lon="8.6378967"><ele>177.0</ele><time>2026-03-21T09:10:21.401Z</time></trkpt><trkpt lat="34.3490383" lon="8.6376383"><ele>177.5</ele><time>2026-03-21T09:10:22.401Z</time></trkpt><trkpt lat="34.3489583" lon="8.6373817"><ele>178.0</ele><time>2026-03-21T09:10:23.402Z</time></trkpt><trkpt lat="34.3488767" lon="8.6371233"><ele>178.0</ele><time>2026-03-21T09:10:24.402Z</time></trkpt><trkpt lat="34.3487967" lon="8.636865"><ele>178.0</ele><time>2026-03-21T09:10:25.403Z</time></trkpt><trkpt lat="34.348715" lon="8.6366083"><ele>178.0</ele><time>2026-03-21T09:10:26.402Z</time></trkpt><trkpt lat="34.3486383" lon="8.63635"><ele>178.0</ele><time>2026-03-21T09:10:27.401Z</time></trkpt><trkpt lat="34.3485583" lon="8.6360883"><ele>178.0</ele><time>2026-03-21T09:10:28.401Z</time></trkpt><trkpt lat="34.34848" lon="8.63583"><ele>178.0</ele><time>2026-03-21T09:10:29.402Z</time></trkpt><trkpt lat="34.3484017" lon="8.6355683"><ele>178.0</ele><time>2026-03-21T09:10:30.402Z</time></trkpt><trkpt lat="34.3483217" lon="8.6353117"><ele>178.0</ele><time>2026-03-21T09:10:31.401Z</time></trkpt><trkpt lat="34.3482433" lon="8.635055"><ele>177.5</ele><time>2026-03-21T09:10:32.403Z</time></trkpt><trkpt lat="34.3481633" lon="8.6348"><ele>177.0</ele><time>2026-03-21T09:10:33.401Z</time></trkpt><trkpt lat="34.348085" lon="8.6345433"><ele>177.0</ele><time>2026-03-21T09:10:34.401Z</time></trkpt><trkpt lat="34.3480133" lon="8.6342817"><ele>177.0</ele><time>2026-03-21T09:10:35.401Z</time></trkpt><trkpt lat="34.3479417" lon="8.6340183"><ele>177.0</ele><time>2026-03-21T09:10:36.402Z</time></trkpt><trkpt lat="34.347875" lon="8.6337567"><ele>177.0</ele><time>2026-03-21T09:10:37.403Z</time></trkpt><trkpt lat="34.3478083" lon="8.63349"><ele>176.5</ele><time>2026-03-21T09:10:38.402Z</time></trkpt><trkpt lat="34.347745" lon="8.6332217"><ele>176.0</ele><time>2026-03-21T09:10:39.402Z</time></trkpt><trkpt lat="34.3476817" lon="8.632955"><ele>176.0</ele><time>2026-03-21T09:10:40.406Z</time></trkpt><trkpt lat="34.3476183" lon="8.63269"><ele>176.0</ele><time>2026-03-21T09:10:41.403Z</time></trkpt><trkpt lat="34.347555" lon="8.632425"><ele>176.0</ele><time>2026-03-21T09:10:42.403Z</time></trkpt><trkpt lat="34.3474917" lon="8.6321567"><ele>176.0</ele><time>2026-03-21T09:10:43.402Z</time></trkpt><trkpt lat="34.3474283" lon="8.6318933"><ele>176.0</ele><time>2026-03-21T09:10:44.402Z</time></trkpt><trkpt lat="34.347365" lon="8.631625"><ele>176.0</ele><time>2026-03-21T09:10:45.402Z</time></trkpt><trkpt lat="34.3473" lon="8.6313517"><ele>176.0</ele><time>2026-03-21T09:10:46.401Z</time></trkpt><trkpt lat="34.3472367" lon="8.63108"><ele>176.0</ele><time>2026-03-21T09:10:47.402Z</time></trkpt><trkpt lat="34.3471733" lon="8.6308067"><ele>175.5</ele><time>2026-03-21T09:10:48.402Z</time></trkpt><trkpt lat="34.3471067" lon="8.6305333"><ele>175.0</ele><time>2026-03-21T09:10:49.401Z</time></trkpt><trkpt lat="34.34704" lon="8.6302583"><ele>174.5</ele><time>2026-03-21T09:10:50.403Z</time></trkpt><trkpt lat="34.346975" lon="8.62998"><ele>174.0</ele><time>2026-03-21T09:10:51.402Z</time></trkpt><trkpt lat="34.34691" lon="8.6297"><ele>174.0</ele><time>2026-03-21T09:10:52.401Z</time></trkpt><trkpt lat="34.346845" lon="8.6294217"><ele>174.0</ele><time>2026-03-21T09:10:53.401Z</time></trkpt><trkpt lat="34.3467767" lon="8.6291483"><ele>174.0</ele><time>2026-03-21T09:10:54.402Z</time></trkpt><trkpt lat="34.3467067" lon="8.6288783"><ele>174.0</ele><time>2026-03-21T09:10:55.401Z</time></trkpt><trkpt lat="34.3466333" lon="8.628605"><ele>173.0</ele><time>2026-03-21T09:10:56.402Z</time></trkpt><trkpt lat="34.3465633" lon="8.628335"><ele>172.0</ele><time>2026-03-21T09:10:57.401Z</time></trkpt><trkpt lat="34.346495" lon="8.6280667"><ele>172.0</ele><time>2026-03-21T09:10:58.401Z</time></trkpt><trkpt lat="34.3464283" lon="8.6277967"><ele>172.0</ele><time>2026-03-21T09:10:59.402Z</time></trkpt><trkpt lat="34.3463617" lon="8.6275267"><ele>172.5</ele><time>2026-03-21T09:11:00.401Z</time></trkpt><trkpt lat="34.3462933" lon="8.6272517"><ele>173.0</ele><time>2026-03-21T09:11:01.403Z</time></trkpt><trkpt lat="34.346225" lon="8.6269717"><ele>173.0</ele><time>2026-03-21T09:11:02.402Z</time></trkpt><trkpt lat="34.3461567" lon="8.6266933"><ele>173.0</ele><time>2026-03-21T09:11:03.403Z</time></trkpt><trkpt lat="34.3460867" lon="8.626415"><ele>172.5</ele><time>2026-03-21T09:11:04.401Z</time></trkpt><trkpt lat="34.3460183" lon="8.626135"><ele>172.0</ele><time>2026-03-21T09:11:05.402Z</time></trkpt><trkpt lat="34.3459533" lon="8.625855"><ele>172.0</ele><time>2026-03-21T09:11:06.402Z</time></trkpt><trkpt lat="34.34589" lon="8.6255767"><ele>172.0</ele><time>2026-03-21T09:11:07.403Z</time></trkpt><trkpt lat="34.3458233" lon="8.6252967"><ele>171.5</ele><time>2026-03-21T09:11:08.404Z</time></trkpt><trkpt lat="34.3457567" lon="8.6250167"><ele>171.0</ele><time>2026-03-21T09:11:09.402Z</time></trkpt><trkpt lat="34.3456883" lon="8.6247367"><ele>171.5</ele><time>2026-03-21T09:11:10.401Z</time></trkpt><trkpt lat="34.3456233" lon="8.6244567"><ele>172.0</ele><time>2026-03-21T09:11:11.401Z</time></trkpt><trkpt lat="34.3455533" lon="8.6241767"><ele>171.5</ele><time>2026-03-21T09:11:12.402Z</time></trkpt><trkpt lat="34.3454833" lon="8.6239"><ele>171.0</ele><time>2026-03-21T09:11:13.402Z</time></trkpt><trkpt lat="34.3454167" lon="8.6236217"><ele>170.5</ele><time>2026-03-21T09:11:14.402Z</time></trkpt><trkpt lat="34.3453483" lon="8.6233417"><ele>170.0</ele><time>2026-03-21T09:11:15.402Z</time></trkpt><trkpt lat="34.3452817" lon="8.6230617"><ele>169.5</ele><time>2026-03-21T09:11:16.402Z</time></trkpt><trkpt lat="34.3452167" lon="8.6227833"><ele>169.0</ele><time>2026-03-21T09:11:17.402Z</time></trkpt><trkpt lat="34.3451517" lon="8.622505"><ele>169.0</ele><time>2026-03-21T09:11:18.402Z</time></trkpt><trkpt lat="34.3450867" lon="8.6222267"><ele>169.0</ele><time>2026-03-21T09:11:19.402Z</time></trkpt><trkpt lat="34.3450217" lon="8.6219517"><ele>169.0</ele><time>2026-03-21T09:11:20.402Z</time></trkpt><trkpt lat="34.344955" lon="8.6216783"><ele>169.0</ele><time>2026-03-21T09:11:21.401Z</time></trkpt><trkpt lat="34.3448883" lon="8.6214067"><ele>169.0</ele><time>2026-03-21T09:11:22.401Z</time></trkpt><trkpt lat="34.344825" lon="8.6211317"><ele>169.0</ele><time>2026-03-21T09:11:23.402Z</time></trkpt><trkpt lat="34.34476" lon="8.6208517"><ele>170.0</ele><time>2026-03-21T09:11:24.403Z</time></trkpt><trkpt lat="34.34469" lon="8.6205717"><ele>171.0</ele><time>2026-03-21T09:11:25.402Z</time></trkpt><trkpt lat="34.34462" lon="8.6202933"><ele>171.0</ele><time>2026-03-21T09:11:26.402Z</time></trkpt><trkpt lat="34.34455" lon="8.62001"><ele>171.0</ele><time>2026-03-21T09:11:27.402Z</time></trkpt><trkpt lat="34.34448" lon="8.6197267"><ele>171.0</ele><time>2026-03-21T09:11:28.401Z</time></trkpt><trkpt lat="34.34441" lon="8.6194417"><ele>171.0</ele><time>2026-03-21T09:11:29.403Z</time></trkpt><trkpt lat="34.3443417" lon="8.6191583"><ele>171.0</ele><time>2026-03-21T09:11:30.402Z</time></trkpt><trkpt lat="34.3442717" lon="8.618875"><ele>171.0</ele><time>2026-03-21T09:11:31.402Z</time></trkpt><trkpt lat="34.3442033" lon="8.6185867"><ele>169.5</ele><time>2026-03-21T09:11:32.402Z</time></trkpt><trkpt lat="34.344135" lon="8.6182967"><ele>168.0</ele><time>2026-03-21T09:11:33.402Z</time></trkpt><trkpt lat="34.344065" lon="8.6180033"><ele>168.0</ele><time>2026-03-21T09:11:34.402Z</time></trkpt><trkpt lat="34.3439983" lon="8.617715"><ele>168.0</ele><time>2026-03-21T09:11:35.402Z</time></trkpt><trkpt lat="34.34393" lon="8.6174283"><ele>167.0</ele><time>2026-03-21T09:11:36.404Z</time></trkpt><trkpt lat="34.34386" lon="8.6171417"><ele>166.0</ele><time>2026-03-21T09:11:37.402Z</time></trkpt><trkpt lat="34.3437883" lon="8.6168567"><ele>166.0</ele><time>2026-03-21T09:11:38.402Z</time></trkpt><trkpt lat="34.3437217" lon="8.61657"><ele>166.0</ele><time>2026-03-21T09:11:39.402Z</time></trkpt><trkpt lat="34.3436517" lon="8.61628"><ele>166.5</ele><time>2026-03-21T09:11:40.401Z</time></trkpt><trkpt lat="34.3435817" lon="8.6159967"><ele>167.0</ele><time>2026-03-21T09:11:41.402Z</time></trkpt><trkpt lat="34.3435133" lon="8.6157133"><ele>167.0</ele><time>2026-03-21T09:11:42.402Z</time></trkpt><trkpt lat="34.3434483" lon="8.6154317"><ele>167.0</ele><time>2026-03-21T09:11:43.401Z</time></trkpt><trkpt lat="34.3433833" lon="8.6151467"><ele>167.5</ele><time>2026-03-21T09:11:44.402Z</time></trkpt><trkpt lat="34.3433133" lon="8.61486"><ele>168.0</ele><time>2026-03-21T09:11:45.403Z</time></trkpt><trkpt lat="34.3432467" lon="8.6145783"><ele>167.5</ele><time>2026-03-21T09:11:46.401Z</time></trkpt><trkpt lat="34.3431783" lon="8.614295"><ele>167.0</ele><time>2026-03-21T09:11:47.402Z</time></trkpt><trkpt lat="34.34311" lon="8.61401"><ele>167.0</ele><time>2026-03-21T09:11:48.402Z</time></trkpt><trkpt lat="34.3430433" lon="8.6137233"><ele>167.0</ele><time>2026-03-21T09:11:49.402Z</time></trkpt><trkpt lat="34.3429717" lon="8.613435"><ele>167.0</ele><time>2026-03-21T09:11:50.402Z</time></trkpt><trkpt lat="34.3429" lon="8.6131483"><ele>167.0</ele><time>2026-03-21T09:11:51.402Z</time></trkpt><trkpt lat="34.34283" lon="8.6128617"><ele>166.0</ele><time>2026-03-21T09:11:52.401Z</time></trkpt><trkpt lat="34.3427567" lon="8.61257"><ele>165.0</ele><time>2026-03-21T09:11:53.402Z</time></trkpt><trkpt lat="34.3426867" lon="8.6122783"><ele>164.5</ele><time>2026-03-21T09:11:54.403Z</time></trkpt><trkpt lat="34.3426133" lon="8.6119867"><ele>164.0</ele><time>2026-03-21T09:11:55.401Z</time></trkpt><trkpt lat="34.342545" lon="8.6116983"><ele>164.0</ele><time>2026-03-21T09:11:56.402Z</time></trkpt><trkpt lat="34.34248" lon="8.61141"><ele>164.0</ele><time>2026-03-21T09:11:57.402Z</time></trkpt><trkpt lat="34.34241" lon="8.6111267"><ele>163.5</ele><time>2026-03-21T09:11:58.401Z</time></trkpt><trkpt lat="34.34234" lon="8.61084"><ele>163.0</ele><time>2026-03-21T09:11:59.402Z</time></trkpt><trkpt lat="34.3422667" lon="8.61055"><ele>164.0</ele><time>2026-03-21T09:12:00.403Z</time></trkpt><trkpt lat="34.3421983" lon="8.610265"><ele>165.0</ele><time>2026-03-21T09:12:01.402Z</time></trkpt><trkpt lat="34.34213" lon="8.6099817"><ele>165.0</ele><time>2026-03-21T09:12:02.402Z</time></trkpt><trkpt lat="34.34206" lon="8.609695"><ele>165.0</ele><time>2026-03-21T09:12:03.403Z</time></trkpt><trkpt lat="34.34199" lon="8.60941"><ele>165.0</ele><time>2026-03-21T09:12:04.401Z</time></trkpt><trkpt lat="34.34192" lon="8.6091233"><ele>165.0</ele><time>2026-03-21T09:12:05.401Z</time></trkpt><trkpt lat="34.3418533" lon="8.6088383"><ele>164.0</ele><time>2026-03-21T09:12:06.403Z</time></trkpt><trkpt lat="34.3417867" lon="8.6085517"><ele>163.0</ele><time>2026-03-21T09:12:07.402Z</time></trkpt><trkpt lat="34.3417183" lon="8.6082633"><ele>163.0</ele><time>2026-03-21T09:12:08.402Z</time></trkpt><trkpt lat="34.34165" lon="8.6079783"><ele>163.0</ele><time>2026-03-21T09:12:09.402Z</time></trkpt><trkpt lat="34.34158" lon="8.6076917"><ele>162.5</ele><time>2026-03-21T09:12:10.402Z</time></trkpt><trkpt lat="34.3415117" lon="8.6074067"><ele>162.0</ele><time>2026-03-21T09:12:11.403Z</time></trkpt><trkpt lat="34.3414433" lon="8.6071183"><ele>162.5</ele><time>2026-03-21T09:12:12.402Z</time></trkpt><trkpt lat="34.3413767" lon="8.60683"><ele>163.0</ele><time>2026-03-21T09:12:13.402Z</time></trkpt><trkpt lat="34.34131" lon="8.6065367"><ele>163.0</ele><time>2026-03-21T09:12:14.403Z</time></trkpt><trkpt lat="34.3412433" lon="8.6062483"><ele>163.0</ele><time>2026-03-21T09:12:15.402Z</time></trkpt><trkpt lat="34.3411767" lon="8.6059617"><ele>163.0</ele><time>2026-03-21T09:12:16.401Z</time></trkpt><trkpt lat="34.3411083" lon="8.6056783"><ele>163.0</ele><time>2026-03-21T09:12:17.402Z</time></trkpt><trkpt lat="34.3410367" lon="8.6053917"><ele>163.0</ele><time>2026-03-21T09:12:18.402Z</time></trkpt><trkpt lat="34.3409667" lon="8.605105"><ele>163.0</ele><time>2026-03-21T09:12:19.406Z</time></trkpt><trkpt lat="34.3408983" lon="8.604815"><ele>163.0</ele><time>2026-03-21T09:12:20.406Z</time></trkpt><trkpt lat="34.3408267" lon="8.6045233"><ele>163.0</ele><time>2026-03-21T09:12:21.401Z</time></trkpt><trkpt lat="34.3407567" lon="8.604225"><ele>162.5</ele><time>2026-03-21T09:12:22.402Z</time></trkpt><trkpt lat="34.340685" lon="8.60393"><ele>162.0</ele><time>2026-03-21T09:12:23.402Z</time></trkpt><trkpt lat="34.3406133" lon="8.60364"><ele>162.5</ele><time>2026-03-21T09:12:24.402Z</time></trkpt><trkpt lat="34.3405417" lon="8.60335"><ele>163.0</ele><time>2026-03-21T09:12:25.402Z</time></trkpt><trkpt lat="34.34047" lon="8.6030583"><ele>162.5</ele><time>2026-03-21T09:12:26.402Z</time></trkpt><trkpt lat="34.3404017" lon="8.6027667"><ele>162.0</ele><time>2026-03-21T09:12:27.402Z</time></trkpt><trkpt lat="34.3403317" lon="8.6024783"><ele>162.0</ele><time>2026-03-21T09:12:28.401Z</time></trkpt><trkpt lat="34.34026" lon="8.6021917"><ele>162.0</ele><time>2026-03-21T09:12:29.402Z</time></trkpt><trkpt lat="34.340195" lon="8.601905"><ele>161.5</ele><time>2026-03-21T09:12:30.402Z</time></trkpt><trkpt lat="34.34013" lon="8.6016217"><ele>161.0</ele><time>2026-03-21T09:12:31.403Z</time></trkpt><trkpt lat="34.340065" lon="8.601335"><ele>160.5</ele><time>2026-03-21T09:12:32.402Z</time></trkpt><trkpt lat="34.3399967" lon="8.6010467"><ele>160.0</ele><time>2026-03-21T09:12:33.402Z</time></trkpt><trkpt lat="34.3399317" lon="8.6007633"><ele>160.0</ele><time>2026-03-21T09:12:34.401Z</time></trkpt><trkpt lat="34.3398633" lon="8.6004767"><ele>160.0</ele><time>2026-03-21T09:12:35.402Z</time></trkpt><trkpt lat="34.339795" lon="8.6001917"><ele>160.0</ele><time>2026-03-21T09:12:36.402Z</time></trkpt><trkpt lat="34.33973" lon="8.5999117"><ele>160.0</ele><time>2026-03-21T09:12:37.402Z</time></trkpt><trkpt lat="34.3396617" lon="8.5996267"><ele>158.5</ele><time>2026-03-21T09:12:38.402Z</time></trkpt><trkpt lat="34.3395933" lon="8.59934"><ele>157.0</ele><time>2026-03-21T09:12:39.402Z</time></trkpt><trkpt lat="34.3395217" lon="8.599055"><ele>157.0</ele><time>2026-03-21T09:12:40.401Z</time></trkpt><trkpt lat="34.3394517" lon="8.59877"><ele>157.0</ele><time>2026-03-21T09:12:41.402Z</time></trkpt><trkpt lat="34.3393783" lon="8.59848"><ele>157.5</ele><time>2026-03-21T09:12:42.402Z</time></trkpt><trkpt lat="34.3393083" lon="8.5981883"><ele>158.0</ele><time>2026-03-21T09:12:43.402Z</time></trkpt><trkpt lat="34.3392383" lon="8.5979"><ele>159.0</ele><time>2026-03-21T09:12:44.402Z</time></trkpt><trkpt lat="34.33917" lon="8.5976133"><ele>160.0</ele><time>2026-03-21T09:12:45.402Z</time></trkpt><trkpt lat="34.3391" lon="8.5973317"><ele>160.0</ele><time>2026-03-21T09:12:46.401Z</time></trkpt><trkpt lat="34.3390317" lon="8.5970483"><ele>160.0</ele><time>2026-03-21T09:12:47.402Z</time></trkpt><trkpt lat="34.338965" lon="8.5967667"><ele>160.0</ele><time>2026-03-21T09:12:48.402Z</time></trkpt><trkpt lat="34.3388983" lon="8.5964867"><ele>160.0</ele><time>2026-03-21T09:12:49.402Z</time></trkpt><trkpt lat="34.3388317" lon="8.5962067"><ele>160.0</ele><time>2026-03-21T09:12:50.403Z</time></trkpt><trkpt lat="34.338765" lon="8.59593"><ele>160.0</ele><time>2026-03-21T09:12:51.402Z</time></trkpt><trkpt lat="34.3386967" lon="8.5956517"><ele>160.0</ele><time>2026-03-21T09:12:52.402Z</time></trkpt><trkpt lat="34.3386283" lon="8.59537"><ele>160.0</ele><time>2026-03-21T09:12:53.402Z</time></trkpt><trkpt lat="34.3385583" lon="8.5950917"><ele>159.0</ele><time>2026-03-21T09:12:54.402Z</time></trkpt><trkpt lat="34.33849" lon="8.594815"><ele>158.0</ele><time>2026-03-21T09:12:55.403Z</time></trkpt><trkpt lat="34.3384217" lon="8.5945333"><ele>159.0</ele><time>2026-03-21T09:12:56.403Z</time></trkpt><trkpt lat="34.338355" lon="8.5942517"><ele>160.0</ele><time>2026-03-21T09:12:57.402Z</time></trkpt><trkpt lat="34.3382867" lon="8.59397"><ele>160.0</ele><time>2026-03-21T09:12:58.401Z</time></trkpt><trkpt lat="34.3382167" lon="8.593685"><ele>160.0</ele><time>2026-03-21T09:12:59.404Z</time></trkpt><trkpt lat="34.3381483" lon="8.5934017"><ele>160.0</ele><time>2026-03-21T09:13:00.402Z</time></trkpt><trkpt lat="34.3380783" lon="8.5931167"><ele>160.0</ele><time>2026-03-21T09:13:01.403Z</time></trkpt><trkpt lat="34.3380117" lon="8.5928317"><ele>158.5</ele><time>2026-03-21T09:13:02.403Z</time></trkpt><trkpt lat="34.337945" lon="8.59255"><ele>157.0</ele><time>2026-03-21T09:13:03.402Z</time></trkpt><trkpt lat="34.3378767" lon="8.5922667"><ele>157.0</ele><time>2026-03-21T09:13:04.402Z</time></trkpt><trkpt lat="34.3378083" lon="8.59198"><ele>157.0</ele><time>2026-03-21T09:13:05.403Z</time></trkpt><trkpt lat="34.3377383" lon="8.5916917"><ele>157.0</ele><time>2026-03-21T09:13:06.407Z</time></trkpt><trkpt lat="34.33767" lon="8.5914017"><ele>157.0</ele><time>2026-03-21T09:13:07.402Z</time></trkpt><trkpt lat="34.3376" lon="8.591115"><ele>157.0</ele><time>2026-03-21T09:13:08.402Z</time></trkpt><trkpt lat="34.33753" lon="8.59083"><ele>157.0</ele><time>2026-03-21T09:13:09.403Z</time></trkpt><trkpt lat="34.3374617" lon="8.59055"><ele>157.0</ele><time>2026-03-21T09:13:10.402Z</time></trkpt><trkpt lat="34.3373933" lon="8.5902717"><ele>157.0</ele><time>2026-03-21T09:13:11.402Z</time></trkpt><trkpt lat="34.3373217" lon="8.5899933"><ele>157.0</ele><time>2026-03-21T09:13:12.402Z</time></trkpt><trkpt lat="34.3372467" lon="8.5897217"><ele>157.0</ele><time>2026-03-21T09:13:13.403Z</time></trkpt><trkpt lat="34.3371617" lon="8.5894567"><ele>158.0</ele><time>2026-03-21T09:13:14.403Z</time></trkpt><trkpt lat="34.3370683" lon="8.5891933"><ele>159.0</ele><time>2026-03-21T09:13:15.402Z</time></trkpt><trkpt lat="34.3369617" lon="8.5889367"><ele>159.0</ele><time>2026-03-21T09:13:16.402Z</time></trkpt><trkpt lat="34.3368433" lon="8.58869"><ele>159.0</ele><time>2026-03-21T09:13:17.402Z</time></trkpt><trkpt lat="34.3367167" lon="8.58846"><ele>158.66666666666666</ele><time>2026-03-21T09:13:18.402Z</time></trkpt><trkpt lat="34.3365867" lon="8.588245"><ele>158.33333333333331</ele><time>2026-03-21T09:13:19.402Z</time></trkpt><trkpt lat="34.3364567" lon="8.5880467"><ele>158.0</ele><time>2026-03-21T09:13:20.403Z</time></trkpt><trkpt lat="34.336325" lon="8.587855"><ele>157.0</ele><time>2026-03-21T09:13:21.402Z</time></trkpt><trkpt lat="34.336195" lon="8.5876683"><ele>156.0</ele><time>2026-03-21T09:13:22.402Z</time></trkpt><trkpt lat="34.336065" lon="8.587475"><ele>155.0</ele><time>2026-03-21T09:13:23.402Z</time></trkpt><trkpt lat="34.3359433" lon="8.5872683"><ele>155.0</ele><time>2026-03-21T09:13:24.403Z</time></trkpt><trkpt lat="34.33583" lon="8.5870483"><ele>155.0</ele><time>2026-03-21T09:13:25.403Z</time></trkpt><trkpt lat="34.335725" lon="8.5868083"><ele>155.0</ele><time>2026-03-21T09:13:26.402Z</time></trkpt><trkpt lat="34.335635" lon="8.5865533"><ele>155.0</ele><time>2026-03-21T09:13:27.402Z</time></trkpt><trkpt lat="34.3355483" lon="8.586285"><ele>155.0</ele><time>2026-03-21T09:13:28.402Z</time></trkpt><trkpt lat="34.3354667" lon="8.5860117"><ele>155.0</ele><time>2026-03-21T09:13:29.402Z</time></trkpt><trkpt lat="34.3353917" lon="8.58573"><ele>155.0</ele><time>2026-03-21T09:13:30.402Z</time></trkpt><trkpt lat="34.33531" lon="8.58544"><ele>155.5</ele><time>2026-03-21T09:13:31.402Z</time></trkpt><trkpt lat="34.3352267" lon="8.5851467"><ele>156.0</ele><time>2026-03-21T09:13:32.402Z</time></trkpt><trkpt lat="34.3351467" lon="8.5848517"><ele>156.0</ele><time>2026-03-21T09:13:33.403Z</time></trkpt><trkpt lat="34.3350667" lon="8.5845583"><ele>156.0</ele><time>2026-03-21T09:13:34.401Z</time></trkpt><trkpt lat="34.334985" lon="8.5842733"><ele>155.0</ele><time>2026-03-21T09:13:35.402Z</time></trkpt><trkpt lat="34.3349033" lon="8.5839883"><ele>154.0</ele><time>2026-03-21T09:13:36.402Z</time></trkpt><trkpt lat="34.3348217" lon="8.5837033"><ele>154.5</ele><time>2026-03-21T09:13:37.402Z</time></trkpt><trkpt lat="34.3347383" lon="8.5834167"><ele>155.0</ele><time>2026-03-21T09:13:38.402Z</time></trkpt><trkpt lat="34.334655" lon="8.58313"><ele>154.5</ele><time>2026-03-21T09:13:39.401Z</time></trkpt><trkpt lat="34.33457" lon="8.5828417"><ele>154.0</ele><time>2026-03-21T09:13:40.401Z</time></trkpt><trkpt lat="34.3344867" lon="8.5825533"><ele>154.0</ele><time>2026-03-21T09:13:41.401Z</time></trkpt><trkpt lat="34.3344" lon="8.58226"><ele>154.0</ele><time>2026-03-21T09:13:42.403Z</time></trkpt><trkpt lat="34.33431" lon="8.5819717"><ele>153.0</ele><time>2026-03-21T09:13:43.402Z</time></trkpt><trkpt lat="34.3342183" lon="8.58168"><ele>152.0</ele><time>2026-03-21T09:13:44.402Z</time></trkpt><trkpt lat="34.3341317" lon="8.5813833"><ele>152.5</ele><time>2026-03-21T09:13:45.402Z</time></trkpt><trkpt lat="34.3340483" lon="8.5810867"><ele>153.0</ele><time>2026-03-21T09:13:46.401Z</time></trkpt><trkpt lat="34.333965" lon="8.5807883"><ele>153.0</ele><time>2026-03-21T09:13:47.402Z</time></trkpt><trkpt lat="34.3338883" lon="8.5804883"><ele>153.0</ele><time>2026-03-21T09:13:48.402Z</time></trkpt><trkpt lat="34.3338083" lon="8.5801867"><ele>153.5</ele><time>2026-03-21T09:13:49.401Z</time></trkpt><trkpt lat="34.3337283" lon="8.579885"><ele>154.0</ele><time>2026-03-21T09:13:50.403Z</time></trkpt><trkpt lat="34.3336467" lon="8.5795883"><ele>154.0</ele><time>2026-03-21T09:13:51.401Z</time></trkpt><trkpt lat="34.3335667" lon="8.579295"><ele>154.0</ele><time>2026-03-21T09:13:52.401Z</time></trkpt><trkpt lat="34.3334867" lon="8.5790067"><ele>154.0</ele><time>2026-03-21T09:13:53.403Z</time></trkpt><trkpt lat="34.3334083" lon="8.5787283"><ele>154.0</ele><time>2026-03-21T09:13:54.403Z</time></trkpt><trkpt lat="34.3333333" lon="8.57845"><ele>154.5</ele><time>2026-03-21T09:13:55.402Z</time></trkpt><trkpt lat="34.3332583" lon="8.5781783"><ele>155.0</ele><time>2026-03-21T09:13:56.403Z</time></trkpt><trkpt lat="34.333185" lon="8.5779067"><ele>155.0</ele><time>2026-03-21T09:13:57.402Z</time></trkpt><trkpt lat="34.33311" lon="8.5776333"><ele>155.0</ele><time>2026-03-21T09:13:58.401Z</time></trkpt><trkpt lat="34.333035" lon="8.5773633"><ele>153.5</ele><time>2026-03-21T09:13:59.402Z</time></trkpt><trkpt lat="34.33296" lon="8.5770933"><ele>152.0</ele><time>2026-03-21T09:14:00.403Z</time></trkpt><trkpt lat="34.3328833" lon="8.57682"><ele>152.0</ele><time>2026-03-21T09:14:01.402Z</time></trkpt><trkpt lat="34.332805" lon="8.5765467"><ele>152.0</ele><time>2026-03-21T09:14:02.403Z</time></trkpt><trkpt lat="34.33273" lon="8.5762717"><ele>151.5</ele><time>2026-03-21T09:14:03.402Z</time></trkpt><trkpt lat="34.3326533" lon="8.5759983"><ele>151.0</ele><time>2026-03-21T09:14:04.402Z</time></trkpt><trkpt lat="34.3325767" lon="8.5757267"><ele>151.0</ele><time>2026-03-21T09:14:05.402Z</time></trkpt><trkpt lat="34.3324983" lon="8.575455"><ele>151.0</ele><time>2026-03-21T09:14:06.402Z</time></trkpt><trkpt lat="34.3324233" lon="8.575185"><ele>151.0</ele><time>2026-03-21T09:14:07.402Z</time></trkpt><trkpt lat="34.33235" lon="8.5749133"><ele>151.0</ele><time>2026-03-21T09:14:08.404Z</time></trkpt><trkpt lat="34.332285" lon="8.5746433"><ele>151.0</ele><time>2026-03-21T09:14:09.402Z</time></trkpt><trkpt lat="34.3322333" lon="8.5743767"><ele>151.0</ele><time>2026-03-21T09:14:10.401Z</time></trkpt><trkpt lat="34.332195" lon="8.5741117"><ele>151.0</ele><time>2026-03-21T09:14:11.401Z</time></trkpt><trkpt lat="34.3321683" lon="8.5738383"><ele>150.0</ele><time>2026-03-21T09:14:12.402Z</time></trkpt><trkpt lat="34.332155" lon="8.573565"><ele>149.0</ele><time>2026-03-21T09:14:13.402Z</time></trkpt><trkpt lat="34.3321533" lon="8.5732867"><ele>149.0</ele><time>2026-03-21T09:14:14.402Z</time></trkpt><trkpt lat="34.332155" lon="8.5730083"><ele>149.0</ele><time>2026-03-21T09:14:15.402Z</time></trkpt><trkpt lat="34.3321533" lon="8.57273"><ele>150.5</ele><time>2026-03-21T09:14:16.401Z</time></trkpt><trkpt lat="34.3321533" lon="8.5724483"><ele>152.0</ele><time>2026-03-21T09:14:17.402Z</time></trkpt><trkpt lat="34.3321533" lon="8.5721633"><ele>153.0</ele><time>2026-03-21T09:14:18.402Z</time></trkpt><trkpt lat="34.33215" lon="8.5718783"><ele>154.0</ele><time>2026-03-21T09:14:19.401Z</time></trkpt><trkpt lat="34.3321433" lon="8.5715933"><ele>154.0</ele><time>2026-03-21T09:14:20.402Z</time></trkpt><trkpt lat="34.3321383" lon="8.5713117"><ele>154.0</ele><time>2026-03-21T09:14:21.402Z</time></trkpt><trkpt lat="34.3321317" lon="8.57103"><ele>155.0</ele><time>2026-03-21T09:14:22.402Z</time></trkpt><trkpt lat="34.3321267" lon="8.570745"><ele>156.0</ele><time>2026-03-21T09:14:23.404Z</time></trkpt><trkpt lat="34.33212" lon="8.57046"><ele>156.5</ele><time>2026-03-21T09:14:24.403Z</time></trkpt><trkpt lat="34.3321133" lon="8.5701717"><ele>157.0</ele><time>2026-03-21T09:14:25.402Z</time></trkpt><trkpt lat="34.3321067" lon="8.569885"><ele>157.0</ele><time>2026-03-21T09:14:26.402Z</time></trkpt><trkpt lat="34.3321" lon="8.5695983"><ele>157.0</ele><time>2026-03-21T09:14:27.401Z</time></trkpt><trkpt lat="34.3320933" lon="8.5693133"><ele>157.0</ele><time>2026-03-21T09:14:28.401Z</time></trkpt><trkpt lat="34.3320883" lon="8.5690267"><ele>157.0</ele><time>2026-03-21T09:14:29.401Z</time></trkpt><trkpt lat="34.3320817" lon="8.56874"><ele>156.5</ele><time>2026-03-21T09:14:30.402Z</time></trkpt><trkpt lat="34.3320767" lon="8.5684533"><ele>156.0</ele><time>2026-03-21T09:14:31.401Z</time></trkpt><trkpt lat="34.3320683" lon="8.5681633"><ele>156.0</ele><time>2026-03-21T09:14:32.402Z</time></trkpt><trkpt lat="34.3320583" lon="8.567865"><ele>156.0</ele><time>2026-03-21T09:14:33.402Z</time></trkpt><trkpt lat="34.332055" lon="8.5675733"><ele>156.5</ele><time>2026-03-21T09:14:34.401Z</time></trkpt><trkpt lat="34.3320483" lon="8.5672783"><ele>157.0</ele><time>2026-03-21T09:14:35.402Z</time></trkpt><trkpt lat="34.3320367" lon="8.5669717"><ele>157.5</ele><time>2026-03-21T09:14:36.403Z</time></trkpt><trkpt lat="34.33203" lon="8.566675"><ele>158.0</ele><time>2026-03-21T09:14:37.401Z</time></trkpt><trkpt lat="34.33202" lon="8.5663783"><ele>158.0</ele><time>2026-03-21T09:14:38.402Z</time></trkpt><trkpt lat="34.3320117" lon="8.5660833"><ele>158.0</ele><time>2026-03-21T09:14:39.402Z</time></trkpt><trkpt lat="34.3320033" lon="8.5657883"><ele>158.0</ele><time>2026-03-21T09:14:40.401Z</time></trkpt><trkpt lat="34.3319983" lon="8.565495"><ele>158.0</ele><time>2026-03-21T09:14:41.403Z</time></trkpt><trkpt lat="34.3319917" lon="8.565205"><ele>159.0</ele><time>2026-03-21T09:14:42.402Z</time></trkpt><trkpt lat="34.331985" lon="8.564915"><ele>160.0</ele><time>2026-03-21T09:14:43.402Z</time></trkpt><trkpt lat="34.3319783" lon="8.564625"><ele>160.0</ele><time>2026-03-21T09:14:44.402Z</time></trkpt><trkpt lat="34.3319733" lon="8.5643317"><ele>160.0</ele><time>2026-03-21T09:14:45.401Z</time></trkpt><trkpt lat="34.3319683" lon="8.564035"><ele>160.0</ele><time>2026-03-21T09:14:46.401Z</time></trkpt><trkpt lat="34.331965" lon="8.56374"><ele>160.0</ele><time>2026-03-21T09:14:47.402Z</time></trkpt><trkpt lat="34.331955" lon="8.5634383"><ele>161.5</ele><time>2026-03-21T09:14:48.403Z</time></trkpt><trkpt lat="34.331945" lon="8.5631267"><ele>163.0</ele><time>2026-03-21T09:14:49.402Z</time></trkpt><trkpt lat="34.33194" lon="8.562825"><ele>163.0</ele><time>2026-03-21T09:14:50.403Z</time></trkpt><trkpt lat="34.3319333" lon="8.5625083"><ele>163.0</ele><time>2026-03-21T09:14:51.402Z</time></trkpt><trkpt lat="34.331925" lon="8.562205"><ele>163.0</ele><time>2026-03-21T09:14:52.401Z</time></trkpt><trkpt lat="34.3319183" lon="8.5619033"><ele>163.0</ele><time>2026-03-21T09:14:53.402Z</time></trkpt><trkpt lat="34.3319133" lon="8.5616"><ele>163.0</ele><time>2026-03-21T09:14:54.403Z</time></trkpt><trkpt lat="34.33191" lon="8.5612967"><ele>163.0</ele><time>2026-03-21T09:14:55.402Z</time></trkpt><trkpt lat="34.3319033" lon="8.560995"><ele>163.5</ele><time>2026-03-21T09:14:56.402Z</time></trkpt><trkpt lat="34.3318967" lon="8.5606933"><ele>164.0</ele><time>2026-03-21T09:14:57.402Z</time></trkpt><trkpt lat="34.3318867" lon="8.5603933"><ele>163.0</ele><time>2026-03-21T09:14:58.401Z</time></trkpt><trkpt lat="34.3318767" lon="8.5600917"><ele>162.0</ele><time>2026-03-21T09:14:59.401Z</time></trkpt><trkpt lat="34.3318717" lon="8.5597883"><ele>163.0</ele><time>2026-03-21T09:15:00.405Z</time></trkpt><trkpt lat="34.331865" lon="8.559485"><ele>164.0</ele><time>2026-03-21T09:15:01.405Z</time></trkpt><trkpt lat="34.3318583" lon="8.559185"><ele>164.0</ele><time>2026-03-21T09:15:02.403Z</time></trkpt><trkpt lat="34.3318517" lon="8.5588833"><ele>164.0</ele><time>2026-03-21T09:15:03.403Z</time></trkpt><trkpt lat="34.331845" lon="8.5585817"><ele>164.0</ele><time>2026-03-21T09:15:04.402Z</time></trkpt><trkpt lat="34.3318383" lon="8.5582817"><ele>164.0</ele><time>2026-03-21T09:15:05.402Z</time></trkpt><trkpt lat="34.331825" lon="8.5579833"><ele>164.0</ele><time>2026-03-21T09:15:06.402Z</time></trkpt><trkpt lat="34.3318077" lon="8.5576848"><ele>164.0</ele><time>2026-03-21T09:15:07.402Z</time></trkpt><trkpt lat="34.3317838" lon="8.5573889"><ele>164.0</ele><time>2026-03-21T09:15:08.402Z</time></trkpt><trkpt lat="34.331752" lon="8.5570964"><ele>164.0</ele><time>2026-03-21T09:15:09.401Z</time></trkpt><trkpt lat="34.3317052" lon="8.556804"><ele>165.0</ele><time>2026-03-21T09:15:10.402Z</time></trkpt><trkpt lat="34.3316438" lon="8.5565106"><ele>166.0</ele><time>2026-03-21T09:15:11.401Z</time></trkpt><trkpt lat="34.3315683" lon="8.5562196"><ele>166.0</ele><time>2026-03-21T09:15:12.402Z</time></trkpt><trkpt lat="34.3314767" lon="8.5559267"><ele>166.0</ele><time>2026-03-21T09:15:13.402Z</time></trkpt><trkpt lat="34.3313833" lon="8.5556367"><ele>167.0</ele><time>2026-03-21T09:15:14.403Z</time></trkpt><trkpt lat="34.3312867" lon="8.5553517"><ele>168.0</ele><time>2026-03-21T09:15:15.402Z</time></trkpt><trkpt lat="34.3311917" lon="8.5550683"><ele>168.0</ele><time>2026-03-21T09:15:16.401Z</time></trkpt><trkpt lat="34.3310967" lon="8.5547867"><ele>168.0</ele><time>2026-03-21T09:15:17.403Z</time></trkpt><trkpt lat="34.3310017" lon="8.55451"><ele>168.0</ele><time>2026-03-21T09:15:18.402Z</time></trkpt><trkpt lat="34.33091" lon="8.5542317"><ele>168.0</ele><time>2026-03-21T09:15:19.402Z</time></trkpt><trkpt lat="34.3308183" lon="8.5539567"><ele>168.0</ele><time>2026-03-21T09:15:20.402Z</time></trkpt><trkpt lat="34.3307267" lon="8.553675"><ele>168.0</ele><time>2026-03-21T09:15:21.402Z</time></trkpt><trkpt lat="34.330545" lon="8.5531067"><ele>168.0</ele><time>2026-03-21T09:15:23.403Z</time></trkpt><trkpt lat="34.3304533" lon="8.5528183"><ele>168.0</ele><time>2026-03-21T09:15:24.403Z</time></trkpt><trkpt lat="34.3303583" lon="8.5525333"><ele>168.0</ele><time>2026-03-21T09:15:25.401Z</time></trkpt><trkpt lat="34.3302667" lon="8.552245"><ele>168.0</ele><time>2026-03-21T09:15:26.403Z</time></trkpt><trkpt lat="34.3301767" lon="8.5519517"><ele>167.5</ele><time>2026-03-21T09:15:27.402Z</time></trkpt><trkpt lat="34.3300817" lon="8.5516567"><ele>167.0</ele><time>2026-03-21T09:15:28.401Z</time></trkpt><trkpt lat="34.3299883" lon="8.551365"><ele>166.5</ele><time>2026-03-21T09:15:29.402Z</time></trkpt><trkpt lat="34.3298967" lon="8.55108"><ele>166.0</ele><time>2026-03-21T09:15:30.402Z</time></trkpt><trkpt lat="34.3298117" lon="8.5508083"><ele>166.5</ele><time>2026-03-21T09:15:31.401Z</time></trkpt><trkpt lat="34.329725" lon="8.5505383"><ele>167.0</ele><time>2026-03-21T09:15:32.402Z</time></trkpt><trkpt lat="34.3296383" lon="8.5502683"><ele>167.0</ele><time>2026-03-21T09:15:33.402Z</time></trkpt><trkpt lat="34.3295533" lon="8.5499983"><ele>167.0</ele><time>2026-03-21T09:15:34.401Z</time></trkpt><trkpt lat="34.3294683" lon="8.5497283"><ele>168.0</ele><time>2026-03-21T09:15:35.401Z</time></trkpt><trkpt lat="34.3293833" lon="8.5494583"><ele>169.0</ele><time>2026-03-21T09:15:36.402Z</time></trkpt><trkpt lat="34.329305" lon="8.54919"><ele>169.0</ele><time>2026-03-21T09:15:37.401Z</time></trkpt><trkpt lat="34.32922" lon="8.54892"><ele>169.0</ele><time>2026-03-21T09:15:38.402Z</time></trkpt><trkpt lat="34.329135" lon="8.548645"><ele>169.5</ele><time>2026-03-21T09:15:39.401Z</time></trkpt><trkpt lat="34.32905" lon="8.5483717"><ele>170.0</ele><time>2026-03-21T09:15:40.401Z</time></trkpt><trkpt lat="34.3289633" lon="8.5481033"><ele>169.0</ele><time>2026-03-21T09:15:41.402Z</time></trkpt><trkpt lat="34.328875" lon="8.5478333"><ele>168.0</ele><time>2026-03-21T09:15:42.402Z</time></trkpt><trkpt lat="34.3287867" lon="8.5475583"><ele>168.0</ele><time>2026-03-21T09:15:43.402Z</time></trkpt><trkpt lat="34.3287" lon="8.5472817"><ele>168.0</ele><time>2026-03-21T09:15:44.402Z</time></trkpt><trkpt lat="34.3286133" lon="8.5470083"><ele>167.5</ele><time>2026-03-21T09:15:45.403Z</time></trkpt><trkpt lat="34.3285283" lon="8.5467383"><ele>167.0</ele><time>2026-03-21T09:15:46.401Z</time></trkpt><trkpt lat="34.328445" lon="8.5464683"><ele>167.5</ele><time>2026-03-21T09:15:47.402Z</time></trkpt><trkpt lat="34.3283617" lon="8.5462017"><ele>168.0</ele><time>2026-03-21T09:15:48.402Z</time></trkpt><trkpt lat="34.3282783" lon="8.5459367"><ele>168.0</ele><time>2026-03-21T09:15:49.402Z</time></trkpt><trkpt lat="34.328195" lon="8.545675"><ele>168.0</ele><time>2026-03-21T09:15:50.402Z</time></trkpt><trkpt lat="34.3281133" lon="8.5454117"><ele>168.5</ele><time>2026-03-21T09:15:51.402Z</time></trkpt><trkpt lat="34.32803" lon="8.5451483"><ele>169.0</ele><time>2026-03-21T09:15:52.402Z</time></trkpt><trkpt lat="34.3279483" lon="8.5448833"><ele>169.0</ele><time>2026-03-21T09:15:53.401Z</time></trkpt><trkpt lat="34.32787" lon="8.5446217"><ele>169.0</ele><time>2026-03-21T09:15:54.402Z</time></trkpt><trkpt lat="34.3277867" lon="8.5443567"><ele>170.0</ele><time>2026-03-21T09:15:55.402Z</time></trkpt><trkpt lat="34.3277033" lon="8.5440933"><ele>171.0</ele><time>2026-03-21T09:15:56.402Z</time></trkpt><trkpt lat="34.3276217" lon="8.54383"><ele>172.0</ele><time>2026-03-21T09:15:57.402Z</time></trkpt><trkpt lat="34.3275367" lon="8.5435667"><ele>173.0</ele><time>2026-03-21T09:15:58.401Z</time></trkpt><trkpt lat="34.3274533" lon="8.5433"><ele>173.0</ele><time>2026-03-21T09:15:59.402Z</time></trkpt><trkpt lat="34.32737" lon="8.5430333"><ele>173.0</ele><time>2026-03-21T09:16:00.402Z</time></trkpt><trkpt lat="34.327285" lon="8.542765"><ele>173.0</ele><time>2026-03-21T09:16:01.402Z</time></trkpt><trkpt lat="34.3272" lon="8.542495"><ele>173.0</ele><time>2026-03-21T09:16:02.402Z</time></trkpt><trkpt lat="34.327115" lon="8.5422217"><ele>174.0</ele><time>2026-03-21T09:16:03.401Z</time></trkpt><trkpt lat="34.3270283" lon="8.541945"><ele>175.0</ele><time>2026-03-21T09:16:04.401Z</time></trkpt><trkpt lat="34.3269383" lon="8.54167"><ele>175.0</ele><time>2026-03-21T09:16:05.402Z</time></trkpt><trkpt lat="34.3268483" lon="8.5413933"><ele>175.0</ele><time>2026-03-21T09:16:06.403Z</time></trkpt><trkpt lat="34.3267583" lon="8.5411183"><ele>175.0</ele><time>2026-03-21T09:16:07.402Z</time></trkpt><trkpt lat="34.3266683" lon="8.5408417"><ele>175.0</ele><time>2026-03-21T09:16:08.403Z</time></trkpt><trkpt lat="34.32658" lon="8.5405633"><ele>174.5</ele><time>2026-03-21T09:16:09.402Z</time></trkpt><trkpt lat="34.32649" lon="8.540285"><ele>174.0</ele><time>2026-03-21T09:16:10.402Z</time></trkpt><trkpt lat="34.3264" lon="8.540005"><ele>173.5</ele><time>2026-03-21T09:16:11.401Z</time></trkpt><trkpt lat="34.3263117" lon="8.5397217"><ele>173.0</ele><time>2026-03-21T09:16:12.402Z</time></trkpt><trkpt lat="34.326225" lon="8.53944"><ele>173.0</ele><time>2026-03-21T09:16:13.401Z</time></trkpt><trkpt lat="34.3261383" lon="8.5391617"><ele>173.0</ele><time>2026-03-21T09:16:14.402Z</time></trkpt><trkpt lat="34.3260533" lon="8.5388867"><ele>173.5</ele><time>2026-03-21T09:16:15.403Z</time></trkpt><trkpt lat="34.3259683" lon="8.5386167"><ele>174.0</ele><time>2026-03-21T09:16:16.402Z</time></trkpt><trkpt lat="34.3258817" lon="8.53835"><ele>174.0</ele><time>2026-03-21T09:16:17.403Z</time></trkpt><trkpt lat="34.325795" lon="8.5380817"><ele>174.0</ele><time>2026-03-21T09:16:18.402Z</time></trkpt><trkpt lat="34.3257083" lon="8.537815"><ele>175.0</ele><time>2026-03-21T09:16:19.403Z</time></trkpt><trkpt lat="34.3256233" lon="8.5375467"><ele>176.0</ele><time>2026-03-21T09:16:20.402Z</time></trkpt><trkpt lat="34.32554" lon="8.5372767"><ele>177.0</ele><time>2026-03-21T09:16:21.403Z</time></trkpt><trkpt lat="34.3254583" lon="8.5370083"><ele>178.0</ele><time>2026-03-21T09:16:22.401Z</time></trkpt><trkpt lat="34.32538" lon="8.5367367"><ele>178.0</ele><time>2026-03-21T09:16:23.402Z</time></trkpt><trkpt lat="34.3253017" lon="8.5364667"><ele>178.0</ele><time>2026-03-21T09:16:24.402Z</time></trkpt><trkpt lat="34.3252267" lon="8.5361933"><ele>177.0</ele><time>2026-03-21T09:16:25.403Z</time></trkpt><trkpt lat="34.3251533" lon="8.53592"><ele>176.0</ele><time>2026-03-21T09:16:26.402Z</time></trkpt><trkpt lat="34.3250783" lon="8.5356417"><ele>176.5</ele><time>2026-03-21T09:16:27.402Z</time></trkpt><trkpt lat="34.3250017" lon="8.5353583"><ele>177.0</ele><time>2026-03-21T09:16:28.402Z</time></trkpt><trkpt lat="34.324925" lon="8.5350717"><ele>177.0</ele><time>2026-03-21T09:16:29.403Z</time></trkpt><trkpt lat="34.3248467" lon="8.534785"><ele>177.0</ele><time>2026-03-21T09:16:30.404Z</time></trkpt><trkpt lat="34.3247683" lon="8.534495"><ele>177.0</ele><time>2026-03-21T09:16:31.402Z</time></trkpt><trkpt lat="34.3246917" lon="8.534205"><ele>177.0</ele><time>2026-03-21T09:16:32.402Z</time></trkpt><trkpt lat="34.3246117" lon="8.5339117"><ele>177.5</ele><time>2026-03-21T09:16:33.402Z</time></trkpt><trkpt lat="34.3245333" lon="8.5336217"><ele>178.0</ele><time>2026-03-21T09:16:34.401Z</time></trkpt><trkpt lat="34.3244533" lon="8.53333"><ele>178.0</ele><time>2026-03-21T09:16:35.402Z</time></trkpt><trkpt lat="34.324375" lon="8.53304"><ele>178.0</ele><time>2026-03-21T09:16:36.402Z</time></trkpt><trkpt lat="34.3242983" lon="8.5327567"><ele>177.0</ele><time>2026-03-21T09:16:37.402Z</time></trkpt><trkpt lat="34.3242217" lon="8.5324733"><ele>176.0</ele><time>2026-03-21T09:16:38.402Z</time></trkpt><trkpt lat="34.3241433" lon="8.5321883"><ele>178.0</ele><time>2026-03-21T09:16:39.404Z</time></trkpt><trkpt lat="34.3240667" lon="8.5319017"><ele>180.0</ele><time>2026-03-21T09:16:40.401Z</time></trkpt><trkpt lat="34.32399" lon="8.5316167"><ele>180.0</ele><time>2026-03-21T09:16:41.403Z</time></trkpt><trkpt lat="34.323912" lon="8.5313331"><ele>180.0</ele><time>2026-03-21T09:16:42.403Z</time></trkpt><trkpt lat="34.3238363" lon="8.5310497"><ele>178.5</ele><time>2026-03-21T09:16:43.402Z</time></trkpt><trkpt lat="34.3237599" lon="8.5307713"><ele>177.0</ele><time>2026-03-21T09:16:44.403Z</time></trkpt><trkpt lat="34.3236841" lon="8.5304986"><ele>177.5</ele><time>2026-03-21T09:16:45.401Z</time></trkpt><trkpt lat="34.3236093" lon="8.530231"><ele>178.0</ele><time>2026-03-21T09:16:46.401Z</time></trkpt><trkpt lat="34.3235358" lon="8.5299658"><ele>178.0</ele><time>2026-03-21T09:16:47.401Z</time></trkpt><trkpt lat="34.3234637" lon="8.5297023"><ele>178.0</ele><time>2026-03-21T09:16:48.402Z</time></trkpt><trkpt lat="34.3233922" lon="8.5294379"><ele>179.0</ele><time>2026-03-21T09:16:49.403Z</time></trkpt><trkpt lat="34.3233211" lon="8.5291759"><ele>180.0</ele><time>2026-03-21T09:16:50.402Z</time></trkpt><trkpt lat="34.323248" lon="8.5289132"><ele>179.5</ele><time>2026-03-21T09:16:51.402Z</time></trkpt><trkpt lat="34.323177" lon="8.5286526"><ele>179.0</ele><time>2026-03-21T09:16:52.401Z</time></trkpt><trkpt lat="34.3231056" lon="8.5283962"><ele>178.0</ele><time>2026-03-21T09:16:53.401Z</time></trkpt><trkpt lat="34.3230365" lon="8.5281429"><ele>177.0</ele><time>2026-03-21T09:16:54.402Z</time></trkpt><trkpt lat="34.3229698" lon="8.5278948"><ele>176.0</ele><time>2026-03-21T09:16:55.402Z</time></trkpt><trkpt lat="34.322902" lon="8.5276483"><ele>176.0</ele><time>2026-03-21T09:16:56.402Z</time></trkpt><trkpt lat="34.3228339" lon="8.5273994"><ele>176.0</ele><time>2026-03-21T09:16:57.402Z</time></trkpt><trkpt lat="34.3227656" lon="8.5271484"><ele>176.0</ele><time>2026-03-21T09:16:58.402Z</time></trkpt><trkpt lat="34.322696" lon="8.5268982"><ele>177.0</ele><time>2026-03-21T09:16:59.402Z</time></trkpt><trkpt lat="34.3226274" lon="8.526647"><ele>178.0</ele><time>2026-03-21T09:17:00.403Z</time></trkpt><trkpt lat="34.3225589" lon="8.5263953"><ele>179.0</ele><time>2026-03-21T09:17:01.402Z</time></trkpt><trkpt lat="34.3224907" lon="8.5261407"><ele>179.0</ele><time>2026-03-21T09:17:02.403Z</time></trkpt><trkpt lat="34.3224227" lon="8.5258866"><ele>179.0</ele><time>2026-03-21T09:17:03.401Z</time></trkpt><trkpt lat="34.3223532" lon="8.5256303"><ele>179.0</ele><time>2026-03-21T09:17:04.401Z</time></trkpt><trkpt lat="34.3222839" lon="8.5253725"><ele>178.66666666666666</ele><time>2026-03-21T09:17:05.401Z</time></trkpt><trkpt lat="34.3222164" lon="8.5251191"><ele>178.33333333333334</ele><time>2026-03-21T09:17:06.402Z</time></trkpt><trkpt lat="34.3221482" lon="8.5248657"><ele>178.0</ele><time>2026-03-21T09:17:07.402Z</time></trkpt><trkpt lat="34.3220812" lon="8.5246138"><ele>178.0</ele><time>2026-03-21T09:17:08.402Z</time></trkpt><trkpt lat="34.3220135" lon="8.5243616"><ele>178.0</ele><time>2026-03-21T09:17:09.401Z</time></trkpt><trkpt lat="34.3219454" lon="8.5241113"><ele>178.0</ele><time>2026-03-21T09:17:10.401Z</time></trkpt><trkpt lat="34.321876" lon="8.5238615"><ele>178.33333333333334</ele><time>2026-03-21T09:17:11.403Z</time></trkpt><trkpt lat="34.3218087" lon="8.5236143"><ele>178.66666666666666</ele><time>2026-03-21T09:17:12.401Z</time></trkpt><trkpt lat="34.3217421" lon="8.5233675"><ele>179.0</ele><time>2026-03-21T09:17:13.401Z</time></trkpt><trkpt lat="34.3216761" lon="8.523121"><ele>179.66666666666666</ele><time>2026-03-21T09:17:14.402Z</time></trkpt><trkpt lat="34.3216097" lon="8.5228735"><ele>180.33333333333334</ele><time>2026-03-21T09:17:15.401Z</time></trkpt><trkpt lat="34.3215414" lon="8.5226256"><ele>181.0</ele><time>2026-03-21T09:17:16.401Z</time></trkpt><trkpt lat="34.321474" lon="8.5223772"><ele>181.0</ele><time>2026-03-21T09:17:17.402Z</time></trkpt><trkpt lat="34.3214059" lon="8.5221275"><ele>181.0</ele><time>2026-03-21T09:17:18.401Z</time></trkpt><trkpt lat="34.3213387" lon="8.5218787"><ele>181.0</ele><time>2026-03-21T09:17:19.402Z</time></trkpt><trkpt lat="34.3212719" lon="8.5216316"><ele>180.33333333333334</ele><time>2026-03-21T09:17:20.402Z</time></trkpt><trkpt lat="34.3212052" lon="8.5213822"><ele>179.66666666666666</ele><time>2026-03-21T09:17:21.402Z</time></trkpt><trkpt lat="34.3211387" lon="8.5211321"><ele>179.0</ele><time>2026-03-21T09:17:22.401Z</time></trkpt><trkpt lat="34.3210723" lon="8.5208831"><ele>179.0</ele><time>2026-03-21T09:17:23.401Z</time></trkpt><trkpt lat="34.3210032" lon="8.5206346"><ele>179.0</ele><time>2026-03-21T09:17:24.402Z</time></trkpt><trkpt lat="34.3209367" lon="8.5203867"><ele>179.0</ele><time>2026-03-21T09:17:25.401Z</time></trkpt><trkpt lat="34.3208717" lon="8.520135"><ele>179.33333333333331</ele><time>2026-03-21T09:17:26.404Z</time></trkpt><trkpt lat="34.3208067" lon="8.5198833"><ele>179.66666666666666</ele><time>2026-03-21T09:17:27.402Z</time></trkpt><trkpt lat="34.3207433" lon="8.5196267"><ele>180.0</ele><time>2026-03-21T09:17:28.403Z</time></trkpt><trkpt lat="34.320675" lon="8.5193717"><ele>180.0</ele><time>2026-03-21T09:17:29.401Z</time></trkpt><trkpt lat="34.3206033" lon="8.51912"><ele>180.0</ele><time>2026-03-21T09:17:30.402Z</time></trkpt><trkpt lat="34.3205333" lon="8.5188667"><ele>180.0</ele><time>2026-03-21T09:17:31.403Z</time></trkpt><trkpt lat="34.3204633" lon="8.5186167"><ele>180.0</ele><time>2026-03-21T09:17:32.402Z</time></trkpt><trkpt lat="34.3203967" lon="8.5183733"><ele>180.0</ele><time>2026-03-21T09:17:33.401Z</time></trkpt><trkpt lat="34.3203317" lon="8.5181317"><ele>180.0</ele><time>2026-03-21T09:17:34.401Z</time></trkpt><trkpt lat="34.3202667" lon="8.5178967"><ele>181.0</ele><time>2026-03-21T09:17:35.402Z</time></trkpt><trkpt lat="34.3202033" lon="8.5176633"><ele>182.0</ele><time>2026-03-21T09:17:36.401Z</time></trkpt><trkpt lat="34.3201383" lon="8.5174333"><ele>183.0</ele><time>2026-03-21T09:17:37.401Z</time></trkpt><trkpt lat="34.320075" lon="8.5172"><ele>182.66666666666666</ele><time>2026-03-21T09:17:38.402Z</time></trkpt><trkpt lat="34.3200083" lon="8.5169667"><ele>182.33333333333331</ele><time>2026-03-21T09:17:39.401Z</time></trkpt><trkpt lat="34.3199433" lon="8.5167383"><ele>182.0</ele><time>2026-03-21T09:17:40.401Z</time></trkpt><trkpt lat="34.3198783" lon="8.516515"><ele>182.0</ele><time>2026-03-21T09:17:41.402Z</time></trkpt><trkpt lat="34.3198167" lon="8.5162917"><ele>182.0</ele><time>2026-03-21T09:17:42.401Z</time></trkpt><trkpt lat="34.319755" lon="8.51607"><ele>182.0</ele><time>2026-03-21T09:17:43.401Z</time></trkpt><trkpt lat="34.3196983" lon="8.5158567"><ele>182.33333333333331</ele><time>2026-03-21T09:17:44.402Z</time></trkpt><trkpt lat="34.3196467" lon="8.5156583"><ele>182.66666666666666</ele><time>2026-03-21T09:17:45.401Z</time></trkpt><trkpt lat="34.319595" lon="8.51547"><ele>183.0</ele><time>2026-03-21T09:17:46.401Z</time></trkpt><trkpt lat="34.3195417" lon="8.5152833"><ele>183.0</ele><time>2026-03-21T09:17:47.404Z</time></trkpt><trkpt lat="34.31949" lon="8.5150983"><ele>183.0</ele><time>2026-03-21T09:17:48.401Z</time></trkpt><trkpt lat="34.3194417" lon="8.5149133"><ele>183.0</ele><time>2026-03-21T09:17:49.403Z</time></trkpt><trkpt lat="34.3193933" lon="8.5147283"><ele>183.0</ele><time>2026-03-21T09:17:50.402Z</time></trkpt><trkpt lat="34.319345" lon="8.5145483"><ele>183.0</ele><time>2026-03-21T09:17:51.401Z</time></trkpt><trkpt lat="34.319295" lon="8.5143733"><ele>183.0</ele><time>2026-03-21T09:17:52.402Z</time></trkpt><trkpt lat="34.31925" lon="8.5142067"><ele>183.0</ele><time>2026-03-21T09:17:53.403Z</time></trkpt><trkpt lat="34.3192067" lon="8.5140483"><ele>183.0</ele><time>2026-03-21T09:17:54.401Z</time></trkpt><trkpt lat="34.319165" lon="8.5139"><ele>183.0</ele><time>2026-03-21T09:17:55.403Z</time></trkpt><trkpt lat="34.3191267" lon="8.513765"><ele>183.0</ele><time>2026-03-21T09:17:56.403Z</time></trkpt><trkpt lat="34.31909" lon="8.51364"><ele>183.4</ele><time>2026-03-21T09:17:57.401Z</time></trkpt><trkpt lat="34.319055" lon="8.5135233"><ele>183.8</ele><time>2026-03-21T09:17:58.401Z</time></trkpt><trkpt lat="34.319025" lon="8.51341"><ele>184.2</ele><time>2026-03-21T09:17:59.401Z</time></trkpt><trkpt lat="34.3189933" lon="8.51329"><ele>184.6</ele><time>2026-03-21T09:18:00.401Z</time></trkpt><trkpt lat="34.318955" lon="8.51316"><ele>185.0</ele><time>2026-03-21T09:18:01.402Z</time></trkpt><trkpt lat="34.3189183" lon="8.513025"><ele>184.5</ele><time>2026-03-21T09:18:02.402Z</time></trkpt><trkpt lat="34.31888" lon="8.5128867"><ele>184.0</ele><time>2026-03-21T09:18:03.401Z</time></trkpt><trkpt lat="34.31884" lon="8.5127483"><ele>183.5</ele><time>2026-03-21T09:18:04.401Z</time></trkpt><trkpt lat="34.3188" lon="8.51261"><ele>183.0</ele><time>2026-03-21T09:18:05.402Z</time></trkpt><trkpt lat="34.3187617" lon="8.512465"><ele>183.0</ele><time>2026-03-21T09:18:06.402Z</time></trkpt><trkpt lat="34.3187217" lon="8.512315"><ele>183.0</ele><time>2026-03-21T09:18:07.402Z</time></trkpt><trkpt lat="34.3186817" lon="8.51216"><ele>183.0</ele><time>2026-03-21T09:18:08.403Z</time></trkpt><trkpt lat="34.31864" lon="8.5119967"><ele>183.0</ele><time>2026-03-21T09:18:09.401Z</time></trkpt><trkpt lat="34.3185933" lon="8.5118283"><ele>184.0</ele><time>2026-03-21T09:18:10.401Z</time></trkpt><trkpt lat="34.318545" lon="8.5116533"><ele>185.0</ele><time>2026-03-21T09:18:11.402Z</time></trkpt><trkpt lat="34.3184983" lon="8.5114767"><ele>186.0</ele><time>2026-03-21T09:18:12.402Z</time></trkpt><trkpt lat="34.3184517" lon="8.5112967"><ele>187.0</ele><time>2026-03-21T09:18:13.401Z</time></trkpt><trkpt lat="34.318405" lon="8.51112"><ele>188.0</ele><time>2026-03-21T09:18:14.404Z</time></trkpt><trkpt lat="34.3183567" lon="8.51094"><ele>189.0</ele><time>2026-03-21T09:18:15.402Z</time></trkpt><trkpt lat="34.3183083" lon="8.5107567"><ele>189.0</ele><time>2026-03-21T09:18:16.401Z</time></trkpt><trkpt lat="34.3182583" lon="8.5105717"><ele>189.0</ele><time>2026-03-21T09:18:17.402Z</time></trkpt><trkpt lat="34.3182083" lon="8.510385"><ele>189.0</ele><time>2026-03-21T09:18:18.402Z</time></trkpt><trkpt lat="34.3181583" lon="8.5102"><ele>188.66666666666666</ele><time>2026-03-21T09:18:19.401Z</time></trkpt><trkpt lat="34.3181083" lon="8.5100167"><ele>188.33333333333331</ele><time>2026-03-21T09:18:20.403Z</time></trkpt><trkpt lat="34.31806" lon="8.5098333"><ele>188.0</ele><time>2026-03-21T09:18:21.401Z</time></trkpt><trkpt lat="34.3180083" lon="8.5096467"><ele>188.33333333333331</ele><time>2026-03-21T09:18:22.401Z</time></trkpt><trkpt lat="34.3179533" lon="8.5094583"><ele>188.66666666666666</ele><time>2026-03-21T09:18:23.402Z</time></trkpt><trkpt lat="34.3179" lon="8.5092717"><ele>189.0</ele><time>2026-03-21T09:18:24.401Z</time></trkpt><trkpt lat="34.3178467" lon="8.509085"><ele>189.0</ele><time>2026-03-21T09:18:25.401Z</time></trkpt><trkpt lat="34.3177917" lon="8.5089"><ele>189.0</ele><time>2026-03-21T09:18:26.402Z</time></trkpt><trkpt lat="34.3177383" lon="8.508715"><ele>189.0</ele><time>2026-03-21T09:18:27.402Z</time></trkpt><trkpt lat="34.31769" lon="8.5085333"><ele>188.33333333333334</ele><time>2026-03-21T09:18:28.401Z</time></trkpt><trkpt lat="34.3176383" lon="8.5083467"><ele>187.66666666666669</ele><time>2026-03-21T09:18:29.401Z</time></trkpt><trkpt lat="34.3175867" lon="8.5081583"><ele>187.0</ele><time>2026-03-21T09:18:30.401Z</time></trkpt><trkpt lat="34.317535" lon="8.5079683"><ele>187.66666666666669</ele><time>2026-03-21T09:18:31.401Z</time></trkpt><trkpt lat="34.3174833" lon="8.5077783"><ele>188.33333333333334</ele><time>2026-03-21T09:18:32.403Z</time></trkpt><trkpt lat="34.3174283" lon="8.5075883"><ele>189.0</ele><time>2026-03-21T09:18:33.401Z</time></trkpt><trkpt lat="34.3173783" lon="8.5073983"><ele>189.0</ele><time>2026-03-21T09:18:34.401Z</time></trkpt><trkpt lat="34.3173267" lon="8.5072117"><ele>189.0</ele><time>2026-03-21T09:18:35.402Z</time></trkpt><trkpt lat="34.31728" lon="8.5070267"><ele>189.0</ele><time>2026-03-21T09:18:36.401Z</time></trkpt><trkpt lat="34.3172333" lon="8.50684"><ele>189.33333333333334</ele><time>2026-03-21T09:18:37.401Z</time></trkpt><trkpt lat="34.317185" lon="8.5066567"><ele>189.66666666666669</ele><time>2026-03-21T09:18:38.403Z</time></trkpt><trkpt lat="34.3171367" lon="8.50647"><ele>190.0</ele><time>2026-03-21T09:18:39.401Z</time></trkpt><trkpt lat="34.3170883" lon="8.5062817"><ele>190.0</ele><time>2026-03-21T09:18:40.402Z</time></trkpt><trkpt lat="34.3170383" lon="8.506095"><ele>190.0</ele><time>2026-03-21T09:18:41.401Z</time></trkpt><trkpt lat="34.3169867" lon="8.5059117"><ele>190.0</ele><time>2026-03-21T09:18:42.402Z</time></trkpt><trkpt lat="34.316935" lon="8.5057283"><ele>190.0</ele><time>2026-03-21T09:18:43.401Z</time></trkpt><trkpt lat="34.3168817" lon="8.5055433"><ele>190.0</ele><time>2026-03-21T09:18:44.402Z</time></trkpt><trkpt lat="34.31683" lon="8.5053567"><ele>190.0</ele><time>2026-03-21T09:18:45.401Z</time></trkpt><trkpt lat="34.3167783" lon="8.50517"><ele>190.0</ele><time>2026-03-21T09:18:46.401Z</time></trkpt><trkpt lat="34.3167267" lon="8.5049833"><ele>190.0</ele><time>2026-03-21T09:18:47.402Z</time></trkpt><trkpt lat="34.316675" lon="8.504795"><ele>190.0</ele><time>2026-03-21T09:18:48.402Z</time></trkpt><trkpt lat="34.316625" lon="8.5046083"><ele>190.33333333333334</ele><time>2026-03-21T09:18:49.403Z</time></trkpt><trkpt lat="34.316575" lon="8.504415"><ele>190.66666666666666</ele><time>2026-03-21T09:18:50.402Z</time></trkpt><trkpt lat="34.316525" lon="8.5042217"><ele>191.0</ele><time>2026-03-21T09:18:51.401Z</time></trkpt><trkpt lat="34.316475" lon="8.50403"><ele>191.0</ele><time>2026-03-21T09:18:52.401Z</time></trkpt><trkpt lat="34.3164233" lon="8.5038433"><ele>191.0</ele><time>2026-03-21T09:18:53.403Z</time></trkpt><trkpt lat="34.3163717" lon="8.503655"><ele>191.0</ele><time>2026-03-21T09:18:54.401Z</time></trkpt><trkpt lat="34.31632" lon="8.5034667"><ele>191.0</ele><time>2026-03-21T09:18:55.401Z</time></trkpt><trkpt lat="34.31627" lon="8.5032767"><ele>191.0</ele><time>2026-03-21T09:18:56.402Z</time></trkpt><trkpt lat="34.3162167" lon="8.5030833"><ele>191.0</ele><time>2026-03-21T09:18:57.401Z</time></trkpt><trkpt lat="34.316165" lon="8.5028917"><ele>191.0</ele><time>2026-03-21T09:18:58.402Z</time></trkpt><trkpt lat="34.3161133" lon="8.5027033"><ele>191.0</ele><time>2026-03-21T09:18:59.402Z</time></trkpt><trkpt lat="34.31606" lon="8.50252"><ele>191.0</ele><time>2026-03-21T09:19:00.402Z</time></trkpt><trkpt lat="34.3160083" lon="8.5023383"><ele>191.0</ele><time>2026-03-21T09:19:01.402Z</time></trkpt><trkpt lat="34.3159583" lon="8.5021567"><ele>191.0</ele><time>2026-03-21T09:19:02.403Z</time></trkpt><trkpt lat="34.31591" lon="8.5019717"><ele>191.0</ele><time>2026-03-21T09:19:03.402Z</time></trkpt><trkpt lat="34.3158633" lon="8.501785"><ele>191.33333333333331</ele><time>2026-03-21T09:19:04.402Z</time></trkpt><trkpt lat="34.315815" lon="8.5016"><ele>191.66666666666666</ele><time>2026-03-21T09:19:05.402Z</time></trkpt><trkpt lat="34.3157667" lon="8.5014133"><ele>192.0</ele><time>2026-03-21T09:19:06.401Z</time></trkpt><trkpt lat="34.315715" lon="8.5012283"><ele>192.0</ele><time>2026-03-21T09:19:07.402Z</time></trkpt><trkpt lat="34.315665" lon="8.5010417"><ele>192.0</ele><time>2026-03-21T09:19:08.402Z</time></trkpt><trkpt lat="34.3156167" lon="8.500855"><ele>192.0</ele><time>2026-03-21T09:19:09.402Z</time></trkpt><trkpt lat="34.31557" lon="8.5006717"><ele>192.0</ele><time>2026-03-21T09:19:10.401Z</time></trkpt><trkpt lat="34.31552" lon="8.5004883"><ele>192.0</ele><time>2026-03-21T09:19:11.402Z</time></trkpt><trkpt lat="34.31547" lon="8.5003017"><ele>192.0</ele><time>2026-03-21T09:19:12.402Z</time></trkpt><trkpt lat="34.3154167" lon="8.500115"><ele>191.66666666666666</ele><time>2026-03-21T09:19:13.402Z</time></trkpt><trkpt lat="34.3153633" lon="8.499925"><ele>191.33333333333331</ele><time>2026-03-21T09:19:14.402Z</time></trkpt><trkpt lat="34.3153083" lon="8.4997267"><ele>191.0</ele><time>2026-03-21T09:19:15.401Z</time></trkpt><trkpt lat="34.3152533" lon="8.4995217"><ele>191.0</ele><time>2026-03-21T09:19:16.401Z</time></trkpt><trkpt lat="34.3151983" lon="8.499315"><ele>191.0</ele><time>2026-03-21T09:19:17.402Z</time></trkpt><trkpt lat="34.3151433" lon="8.4991033"><ele>191.0</ele><time>2026-03-21T09:19:18.401Z</time></trkpt><trkpt lat="34.3150883" lon="8.498895"><ele>191.0</ele><time>2026-03-21T09:19:19.401Z</time></trkpt><trkpt lat="34.3150333" lon="8.4986917"><ele>191.0</ele><time>2026-03-21T09:19:20.402Z</time></trkpt><trkpt lat="34.3149783" lon="8.4984933"><ele>191.0</ele><time>2026-03-21T09:19:21.401Z</time></trkpt><trkpt lat="34.3149267" lon="8.4982983"><ele>191.0</ele><time>2026-03-21T09:19:22.402Z</time></trkpt><trkpt lat="34.314875" lon="8.4981017"><ele>191.0</ele><time>2026-03-21T09:19:23.401Z</time></trkpt><trkpt lat="34.3148233" lon="8.4979033"><ele>191.0</ele><time>2026-03-21T09:19:24.401Z</time></trkpt><trkpt lat="34.3147717" lon="8.4977033"><ele>191.33333333333331</ele><time>2026-03-21T09:19:25.402Z</time></trkpt><trkpt lat="34.3147167" lon="8.4975"><ele>191.66666666666666</ele><time>2026-03-21T09:19:26.402Z</time></trkpt><trkpt lat="34.31466" lon="8.4972967"><ele>192.0</ele><time>2026-03-21T09:19:27.401Z</time></trkpt><trkpt lat="34.314605" lon="8.497095"><ele>192.33333333333331</ele><time>2026-03-21T09:19:28.401Z</time></trkpt><trkpt lat="34.3145483" lon="8.496895"><ele>192.66666666666666</ele><time>2026-03-21T09:19:29.402Z</time></trkpt><trkpt lat="34.3144933" lon="8.4966967"><ele>193.0</ele><time>2026-03-21T09:19:30.401Z</time></trkpt><trkpt lat="34.3144383" lon="8.496495"><ele>193.0</ele><time>2026-03-21T09:19:31.403Z</time></trkpt><trkpt lat="34.3143817" lon="8.4962917"><ele>193.0</ele><time>2026-03-21T09:19:32.402Z</time></trkpt><trkpt lat="34.3143267" lon="8.4960867"><ele>193.0</ele><time>2026-03-21T09:19:33.401Z</time></trkpt><trkpt lat="34.31427" lon="8.495885"><ele>193.33333333333331</ele><time>2026-03-21T09:19:34.402Z</time></trkpt><trkpt lat="34.314215" lon="8.4956883"><ele>193.66666666666669</ele><time>2026-03-21T09:19:35.401Z</time></trkpt><trkpt lat="34.3141617" lon="8.4954917"><ele>194.0</ele><time>2026-03-21T09:19:36.401Z</time></trkpt><trkpt lat="34.3141067" lon="8.4952933"><ele>194.33333333333334</ele><time>2026-03-21T09:19:37.402Z</time></trkpt><trkpt lat="34.3140517" lon="8.4950933"><ele>194.66666666666669</ele><time>2026-03-21T09:19:38.402Z</time></trkpt><trkpt lat="34.313995" lon="8.494895"><ele>195.0</ele><time>2026-03-21T09:19:39.401Z</time></trkpt><trkpt lat="34.3139383" lon="8.49469"><ele>194.66666666666669</ele><time>2026-03-21T09:19:40.401Z</time></trkpt><trkpt lat="34.3138833" lon="8.49448"><ele>194.33333333333334</ele><time>2026-03-21T09:19:41.401Z</time></trkpt><trkpt lat="34.3138367" lon="8.4942633"><ele>194.0</ele><time>2026-03-21T09:19:42.401Z</time></trkpt><trkpt lat="34.313795" lon="8.4940433"><ele>194.0</ele><time>2026-03-21T09:19:43.401Z</time></trkpt><trkpt lat="34.3137533" lon="8.49383"><ele>194.0</ele><time>2026-03-21T09:19:44.403Z</time></trkpt><trkpt lat="34.3137133" lon="8.4936117"><ele>194.0</ele><time>2026-03-21T09:19:45.401Z</time></trkpt><trkpt lat="34.3136767" lon="8.4933883"><ele>194.0</ele><time>2026-03-21T09:19:46.401Z</time></trkpt><trkpt lat="34.3136467" lon="8.4931617"><ele>194.0</ele><time>2026-03-21T09:19:47.402Z</time></trkpt><trkpt lat="34.3136167" lon="8.4929333"><ele>194.0</ele><time>2026-03-21T09:19:48.401Z</time></trkpt><trkpt lat="34.3135917" lon="8.4927067"><ele>194.33333333333334</ele><time>2026-03-21T09:19:49.401Z</time></trkpt><trkpt lat="34.3135667" lon="8.492485"><ele>194.66666666666669</ele><time>2026-03-21T09:19:50.403Z</time></trkpt><trkpt lat="34.313545" lon="8.4922667"><ele>195.0</ele><time>2026-03-21T09:19:51.402Z</time></trkpt><trkpt lat="34.3135267" lon="8.4920467"><ele>195.0</ele><time>2026-03-21T09:19:52.401Z</time></trkpt><trkpt lat="34.3135117" lon="8.4918267"><ele>195.0</ele><time>2026-03-21T09:19:53.402Z</time></trkpt><trkpt lat="34.313495" lon="8.4916033"><ele>195.0</ele><time>2026-03-21T09:19:54.401Z</time></trkpt><trkpt lat="34.313475" lon="8.4913767"><ele>194.33333333333331</ele><time>2026-03-21T09:19:55.401Z</time></trkpt><trkpt lat="34.313455" lon="8.4911483"><ele>193.66666666666666</ele><time>2026-03-21T09:19:56.402Z</time></trkpt><trkpt lat="34.3134367" lon="8.4909183"><ele>193.0</ele><time>2026-03-21T09:19:57.401Z</time></trkpt><trkpt lat="34.3134183" lon="8.4906867"><ele>193.0</ele><time>2026-03-21T09:19:58.401Z</time></trkpt><trkpt lat="34.3134" lon="8.49046"><ele>193.0</ele><time>2026-03-21T09:19:59.404Z</time></trkpt><trkpt lat="34.3133783" lon="8.4902317"><ele>193.0</ele><time>2026-03-21T09:20:00.401Z</time></trkpt><trkpt lat="34.3133567" lon="8.4900033"><ele>192.66666666666666</ele><time>2026-03-21T09:20:01.402Z</time></trkpt><trkpt lat="34.313335" lon="8.4897767"><ele>192.33333333333331</ele><time>2026-03-21T09:20:02.402Z</time></trkpt><trkpt lat="34.3133117" lon="8.48955"><ele>192.0</ele><time>2026-03-21T09:20:03.401Z</time></trkpt><trkpt lat="34.3132883" lon="8.489325"><ele>192.66666666666669</ele><time>2026-03-21T09:20:04.401Z</time></trkpt><trkpt lat="34.3132683" lon="8.4891017"><ele>193.33333333333334</ele><time>2026-03-21T09:20:05.403Z</time></trkpt><trkpt lat="34.3132467" lon="8.4888817"><ele>194.0</ele><time>2026-03-21T09:20:06.401Z</time></trkpt><trkpt lat="34.3132283" lon="8.4886633"><ele>194.0</ele><time>2026-03-21T09:20:07.401Z</time></trkpt><trkpt lat="34.3132033" lon="8.4884417"><ele>194.0</ele><time>2026-03-21T09:20:08.402Z</time></trkpt><trkpt lat="34.313175" lon="8.488215"><ele>194.0</ele><time>2026-03-21T09:20:09.402Z</time></trkpt><trkpt lat="34.31315" lon="8.487985"><ele>194.66666666666669</ele><time>2026-03-21T09:20:10.402Z</time></trkpt><trkpt lat="34.3131267" lon="8.4877483"><ele>195.33333333333331</ele><time>2026-03-21T09:20:11.402Z</time></trkpt><trkpt lat="34.3131033" lon="8.4875083"><ele>196.0</ele><time>2026-03-21T09:20:12.402Z</time></trkpt><trkpt lat="34.313075" lon="8.487265"><ele>195.66666666666666</ele><time>2026-03-21T09:20:13.401Z</time></trkpt><trkpt lat="34.31305" lon="8.4870217"><ele>195.33333333333331</ele><time>2026-03-21T09:20:14.404Z</time></trkpt><trkpt lat="34.313025" lon="8.4867783"><ele>195.0</ele><time>2026-03-21T09:20:15.402Z</time></trkpt><trkpt lat="34.3130033" lon="8.486535"><ele>195.0</ele><time>2026-03-21T09:20:16.402Z</time></trkpt><trkpt lat="34.31298" lon="8.48629"><ele>195.0</ele><time>2026-03-21T09:20:17.403Z</time></trkpt><trkpt lat="34.3129567" lon="8.4860483"><ele>195.0</ele><time>2026-03-21T09:20:18.402Z</time></trkpt><trkpt lat="34.3129333" lon="8.48581"><ele>195.66666666666669</ele><time>2026-03-21T09:20:19.403Z</time></trkpt><trkpt lat="34.3129083" lon="8.4855733"><ele>196.33333333333334</ele><time>2026-03-21T09:20:20.403Z</time></trkpt><trkpt lat="34.312885" lon="8.4853367"><ele>197.0</ele><time>2026-03-21T09:20:21.402Z</time></trkpt><trkpt lat="34.3128617" lon="8.4851017"><ele>197.33333333333334</ele><time>2026-03-21T09:20:22.402Z</time></trkpt><trkpt lat="34.3128383" lon="8.4848667"><ele>197.66666666666669</ele><time>2026-03-21T09:20:23.403Z</time></trkpt><trkpt lat="34.312815" lon="8.48463"><ele>198.0</ele><time>2026-03-21T09:20:24.402Z</time></trkpt><trkpt lat="34.31279" lon="8.484395"><ele>198.0</ele><time>2026-03-21T09:20:25.402Z</time></trkpt><trkpt lat="34.3127667" lon="8.4841533"><ele>198.0</ele><time>2026-03-21T09:20:26.403Z</time></trkpt><trkpt lat="34.31274" lon="8.48391"><ele>198.0</ele><time>2026-03-21T09:20:27.402Z</time></trkpt><trkpt lat="34.312715" lon="8.483665"><ele>197.33333333333331</ele><time>2026-03-21T09:20:28.404Z</time></trkpt><trkpt lat="34.312685" lon="8.4834133"><ele>196.66666666666666</ele><time>2026-03-21T09:20:29.402Z</time></trkpt><trkpt lat="34.3126583" lon="8.48316"><ele>196.0</ele><time>2026-03-21T09:20:30.403Z</time></trkpt><trkpt lat="34.3126333" lon="8.48291"><ele>196.0</ele><time>2026-03-21T09:20:31.402Z</time></trkpt><trkpt lat="34.3126133" lon="8.4826567"><ele>196.0</ele><time>2026-03-21T09:20:32.402Z</time></trkpt><trkpt lat="34.3125917" lon="8.4824033"><ele>196.0</ele><time>2026-03-21T09:20:33.402Z</time></trkpt><trkpt lat="34.3125683" lon="8.482145"><ele>195.66666666666666</ele><time>2026-03-21T09:20:34.402Z</time></trkpt><trkpt lat="34.3125467" lon="8.4818917"><ele>195.33333333333331</ele><time>2026-03-21T09:20:35.402Z</time></trkpt><trkpt lat="34.3125217" lon="8.4816433"><ele>195.0</ele><time>2026-03-21T09:20:36.404Z</time></trkpt><trkpt lat="34.3124967" lon="8.4813983"><ele>195.0</ele><time>2026-03-21T09:20:37.402Z</time></trkpt><trkpt lat="34.3124717" lon="8.48115"><ele>195.0</ele><time>2026-03-21T09:20:38.403Z</time></trkpt><trkpt lat="34.312445" lon="8.4809033"><ele>195.0</ele><time>2026-03-21T09:20:39.402Z</time></trkpt><trkpt lat="34.3124183" lon="8.4806583"><ele>195.33333333333331</ele><time>2026-03-21T09:20:40.402Z</time></trkpt><trkpt lat="34.3123917" lon="8.4804083"><ele>195.66666666666666</ele><time>2026-03-21T09:20:41.402Z</time></trkpt><trkpt lat="34.31237" lon="8.4801617"><ele>196.0</ele><time>2026-03-21T09:20:42.403Z</time></trkpt><trkpt lat="34.312345" lon="8.4799117"><ele>196.0</ele><time>2026-03-21T09:20:43.402Z</time></trkpt><trkpt lat="34.3123183" lon="8.4796583"><ele>196.0</ele><time>2026-03-21T09:20:44.402Z</time></trkpt><trkpt lat="34.312295" lon="8.479405"><ele>196.0</ele><time>2026-03-21T09:20:45.402Z</time></trkpt><trkpt lat="34.31227" lon="8.47915"><ele>195.0</ele><time>2026-03-21T09:20:46.402Z</time></trkpt><trkpt lat="34.3122467" lon="8.4788933"><ele>194.0</ele><time>2026-03-21T09:20:47.402Z</time></trkpt><trkpt lat="34.3122233" lon="8.4786333"><ele>193.0</ele><time>2026-03-21T09:20:48.403Z</time></trkpt><trkpt lat="34.3122" lon="8.478375"><ele>193.0</ele><time>2026-03-21T09:20:49.402Z</time></trkpt><trkpt lat="34.3121733" lon="8.4781167"><ele>193.0</ele><time>2026-03-21T09:20:50.402Z</time></trkpt><trkpt lat="34.3121483" lon="8.4778617"><ele>193.0</ele><time>2026-03-21T09:20:51.402Z</time></trkpt><trkpt lat="34.3121233" lon="8.47761"><ele>193.0</ele><time>2026-03-21T09:20:52.403Z</time></trkpt><trkpt lat="34.3120967" lon="8.4773567"><ele>193.0</ele><time>2026-03-21T09:20:53.403Z</time></trkpt><trkpt lat="34.3120733" lon="8.4771017"><ele>193.0</ele><time>2026-03-21T09:20:54.403Z</time></trkpt><trkpt lat="34.31205" lon="8.4768483"><ele>193.0</ele><time>2026-03-21T09:20:55.402Z</time></trkpt><trkpt lat="34.312025" lon="8.4765933"><ele>193.0</ele><time>2026-03-21T09:20:56.402Z</time></trkpt><trkpt lat="34.3119967" lon="8.4763333"><ele>193.0</ele><time>2026-03-21T09:20:57.402Z</time></trkpt><trkpt lat="34.3119683" lon="8.4760683"><ele>192.33333333333331</ele><time>2026-03-21T09:20:58.402Z</time></trkpt><trkpt lat="34.3119433" lon="8.4758033"><ele>191.66666666666666</ele><time>2026-03-21T09:20:59.402Z</time></trkpt><trkpt lat="34.311915" lon="8.475535"><ele>191.0</ele><time>2026-03-21T09:21:00.402Z</time></trkpt><trkpt lat="34.311885" lon="8.4752583"><ele>190.5</ele><time>2026-03-21T09:21:01.402Z</time></trkpt><trkpt lat="34.3118567" lon="8.47499"><ele>190.0</ele><time>2026-03-21T09:21:02.402Z</time></trkpt><trkpt lat="34.3118267" lon="8.4747167"><ele>191.33333333333334</ele><time>2026-03-21T09:21:03.403Z</time></trkpt><trkpt lat="34.3117967" lon="8.4744483"><ele>192.66666666666669</ele><time>2026-03-21T09:21:04.402Z</time></trkpt><trkpt lat="34.3117683" lon="8.47418"><ele>194.0</ele><time>2026-03-21T09:21:05.403Z</time></trkpt><trkpt lat="34.3117433" lon="8.4739083"><ele>194.0</ele><time>2026-03-21T09:21:06.402Z</time></trkpt><trkpt lat="34.311715" lon="8.47363"><ele>194.0</ele><time>2026-03-21T09:21:07.402Z</time></trkpt><trkpt lat="34.31169" lon="8.473355"><ele>194.0</ele><time>2026-03-21T09:21:08.402Z</time></trkpt><trkpt lat="34.3116617" lon="8.4730817"><ele>194.0</ele><time>2026-03-21T09:21:09.402Z</time></trkpt><trkpt lat="34.3116333" lon="8.4728133"><ele>194.66666666666669</ele><time>2026-03-21T09:21:10.402Z</time></trkpt><trkpt lat="34.311605" lon="8.4725433"><ele>195.33333333333331</ele><time>2026-03-21T09:21:11.402Z</time></trkpt><trkpt lat="34.3115783" lon="8.4722733"><ele>196.0</ele><time>2026-03-21T09:21:12.402Z</time></trkpt><trkpt lat="34.3115533" lon="8.472005"><ele>196.0</ele><time>2026-03-21T09:21:13.403Z</time></trkpt><trkpt lat="34.311525" lon="8.471735"><ele>196.0</ele><time>2026-03-21T09:21:14.402Z</time></trkpt><trkpt lat="34.3114983" lon="8.4714633"><ele>196.0</ele><time>2026-03-21T09:21:15.402Z</time></trkpt><trkpt lat="34.31147" lon="8.4711867"><ele>196.0</ele><time>2026-03-21T09:21:16.405Z</time></trkpt><trkpt lat="34.31144" lon="8.4709117"><ele>196.0</ele><time>2026-03-21T09:21:17.402Z</time></trkpt><trkpt lat="34.3114067" lon="8.4706367"><ele>196.0</ele><time>2026-03-21T09:21:18.404Z</time></trkpt><trkpt lat="34.3113717" lon="8.470365"><ele>196.0</ele><time>2026-03-21T09:21:19.403Z</time></trkpt><trkpt lat="34.3113467" lon="8.4700983"><ele>196.0</ele><time>2026-03-21T09:21:20.403Z</time></trkpt><trkpt lat="34.3113233" lon="8.4698317"><ele>196.0</ele><time>2026-03-21T09:21:21.403Z</time></trkpt><trkpt lat="34.3113033" lon="8.46957"><ele>196.0</ele><time>2026-03-21T09:21:22.402Z</time></trkpt><trkpt lat="34.3112833" lon="8.4693117"><ele>196.0</ele><time>2026-03-21T09:21:23.402Z</time></trkpt><trkpt lat="34.3112583" lon="8.4690517"><ele>196.0</ele><time>2026-03-21T09:21:24.402Z</time></trkpt><trkpt lat="34.31123" lon="8.4687867"><ele>196.33333333333331</ele><time>2026-03-21T09:21:25.402Z</time></trkpt><trkpt lat="34.3112" lon="8.46852"><ele>196.66666666666669</ele><time>2026-03-21T09:21:26.402Z</time></trkpt><trkpt lat="34.3111717" lon="8.4682517"><ele>197.0</ele><time>2026-03-21T09:21:27.402Z</time></trkpt><trkpt lat="34.31115" lon="8.467985"><ele>197.0</ele><time>2026-03-21T09:21:28.402Z</time></trkpt><trkpt lat="34.3111333" lon="8.46772"><ele>197.0</ele><time>2026-03-21T09:21:29.402Z</time></trkpt><trkpt lat="34.3111283" lon="8.4674517"><ele>197.0</ele><time>2026-03-21T09:21:30.403Z</time></trkpt><trkpt lat="34.31113" lon="8.467185"><ele>197.0</ele><time>2026-03-21T09:21:31.404Z</time></trkpt><trkpt lat="34.3111433" lon="8.4669183"><ele>197.0</ele><time>2026-03-21T09:21:32.402Z</time></trkpt><trkpt lat="34.311155" lon="8.46665"><ele>197.0</ele><time>2026-03-21T09:21:33.402Z</time></trkpt><trkpt lat="34.3111683" lon="8.466385"><ele>196.66666666666669</ele><time>2026-03-21T09:21:34.402Z</time></trkpt><trkpt lat="34.3111817" lon="8.4661217"><ele>196.33333333333331</ele><time>2026-03-21T09:21:35.403Z</time></trkpt><trkpt lat="34.311195" lon="8.4658583"><ele>196.0</ele><time>2026-03-21T09:21:36.402Z</time></trkpt><trkpt lat="34.3112083" lon="8.4655967"><ele>196.33333333333331</ele><time>2026-03-21T09:21:37.402Z</time></trkpt><trkpt lat="34.3112217" lon="8.465335"><ele>196.66666666666669</ele><time>2026-03-21T09:21:38.402Z</time></trkpt><trkpt lat="34.3112333" lon="8.465075"><ele>197.0</ele><time>2026-03-21T09:21:39.403Z</time></trkpt><trkpt lat="34.311245" lon="8.4648133"><ele>197.33333333333334</ele><time>2026-03-21T09:21:40.402Z</time></trkpt><trkpt lat="34.3112567" lon="8.46455"><ele>197.66666666666669</ele><time>2026-03-21T09:21:41.403Z</time></trkpt><trkpt lat="34.31127" lon="8.4642883"><ele>198.0</ele><time>2026-03-21T09:21:42.402Z</time></trkpt><trkpt lat="34.3112833" lon="8.464025"><ele>197.33333333333331</ele><time>2026-03-21T09:21:43.402Z</time></trkpt><trkpt lat="34.3112967" lon="8.46376"><ele>196.66666666666666</ele><time>2026-03-21T09:21:44.402Z</time></trkpt><trkpt lat="34.31131" lon="8.4634933"><ele>196.0</ele><time>2026-03-21T09:21:45.402Z</time></trkpt><trkpt lat="34.3113217" lon="8.46323"><ele>196.0</ele><time>2026-03-21T09:21:46.402Z</time></trkpt><trkpt lat="34.3113333" lon="8.4629633"><ele>196.0</ele><time>2026-03-21T09:21:47.402Z</time></trkpt><trkpt lat="34.311345" lon="8.4626933"><ele>196.0</ele><time>2026-03-21T09:21:48.402Z</time></trkpt><trkpt lat="34.3113583" lon="8.4624217"><ele>196.0</ele><time>2026-03-21T09:21:49.402Z</time></trkpt><trkpt lat="34.31137" lon="8.4621433"><ele>196.0</ele><time>2026-03-21T09:21:50.402Z</time></trkpt><trkpt lat="34.3113783" lon="8.461865"><ele>195.5</ele><time>2026-03-21T09:21:51.402Z</time></trkpt><trkpt lat="34.3113867" lon="8.461585"><ele>195.0</ele><time>2026-03-21T09:21:52.403Z</time></trkpt><trkpt lat="34.3113967" lon="8.4613033"><ele>195.5</ele><time>2026-03-21T09:21:53.403Z</time></trkpt><trkpt lat="34.3114067" lon="8.4610233"><ele>196.0</ele><time>2026-03-21T09:21:54.402Z</time></trkpt><trkpt lat="34.3114167" lon="8.4607433"><ele>196.0</ele><time>2026-03-21T09:21:55.403Z</time></trkpt><trkpt lat="34.3114267" lon="8.46046"><ele>196.0</ele><time>2026-03-21T09:21:56.403Z</time></trkpt><trkpt lat="34.3114383" lon="8.4601733"><ele>196.0</ele><time>2026-03-21T09:21:57.402Z</time></trkpt><trkpt lat="34.31145" lon="8.4598883"><ele>196.0</ele><time>2026-03-21T09:21:58.403Z</time></trkpt><trkpt lat="34.3114667" lon="8.459605"><ele>196.5</ele><time>2026-03-21T09:21:59.402Z</time></trkpt><trkpt lat="34.3114833" lon="8.4593217"><ele>197.0</ele><time>2026-03-21T09:22:00.402Z</time></trkpt><trkpt lat="34.3115" lon="8.459035"><ele>195.0</ele><time>2026-03-21T09:22:01.403Z</time></trkpt><trkpt lat="34.3115117" lon="8.4587467"><ele>193.0</ele><time>2026-03-21T09:22:02.401Z</time></trkpt><trkpt lat="34.3115267" lon="8.458465"><ele>193.0</ele><time>2026-03-21T09:22:03.402Z</time></trkpt><trkpt lat="34.3115417" lon="8.4581833"><ele>193.0</ele><time>2026-03-21T09:22:04.401Z</time></trkpt><trkpt lat="34.3115567" lon="8.4578983"><ele>193.5</ele><time>2026-03-21T09:22:05.404Z</time></trkpt><trkpt lat="34.3115717" lon="8.4576117"><ele>194.0</ele><time>2026-03-21T09:22:06.402Z</time></trkpt><trkpt lat="34.3115867" lon="8.4573283"><ele>194.0</ele><time>2026-03-21T09:22:07.403Z</time></trkpt><trkpt lat="34.3116" lon="8.457045"><ele>194.0</ele><time>2026-03-21T09:22:08.403Z</time></trkpt><trkpt lat="34.3116117" lon="8.45676"><ele>194.0</ele><time>2026-03-21T09:22:09.403Z</time></trkpt><trkpt lat="34.3116217" lon="8.4564717"><ele>194.0</ele><time>2026-03-21T09:22:10.403Z</time></trkpt><trkpt lat="34.3116367" lon="8.456185"><ele>193.5</ele><time>2026-03-21T09:22:11.402Z</time></trkpt><trkpt lat="34.3116517" lon="8.4559017"><ele>193.0</ele><time>2026-03-21T09:22:12.403Z</time></trkpt><trkpt lat="34.311665" lon="8.4556183"><ele>194.5</ele><time>2026-03-21T09:22:13.405Z</time></trkpt><trkpt lat="34.311675" lon="8.4553333"><ele>196.0</ele><time>2026-03-21T09:22:14.402Z</time></trkpt><trkpt lat="34.3116867" lon="8.4550533"><ele>196.0</ele><time>2026-03-21T09:22:15.402Z</time></trkpt><trkpt lat="34.3116983" lon="8.4547717"><ele>196.0</ele><time>2026-03-21T09:22:16.403Z</time></trkpt><trkpt lat="34.3117133" lon="8.454495"><ele>194.0</ele><time>2026-03-21T09:22:17.403Z</time></trkpt><trkpt lat="34.3117283" lon="8.4542183"><ele>192.0</ele><time>2026-03-21T09:22:18.403Z</time></trkpt><trkpt lat="34.31174" lon="8.4539383"><ele>191.5</ele><time>2026-03-21T09:22:19.404Z</time></trkpt><trkpt lat="34.3117517" lon="8.45366"><ele>191.0</ele><time>2026-03-21T09:22:20.402Z</time></trkpt><trkpt lat="34.3117617" lon="8.4533833"><ele>191.0</ele><time>2026-03-21T09:22:21.403Z</time></trkpt><trkpt lat="34.3117733" lon="8.45311"><ele>191.0</ele><time>2026-03-21T09:22:22.402Z</time></trkpt><trkpt lat="34.3117867" lon="8.4528333"><ele>191.0</ele><time>2026-03-21T09:22:23.402Z</time></trkpt><trkpt lat="34.311795" lon="8.4525567"><ele>191.0</ele><time>2026-03-21T09:22:24.402Z</time></trkpt><trkpt lat="34.3118067" lon="8.45228"><ele>192.5</ele><time>2026-03-21T09:22:25.403Z</time></trkpt><trkpt lat="34.31182" lon="8.4520017"><ele>194.0</ele><time>2026-03-21T09:22:26.402Z</time></trkpt><trkpt lat="34.311835" lon="8.45172"><ele>194.0</ele><time>2026-03-21T09:22:27.403Z</time></trkpt><trkpt lat="34.3118483" lon="8.4514383"><ele>194.0</ele><time>2026-03-21T09:22:28.402Z</time></trkpt><trkpt lat="34.3118633" lon="8.4511567"><ele>194.0</ele><time>2026-03-21T09:22:29.402Z</time></trkpt><trkpt lat="34.3118767" lon="8.450875"><ele>194.0</ele><time>2026-03-21T09:22:30.403Z</time></trkpt><trkpt lat="34.31189" lon="8.4505933"><ele>194.0</ele><time>2026-03-21T09:22:31.402Z</time></trkpt><trkpt lat="34.3119017" lon="8.4503117"><ele>194.0</ele><time>2026-03-21T09:22:32.402Z</time></trkpt><trkpt lat="34.3119117" lon="8.450035"><ele>194.0</ele><time>2026-03-21T09:22:33.403Z</time></trkpt><trkpt lat="34.311925" lon="8.4497567"><ele>194.0</ele><time>2026-03-21T09:22:34.403Z</time></trkpt><trkpt lat="34.3119367" lon="8.4494817"><ele>193.66666666666669</ele><time>2026-03-21T09:22:35.403Z</time></trkpt><trkpt lat="34.3119467" lon="8.44921"><ele>193.33333333333331</ele><time>2026-03-21T09:22:36.402Z</time></trkpt><trkpt lat="34.3119583" lon="8.4489417"><ele>193.0</ele><time>2026-03-21T09:22:37.402Z</time></trkpt><trkpt lat="34.311965" lon="8.4486683"><ele>193.0</ele><time>2026-03-21T09:22:38.402Z</time></trkpt><trkpt lat="34.3119717" lon="8.4484033"><ele>193.0</ele><time>2026-03-21T09:22:39.402Z</time></trkpt><trkpt lat="34.3119817" lon="8.44814"><ele>193.0</ele><time>2026-03-21T09:22:40.402Z</time></trkpt><trkpt lat="34.3119883" lon="8.4478767"><ele>193.0</ele><time>2026-03-21T09:22:41.402Z</time></trkpt><trkpt lat="34.312" lon="8.447615"><ele>193.0</ele><time>2026-03-21T09:22:42.402Z</time></trkpt><trkpt lat="34.3120117" lon="8.4473567"><ele>193.0</ele><time>2026-03-21T09:22:43.402Z</time></trkpt><trkpt lat="34.3120233" lon="8.4471"><ele>193.33333333333331</ele><time>2026-03-21T09:22:44.402Z</time></trkpt><trkpt lat="34.312035" lon="8.4468433"><ele>193.66666666666669</ele><time>2026-03-21T09:22:45.402Z</time></trkpt><trkpt lat="34.3120467" lon="8.4465917"><ele>194.0</ele><time>2026-03-21T09:22:46.402Z</time></trkpt><trkpt lat="34.3120617" lon="8.4463417"><ele>194.33333333333334</ele><time>2026-03-21T09:22:47.402Z</time></trkpt><trkpt lat="34.312075" lon="8.446085"><ele>194.66666666666669</ele><time>2026-03-21T09:22:48.403Z</time></trkpt><trkpt lat="34.3120883" lon="8.4458267"><ele>195.0</ele><time>2026-03-21T09:22:49.402Z</time></trkpt><trkpt lat="34.3121" lon="8.4455667"><ele>195.0</ele><time>2026-03-21T09:22:50.402Z</time></trkpt><trkpt lat="34.31211" lon="8.4453083"><ele>195.0</ele><time>2026-03-21T09:22:51.402Z</time></trkpt><trkpt lat="34.31212" lon="8.4450533"><ele>195.0</ele><time>2026-03-21T09:22:52.402Z</time></trkpt><trkpt lat="34.31213" lon="8.4447967"><ele>196.0</ele><time>2026-03-21T09:22:53.402Z</time></trkpt><trkpt lat="34.3121417" lon="8.44454"><ele>197.0</ele><time>2026-03-21T09:22:54.404Z</time></trkpt><trkpt lat="34.312155" lon="8.4442833"><ele>198.0</ele><time>2026-03-21T09:22:55.403Z</time></trkpt><trkpt lat="34.312165" lon="8.444025"><ele>197.66666666666669</ele><time>2026-03-21T09:22:56.403Z</time></trkpt><trkpt lat="34.3121767" lon="8.4437667"><ele>197.33333333333334</ele><time>2026-03-21T09:22:57.403Z</time></trkpt><trkpt lat="34.312185" lon="8.4435033"><ele>197.0</ele><time>2026-03-21T09:22:58.402Z</time></trkpt><trkpt lat="34.312195" lon="8.44324"><ele>197.0</ele><time>2026-03-21T09:22:59.404Z</time></trkpt><trkpt lat="34.3122033" lon="8.4429833"><ele>197.0</ele><time>2026-03-21T09:23:00.402Z</time></trkpt><trkpt lat="34.312215" lon="8.442725"><ele>197.0</ele><time>2026-03-21T09:23:01.402Z</time></trkpt><trkpt lat="34.3122267" lon="8.4424667"><ele>197.0</ele><time>2026-03-21T09:23:02.402Z</time></trkpt><trkpt lat="34.31224" lon="8.4422067"><ele>197.0</ele><time>2026-03-21T09:23:03.402Z</time></trkpt><trkpt lat="34.3122533" lon="8.441945"><ele>197.0</ele><time>2026-03-21T09:23:04.402Z</time></trkpt><trkpt lat="34.312265" lon="8.4416833"><ele>197.0</ele><time>2026-03-21T09:23:05.403Z</time></trkpt><trkpt lat="34.3122767" lon="8.441415"><ele>197.0</ele><time>2026-03-21T09:23:06.402Z</time></trkpt><trkpt lat="34.3122917" lon="8.4411483"><ele>197.0</ele><time>2026-03-21T09:23:07.403Z</time></trkpt><trkpt lat="34.312305" lon="8.4408833"><ele>196.66666666666669</ele><time>2026-03-21T09:23:08.402Z</time></trkpt><trkpt lat="34.3123167" lon="8.440615"><ele>196.33333333333331</ele><time>2026-03-21T09:23:09.403Z</time></trkpt><trkpt lat="34.3123283" lon="8.4403433"><ele>196.0</ele><time>2026-03-21T09:23:10.402Z</time></trkpt><trkpt lat="34.31234" lon="8.4400717"><ele>195.66666666666666</ele><time>2026-03-21T09:23:11.402Z</time></trkpt><trkpt lat="34.3123567" lon="8.4398017"><ele>195.33333333333331</ele><time>2026-03-21T09:23:12.402Z</time></trkpt><trkpt lat="34.3123717" lon="8.4395333"><ele>195.0</ele><time>2026-03-21T09:23:13.402Z</time></trkpt><trkpt lat="34.3123833" lon="8.4392667"><ele>194.66666666666669</ele><time>2026-03-21T09:23:14.402Z</time></trkpt><trkpt lat="34.3123967" lon="8.439"><ele>194.33333333333334</ele><time>2026-03-21T09:23:15.402Z</time></trkpt><trkpt lat="34.3124067" lon="8.43873"><ele>194.0</ele><time>2026-03-21T09:23:16.403Z</time></trkpt><trkpt lat="34.3124183" lon="8.43846"><ele>194.0</ele><time>2026-03-21T09:23:17.402Z</time></trkpt><trkpt lat="34.3124267" lon="8.4381933"><ele>194.0</ele><time>2026-03-21T09:23:18.402Z</time></trkpt><trkpt lat="34.3124367" lon="8.4379283"><ele>194.0</ele><time>2026-03-21T09:23:19.402Z</time></trkpt><trkpt lat="34.312455" lon="8.4376583"><ele>194.0</ele><time>2026-03-21T09:23:20.402Z</time></trkpt><trkpt lat="34.31247" lon="8.43739"><ele>194.0</ele><time>2026-03-21T09:23:21.402Z</time></trkpt><trkpt lat="34.3124817" lon="8.4371267"><ele>194.0</ele><time>2026-03-21T09:23:22.402Z</time></trkpt><trkpt lat="34.3124917" lon="8.43686"><ele>194.66666666666669</ele><time>2026-03-21T09:23:23.402Z</time></trkpt><trkpt lat="34.3124983" lon="8.4365983"><ele>195.33333333333331</ele><time>2026-03-21T09:23:24.402Z</time></trkpt><trkpt lat="34.31251" lon="8.4363383"><ele>196.0</ele><time>2026-03-21T09:23:25.402Z</time></trkpt><trkpt lat="34.3125217" lon="8.4360817"><ele>196.0</ele><time>2026-03-21T09:23:26.402Z</time></trkpt><trkpt lat="34.3125317" lon="8.43583"><ele>196.0</ele><time>2026-03-21T09:23:27.403Z</time></trkpt><trkpt lat="34.3125383" lon="8.4355783"><ele>196.0</ele><time>2026-03-21T09:23:28.402Z</time></trkpt><trkpt lat="34.312545" lon="8.43533"><ele>196.0</ele><time>2026-03-21T09:23:29.402Z</time></trkpt><trkpt lat="34.3125533" lon="8.435075"><ele>196.0</ele><time>2026-03-21T09:23:30.402Z</time></trkpt><trkpt lat="34.31257" lon="8.43482"><ele>196.0</ele><time>2026-03-21T09:23:31.402Z</time></trkpt><trkpt lat="34.3125833" lon="8.4345683"><ele>196.0</ele><time>2026-03-21T09:23:32.402Z</time></trkpt><trkpt lat="34.3125967" lon="8.434315"><ele>196.0</ele><time>2026-03-21T09:23:33.403Z</time></trkpt><trkpt lat="34.3126117" lon="8.4340583"><ele>196.0</ele><time>2026-03-21T09:23:34.403Z</time></trkpt><trkpt lat="34.3126233" lon="8.433805"><ele>196.0</ele><time>2026-03-21T09:23:35.406Z</time></trkpt><trkpt lat="34.3126317" lon="8.4335517"><ele>196.0</ele><time>2026-03-21T09:23:36.402Z</time></trkpt><trkpt lat="34.3126417" lon="8.43331"><ele>196.0</ele><time>2026-03-21T09:23:37.402Z</time></trkpt><trkpt lat="34.3126483" lon="8.4330783"><ele>195.66666666666666</ele><time>2026-03-21T09:23:38.402Z</time></trkpt><trkpt lat="34.312655" lon="8.4328467"><ele>195.33333333333331</ele><time>2026-03-21T09:23:39.402Z</time></trkpt><trkpt lat="34.3126617" lon="8.4326167"><ele>195.0</ele><time>2026-03-21T09:23:40.402Z</time></trkpt><trkpt lat="34.31267" lon="8.43239"><ele>195.0</ele><time>2026-03-21T09:23:41.404Z</time></trkpt><trkpt lat="34.31268" lon="8.432165"><ele>195.0</ele><time>2026-03-21T09:23:42.402Z</time></trkpt><trkpt lat="34.31269" lon="8.431945"><ele>195.0</ele><time>2026-03-21T09:23:43.402Z</time></trkpt><trkpt lat="34.3127017" lon="8.4317283"><ele>194.33333333333331</ele><time>2026-03-21T09:23:44.402Z</time></trkpt><trkpt lat="34.31271" lon="8.4315117"><ele>193.66666666666666</ele><time>2026-03-21T09:23:45.402Z</time></trkpt><trkpt lat="34.3127167" lon="8.4312983"><ele>193.0</ele><time>2026-03-21T09:23:46.402Z</time></trkpt><trkpt lat="34.3127233" lon="8.43109"><ele>193.0</ele><time>2026-03-21T09:23:47.402Z</time></trkpt><trkpt lat="34.3127333" lon="8.4308883"><ele>193.0</ele><time>2026-03-21T09:23:48.402Z</time></trkpt><trkpt lat="34.3127433" lon="8.4306917"><ele>193.0</ele><time>2026-03-21T09:23:49.402Z</time></trkpt><trkpt lat="34.3127517" lon="8.4304967"><ele>193.66666666666666</ele><time>2026-03-21T09:23:50.403Z</time></trkpt><trkpt lat="34.3127633" lon="8.4303067"><ele>194.33333333333331</ele><time>2026-03-21T09:23:51.403Z</time></trkpt><trkpt lat="34.3127733" lon="8.4301233"><ele>195.0</ele><time>2026-03-21T09:23:52.403Z</time></trkpt><trkpt lat="34.3127817" lon="8.42995"><ele>195.0</ele><time>2026-03-21T09:23:53.402Z</time></trkpt><trkpt lat="34.31279" lon="8.429785"><ele>195.0</ele><time>2026-03-21T09:23:54.403Z</time></trkpt><trkpt lat="34.3127933" lon="8.429625"><ele>195.0</ele><time>2026-03-21T09:23:55.403Z</time></trkpt><trkpt lat="34.312795" lon="8.42947"><ele>195.0</ele><time>2026-03-21T09:23:56.402Z</time></trkpt><trkpt lat="34.3128" lon="8.4293067"><ele>195.5</ele><time>2026-03-21T09:23:57.402Z</time></trkpt><trkpt lat="34.3128083" lon="8.4291417"><ele>196.0</ele><time>2026-03-21T09:23:58.403Z</time></trkpt><trkpt lat="34.312815" lon="8.4289817"><ele>196.5</ele><time>2026-03-21T09:23:59.402Z</time></trkpt><trkpt lat="34.3128217" lon="8.4288233"><ele>197.0</ele><time>2026-03-21T09:24:00.402Z</time></trkpt><trkpt lat="34.3128317" lon="8.4286667"><ele>197.25</ele><time>2026-03-21T09:24:01.402Z</time></trkpt><trkpt lat="34.31284" lon="8.428505"><ele>197.5</ele><time>2026-03-21T09:24:02.404Z</time></trkpt><trkpt lat="34.3128483" lon="8.42834"><ele>197.75</ele><time>2026-03-21T09:24:03.402Z</time></trkpt><trkpt lat="34.31286" lon="8.42817"><ele>198.0</ele><time>2026-03-21T09:24:04.402Z</time></trkpt><trkpt lat="34.3128683" lon="8.428005"><ele>197.75</ele><time>2026-03-21T09:24:05.402Z</time></trkpt><trkpt lat="34.3128767" lon="8.4278417"><ele>197.5</ele><time>2026-03-21T09:24:06.402Z</time></trkpt><trkpt lat="34.3128833" lon="8.4276717"><ele>197.25</ele><time>2026-03-21T09:24:07.402Z</time></trkpt><trkpt lat="34.3128883" lon="8.4275033"><ele>197.0</ele><time>2026-03-21T09:24:08.403Z</time></trkpt><trkpt lat="34.3128917" lon="8.42734"><ele>197.0</ele><time>2026-03-21T09:24:09.402Z</time></trkpt><trkpt lat="34.312895" lon="8.42718"><ele>197.0</ele><time>2026-03-21T09:24:10.402Z</time></trkpt><trkpt lat="34.3129017" lon="8.42702"><ele>197.0</ele><time>2026-03-21T09:24:11.402Z</time></trkpt><trkpt lat="34.3129117" lon="8.426865"><ele>197.0</ele><time>2026-03-21T09:24:12.402Z</time></trkpt><trkpt lat="34.3129117" lon="8.4267117"><ele>197.0</ele><time>2026-03-21T09:24:13.402Z</time></trkpt><trkpt lat="34.3129217" lon="8.426565"><ele>197.0</ele><time>2026-03-21T09:24:14.403Z</time></trkpt><trkpt lat="34.3129317" lon="8.42642"><ele>197.0</ele><time>2026-03-21T09:24:15.402Z</time></trkpt><trkpt lat="34.31294" lon="8.426285"><ele>197.0</ele><time>2026-03-21T09:24:16.402Z</time></trkpt><trkpt lat="34.3129433" lon="8.4261633"><ele>197.00000000000003</ele><time>2026-03-21T09:24:17.403Z</time></trkpt><trkpt lat="34.3129417" lon="8.4260617"><ele>197.0</ele><time>2026-03-21T09:24:18.405Z</time></trkpt><trkpt lat="34.3129383" lon="8.4259733"><ele>197.0</ele><time>2026-03-21T09:24:19.402Z</time></trkpt><trkpt lat="34.312935" lon="8.4258917"><ele>197.0</ele><time>2026-03-21T09:24:20.402Z</time></trkpt><trkpt lat="34.312935" lon="8.4258133"><ele>197.00000000000003</ele><time>2026-03-21T09:24:21.402Z</time></trkpt><trkpt lat="34.3129433" lon="8.4256783"><ele>197.0</ele><time>2026-03-21T09:24:23.402Z</time></trkpt><trkpt lat="34.3129567" lon="8.4255233"><ele>197.00000000000003</ele><time>2026-03-21T09:24:25.402Z</time></trkpt><trkpt lat="34.312965" lon="8.4254333"><ele>197.0</ele><time>2026-03-21T09:24:26.403Z</time></trkpt><trkpt lat="34.312975" lon="8.4253333"><ele>197.0</ele><time>2026-03-21T09:24:27.403Z</time></trkpt><trkpt lat="34.3129817" lon="8.4252233"><ele>197.0</ele><time>2026-03-21T09:24:28.402Z</time></trkpt><trkpt lat="34.3129883" lon="8.4251083"><ele>197.00000000000003</ele><time>2026-03-21T09:24:29.403Z</time></trkpt><trkpt lat="34.3129967" lon="8.42499"><ele>197.0</ele><time>2026-03-21T09:24:30.402Z</time></trkpt><trkpt lat="34.313" lon="8.4248717"><ele>197.0</ele><time>2026-03-21T09:24:31.402Z</time></trkpt><trkpt lat="34.3130067" lon="8.4247517"><ele>197.0</ele><time>2026-03-21T09:24:32.403Z</time></trkpt><trkpt lat="34.3130133" lon="8.4246283"><ele>197.0</ele><time>2026-03-21T09:24:33.403Z</time></trkpt><trkpt lat="34.313015" lon="8.4244983"><ele>197.0</ele><time>2026-03-21T09:24:34.402Z</time></trkpt><trkpt lat="34.3130217" lon="8.4243633"><ele>197.0</ele><time>2026-03-21T09:24:35.402Z</time></trkpt><trkpt lat="34.3130367" lon="8.424225"><ele>197.0</ele><time>2026-03-21T09:24:36.403Z</time></trkpt><trkpt lat="34.31305" lon="8.4240867"><ele>197.0</ele><time>2026-03-21T09:24:37.402Z</time></trkpt><trkpt lat="34.3130567" lon="8.423955"><ele>197.0</ele><time>2026-03-21T09:24:38.402Z</time></trkpt><trkpt lat="34.3130633" lon="8.423825"><ele>197.0</ele><time>2026-03-21T09:24:39.402Z</time></trkpt><trkpt lat="34.3130667" lon="8.423695"><ele>197.0</ele><time>2026-03-21T09:24:40.403Z</time></trkpt><trkpt lat="34.3130683" lon="8.4235583"><ele>197.25</ele><time>2026-03-21T09:24:41.403Z</time></trkpt><trkpt lat="34.313075" lon="8.4234183"><ele>197.5</ele><time>2026-03-21T09:24:42.402Z</time></trkpt><trkpt lat="34.3130817" lon="8.42327"><ele>197.75</ele><time>2026-03-21T09:24:43.402Z</time></trkpt><trkpt lat="34.3130867" lon="8.42312"><ele>198.0</ele><time>2026-03-21T09:24:44.402Z</time></trkpt><trkpt lat="34.3130933" lon="8.4229767"><ele>198.0</ele><time>2026-03-21T09:24:45.402Z</time></trkpt><trkpt lat="34.3130983" lon="8.4228333"><ele>198.0</ele><time>2026-03-21T09:24:46.402Z</time></trkpt><trkpt lat="34.3131" lon="8.4227083"><ele>198.0</ele><time>2026-03-21T09:24:47.402Z</time></trkpt><trkpt lat="34.3131" lon="8.4225883"><ele>198.0</ele><time>2026-03-21T09:24:48.402Z</time></trkpt><trkpt lat="34.3131033" lon="8.422475"><ele>198.0</ele><time>2026-03-21T09:24:49.402Z</time></trkpt><trkpt lat="34.3131033" lon="8.4223517"><ele>198.0</ele><time>2026-03-21T09:24:50.402Z</time></trkpt><trkpt lat="34.3131033" lon="8.4222317"><ele>198.0</ele><time>2026-03-21T09:24:51.402Z</time></trkpt><trkpt lat="34.313105" lon="8.4221117"><ele>198.0</ele><time>2026-03-21T09:24:52.402Z</time></trkpt><trkpt lat="34.3131117" lon="8.4219867"><ele>198.0</ele><time>2026-03-21T09:24:53.403Z</time></trkpt><trkpt lat="34.3131167" lon="8.4218583"><ele>198.0</ele><time>2026-03-21T09:24:54.402Z</time></trkpt><trkpt lat="34.3131217" lon="8.421725"><ele>198.0</ele><time>2026-03-21T09:24:55.402Z</time></trkpt><trkpt lat="34.3131283" lon="8.421585"><ele>198.0</ele><time>2026-03-21T09:24:56.404Z</time></trkpt><trkpt lat="34.3131383" lon="8.4214467"><ele>198.0</ele><time>2026-03-21T09:24:57.402Z</time></trkpt><trkpt lat="34.31314" lon="8.4213067"><ele>198.0</ele><time>2026-03-21T09:24:58.403Z</time></trkpt><trkpt lat="34.3131417" lon="8.4211617"><ele>198.0</ele><time>2026-03-21T09:24:59.403Z</time></trkpt><trkpt lat="34.31315" lon="8.4210067"><ele>198.0</ele><time>2026-03-21T09:25:00.403Z</time></trkpt><trkpt lat="34.31316" lon="8.4208383"><ele>198.0</ele><time>2026-03-21T09:25:01.403Z</time></trkpt><trkpt lat="34.3131717" lon="8.42067"><ele>198.0</ele><time>2026-03-21T09:25:02.403Z</time></trkpt><trkpt lat="34.3131833" lon="8.4205033"><ele>198.0</ele><time>2026-03-21T09:25:03.402Z</time></trkpt><trkpt lat="34.3131967" lon="8.4203483"><ele>198.0</ele><time>2026-03-21T09:25:04.403Z</time></trkpt><trkpt lat="34.31321" lon="8.420205"><ele>198.0</ele><time>2026-03-21T09:25:05.402Z</time></trkpt><trkpt lat="34.3132283" lon="8.4200683"><ele>198.0</ele><time>2026-03-21T09:25:06.402Z</time></trkpt><trkpt lat="34.313245" lon="8.4199367"><ele>198.0</ele><time>2026-03-21T09:25:07.402Z</time></trkpt><trkpt lat="34.3132583" lon="8.4198183"><ele>198.0</ele><time>2026-03-21T09:25:08.402Z</time></trkpt><trkpt lat="34.313275" lon="8.41971"><ele>198.0</ele><time>2026-03-21T09:25:09.402Z</time></trkpt><trkpt lat="34.3132883" lon="8.419605"><ele>198.0</ele><time>2026-03-21T09:25:10.402Z</time></trkpt><trkpt lat="34.3133083" lon="8.4195"><ele>198.0</ele><time>2026-03-21T09:25:11.402Z</time></trkpt><trkpt lat="34.3133217" lon="8.4193967"><ele>198.0</ele><time>2026-03-21T09:25:12.403Z</time></trkpt><trkpt lat="34.3133383" lon="8.419285"><ele>198.0</ele><time>2026-03-21T09:25:13.402Z</time></trkpt><trkpt lat="34.3133533" lon="8.41917"><ele>198.0</ele><time>2026-03-21T09:25:14.402Z</time></trkpt><trkpt lat="34.3133683" lon="8.4190533"><ele>198.0</ele><time>2026-03-21T09:25:15.402Z</time></trkpt><trkpt lat="34.313385" lon="8.418935"><ele>198.0</ele><time>2026-03-21T09:25:16.402Z</time></trkpt><trkpt lat="34.3134033" lon="8.4188133"><ele>198.0</ele><time>2026-03-21T09:25:17.403Z</time></trkpt><trkpt lat="34.3134133" lon="8.4187"><ele>198.0</ele><time>2026-03-21T09:25:18.403Z</time></trkpt><trkpt lat="34.3134217" lon="8.418595"><ele>198.0</ele><time>2026-03-21T09:25:19.403Z</time></trkpt><trkpt lat="34.313435" lon="8.41849"><ele>198.0</ele><time>2026-03-21T09:25:20.402Z</time></trkpt><trkpt lat="34.31345" lon="8.4183767"><ele>198.0</ele><time>2026-03-21T09:25:21.402Z</time></trkpt><trkpt lat="34.3134667" lon="8.418255"><ele>198.0</ele><time>2026-03-21T09:25:22.402Z</time></trkpt><trkpt lat="34.31349" lon="8.4181283"><ele>198.0</ele><time>2026-03-21T09:25:23.405Z</time></trkpt><trkpt lat="34.3135083" lon="8.417985"><ele>198.0</ele><time>2026-03-21T09:25:24.402Z</time></trkpt><trkpt lat="34.31353" lon="8.4178367"><ele>198.0</ele><time>2026-03-21T09:25:25.403Z</time></trkpt><trkpt lat="34.3135567" lon="8.4176933"><ele>198.0</ele><time>2026-03-21T09:25:26.402Z</time></trkpt><trkpt lat="34.3135817" lon="8.4175583"><ele>198.0</ele><time>2026-03-21T09:25:27.402Z</time></trkpt><trkpt lat="34.3136017" lon="8.4174333"><ele>198.0</ele><time>2026-03-21T09:25:28.402Z</time></trkpt><trkpt lat="34.31362" lon="8.4173117"><ele>198.0</ele><time>2026-03-21T09:25:29.403Z</time></trkpt><trkpt lat="34.3136333" lon="8.4171983"><ele>198.0</ele><time>2026-03-21T09:25:30.402Z</time></trkpt><trkpt lat="34.3136467" lon="8.41709"><ele>198.0</ele><time>2026-03-21T09:25:31.402Z</time></trkpt><trkpt lat="34.31366" lon="8.4169767"><ele>198.0</ele><time>2026-03-21T09:25:32.404Z</time></trkpt><trkpt lat="34.3136733" lon="8.4168567"><ele>198.0</ele><time>2026-03-21T09:25:33.402Z</time></trkpt><trkpt lat="34.3136867" lon="8.4167333"><ele>198.0</ele><time>2026-03-21T09:25:34.402Z</time></trkpt><trkpt lat="34.3137" lon="8.4166117"><ele>198.0</ele><time>2026-03-21T09:25:35.403Z</time></trkpt><trkpt lat="34.3137117" lon="8.4164917"><ele>198.0</ele><time>2026-03-21T09:25:36.402Z</time></trkpt><trkpt lat="34.3137283" lon="8.4163833"><ele>198.0</ele><time>2026-03-21T09:25:37.403Z</time></trkpt><trkpt lat="34.313745" lon="8.4162717"><ele>198.0</ele><time>2026-03-21T09:25:38.404Z</time></trkpt><trkpt lat="34.3137633" lon="8.4161617"><ele>198.0</ele><time>2026-03-21T09:25:39.403Z</time></trkpt><trkpt lat="34.31378" lon="8.41605"><ele>198.0</ele><time>2026-03-21T09:25:40.402Z</time></trkpt><trkpt lat="34.3137967" lon="8.415935"><ele>198.0</ele><time>2026-03-21T09:25:41.402Z</time></trkpt><trkpt lat="34.31382" lon="8.4158233"><ele>198.0</ele><time>2026-03-21T09:25:42.402Z</time></trkpt><trkpt lat="34.3138367" lon="8.415705"><ele>198.0</ele><time>2026-03-21T09:25:43.402Z</time></trkpt><trkpt lat="34.3138533" lon="8.415585"><ele>198.0</ele><time>2026-03-21T09:25:44.402Z</time></trkpt><trkpt lat="34.3138733" lon="8.4154683"><ele>198.0</ele><time>2026-03-21T09:25:45.402Z</time></trkpt><trkpt lat="34.31389" lon="8.41535"><ele>198.4</ele><time>2026-03-21T09:25:46.403Z</time></trkpt><trkpt lat="34.313905" lon="8.41523"><ele>198.8</ele><time>2026-03-21T09:25:47.402Z</time></trkpt><trkpt lat="34.3139217" lon="8.41511"><ele>199.2</ele><time>2026-03-21T09:25:48.402Z</time></trkpt><trkpt lat="34.3139417" lon="8.4149883"><ele>199.6</ele><time>2026-03-21T09:25:49.402Z</time></trkpt><trkpt lat="34.31395" lon="8.4148567"><ele>200.0</ele><time>2026-03-21T09:25:50.404Z</time></trkpt><trkpt lat="34.31396" lon="8.414725"><ele>200.6</ele><time>2026-03-21T09:25:51.402Z</time></trkpt><trkpt lat="34.3139667" lon="8.41459"><ele>201.2</ele><time>2026-03-21T09:25:52.402Z</time></trkpt><trkpt lat="34.3139817" lon="8.41446"><ele>201.8</ele><time>2026-03-21T09:25:53.402Z</time></trkpt><trkpt lat="34.3140017" lon="8.4143433"><ele>202.4</ele><time>2026-03-21T09:25:54.402Z</time></trkpt><trkpt lat="34.3140283" lon="8.41423"><ele>203.0</ele><time>2026-03-21T09:25:55.403Z</time></trkpt><trkpt lat="34.3140517" lon="8.4141183"><ele>203.0</ele><time>2026-03-21T09:25:56.402Z</time></trkpt><trkpt lat="34.314075" lon="8.4140067"><ele>203.0</ele><time>2026-03-21T09:25:57.402Z</time></trkpt><trkpt lat="34.3140933" lon="8.4138933"><ele>203.0</ele><time>2026-03-21T09:25:58.403Z</time></trkpt><trkpt lat="34.3141083" lon="8.4137833"><ele>203.0</ele><time>2026-03-21T09:25:59.403Z</time></trkpt><trkpt lat="34.3141183" lon="8.41368"><ele>203.0</ele><time>2026-03-21T09:26:00.403Z</time></trkpt><trkpt lat="34.3141317" lon="8.4135767"><ele>203.33333333333334</ele><time>2026-03-21T09:26:01.403Z</time></trkpt><trkpt lat="34.3141483" lon="8.4134733"><ele>203.66666666666669</ele><time>2026-03-21T09:26:02.402Z</time></trkpt><trkpt lat="34.3141617" lon="8.4133717"><ele>204.0</ele><time>2026-03-21T09:26:03.402Z</time></trkpt><trkpt lat="34.3141717" lon="8.41328"><ele>204.33333333333331</ele><time>2026-03-21T09:26:04.402Z</time></trkpt><trkpt lat="34.3141867" lon="8.4131917"><ele>204.66666666666666</ele><time>2026-03-21T09:26:05.402Z</time></trkpt><trkpt lat="34.3142017" lon="8.4131083"><ele>205.0</ele><time>2026-03-21T09:26:06.402Z</time></trkpt><trkpt lat="34.3142117" lon="8.4130217"><ele>204.83333333333331</ele><time>2026-03-21T09:26:07.403Z</time></trkpt><trkpt lat="34.3142217" lon="8.4129367"><ele>204.66666666666666</ele><time>2026-03-21T09:26:08.402Z</time></trkpt><trkpt lat="34.3142283" lon="8.4128583"><ele>204.5</ele><time>2026-03-21T09:26:09.403Z</time></trkpt><trkpt lat="34.3142467" lon="8.4127317"><ele>204.33333333333331</ele><time>2026-03-21T09:26:11.402Z</time></trkpt><trkpt lat="34.3142517" lon="8.4126433"><ele>204.16666666666666</ele><time>2026-03-21T09:26:13.402Z</time></trkpt><trkpt lat="34.314265" lon="8.4125517"><ele>204.0</ele><time>2026-03-21T09:26:16.402Z</time></trkpt><trkpt lat="34.3142767" lon="8.4124733"><ele>204.0</ele><time>2026-03-21T09:26:19.406Z</time></trkpt><trkpt lat="34.31428" lon="8.4123683"><ele>204.0</ele><time>2026-03-21T09:26:22.402Z</time></trkpt><trkpt lat="34.3143017" lon="8.4122133"><ele>204.0</ele><time>2026-03-21T09:26:24.402Z</time></trkpt><trkpt lat="34.3143133" lon="8.412125"><ele>204.0</ele><time>2026-03-21T09:26:25.402Z</time></trkpt><trkpt lat="34.3143267" lon="8.41204"><ele>204.0</ele><time>2026-03-21T09:26:26.402Z</time></trkpt><trkpt lat="34.3143383" lon="8.4119483"><ele>204.0</ele><time>2026-03-21T09:26:27.403Z</time></trkpt><trkpt lat="34.3143433" lon="8.4118567"><ele>204.0</ele><time>2026-03-21T09:26:28.402Z</time></trkpt><trkpt lat="34.31435" lon="8.4117733"><ele>204.0</ele><time>2026-03-21T09:26:29.402Z</time></trkpt><trkpt lat="34.3143567" lon="8.41169"><ele>204.0</ele><time>2026-03-21T09:26:30.402Z</time></trkpt><trkpt lat="34.314365" lon="8.4116117"><ele>204.0</ele><time>2026-03-21T09:26:31.403Z</time></trkpt><trkpt lat="34.3143767" lon="8.4114633"><ele>204.0</ele><time>2026-03-21T09:26:33.403Z</time></trkpt><trkpt lat="34.314385" lon="8.4113817"><ele>204.0</ele><time>2026-03-21T09:26:34.402Z</time></trkpt><trkpt lat="34.3143983" lon="8.411295"><ele>204.0</ele><time>2026-03-21T09:26:35.402Z</time></trkpt><trkpt lat="34.31441" lon="8.4112067"><ele>204.0</ele><time>2026-03-21T09:26:36.402Z</time></trkpt><trkpt lat="34.3144233" lon="8.4111267"><ele>204.0</ele><time>2026-03-21T09:26:37.403Z</time></trkpt><trkpt lat="34.3144333" lon="8.4110483"><ele>204.0</ele><time>2026-03-21T09:26:38.403Z</time></trkpt><trkpt lat="34.3144417" lon="8.410915"><ele>204.0</ele><time>2026-03-21T09:26:40.403Z</time></trkpt><trkpt lat="34.3144483" lon="8.4108317"><ele>204.0</ele><time>2026-03-21T09:26:42.402Z</time></trkpt><trkpt lat="34.3144617" lon="8.4107417"><ele>204.0</ele><time>2026-03-21T09:26:45.402Z</time></trkpt><trkpt lat="34.3144767" lon="8.4106417"><ele>204.0</ele><time>2026-03-21T09:26:47.403Z</time></trkpt><trkpt lat="34.3145033" lon="8.4105333"><ele>204.0</ele><time>2026-03-21T09:26:49.402Z</time></trkpt><trkpt lat="34.3145267" lon="8.41041"><ele>204.0</ele><time>2026-03-21T09:26:51.402Z</time></trkpt><trkpt lat="34.3145483" lon="8.410285"><ele>204.0</ele><time>2026-03-21T09:26:53.403Z</time></trkpt><trkpt lat="34.31457" lon="8.4101483"><ele>204.0</ele><time>2026-03-21T09:26:55.403Z</time></trkpt><trkpt lat="34.3145933" lon="8.4100317"><ele>204.0</ele><time>2026-03-21T09:26:57.402Z</time></trkpt><trkpt lat="34.31461" lon="8.4099133"><ele>204.0</ele><time>2026-03-21T09:26:59.402Z</time></trkpt><trkpt lat="34.314625" lon="8.40978"><ele>204.0</ele><time>2026-03-21T09:27:01.403Z</time></trkpt><trkpt lat="34.314635" lon="8.4097033"><ele>204.0</ele><time>2026-03-21T09:27:02.402Z</time></trkpt><trkpt lat="34.3146467" lon="8.4096217"><ele>204.0</ele><time>2026-03-21T09:27:03.402Z</time></trkpt><trkpt lat="34.3146617" lon="8.40953"><ele>204.28571428571428</ele><time>2026-03-21T09:27:04.402Z</time></trkpt><trkpt lat="34.3146767" lon="8.409435"><ele>204.57142857142858</ele><time>2026-03-21T09:27:05.402Z</time></trkpt><trkpt lat="34.31469" lon="8.409345"><ele>204.85714285714283</ele><time>2026-03-21T09:27:06.402Z</time></trkpt><trkpt lat="34.3146983" lon="8.4092667"><ele>205.14285714285714</ele><time>2026-03-21T09:27:07.402Z</time></trkpt><trkpt lat="34.314705" lon="8.4091883"><ele>205.42857142857142</ele><time>2026-03-21T09:27:08.402Z</time></trkpt><trkpt lat="34.31471" lon="8.4091083"><ele>205.7142857142857</ele><time>2026-03-21T09:27:09.402Z</time></trkpt><trkpt lat="34.3147167" lon="8.4090183"><ele>206.0</ele><time>2026-03-21T09:27:10.402Z</time></trkpt><trkpt lat="34.31473" lon="8.4089317"><ele>206.00000000000003</ele><time>2026-03-21T09:27:11.402Z</time></trkpt><trkpt lat="34.3147483" lon="8.4088383"><ele>206.0</ele><time>2026-03-21T09:27:12.402Z</time></trkpt><trkpt lat="34.314765" lon="8.4087483"><ele>206.0</ele><time>2026-03-21T09:27:13.402Z</time></trkpt><trkpt lat="34.3147767" lon="8.408645"><ele>206.0</ele><time>2026-03-21T09:27:14.402Z</time></trkpt><trkpt lat="34.3147867" lon="8.4085483"><ele>206.00000000000003</ele><time>2026-03-21T09:27:15.403Z</time></trkpt><trkpt lat="34.3147983" lon="8.408465"><ele>206.0</ele><time>2026-03-21T09:27:16.403Z</time></trkpt><trkpt lat="34.31481" lon="8.40838"><ele>205.99999999999997</ele><time>2026-03-21T09:27:17.402Z</time></trkpt><trkpt lat="34.31482" lon="8.4082967"><ele>206.0</ele><time>2026-03-21T09:27:18.402Z</time></trkpt><trkpt lat="34.3148317" lon="8.40822"><ele>206.0</ele><time>2026-03-21T09:27:19.402Z</time></trkpt><trkpt lat="34.314845" lon="8.4081383"><ele>206.0</ele><time>2026-03-21T09:27:20.402Z</time></trkpt><trkpt lat="34.3148567" lon="8.4080567"><ele>206.0</ele><time>2026-03-21T09:27:21.402Z</time></trkpt><trkpt lat="34.314865" lon="8.4079717"><ele>205.99999999999997</ele><time>2026-03-21T09:27:22.404Z</time></trkpt><trkpt lat="34.314865" lon="8.4078817"><ele>206.0</ele><time>2026-03-21T09:27:23.402Z</time></trkpt><trkpt lat="34.3148733" lon="8.4077967"><ele>206.14285714285714</ele><time>2026-03-21T09:27:24.403Z</time></trkpt><trkpt lat="34.31489" lon="8.4077167"><ele>206.28571428571428</ele><time>2026-03-21T09:27:25.402Z</time></trkpt><trkpt lat="34.3149033" lon="8.4076333"><ele>206.42857142857144</ele><time>2026-03-21T09:27:26.403Z</time></trkpt><trkpt lat="34.314915" lon="8.40754"><ele>206.57142857142856</ele><time>2026-03-21T09:27:27.402Z</time></trkpt><trkpt lat="34.3149233" lon="8.4074517"><ele>206.71428571428572</ele><time>2026-03-21T09:27:28.402Z</time></trkpt><trkpt lat="34.3149367" lon="8.4073633"><ele>206.85714285714286</ele><time>2026-03-21T09:27:29.403Z</time></trkpt><trkpt lat="34.3149533" lon="8.4072783"><ele>207.0</ele><time>2026-03-21T09:27:30.403Z</time></trkpt><trkpt lat="34.3149617" lon="8.4071817"><ele>207.2</ele><time>2026-03-21T09:27:31.402Z</time></trkpt><trkpt lat="34.314975" lon="8.40708"><ele>207.39999999999998</ele><time>2026-03-21T09:27:32.402Z</time></trkpt><trkpt lat="34.3149917" lon="8.4069633"><ele>207.60000000000002</ele><time>2026-03-21T09:27:33.402Z</time></trkpt><trkpt lat="34.3150167" lon="8.4068367"><ele>207.8</ele><time>2026-03-21T09:27:34.402Z</time></trkpt><trkpt lat="34.3150433" lon="8.4066933"><ele>208.0</ele><time>2026-03-21T09:27:35.402Z</time></trkpt><trkpt lat="34.3150617" lon="8.4065367"><ele>208.0</ele><time>2026-03-21T09:27:36.402Z</time></trkpt><trkpt lat="34.3150733" lon="8.406385"><ele>208.0</ele><time>2026-03-21T09:27:37.402Z</time></trkpt><trkpt lat="34.315085" lon="8.4062417"><ele>208.0</ele><time>2026-03-21T09:27:38.402Z</time></trkpt><trkpt lat="34.3151" lon="8.4061067"><ele>208.0</ele><time>2026-03-21T09:27:39.403Z</time></trkpt><trkpt lat="34.3151083" lon="8.4059783"><ele>208.0</ele><time>2026-03-21T09:27:40.402Z</time></trkpt><trkpt lat="34.315115" lon="8.405865"><ele>208.0</ele><time>2026-03-21T09:27:41.402Z</time></trkpt><trkpt lat="34.3151217" lon="8.4057533"><ele>208.0</ele><time>2026-03-21T09:27:42.403Z</time></trkpt><trkpt lat="34.31513" lon="8.40565"><ele>208.0</ele><time>2026-03-21T09:27:43.402Z</time></trkpt><trkpt lat="34.31514" lon="8.4055417"><ele>208.0</ele><time>2026-03-21T09:27:44.402Z</time></trkpt><trkpt lat="34.315155" lon="8.4054333"><ele>208.2</ele><time>2026-03-21T09:27:45.403Z</time></trkpt><trkpt lat="34.31517" lon="8.4053217"><ele>208.4</ele><time>2026-03-21T09:27:46.402Z</time></trkpt><trkpt lat="34.3151833" lon="8.4052067"><ele>208.6</ele><time>2026-03-21T09:27:47.403Z</time></trkpt><trkpt lat="34.3151917" lon="8.4051017"><ele>208.79999999999998</ele><time>2026-03-21T09:27:48.402Z</time></trkpt><trkpt lat="34.3152033" lon="8.4049967"><ele>209.0</ele><time>2026-03-21T09:27:49.403Z</time></trkpt><trkpt lat="34.3152217" lon="8.404885"><ele>209.0</ele><time>2026-03-21T09:27:50.402Z</time></trkpt><trkpt lat="34.3152383" lon="8.4047633"><ele>209.0</ele><time>2026-03-21T09:27:51.402Z</time></trkpt><trkpt lat="34.31526" lon="8.4046283"><ele>209.0</ele><time>2026-03-21T09:27:52.403Z</time></trkpt><trkpt lat="34.3152817" lon="8.40449"><ele>209.0</ele><time>2026-03-21T09:27:53.402Z</time></trkpt><trkpt lat="34.3153017" lon="8.40435"><ele>209.0</ele><time>2026-03-21T09:27:54.402Z</time></trkpt><trkpt lat="34.3153333" lon="8.4041967"><ele>209.25</ele><time>2026-03-21T09:27:55.403Z</time></trkpt><trkpt lat="34.3153633" lon="8.4040233"><ele>209.5</ele><time>2026-03-21T09:27:56.402Z</time></trkpt><trkpt lat="34.3153967" lon="8.4038467"><ele>209.75</ele><time>2026-03-21T09:27:57.402Z</time></trkpt><trkpt lat="34.3154117" lon="8.4036867"><ele>210.0</ele><time>2026-03-21T09:27:58.402Z</time></trkpt><trkpt lat="34.3154267" lon="8.4035467"><ele>210.0</ele><time>2026-03-21T09:27:59.402Z</time></trkpt><trkpt lat="34.3154467" lon="8.40342"><ele>210.0</ele><time>2026-03-21T09:28:00.402Z</time></trkpt><trkpt lat="34.31547" lon="8.4033"><ele>210.0</ele><time>2026-03-21T09:28:01.402Z</time></trkpt><trkpt lat="34.3154917" lon="8.403185"><ele>210.0</ele><time>2026-03-21T09:28:02.402Z</time></trkpt><trkpt lat="34.3155033" lon="8.4030817"><ele>210.0</ele><time>2026-03-21T09:28:03.402Z</time></trkpt><trkpt lat="34.3155217" lon="8.402985"><ele>210.0</ele><time>2026-03-21T09:28:04.402Z</time></trkpt><trkpt lat="34.3155383" lon="8.40289"><ele>210.0</ele><time>2026-03-21T09:28:05.403Z</time></trkpt><trkpt lat="34.315555" lon="8.402795"><ele>210.0</ele><time>2026-03-21T09:28:06.402Z</time></trkpt><trkpt lat="34.31557" lon="8.4027"><ele>210.0</ele><time>2026-03-21T09:28:07.402Z</time></trkpt><trkpt lat="34.315585" lon="8.4026017"><ele>210.0</ele><time>2026-03-21T09:28:08.402Z</time></trkpt><trkpt lat="34.3156" lon="8.4025083"><ele>210.0</ele><time>2026-03-21T09:28:09.405Z</time></trkpt><trkpt lat="34.3156117" lon="8.4024167"><ele>210.16666666666666</ele><time>2026-03-21T09:28:10.402Z</time></trkpt><trkpt lat="34.3156233" lon="8.40233"><ele>210.33333333333331</ele><time>2026-03-21T09:28:11.402Z</time></trkpt><trkpt lat="34.3156333" lon="8.40225"><ele>210.5</ele><time>2026-03-21T09:28:12.402Z</time></trkpt><trkpt lat="34.3156617" lon="8.402125"><ele>210.66666666666666</ele><time>2026-03-21T09:28:14.402Z</time></trkpt><trkpt lat="34.3157017" lon="8.40203"><ele>210.83333333333331</ele><time>2026-03-21T09:28:16.402Z</time></trkpt><trkpt lat="34.3157417" lon="8.401935"><ele>211.0</ele><time>2026-03-21T09:28:18.403Z</time></trkpt><trkpt lat="34.3157833" lon="8.4018667"><ele>211.0</ele><time>2026-03-21T09:28:20.402Z</time></trkpt><trkpt lat="34.3157867" lon="8.401785"><ele>211.0</ele><time>2026-03-21T09:28:22.402Z</time></trkpt><trkpt lat="34.3157617" lon="8.4016767"><ele>211.0</ele><time>2026-03-21T09:28:24.403Z</time></trkpt><trkpt lat="34.3157367" lon="8.4015583"><ele>211.0</ele><time>2026-03-21T09:28:26.402Z</time></trkpt><trkpt lat="34.315735" lon="8.4014433"><ele>211.0</ele><time>2026-03-21T09:28:28.402Z</time></trkpt><trkpt lat="34.3157583" lon="8.4013017"><ele>211.66666666666666</ele><time>2026-03-21T09:28:30.402Z</time></trkpt><trkpt lat="34.3157817" lon="8.40116"><ele>212.33333333333331</ele><time>2026-03-21T09:28:32.402Z</time></trkpt><trkpt lat="34.3157933" lon="8.4010833"><ele>213.0</ele><time>2026-03-21T09:28:33.401Z</time></trkpt><trkpt lat="34.3158033" lon="8.4009967"><ele>213.66666666666669</ele><time>2026-03-21T09:28:34.402Z</time></trkpt><trkpt lat="34.3158133" lon="8.40091"><ele>214.33333333333334</ele><time>2026-03-21T09:28:35.401Z</time></trkpt><trkpt lat="34.31583" lon="8.4008317"><ele>215.0</ele><time>2026-03-21T09:28:36.401Z</time></trkpt><trkpt lat="34.3158433" lon="8.4007533"><ele>215.00000000000003</ele><time>2026-03-21T09:28:37.401Z</time></trkpt><trkpt lat="34.3158533" lon="8.400665"><ele>215.0</ele><time>2026-03-21T09:28:38.402Z</time></trkpt><trkpt lat="34.315865" lon="8.40057"><ele>215.0</ele><time>2026-03-21T09:28:39.403Z</time></trkpt><trkpt lat="34.3158783" lon="8.4004717"><ele>215.0</ele><time>2026-03-21T09:28:40.401Z</time></trkpt><trkpt lat="34.3158933" lon="8.4003683"><ele>215.00000000000003</ele><time>2026-03-21T09:28:41.403Z</time></trkpt><trkpt lat="34.31591" lon="8.40026"><ele>215.0</ele><time>2026-03-21T09:28:42.402Z</time></trkpt><trkpt lat="34.315925" lon="8.400155"><ele>214.66666666666669</ele><time>2026-03-21T09:28:43.402Z</time></trkpt><trkpt lat="34.31594" lon="8.400055"><ele>214.33333333333334</ele><time>2026-03-21T09:28:44.402Z</time></trkpt><trkpt lat="34.3159517" lon="8.39996"><ele>214.0</ele><time>2026-03-21T09:28:45.402Z</time></trkpt><trkpt lat="34.3159617" lon="8.3998583"><ele>213.66666666666669</ele><time>2026-03-21T09:28:46.403Z</time></trkpt><trkpt lat="34.315975" lon="8.3997583"><ele>213.33333333333334</ele><time>2026-03-21T09:28:47.402Z</time></trkpt><trkpt lat="34.315985" lon="8.3996533"><ele>213.0</ele><time>2026-03-21T09:28:48.402Z</time></trkpt><trkpt lat="34.316" lon="8.3995433"><ele>213.0</ele><time>2026-03-21T09:28:49.402Z</time></trkpt><trkpt lat="34.3160183" lon="8.3994367"><ele>213.0</ele><time>2026-03-21T09:28:50.403Z</time></trkpt><trkpt lat="34.3160367" lon="8.3993317"><ele>213.0</ele><time>2026-03-21T09:28:51.402Z</time></trkpt><trkpt lat="34.316055" lon="8.3992217"><ele>213.0</ele><time>2026-03-21T09:28:52.402Z</time></trkpt><trkpt lat="34.3160817" lon="8.3991183"><ele>213.0</ele><time>2026-03-21T09:28:53.402Z</time></trkpt><trkpt lat="34.3161033" lon="8.3990083"><ele>213.0</ele><time>2026-03-21T09:28:54.403Z</time></trkpt><trkpt lat="34.316125" lon="8.3989"><ele>213.0</ele><time>2026-03-21T09:28:55.402Z</time></trkpt><trkpt lat="34.3161417" lon="8.3987883"><ele>213.0</ele><time>2026-03-21T09:28:56.402Z</time></trkpt><trkpt lat="34.3161567" lon="8.398675"><ele>213.0</ele><time>2026-03-21T09:28:57.402Z</time></trkpt><trkpt lat="34.316175" lon="8.3985633"><ele>213.0</ele><time>2026-03-21T09:28:58.401Z</time></trkpt><trkpt lat="34.3161933" lon="8.3984533"><ele>213.2</ele><time>2026-03-21T09:28:59.402Z</time></trkpt><trkpt lat="34.3162083" lon="8.3983383"><ele>213.4</ele><time>2026-03-21T09:29:00.401Z</time></trkpt><trkpt lat="34.31622" lon="8.398225"><ele>213.59999999999997</ele><time>2026-03-21T09:29:01.402Z</time></trkpt><trkpt lat="34.3162283" lon="8.3981117"><ele>213.79999999999998</ele><time>2026-03-21T09:29:02.402Z</time></trkpt><trkpt lat="34.3162367" lon="8.397995"><ele>214.0</ele><time>2026-03-21T09:29:03.401Z</time></trkpt><trkpt lat="34.3162483" lon="8.3978833"><ele>214.2</ele><time>2026-03-21T09:29:04.402Z</time></trkpt><trkpt lat="34.31626" lon="8.3977683"><ele>214.39999999999998</ele><time>2026-03-21T09:29:05.401Z</time></trkpt><trkpt lat="34.316265" lon="8.397655"><ele>214.6</ele><time>2026-03-21T09:29:06.401Z</time></trkpt><trkpt lat="34.3162633" lon="8.3975433"><ele>214.8</ele><time>2026-03-21T09:29:07.402Z</time></trkpt><trkpt lat="34.31626" lon="8.39743"><ele>215.0</ele><time>2026-03-21T09:29:08.403Z</time></trkpt><trkpt lat="34.3162533" lon="8.3973217"><ele>215.0</ele><time>2026-03-21T09:29:09.403Z</time></trkpt><trkpt lat="34.31625" lon="8.397215"><ele>215.0</ele><time>2026-03-21T09:29:10.402Z</time></trkpt><trkpt lat="34.3162433" lon="8.3971083"><ele>215.0</ele><time>2026-03-21T09:29:11.402Z</time></trkpt><trkpt lat="34.3162367" lon="8.397"><ele>215.0</ele><time>2026-03-21T09:29:12.402Z</time></trkpt><trkpt lat="34.3162217" lon="8.3968933"><ele>215.0</ele><time>2026-03-21T09:29:13.401Z</time></trkpt><trkpt lat="34.3162" lon="8.3967817"><ele>214.8</ele><time>2026-03-21T09:29:14.402Z</time></trkpt><trkpt lat="34.3161733" lon="8.3966683"><ele>214.6</ele><time>2026-03-21T09:29:15.401Z</time></trkpt><trkpt lat="34.3161433" lon="8.3965517"><ele>214.39999999999998</ele><time>2026-03-21T09:29:16.402Z</time></trkpt><trkpt lat="34.31611" lon="8.3964383"><ele>214.2</ele><time>2026-03-21T09:29:17.401Z</time></trkpt><trkpt lat="34.3160767" lon="8.3963233"><ele>214.0</ele><time>2026-03-21T09:29:18.401Z</time></trkpt><trkpt lat="34.31604" lon="8.3962033"><ele>214.39999999999998</ele><time>2026-03-21T09:29:19.402Z</time></trkpt><trkpt lat="34.3160017" lon="8.3960867"><ele>214.79999999999998</ele><time>2026-03-21T09:29:20.402Z</time></trkpt><trkpt lat="34.31596" lon="8.3959767"><ele>215.20000000000002</ele><time>2026-03-21T09:29:21.402Z</time></trkpt><trkpt lat="34.3159183" lon="8.395865"><ele>215.60000000000002</ele><time>2026-03-21T09:29:22.402Z</time></trkpt><trkpt lat="34.315875" lon="8.39575"><ele>216.0</ele><time>2026-03-21T09:29:23.401Z</time></trkpt><trkpt lat="34.3158367" lon="8.3956217"><ele>215.8</ele><time>2026-03-21T09:29:24.402Z</time></trkpt><trkpt lat="34.3157933" lon="8.3955"><ele>215.60000000000002</ele><time>2026-03-21T09:29:25.403Z</time></trkpt><trkpt lat="34.3157517" lon="8.3953783"><ele>215.4</ele><time>2026-03-21T09:29:26.402Z</time></trkpt><trkpt lat="34.3157133" lon="8.3952533"><ele>215.2</ele><time>2026-03-21T09:29:27.402Z</time></trkpt><trkpt lat="34.3156767" lon="8.3951367"><ele>215.0</ele><time>2026-03-21T09:29:28.402Z</time></trkpt><trkpt lat="34.31564" lon="8.3950317"><ele>215.00000000000003</ele><time>2026-03-21T09:29:29.402Z</time></trkpt><trkpt lat="34.3156017" lon="8.39493"><ele>215.0</ele><time>2026-03-21T09:29:30.401Z</time></trkpt><trkpt lat="34.3155633" lon="8.3948283"><ele>215.0</ele><time>2026-03-21T09:29:31.402Z</time></trkpt><trkpt lat="34.3155267" lon="8.394725"><ele>215.0</ele><time>2026-03-21T09:29:32.402Z</time></trkpt><trkpt lat="34.31549" lon="8.3946267"><ele>215.00000000000003</ele><time>2026-03-21T09:29:33.401Z</time></trkpt><trkpt lat="34.31546" lon="8.394545"><ele>215.0</ele><time>2026-03-21T09:29:34.401Z</time></trkpt><trkpt lat="34.3154183" lon="8.39443"><ele>214.4</ele><time>2026-03-21T09:29:36.403Z</time></trkpt><trkpt lat="34.315385" lon="8.3943183"><ele>213.8</ele><time>2026-03-21T09:29:38.402Z</time></trkpt><trkpt lat="34.3153317" lon="8.3941767"><ele>213.2</ele><time>2026-03-21T09:29:40.401Z</time></trkpt><trkpt lat="34.3152983" lon="8.39409"><ele>212.6</ele><time>2026-03-21T09:29:41.401Z</time></trkpt><trkpt lat="34.3152633" lon="8.3939917"><ele>212.0</ele><time>2026-03-21T09:29:42.403Z</time></trkpt><trkpt lat="34.3152217" lon="8.3938933"><ele>211.6</ele><time>2026-03-21T09:29:43.402Z</time></trkpt><trkpt lat="34.3151817" lon="8.3937883"><ele>211.2</ele><time>2026-03-21T09:29:44.402Z</time></trkpt><trkpt lat="34.31514" lon="8.3936733"><ele>210.8</ele><time>2026-03-21T09:29:45.402Z</time></trkpt><trkpt lat="34.3150983" lon="8.39355"><ele>210.4</ele><time>2026-03-21T09:29:46.403Z</time></trkpt><trkpt lat="34.3150533" lon="8.3934233"><ele>210.0</ele><time>2026-03-21T09:29:47.401Z</time></trkpt><trkpt lat="34.3150067" lon="8.3932967"><ele>210.0</ele><time>2026-03-21T09:29:48.404Z</time></trkpt><trkpt lat="34.3149617" lon="8.39317"><ele>210.0</ele><time>2026-03-21T09:29:49.402Z</time></trkpt><trkpt lat="34.314915" lon="8.3930383"><ele>210.0</ele><time>2026-03-21T09:29:50.402Z</time></trkpt><trkpt lat="34.314865" lon="8.3928967"><ele>210.0</ele><time>2026-03-21T09:29:51.401Z</time></trkpt><trkpt lat="34.314815" lon="8.3927533"><ele>209.5</ele><time>2026-03-21T09:29:52.403Z</time></trkpt><trkpt lat="34.3147667" lon="8.3926133"><ele>209.0</ele><time>2026-03-21T09:29:53.402Z</time></trkpt><trkpt lat="34.3147167" lon="8.3924783"><ele>208.5</ele><time>2026-03-21T09:29:54.401Z</time></trkpt><trkpt lat="34.3146683" lon="8.392345"><ele>208.0</ele><time>2026-03-21T09:29:55.402Z</time></trkpt><trkpt lat="34.31462" lon="8.3922167"><ele>208.5</ele><time>2026-03-21T09:29:56.402Z</time></trkpt><trkpt lat="34.31457" lon="8.3920867"><ele>209.0</ele><time>2026-03-21T09:29:57.401Z</time></trkpt><trkpt lat="34.3145217" lon="8.3919533"><ele>209.5</ele><time>2026-03-21T09:29:58.402Z</time></trkpt><trkpt lat="34.31447" lon="8.3918133"><ele>210.0</ele><time>2026-03-21T09:29:59.402Z</time></trkpt><trkpt lat="34.31442" lon="8.3916633"><ele>210.0</ele><time>2026-03-21T09:30:00.401Z</time></trkpt><trkpt lat="34.31437" lon="8.3915183"><ele>210.0</ele><time>2026-03-21T09:30:01.402Z</time></trkpt><trkpt lat="34.3143233" lon="8.3913733"><ele>210.0</ele><time>2026-03-21T09:30:02.401Z</time></trkpt><trkpt lat="34.3142767" lon="8.39124"><ele>210.0</ele><time>2026-03-21T09:30:03.402Z</time></trkpt><trkpt lat="34.3142283" lon="8.39112"><ele>210.2</ele><time>2026-03-21T09:30:04.404Z</time></trkpt><trkpt lat="34.31418" lon="8.3909983"><ele>210.4</ele><time>2026-03-21T09:30:05.401Z</time></trkpt><trkpt lat="34.3141317" lon="8.390885"><ele>210.60000000000002</ele><time>2026-03-21T09:30:06.401Z</time></trkpt><trkpt lat="34.3140933" lon="8.390775"><ele>210.8</ele><time>2026-03-21T09:30:07.401Z</time></trkpt><trkpt lat="34.3140583" lon="8.3906617"><ele>211.0</ele><time>2026-03-21T09:30:08.402Z</time></trkpt><trkpt lat="34.3140217" lon="8.39056"><ele>211.0</ele><time>2026-03-21T09:30:09.402Z</time></trkpt><trkpt lat="34.3139867" lon="8.3904617"><ele>211.0</ele><time>2026-03-21T09:30:10.401Z</time></trkpt><trkpt lat="34.3139533" lon="8.39036"><ele>211.0</ele><time>2026-03-21T09:30:11.402Z</time></trkpt><trkpt lat="34.3139183" lon="8.39025"><ele>211.0</ele><time>2026-03-21T09:30:12.402Z</time></trkpt><trkpt lat="34.3138783" lon="8.3901333"><ele>211.0</ele><time>2026-03-21T09:30:13.403Z</time></trkpt><trkpt lat="34.3138333" lon="8.3900133"><ele>211.0</ele><time>2026-03-21T09:30:14.402Z</time></trkpt><trkpt lat="34.3137883" lon="8.38989"><ele>211.0</ele><time>2026-03-21T09:30:15.401Z</time></trkpt><trkpt lat="34.313745" lon="8.3897617"><ele>211.0</ele><time>2026-03-21T09:30:16.401Z</time></trkpt><trkpt lat="34.3137" lon="8.3896367"><ele>211.0</ele><time>2026-03-21T09:30:17.402Z</time></trkpt><trkpt lat="34.31366" lon="8.3895183"><ele>211.0</ele><time>2026-03-21T09:30:18.402Z</time></trkpt><trkpt lat="34.31362" lon="8.3894067"><ele>210.8</ele><time>2026-03-21T09:30:19.402Z</time></trkpt><trkpt lat="34.3135817" lon="8.3892983"><ele>210.60000000000002</ele><time>2026-03-21T09:30:20.402Z</time></trkpt><trkpt lat="34.3135417" lon="8.3891867"><ele>210.4</ele><time>2026-03-21T09:30:21.401Z</time></trkpt><trkpt lat="34.3135017" lon="8.3890767"><ele>210.2</ele><time>2026-03-21T09:30:22.402Z</time></trkpt><trkpt lat="34.3134617" lon="8.3889683"><ele>210.0</ele><time>2026-03-21T09:30:23.402Z</time></trkpt><trkpt lat="34.313425" lon="8.3888633"><ele>209.66666666666666</ele><time>2026-03-21T09:30:24.401Z</time></trkpt><trkpt lat="34.3133933" lon="8.388765"><ele>209.33333333333331</ele><time>2026-03-21T09:30:25.402Z</time></trkpt><trkpt lat="34.31336" lon="8.3886667"><ele>209.0</ele><time>2026-03-21T09:30:26.403Z</time></trkpt><trkpt lat="34.3133267" lon="8.3885717"><ele>208.66666666666666</ele><time>2026-03-21T09:30:27.401Z</time></trkpt><trkpt lat="34.313295" lon="8.3884783"><ele>208.33333333333331</ele><time>2026-03-21T09:30:28.403Z</time></trkpt><trkpt lat="34.3132633" lon="8.388395"><ele>208.0</ele><time>2026-03-21T09:30:29.402Z</time></trkpt><trkpt lat="34.313235" lon="8.38832"><ele>208.0</ele><time>2026-03-21T09:30:30.402Z</time></trkpt><trkpt lat="34.3132083" lon="8.388245"><ele>208.0</ele><time>2026-03-21T09:30:31.401Z</time></trkpt><trkpt lat="34.3131817" lon="8.3881667"><ele>208.0</ele><time>2026-03-21T09:30:32.403Z</time></trkpt><trkpt lat="34.3131533" lon="8.388085"><ele>208.0</ele><time>2026-03-21T09:30:33.402Z</time></trkpt><trkpt lat="34.3131233" lon="8.3880067"><ele>208.0</ele><time>2026-03-21T09:30:34.402Z</time></trkpt><trkpt lat="34.313095" lon="8.38793"><ele>208.0</ele><time>2026-03-21T09:30:35.402Z</time></trkpt><trkpt lat="34.313065" lon="8.38785"><ele>208.0</ele><time>2026-03-21T09:30:36.401Z</time></trkpt><trkpt lat="34.3130367" lon="8.3877683"><ele>207.7142857142857</ele><time>2026-03-21T09:30:37.402Z</time></trkpt><trkpt lat="34.3130083" lon="8.38768"><ele>207.42857142857144</ele><time>2026-03-21T09:30:38.402Z</time></trkpt><trkpt lat="34.31298" lon="8.387595"><ele>207.14285714285714</ele><time>2026-03-21T09:30:39.401Z</time></trkpt><trkpt lat="34.31295" lon="8.38751"><ele>206.85714285714283</ele><time>2026-03-21T09:30:40.402Z</time></trkpt><trkpt lat="34.3129233" lon="8.3874267"><ele>206.57142857142856</ele><time>2026-03-21T09:30:41.401Z</time></trkpt><trkpt lat="34.3128983" lon="8.387345"><ele>206.28571428571428</ele><time>2026-03-21T09:30:42.401Z</time></trkpt><trkpt lat="34.31287" lon="8.387275"><ele>206.0</ele><time>2026-03-21T09:30:43.403Z</time></trkpt><trkpt lat="34.312825" lon="8.387145"><ele>206.0</ele><time>2026-03-21T09:30:45.4Z</time></trkpt><trkpt lat="34.312785" lon="8.387055"><ele>206.0</ele><time>2026-03-21T09:30:47.401Z</time></trkpt><trkpt lat="34.3127433" lon="8.3869467"><ele>206.0</ele><time>2026-03-21T09:30:49.403Z</time></trkpt><trkpt lat="34.3126867" lon="8.3867933"><ele>206.0</ele><time>2026-03-21T09:30:51.4Z</time></trkpt><trkpt lat="34.31265" lon="8.3866867"><ele>206.0</ele><time>2026-03-21T09:30:52.4Z</time></trkpt><trkpt lat="34.31261" lon="8.3865733"><ele>206.00000000000003</ele><time>2026-03-21T09:30:53.4Z</time></trkpt><trkpt lat="34.3125817" lon="8.3864683"><ele>206.0</ele><time>2026-03-21T09:30:54.401Z</time></trkpt><trkpt lat="34.3125517" lon="8.3863683"><ele>206.0</ele><time>2026-03-21T09:30:55.402Z</time></trkpt><trkpt lat="34.312525" lon="8.38627"><ele>206.0</ele><time>2026-03-21T09:30:56.402Z</time></trkpt><trkpt lat="34.3124917" lon="8.38617"><ele>206.00000000000003</ele><time>2026-03-21T09:30:57.4Z</time></trkpt><trkpt lat="34.312455" lon="8.3860667"><ele>206.0</ele><time>2026-03-21T09:30:58.4Z</time></trkpt><trkpt lat="34.3124167" lon="8.3859633"><ele>206.20000000000002</ele><time>2026-03-21T09:30:59.4Z</time></trkpt><trkpt lat="34.3123833" lon="8.3858683"><ele>206.4</ele><time>2026-03-21T09:31:00.4Z</time></trkpt><trkpt lat="34.31235" lon="8.3857683"><ele>206.6</ele><time>2026-03-21T09:31:01.4Z</time></trkpt><trkpt lat="34.31231" lon="8.3856567"><ele>206.8</ele><time>2026-03-21T09:31:02.4Z</time></trkpt><trkpt lat="34.3122583" lon="8.385525"><ele>207.0</ele><time>2026-03-21T09:31:03.4Z</time></trkpt><trkpt lat="34.3122017" lon="8.3853833"><ele>207.0</ele><time>2026-03-21T09:31:04.4Z</time></trkpt><trkpt lat="34.3121433" lon="8.3852217"><ele>207.0</ele><time>2026-03-21T09:31:05.401Z</time></trkpt><trkpt lat="34.3120833" lon="8.3850483"><ele>207.0</ele><time>2026-03-21T09:31:06.401Z</time></trkpt><trkpt lat="34.3120217" lon="8.3848733"><ele>207.0</ele><time>2026-03-21T09:31:07.4Z</time></trkpt><trkpt lat="34.311965" lon="8.3847017"><ele>207.0</ele><time>2026-03-21T09:31:08.401Z</time></trkpt><trkpt lat="34.311905" lon="8.384535"><ele>207.0</ele><time>2026-03-21T09:31:09.4Z</time></trkpt><trkpt lat="34.3118467" lon="8.38437"><ele>206.33333333333331</ele><time>2026-03-21T09:31:10.4Z</time></trkpt><trkpt lat="34.311785" lon="8.3841967"><ele>205.66666666666666</ele><time>2026-03-21T09:31:11.405Z</time></trkpt><trkpt lat="34.31172" lon="8.3840233"><ele>205.0</ele><time>2026-03-21T09:31:12.4Z</time></trkpt><trkpt lat="34.31166" lon="8.3838483"><ele>204.75</ele><time>2026-03-21T09:31:13.401Z</time></trkpt><trkpt lat="34.3116017" lon="8.3836817"><ele>204.5</ele><time>2026-03-21T09:31:14.401Z</time></trkpt><trkpt lat="34.3115483" lon="8.3835217"><ele>204.25</ele><time>2026-03-21T09:31:15.4Z</time></trkpt><trkpt lat="34.3114967" lon="8.3833717"><ele>204.0</ele><time>2026-03-21T09:31:16.401Z</time></trkpt><trkpt lat="34.3114467" lon="8.3832283"><ele>204.0</ele><time>2026-03-21T09:31:17.402Z</time></trkpt><trkpt lat="34.3113983" lon="8.3830867"><ele>204.0</ele><time>2026-03-21T09:31:18.401Z</time></trkpt><trkpt lat="34.3113467" lon="8.3829467"><ele>204.0</ele><time>2026-03-21T09:31:19.401Z</time></trkpt><trkpt lat="34.3113" lon="8.3828133"><ele>204.0</ele><time>2026-03-21T09:31:20.401Z</time></trkpt><trkpt lat="34.3112533" lon="8.382685"><ele>203.75</ele><time>2026-03-21T09:31:21.4Z</time></trkpt><trkpt lat="34.3112083" lon="8.382555"><ele>203.5</ele><time>2026-03-21T09:31:22.401Z</time></trkpt><trkpt lat="34.3111633" lon="8.38242"><ele>203.25</ele><time>2026-03-21T09:31:23.402Z</time></trkpt><trkpt lat="34.311115" lon="8.38228"><ele>203.0</ele><time>2026-03-21T09:31:24.4Z</time></trkpt><trkpt lat="34.3110683" lon="8.38214"><ele>203.5</ele><time>2026-03-21T09:31:25.401Z</time></trkpt><trkpt lat="34.3110217" lon="8.3820033"><ele>204.0</ele><time>2026-03-21T09:31:26.401Z</time></trkpt><trkpt lat="34.3109733" lon="8.3818667"><ele>204.5</ele><time>2026-03-21T09:31:27.4Z</time></trkpt><trkpt lat="34.3109267" lon="8.381735"><ele>205.0</ele><time>2026-03-21T09:31:28.401Z</time></trkpt><trkpt lat="34.3108833" lon="8.38161"><ele>205.0</ele><time>2026-03-21T09:31:29.4Z</time></trkpt><trkpt lat="34.3108383" lon="8.38149"><ele>205.0</ele><time>2026-03-21T09:31:30.4Z</time></trkpt><trkpt lat="34.310795" lon="8.381365"><ele>205.0</ele><time>2026-03-21T09:31:31.401Z</time></trkpt><trkpt lat="34.31075" lon="8.38124"><ele>205.0</ele><time>2026-03-21T09:31:32.401Z</time></trkpt><trkpt lat="34.3107067" lon="8.3811167"><ele>205.0</ele><time>2026-03-21T09:31:33.4Z</time></trkpt><trkpt lat="34.310665" lon="8.380995"><ele>205.0</ele><time>2026-03-21T09:31:34.4Z</time></trkpt><trkpt lat="34.3106217" lon="8.3808717"><ele>205.0</ele><time>2026-03-21T09:31:35.401Z</time></trkpt><trkpt lat="34.31058" lon="8.38075"><ele>205.0</ele><time>2026-03-21T09:31:36.401Z</time></trkpt><trkpt lat="34.31054" lon="8.3806317"><ele>205.0</ele><time>2026-03-21T09:31:37.401Z</time></trkpt><trkpt lat="34.3105033" lon="8.380515"><ele>205.0</ele><time>2026-03-21T09:31:38.4Z</time></trkpt><trkpt lat="34.310465" lon="8.3804033"><ele>205.0</ele><time>2026-03-21T09:31:39.4Z</time></trkpt><trkpt lat="34.3104233" lon="8.38029"><ele>205.0</ele><time>2026-03-21T09:31:40.401Z</time></trkpt><trkpt lat="34.3103817" lon="8.3801767"><ele>205.0</ele><time>2026-03-21T09:31:41.401Z</time></trkpt><trkpt lat="34.3103417" lon="8.3800683"><ele>205.0</ele><time>2026-03-21T09:31:42.4Z</time></trkpt><trkpt lat="34.310305" lon="8.3799667"><ele>205.0</ele><time>2026-03-21T09:31:43.401Z</time></trkpt><trkpt lat="34.31027" lon="8.379865"><ele>205.0</ele><time>2026-03-21T09:31:44.4Z</time></trkpt><trkpt lat="34.3102333" lon="8.379765"><ele>205.0</ele><time>2026-03-21T09:31:45.402Z</time></trkpt><trkpt lat="34.310195" lon="8.3796617"><ele>205.0</ele><time>2026-03-21T09:31:46.4Z</time></trkpt><trkpt lat="34.3101583" lon="8.37956"><ele>205.0</ele><time>2026-03-21T09:31:47.4Z</time></trkpt><trkpt lat="34.3101233" lon="8.37946"><ele>205.0</ele><time>2026-03-21T09:31:48.401Z</time></trkpt><trkpt lat="34.3100883" lon="8.3793583"><ele>204.99999999999997</ele><time>2026-03-21T09:31:49.401Z</time></trkpt><trkpt lat="34.3100567" lon="8.37926"><ele>205.0</ele><time>2026-03-21T09:31:50.407Z</time></trkpt><trkpt lat="34.3100233" lon="8.3791667"><ele>205.0</ele><time>2026-03-21T09:31:51.4Z</time></trkpt><trkpt lat="34.309995" lon="8.3790817"><ele>205.0</ele><time>2026-03-21T09:31:52.401Z</time></trkpt><trkpt lat="34.3099683" lon="8.3790083"><ele>204.99999999999997</ele><time>2026-03-21T09:31:53.4Z</time></trkpt><trkpt lat="34.309925" lon="8.3788983"><ele>205.0</ele><time>2026-03-21T09:31:55.4Z</time></trkpt><trkpt lat="34.30989" lon="8.3788117"><ele>205.0</ele><time>2026-03-21T09:31:57.401Z</time></trkpt><trkpt lat="34.30985" lon="8.3787167"><ele>205.0</ele><time>2026-03-21T09:32:00.4Z</time></trkpt><trkpt lat="34.309825" lon="8.378625"><ele>205.0</ele><time>2026-03-21T09:32:02.401Z</time></trkpt><trkpt lat="34.309785" lon="8.3784817"><ele>205.0</ele><time>2026-03-21T09:32:04.402Z</time></trkpt><trkpt lat="34.3097567" lon="8.3783967"><ele>205.0</ele><time>2026-03-21T09:32:05.4Z</time></trkpt><trkpt lat="34.309725" lon="8.3782983"><ele>204.4</ele><time>2026-03-21T09:32:06.401Z</time></trkpt><trkpt lat="34.3096883" lon="8.3781917"><ele>203.8</ele><time>2026-03-21T09:32:07.4Z</time></trkpt><trkpt lat="34.3096417" lon="8.3780783"><ele>203.2</ele><time>2026-03-21T09:32:08.402Z</time></trkpt><trkpt lat="34.3096" lon="8.3779617"><ele>202.6</ele><time>2026-03-21T09:32:09.401Z</time></trkpt><trkpt lat="34.3095567" lon="8.3778433"><ele>202.0</ele><time>2026-03-21T09:32:10.4Z</time></trkpt><trkpt lat="34.3095167" lon="8.3777267"><ele>202.0</ele><time>2026-03-21T09:32:11.402Z</time></trkpt><trkpt lat="34.30948" lon="8.3776133"><ele>202.0</ele><time>2026-03-21T09:32:12.402Z</time></trkpt><trkpt lat="34.3094517" lon="8.377495"><ele>202.0</ele><time>2026-03-21T09:32:13.401Z</time></trkpt><trkpt lat="34.3094367" lon="8.377375"><ele>202.0</ele><time>2026-03-21T09:32:14.401Z</time></trkpt><trkpt lat="34.309435" lon="8.37724"><ele>202.0</ele><time>2026-03-21T09:32:15.4Z</time></trkpt><trkpt lat="34.3094417" lon="8.377095"><ele>202.5</ele><time>2026-03-21T09:32:16.4Z</time></trkpt><trkpt lat="34.3094533" lon="8.3769433"><ele>203.0</ele><time>2026-03-21T09:32:17.402Z</time></trkpt><trkpt lat="34.30948" lon="8.3767817"><ele>203.5</ele><time>2026-03-21T09:32:18.401Z</time></trkpt><trkpt lat="34.30952" lon="8.3766217"><ele>204.0</ele><time>2026-03-21T09:32:19.401Z</time></trkpt><trkpt lat="34.309575" lon="8.37646"><ele>203.66666666666669</ele><time>2026-03-21T09:32:20.401Z</time></trkpt><trkpt lat="34.309645" lon="8.3762983"><ele>203.33333333333334</ele><time>2026-03-21T09:32:21.4Z</time></trkpt><trkpt lat="34.3097283" lon="8.3761483"><ele>203.0</ele><time>2026-03-21T09:32:22.401Z</time></trkpt><trkpt lat="34.309825" lon="8.3760033"><ele>203.0</ele><time>2026-03-21T09:32:23.401Z</time></trkpt><trkpt lat="34.3099317" lon="8.3758567"><ele>203.0</ele><time>2026-03-21T09:32:24.4Z</time></trkpt><trkpt lat="34.31004" lon="8.3757067"><ele>203.0</ele><time>2026-03-21T09:32:25.4Z</time></trkpt><trkpt lat="34.31015" lon="8.3755567"><ele>203.0</ele><time>2026-03-21T09:32:26.402Z</time></trkpt><trkpt lat="34.3102617" lon="8.3754033"><ele>203.0</ele><time>2026-03-21T09:32:27.401Z</time></trkpt><trkpt lat="34.31037" lon="8.375255"><ele>203.0</ele><time>2026-03-21T09:32:28.4Z</time></trkpt><trkpt lat="34.31048" lon="8.3751117"><ele>202.0</ele><time>2026-03-21T09:32:29.4Z</time></trkpt><trkpt lat="34.3105867" lon="8.37497"><ele>201.0</ele><time>2026-03-21T09:32:30.401Z</time></trkpt><trkpt lat="34.310695" lon="8.3748283"><ele>200.0</ele><time>2026-03-21T09:32:31.4Z</time></trkpt><trkpt lat="34.3108017" lon="8.374685"><ele>199.66666666666669</ele><time>2026-03-21T09:32:32.4Z</time></trkpt><trkpt lat="34.3109033" lon="8.3745433"><ele>199.33333333333331</ele><time>2026-03-21T09:32:33.401Z</time></trkpt><trkpt lat="34.3110033" lon="8.374405"><ele>199.0</ele><time>2026-03-21T09:32:34.401Z</time></trkpt><trkpt lat="34.311105" lon="8.3742617"><ele>199.0</ele><time>2026-03-21T09:32:35.4Z</time></trkpt><trkpt lat="34.3112067" lon="8.374115"><ele>199.0</ele><time>2026-03-21T09:32:36.401Z</time></trkpt><trkpt lat="34.3113217" lon="8.37396"><ele>199.0</ele><time>2026-03-21T09:32:37.402Z</time></trkpt><trkpt lat="34.31144" lon="8.3738033"><ele>198.0</ele><time>2026-03-21T09:32:38.405Z</time></trkpt><trkpt lat="34.3115567" lon="8.3736433"><ele>197.0</ele><time>2026-03-21T09:32:39.4Z</time></trkpt><trkpt lat="34.3116783" lon="8.3734717"><ele>196.0</ele><time>2026-03-21T09:32:40.401Z</time></trkpt><trkpt lat="34.3118067" lon="8.3733017"><ele>196.0</ele><time>2026-03-21T09:32:41.403Z</time></trkpt><trkpt lat="34.3119383" lon="8.373125"><ele>196.0</ele><time>2026-03-21T09:32:42.402Z</time></trkpt><trkpt lat="34.3120733" lon="8.37294"><ele>196.0</ele><time>2026-03-21T09:32:43.4Z</time></trkpt><trkpt lat="34.31221" lon="8.3727533"><ele>197.33333333333331</ele><time>2026-03-21T09:32:44.401Z</time></trkpt><trkpt lat="34.31234" lon="8.3725733"><ele>198.66666666666669</ele><time>2026-03-21T09:32:45.4Z</time></trkpt><trkpt lat="34.3124667" lon="8.3723967"><ele>200.0</ele><time>2026-03-21T09:32:46.401Z</time></trkpt><trkpt lat="34.3125883" lon="8.3722283"><ele>200.0</ele><time>2026-03-21T09:32:47.401Z</time></trkpt><trkpt lat="34.31271" lon="8.3720583"><ele>200.0</ele><time>2026-03-21T09:32:48.4Z</time></trkpt><trkpt lat="34.3128317" lon="8.3718917"><ele>200.0</ele><time>2026-03-21T09:32:49.401Z</time></trkpt><trkpt lat="34.3129483" lon="8.3717333"><ele>200.0</ele><time>2026-03-21T09:32:50.402Z</time></trkpt><trkpt lat="34.3130633" lon="8.3715767"><ele>200.0</ele><time>2026-03-21T09:32:51.401Z</time></trkpt><trkpt lat="34.3131817" lon="8.3714183"><ele>200.0</ele><time>2026-03-21T09:32:52.402Z</time></trkpt><trkpt lat="34.3133017" lon="8.3712583"><ele>198.66666666666669</ele><time>2026-03-21T09:32:53.401Z</time></trkpt><trkpt lat="34.3134233" lon="8.3710933"><ele>197.33333333333331</ele><time>2026-03-21T09:32:54.4Z</time></trkpt><trkpt lat="34.3135467" lon="8.3709283"><ele>196.0</ele><time>2026-03-21T09:32:55.401Z</time></trkpt><trkpt lat="34.3136717" lon="8.37076"><ele>196.0</ele><time>2026-03-21T09:32:56.401Z</time></trkpt><trkpt lat="34.3137933" lon="8.370595"><ele>196.0</ele><time>2026-03-21T09:32:57.402Z</time></trkpt><trkpt lat="34.3139067" lon="8.3704317"><ele>196.0</ele><time>2026-03-21T09:32:58.401Z</time></trkpt><trkpt lat="34.3140133" lon="8.3702767"><ele>196.33333333333331</ele><time>2026-03-21T09:32:59.401Z</time></trkpt><trkpt lat="34.3141183" lon="8.37013"><ele>196.66666666666669</ele><time>2026-03-21T09:33:00.401Z</time></trkpt><trkpt lat="34.3142183" lon="8.3699833"><ele>197.0</ele><time>2026-03-21T09:33:01.4Z</time></trkpt><trkpt lat="34.314325" lon="8.3698383"><ele>197.0</ele><time>2026-03-21T09:33:02.404Z</time></trkpt><trkpt lat="34.314435" lon="8.3696933"><ele>197.0</ele><time>2026-03-21T09:33:03.4Z</time></trkpt><trkpt lat="34.3145483" lon="8.36955"><ele>197.0</ele><time>2026-03-21T09:33:04.4Z</time></trkpt><trkpt lat="34.314665" lon="8.369405"><ele>195.0</ele><time>2026-03-21T09:33:05.401Z</time></trkpt><trkpt lat="34.314785" lon="8.3692483"><ele>193.0</ele><time>2026-03-21T09:33:06.4Z</time></trkpt><trkpt lat="34.3149017" lon="8.3690867"><ele>191.0</ele><time>2026-03-21T09:33:07.401Z</time></trkpt><trkpt lat="34.3150183" lon="8.368925"><ele>191.66666666666666</ele><time>2026-03-21T09:33:08.402Z</time></trkpt><trkpt lat="34.315135" lon="8.3687667"><ele>192.33333333333331</ele><time>2026-03-21T09:33:09.4Z</time></trkpt><trkpt lat="34.31525" lon="8.36861"><ele>193.0</ele><time>2026-03-21T09:33:10.402Z</time></trkpt><trkpt lat="34.3153633" lon="8.3684567"><ele>193.0</ele><time>2026-03-21T09:33:11.402Z</time></trkpt><trkpt lat="34.31547" lon="8.3683083"><ele>193.0</ele><time>2026-03-21T09:33:12.4Z</time></trkpt><trkpt lat="34.3155783" lon="8.3681583"><ele>193.0</ele><time>2026-03-21T09:33:13.4Z</time></trkpt><trkpt lat="34.3156917" lon="8.368005"><ele>192.66666666666666</ele><time>2026-03-21T09:33:14.401Z</time></trkpt><trkpt lat="34.3158033" lon="8.36785"><ele>192.33333333333331</ele><time>2026-03-21T09:33:15.4Z</time></trkpt><trkpt lat="34.3159183" lon="8.367695"><ele>192.0</ele><time>2026-03-21T09:33:16.4Z</time></trkpt><trkpt lat="34.3160317" lon="8.3675433"><ele>192.0</ele><time>2026-03-21T09:33:17.401Z</time></trkpt><trkpt lat="34.3161417" lon="8.36739"><ele>192.0</ele><time>2026-03-21T09:33:18.401Z</time></trkpt><trkpt lat="34.3162483" lon="8.3672417"><ele>192.0</ele><time>2026-03-21T09:33:19.401Z</time></trkpt><trkpt lat="34.316355" lon="8.3670933"><ele>192.33333333333331</ele><time>2026-03-21T09:33:20.402Z</time></trkpt><trkpt lat="34.3164583" lon="8.3669483"><ele>192.66666666666666</ele><time>2026-03-21T09:33:21.401Z</time></trkpt><trkpt lat="34.31656" lon="8.3667967"><ele>193.0</ele><time>2026-03-21T09:33:22.4Z</time></trkpt><trkpt lat="34.3166667" lon="8.366645"><ele>193.0</ele><time>2026-03-21T09:33:23.401Z</time></trkpt><trkpt lat="34.3167733" lon="8.366495"><ele>193.0</ele><time>2026-03-21T09:33:24.4Z</time></trkpt><trkpt lat="34.3168817" lon="8.3663417"><ele>193.0</ele><time>2026-03-21T09:33:25.401Z</time></trkpt><trkpt lat="34.3169883" lon="8.3661867"><ele>193.0</ele><time>2026-03-21T09:33:26.402Z</time></trkpt><trkpt lat="34.317095" lon="8.366025"><ele>193.0</ele><time>2026-03-21T09:33:27.4Z</time></trkpt><trkpt lat="34.3172067" lon="8.3658617"><ele>193.0</ele><time>2026-03-21T09:33:28.4Z</time></trkpt><trkpt lat="34.3173183" lon="8.3657"><ele>193.0</ele><time>2026-03-21T09:33:29.401Z</time></trkpt><trkpt lat="34.3174283" lon="8.3655433"><ele>193.0</ele><time>2026-03-21T09:33:30.401Z</time></trkpt><trkpt lat="34.3175383" lon="8.3653883"><ele>193.0</ele><time>2026-03-21T09:33:31.401Z</time></trkpt><trkpt lat="34.3176467" lon="8.365235"><ele>192.66666666666666</ele><time>2026-03-21T09:33:32.402Z</time></trkpt><trkpt lat="34.3177567" lon="8.3650783"><ele>192.33333333333331</ele><time>2026-03-21T09:33:33.4Z</time></trkpt><trkpt lat="34.31787" lon="8.3649183"><ele>192.0</ele><time>2026-03-21T09:33:34.401Z</time></trkpt><trkpt lat="34.31799" lon="8.3647533"><ele>192.33333333333331</ele><time>2026-03-21T09:33:35.402Z</time></trkpt><trkpt lat="34.3181117" lon="8.3645833"><ele>192.66666666666666</ele><time>2026-03-21T09:33:36.4Z</time></trkpt><trkpt lat="34.3182433" lon="8.3644033"><ele>193.0</ele><time>2026-03-21T09:33:37.4Z</time></trkpt><trkpt lat="34.3183783" lon="8.3642233"><ele>193.0</ele><time>2026-03-21T09:33:38.401Z</time></trkpt><trkpt lat="34.3185133" lon="8.3640467"><ele>193.0</ele><time>2026-03-21T09:33:39.402Z</time></trkpt><trkpt lat="34.3186467" lon="8.3638717"><ele>193.0</ele><time>2026-03-21T09:33:40.401Z</time></trkpt><trkpt lat="34.31878" lon="8.3636917"><ele>193.33333333333331</ele><time>2026-03-21T09:33:41.4Z</time></trkpt><trkpt lat="34.31891" lon="8.36351"><ele>193.66666666666669</ele><time>2026-03-21T09:33:42.4Z</time></trkpt><trkpt lat="34.3190417" lon="8.36333"><ele>194.0</ele><time>2026-03-21T09:33:43.4Z</time></trkpt><trkpt lat="34.3191717" lon="8.3631467"><ele>192.33333333333334</ele><time>2026-03-21T09:33:44.401Z</time></trkpt><trkpt lat="34.3193067" lon="8.3629617"><ele>190.66666666666669</ele><time>2026-03-21T09:33:45.4Z</time></trkpt><trkpt lat="34.31944" lon="8.3627767"><ele>189.0</ele><time>2026-03-21T09:33:46.4Z</time></trkpt><trkpt lat="34.319575" lon="8.3625883"><ele>189.0</ele><time>2026-03-21T09:33:47.401Z</time></trkpt><trkpt lat="34.3197067" lon="8.362405"><ele>189.0</ele><time>2026-03-21T09:33:48.401Z</time></trkpt><trkpt lat="34.3198367" lon="8.3622217"><ele>189.0</ele><time>2026-03-21T09:33:49.401Z</time></trkpt><trkpt lat="34.3199683" lon="8.3620367"><ele>190.66666666666669</ele><time>2026-03-21T09:33:50.401Z</time></trkpt><trkpt lat="34.3201033" lon="8.3618533"><ele>192.33333333333334</ele><time>2026-03-21T09:33:51.4Z</time></trkpt><trkpt lat="34.3202383" lon="8.3616683"><ele>194.0</ele><time>2026-03-21T09:33:52.4Z</time></trkpt><trkpt lat="34.32037" lon="8.3614867"><ele>194.0</ele><time>2026-03-21T09:33:53.402Z</time></trkpt><trkpt lat="34.3205017" lon="8.3613033"><ele>194.0</ele><time>2026-03-21T09:33:54.401Z</time></trkpt><trkpt lat="34.320635" lon="8.3611217"><ele>194.0</ele><time>2026-03-21T09:33:55.403Z</time></trkpt><trkpt lat="34.3207667" lon="8.3609467"><ele>194.0</ele><time>2026-03-21T09:33:56.401Z</time></trkpt><trkpt lat="34.3208967" lon="8.3607683"><ele>194.0</ele><time>2026-03-21T09:33:57.4Z</time></trkpt><trkpt lat="34.3210317" lon="8.3605883"><ele>194.0</ele><time>2026-03-21T09:33:58.4Z</time></trkpt><trkpt lat="34.32116" lon="8.3604117"><ele>194.0</ele><time>2026-03-21T09:33:59.401Z</time></trkpt><trkpt lat="34.321285" lon="8.3602383"><ele>194.0</ele><time>2026-03-21T09:34:00.402Z</time></trkpt><trkpt lat="34.3213967" lon="8.3600767"><ele>194.0</ele><time>2026-03-21T09:34:01.4Z</time></trkpt><trkpt lat="34.3215017" lon="8.359925"><ele>194.0</ele><time>2026-03-21T09:34:02.401Z</time></trkpt><trkpt lat="34.3216083" lon="8.3597817"><ele>194.0</ele><time>2026-03-21T09:34:03.4Z</time></trkpt><trkpt lat="34.3217083" lon="8.359645"><ele>194.0</ele><time>2026-03-21T09:34:04.4Z</time></trkpt><trkpt lat="34.3218033" lon="8.3595117"><ele>193.5</ele><time>2026-03-21T09:34:05.4Z</time></trkpt><trkpt lat="34.321895" lon="8.3593817"><ele>193.0</ele><time>2026-03-21T09:34:06.401Z</time></trkpt><trkpt lat="34.321985" lon="8.359255"><ele>192.5</ele><time>2026-03-21T09:34:07.401Z</time></trkpt><trkpt lat="34.3220733" lon="8.359135"><ele>192.0</ele><time>2026-03-21T09:34:08.4Z</time></trkpt><trkpt lat="34.3221567" lon="8.3590133"><ele>191.75</ele><time>2026-03-21T09:34:09.401Z</time></trkpt><trkpt lat="34.3222383" lon="8.3588917"><ele>191.5</ele><time>2026-03-21T09:34:10.401Z</time></trkpt><trkpt lat="34.3223167" lon="8.3587717"><ele>191.25</ele><time>2026-03-21T09:34:11.4Z</time></trkpt><trkpt lat="34.3223983" lon="8.3586533"><ele>191.0</ele><time>2026-03-21T09:34:12.401Z</time></trkpt><trkpt lat="34.3224767" lon="8.3585383"><ele>191.0</ele><time>2026-03-21T09:34:13.401Z</time></trkpt><trkpt lat="34.32256" lon="8.358425"><ele>191.0</ele><time>2026-03-21T09:34:14.402Z</time></trkpt><trkpt lat="34.3226433" lon="8.35831"><ele>191.0</ele><time>2026-03-21T09:34:15.405Z</time></trkpt><trkpt lat="34.3227233" lon="8.3581917"><ele>191.0</ele><time>2026-03-21T09:34:16.401Z</time></trkpt><trkpt lat="34.32281" lon="8.3580717"><ele>191.25</ele><time>2026-03-21T09:34:17.4Z</time></trkpt><trkpt lat="34.3228983" lon="8.3579483"><ele>191.5</ele><time>2026-03-21T09:34:18.4Z</time></trkpt><trkpt lat="34.32299" lon="8.357825"><ele>191.75</ele><time>2026-03-21T09:34:19.402Z</time></trkpt><trkpt lat="34.32308" lon="8.3576967"><ele>192.0</ele><time>2026-03-21T09:34:20.401Z</time></trkpt><trkpt lat="34.3231717" lon="8.3575633"><ele>192.0</ele><time>2026-03-21T09:34:21.4Z</time></trkpt><trkpt lat="34.3232683" lon="8.357425"><ele>192.0</ele><time>2026-03-21T09:34:22.401Z</time></trkpt><trkpt lat="34.3233683" lon="8.3572867"><ele>192.0</ele><time>2026-03-21T09:34:23.401Z</time></trkpt><trkpt lat="34.323465" lon="8.35715"><ele>192.0</ele><time>2026-03-21T09:34:24.401Z</time></trkpt><trkpt lat="34.3235667" lon="8.35701"><ele>192.0</ele><time>2026-03-21T09:34:25.401Z</time></trkpt><trkpt lat="34.3236633" lon="8.35687"><ele>192.0</ele><time>2026-03-21T09:34:26.402Z</time></trkpt><trkpt lat="34.3237567" lon="8.3567367"><ele>192.0</ele><time>2026-03-21T09:34:27.4Z</time></trkpt><trkpt lat="34.3238483" lon="8.3566083"><ele>192.5</ele><time>2026-03-21T09:34:28.4Z</time></trkpt><trkpt lat="34.32394" lon="8.35648"><ele>193.0</ele><time>2026-03-21T09:34:29.4Z</time></trkpt><trkpt lat="34.3240333" lon="8.3563517"><ele>193.5</ele><time>2026-03-21T09:34:30.4Z</time></trkpt><trkpt lat="34.3241233" lon="8.3562217"><ele>194.0</ele><time>2026-03-21T09:34:31.4Z</time></trkpt><trkpt lat="34.3242133" lon="8.356095"><ele>194.0</ele><time>2026-03-21T09:34:32.403Z</time></trkpt><trkpt lat="34.324305" lon="8.3559667"><ele>194.0</ele><time>2026-03-21T09:34:33.4Z</time></trkpt><trkpt lat="34.3244033" lon="8.35583"><ele>194.0</ele><time>2026-03-21T09:34:34.4Z</time></trkpt><trkpt lat="34.3245017" lon="8.3556933"><ele>194.0</ele><time>2026-03-21T09:34:35.4Z</time></trkpt><trkpt lat="34.3246033" lon="8.3555567"><ele>194.33333333333334</ele><time>2026-03-21T09:34:36.401Z</time></trkpt><trkpt lat="34.324705" lon="8.355415"><ele>194.66666666666669</ele><time>2026-03-21T09:34:37.4Z</time></trkpt><trkpt lat="34.324805" lon="8.355275"><ele>195.0</ele><time>2026-03-21T09:34:38.401Z</time></trkpt><trkpt lat="34.3249033" lon="8.35514"><ele>195.0</ele><time>2026-03-21T09:34:39.401Z</time></trkpt><trkpt lat="34.3250017" lon="8.3550083"><ele>195.0</ele><time>2026-03-21T09:34:40.402Z</time></trkpt><trkpt lat="34.3251" lon="8.354875"><ele>195.0</ele><time>2026-03-21T09:34:41.4Z</time></trkpt><trkpt lat="34.3251983" lon="8.35474"><ele>195.0</ele><time>2026-03-21T09:34:42.4Z</time></trkpt><trkpt lat="34.3252967" lon="8.354605"><ele>195.25</ele><time>2026-03-21T09:34:43.401Z</time></trkpt><trkpt lat="34.3253917" lon="8.3544717"><ele>195.5</ele><time>2026-03-21T09:34:44.401Z</time></trkpt><trkpt lat="34.3254867" lon="8.3543383"><ele>195.75</ele><time>2026-03-21T09:34:45.402Z</time></trkpt><trkpt lat="34.32558" lon="8.3542117"><ele>196.0</ele><time>2026-03-21T09:34:46.401Z</time></trkpt><trkpt lat="34.325665" lon="8.3540917"><ele>196.0</ele><time>2026-03-21T09:34:47.401Z</time></trkpt><trkpt lat="34.3257467" lon="8.3539767"><ele>196.0</ele><time>2026-03-21T09:34:48.402Z</time></trkpt><trkpt lat="34.3258317" lon="8.3538633"><ele>196.0</ele><time>2026-03-21T09:34:49.4Z</time></trkpt><trkpt lat="34.3259167" lon="8.3537433"><ele>196.0</ele><time>2026-03-21T09:34:50.401Z</time></trkpt><trkpt lat="34.326005" lon="8.3536183"><ele>195.75</ele><time>2026-03-21T09:34:51.4Z</time></trkpt><trkpt lat="34.3260917" lon="8.353495"><ele>195.5</ele><time>2026-03-21T09:34:52.4Z</time></trkpt><trkpt lat="34.32618" lon="8.3533683"><ele>195.25</ele><time>2026-03-21T09:34:53.403Z</time></trkpt><trkpt lat="34.3262683" lon="8.353245"><ele>195.0</ele><time>2026-03-21T09:34:54.401Z</time></trkpt><trkpt lat="34.32635" lon="8.35312"><ele>195.25</ele><time>2026-03-21T09:34:55.402Z</time></trkpt><trkpt lat="34.3264283" lon="8.35299"><ele>195.5</ele><time>2026-03-21T09:34:56.401Z</time></trkpt><trkpt lat="34.3265" lon="8.3528533"><ele>195.75</ele><time>2026-03-21T09:34:57.4Z</time></trkpt><trkpt lat="34.32655" lon="8.35272"><ele>196.0</ele><time>2026-03-21T09:34:58.4Z</time></trkpt><trkpt lat="34.3265833" lon="8.3525883"><ele>196.0</ele><time>2026-03-21T09:34:59.401Z</time></trkpt><trkpt lat="34.326605" lon="8.3524517"><ele>196.0</ele><time>2026-03-21T09:35:00.4Z</time></trkpt><trkpt lat="34.32661" lon="8.35231"><ele>196.0</ele><time>2026-03-21T09:35:01.401Z</time></trkpt><trkpt lat="34.32661" lon="8.352165"><ele>196.0</ele><time>2026-03-21T09:35:02.401Z</time></trkpt><trkpt lat="34.3265983" lon="8.3520217"><ele>196.0</ele><time>2026-03-21T09:35:03.4Z</time></trkpt><trkpt lat="34.326585" lon="8.3518733"><ele>196.0</ele><time>2026-03-21T09:35:04.401Z</time></trkpt><trkpt lat="34.3265633" lon="8.351725"><ele>196.0</ele><time>2026-03-21T09:35:05.401Z</time></trkpt><trkpt lat="34.3265433" lon="8.35157"><ele>196.0</ele><time>2026-03-21T09:35:06.401Z</time></trkpt><trkpt lat="34.3265217" lon="8.3514167"><ele>195.75</ele><time>2026-03-21T09:35:07.401Z</time></trkpt><trkpt lat="34.3265" lon="8.3512633"><ele>195.5</ele><time>2026-03-21T09:35:08.401Z</time></trkpt><trkpt lat="34.32648" lon="8.351115"><ele>195.25</ele><time>2026-03-21T09:35:09.4Z</time></trkpt><trkpt lat="34.3264617" lon="8.3509667"><ele>195.0</ele><time>2026-03-21T09:35:10.401Z</time></trkpt><trkpt lat="34.3264467" lon="8.3508233"><ele>195.0</ele><time>2026-03-21T09:35:11.402Z</time></trkpt><trkpt lat="34.3264333" lon="8.3506767"><ele>195.0</ele><time>2026-03-21T09:35:12.4Z</time></trkpt><trkpt lat="34.32642" lon="8.3505333"><ele>195.0</ele><time>2026-03-21T09:35:13.401Z</time></trkpt><trkpt lat="34.3264067" lon="8.350385"><ele>195.0</ele><time>2026-03-21T09:35:14.402Z</time></trkpt><trkpt lat="34.3263917" lon="8.3502333"><ele>195.0</ele><time>2026-03-21T09:35:15.4Z</time></trkpt><trkpt lat="34.3263783" lon="8.3500767"><ele>195.0</ele><time>2026-03-21T09:35:16.4Z</time></trkpt><trkpt lat="34.32637" lon="8.349915"><ele>195.0</ele><time>2026-03-21T09:35:17.4Z</time></trkpt><trkpt lat="34.3263617" lon="8.3497383"><ele>195.0</ele><time>2026-03-21T09:35:18.401Z</time></trkpt><trkpt lat="34.3263517" lon="8.3495517"><ele>194.0</ele><time>2026-03-21T09:35:19.4Z</time></trkpt><trkpt lat="34.3263417" lon="8.349355"><ele>193.0</ele><time>2026-03-21T09:35:20.405Z</time></trkpt><trkpt lat="34.3263333" lon="8.349145"><ele>192.0</ele><time>2026-03-21T09:35:21.401Z</time></trkpt><trkpt lat="34.3263283" lon="8.3489317"><ele>192.66666666666669</ele><time>2026-03-21T09:35:22.401Z</time></trkpt><trkpt lat="34.3263217" lon="8.3487167"><ele>193.33333333333334</ele><time>2026-03-21T09:35:23.402Z</time></trkpt><trkpt lat="34.326315" lon="8.3485067"><ele>194.0</ele><time>2026-03-21T09:35:24.4Z</time></trkpt><trkpt lat="34.3263117" lon="8.348295"><ele>194.0</ele><time>2026-03-21T09:35:25.401Z</time></trkpt><trkpt lat="34.3263083" lon="8.3480767"><ele>194.0</ele><time>2026-03-21T09:35:26.401Z</time></trkpt><trkpt lat="34.3263033" lon="8.347855"><ele>194.0</ele><time>2026-03-21T09:35:27.4Z</time></trkpt><trkpt lat="34.3262983" lon="8.3476283"><ele>194.0</ele><time>2026-03-21T09:35:28.401Z</time></trkpt><trkpt lat="34.3262933" lon="8.347395"><ele>194.0</ele><time>2026-03-21T09:35:29.4Z</time></trkpt><trkpt lat="34.326285" lon="8.3471483"><ele>194.0</ele><time>2026-03-21T09:35:30.4Z</time></trkpt><trkpt lat="34.3262817" lon="8.3468967"><ele>194.0</ele><time>2026-03-21T09:35:31.4Z</time></trkpt><trkpt lat="34.32628" lon="8.3466433"><ele>194.0</ele><time>2026-03-21T09:35:32.402Z</time></trkpt><trkpt lat="34.3262783" lon="8.3463833"><ele>194.0</ele><time>2026-03-21T09:35:33.402Z</time></trkpt><trkpt lat="34.326275" lon="8.346125"><ele>194.0</ele><time>2026-03-21T09:35:34.401Z</time></trkpt><trkpt lat="34.32627" lon="8.3458683"><ele>194.0</ele><time>2026-03-21T09:35:35.4Z</time></trkpt><trkpt lat="34.326265" lon="8.3456167"><ele>194.0</ele><time>2026-03-21T09:35:36.4Z</time></trkpt><trkpt lat="34.3262583" lon="8.345365"><ele>194.0</ele><time>2026-03-21T09:35:37.4Z</time></trkpt><trkpt lat="34.3262533" lon="8.3451167"><ele>194.0</ele><time>2026-03-21T09:35:38.4Z</time></trkpt><trkpt lat="34.326245" lon="8.3448667"><ele>194.0</ele><time>2026-03-21T09:35:39.4Z</time></trkpt><trkpt lat="34.3262417" lon="8.3446267"><ele>194.0</ele><time>2026-03-21T09:35:40.401Z</time></trkpt><trkpt lat="34.3262417" lon="8.3443983"><ele>194.0</ele><time>2026-03-21T09:35:41.401Z</time></trkpt><trkpt lat="34.3262383" lon="8.34417"><ele>194.0</ele><time>2026-03-21T09:35:42.401Z</time></trkpt><trkpt lat="34.326235" lon="8.3439367"><ele>194.0</ele><time>2026-03-21T09:35:43.401Z</time></trkpt><trkpt lat="34.32623" lon="8.3437067"><ele>194.0</ele><time>2026-03-21T09:35:44.402Z</time></trkpt><trkpt lat="34.3262283" lon="8.34348"><ele>194.0</ele><time>2026-03-21T09:35:45.4Z</time></trkpt><trkpt lat="34.3262267" lon="8.34326"><ele>194.33333333333334</ele><time>2026-03-21T09:35:46.4Z</time></trkpt><trkpt lat="34.3262267" lon="8.34304"><ele>194.66666666666669</ele><time>2026-03-21T09:35:47.401Z</time></trkpt><trkpt lat="34.326225" lon="8.3428167"><ele>195.0</ele><time>2026-03-21T09:35:48.401Z</time></trkpt><trkpt lat="34.3262233" lon="8.3425933"><ele>195.0</ele><time>2026-03-21T09:35:49.401Z</time></trkpt><trkpt lat="34.326225" lon="8.342375"><ele>195.0</ele><time>2026-03-21T09:35:50.401Z</time></trkpt><trkpt lat="34.3262217" lon="8.3421633"><ele>195.0</ele><time>2026-03-21T09:35:51.4Z</time></trkpt><trkpt lat="34.3262183" lon="8.3419583"><ele>195.33333333333331</ele><time>2026-03-21T09:35:52.401Z</time></trkpt><trkpt lat="34.3262167" lon="8.3417567"><ele>195.66666666666666</ele><time>2026-03-21T09:35:53.4Z</time></trkpt><trkpt lat="34.3262133" lon="8.34155"><ele>196.0</ele><time>2026-03-21T09:35:54.4Z</time></trkpt><trkpt lat="34.3262117" lon="8.3413417"><ele>196.0</ele><time>2026-03-21T09:35:55.4Z</time></trkpt><trkpt lat="34.326205" lon="8.34113"><ele>196.0</ele><time>2026-03-21T09:35:56.401Z</time></trkpt><trkpt lat="34.3262017" lon="8.34092"><ele>196.0</ele><time>2026-03-21T09:35:57.401Z</time></trkpt><trkpt lat="34.3261983" lon="8.34071"><ele>195.66666666666666</ele><time>2026-03-21T09:35:58.4Z</time></trkpt><trkpt lat="34.3261967" lon="8.3404967"><ele>195.33333333333331</ele><time>2026-03-21T09:35:59.401Z</time></trkpt><trkpt lat="34.326195" lon="8.34028"><ele>195.0</ele><time>2026-03-21T09:36:00.4Z</time></trkpt><trkpt lat="34.326195" lon="8.3400667"><ele>195.0</ele><time>2026-03-21T09:36:01.401Z</time></trkpt><trkpt lat="34.3261933" lon="8.339865"><ele>195.0</ele><time>2026-03-21T09:36:02.401Z</time></trkpt><trkpt lat="34.3261917" lon="8.33967"><ele>195.0</ele><time>2026-03-21T09:36:03.4Z</time></trkpt><trkpt lat="34.32619" lon="8.33948"><ele>195.25</ele><time>2026-03-21T09:36:04.402Z</time></trkpt><trkpt lat="34.32619" lon="8.3392983"><ele>195.5</ele><time>2026-03-21T09:36:05.401Z</time></trkpt><trkpt lat="34.32619" lon="8.3391283"><ele>195.75</ele><time>2026-03-21T09:36:06.401Z</time></trkpt><trkpt lat="34.32619" lon="8.338975"><ele>196.0</ele><time>2026-03-21T09:36:07.401Z</time></trkpt><trkpt lat="34.326185" lon="8.338825"><ele>196.0</ele><time>2026-03-21T09:36:08.4Z</time></trkpt><trkpt lat="34.3261717" lon="8.3386817"><ele>196.0</ele><time>2026-03-21T09:36:09.4Z</time></trkpt><trkpt lat="34.3261583" lon="8.3385433"><ele>196.0</ele><time>2026-03-21T09:36:10.4Z</time></trkpt><trkpt lat="34.326145" lon="8.3383883"><ele>196.0</ele><time>2026-03-21T09:36:11.4Z</time></trkpt><trkpt lat="34.3261367" lon="8.338235"><ele>196.0</ele><time>2026-03-21T09:36:12.4Z</time></trkpt><trkpt lat="34.326125" lon="8.3380733"><ele>196.0</ele><time>2026-03-21T09:36:13.402Z</time></trkpt><trkpt lat="34.3261217" lon="8.3378983"><ele>196.0</ele><time>2026-03-21T09:36:14.401Z</time></trkpt><trkpt lat="34.3261167" lon="8.3377167"><ele>196.0</ele><time>2026-03-21T09:36:15.4Z</time></trkpt><trkpt lat="34.32611" lon="8.3375283"><ele>196.66666666666666</ele><time>2026-03-21T09:36:16.4Z</time></trkpt><trkpt lat="34.3261017" lon="8.3373333"><ele>197.33333333333331</ele><time>2026-03-21T09:36:17.403Z</time></trkpt><trkpt lat="34.3260967" lon="8.3371317"><ele>198.0</ele><time>2026-03-21T09:36:18.401Z</time></trkpt><trkpt lat="34.3260917" lon="8.336925"><ele>198.66666666666669</ele><time>2026-03-21T09:36:19.402Z</time></trkpt><trkpt lat="34.3260867" lon="8.3367133"><ele>199.33333333333334</ele><time>2026-03-21T09:36:20.401Z</time></trkpt><trkpt lat="34.3260817" lon="8.3364917"><ele>200.0</ele><time>2026-03-21T09:36:21.4Z</time></trkpt><trkpt lat="34.326075" lon="8.336265"><ele>200.0</ele><time>2026-03-21T09:36:22.401Z</time></trkpt><trkpt lat="34.32607" lon="8.336045"><ele>200.0</ele><time>2026-03-21T09:36:23.401Z</time></trkpt><trkpt lat="34.3260667" lon="8.335825"><ele>200.0</ele><time>2026-03-21T09:36:24.4Z</time></trkpt><trkpt lat="34.3260633" lon="8.3356083"><ele>199.33333333333334</ele><time>2026-03-21T09:36:25.401Z</time></trkpt><trkpt lat="34.32606" lon="8.33539"><ele>198.66666666666669</ele><time>2026-03-21T09:36:26.404Z</time></trkpt><trkpt lat="34.32606" lon="8.3351667"><ele>198.0</ele><time>2026-03-21T09:36:27.4Z</time></trkpt><trkpt lat="34.32606" lon="8.3349367"><ele>197.66666666666669</ele><time>2026-03-21T09:36:28.4Z</time></trkpt><trkpt lat="34.3260567" lon="8.3347033"><ele>197.33333333333334</ele><time>2026-03-21T09:36:29.401Z</time></trkpt><trkpt lat="34.326055" lon="8.334465"><ele>197.0</ele><time>2026-03-21T09:36:30.401Z</time></trkpt><trkpt lat="34.326055" lon="8.3342233"><ele>197.0</ele><time>2026-03-21T09:36:31.402Z</time></trkpt><trkpt lat="34.3260567" lon="8.3339767"><ele>197.0</ele><time>2026-03-21T09:36:32.402Z</time></trkpt><trkpt lat="34.3260567" lon="8.333725"><ele>197.0</ele><time>2026-03-21T09:36:33.401Z</time></trkpt><trkpt lat="34.3260533" lon="8.33347"><ele>197.33333333333334</ele><time>2026-03-21T09:36:34.4Z</time></trkpt><trkpt lat="34.32605" lon="8.3332117"><ele>197.66666666666669</ele><time>2026-03-21T09:36:35.4Z</time></trkpt><trkpt lat="34.32605" lon="8.3329483"><ele>198.0</ele><time>2026-03-21T09:36:36.4Z</time></trkpt><trkpt lat="34.32605" lon="8.332685"><ele>198.33333333333331</ele><time>2026-03-21T09:36:37.401Z</time></trkpt><trkpt lat="34.326055" lon="8.33243"><ele>198.66666666666666</ele><time>2026-03-21T09:36:38.401Z</time></trkpt><trkpt lat="34.32606" lon="8.33218"><ele>199.0</ele><time>2026-03-21T09:36:39.4Z</time></trkpt><trkpt lat="34.3260617" lon="8.331935"><ele>198.66666666666666</ele><time>2026-03-21T09:36:40.401Z</time></trkpt><trkpt lat="34.3260633" lon="8.3316917"><ele>198.33333333333331</ele><time>2026-03-21T09:36:41.4Z</time></trkpt><trkpt lat="34.3260633" lon="8.331445"><ele>198.0</ele><time>2026-03-21T09:36:42.4Z</time></trkpt><trkpt lat="34.3260633" lon="8.3312067"><ele>198.0</ele><time>2026-03-21T09:36:43.4Z</time></trkpt><trkpt lat="34.326065" lon="8.3309717"><ele>198.0</ele><time>2026-03-21T09:36:44.401Z</time></trkpt><trkpt lat="34.3260683" lon="8.330735"><ele>198.0</ele><time>2026-03-21T09:36:45.401Z</time></trkpt><trkpt lat="34.3260717" lon="8.3304983"><ele>198.0</ele><time>2026-03-21T09:36:46.401Z</time></trkpt><trkpt lat="34.3260767" lon="8.33026"><ele>198.0</ele><time>2026-03-21T09:36:47.401Z</time></trkpt><trkpt lat="34.3260833" lon="8.33002"><ele>198.0</ele><time>2026-03-21T09:36:48.4Z</time></trkpt><trkpt lat="34.326095" lon="8.329775"><ele>197.33333333333331</ele><time>2026-03-21T09:36:49.4Z</time></trkpt><trkpt lat="34.32611" lon="8.3295317"><ele>196.66666666666666</ele><time>2026-03-21T09:36:50.402Z</time></trkpt><trkpt lat="34.3261267" lon="8.3292933"><ele>196.0</ele><time>2026-03-21T09:36:51.401Z</time></trkpt><trkpt lat="34.3261467" lon="8.32906"><ele>196.0</ele><time>2026-03-21T09:36:52.401Z</time></trkpt><trkpt lat="34.3261667" lon="8.32883"><ele>196.0</ele><time>2026-03-21T09:36:53.401Z</time></trkpt><trkpt lat="34.3261833" lon="8.3286"><ele>196.0</ele><time>2026-03-21T09:36:54.401Z</time></trkpt><trkpt lat="34.3262" lon="8.3283667"><ele>196.0</ele><time>2026-03-21T09:36:55.401Z</time></trkpt><trkpt lat="34.3262183" lon="8.328135"><ele>196.0</ele><time>2026-03-21T09:36:56.403Z</time></trkpt><trkpt lat="34.3262367" lon="8.327905"><ele>196.0</ele><time>2026-03-21T09:36:57.401Z</time></trkpt><trkpt lat="34.3262583" lon="8.3276817"><ele>196.0</ele><time>2026-03-21T09:36:58.402Z</time></trkpt><trkpt lat="34.3262817" lon="8.327465"><ele>196.0</ele><time>2026-03-21T09:36:59.402Z</time></trkpt><trkpt lat="34.3263" lon="8.3272467"><ele>196.0</ele><time>2026-03-21T09:37:00.401Z</time></trkpt><trkpt lat="34.32631" lon="8.3270217"><ele>195.66666666666666</ele><time>2026-03-21T09:37:01.401Z</time></trkpt><trkpt lat="34.32632" lon="8.3267967"><ele>195.33333333333331</ele><time>2026-03-21T09:37:02.4Z</time></trkpt><trkpt lat="34.3263267" lon="8.3265733"><ele>195.0</ele><time>2026-03-21T09:37:03.4Z</time></trkpt><trkpt lat="34.3263367" lon="8.3263567"><ele>195.0</ele><time>2026-03-21T09:37:04.401Z</time></trkpt><trkpt lat="34.3263467" lon="8.3261533"><ele>195.0</ele><time>2026-03-21T09:37:05.4Z</time></trkpt><trkpt lat="34.326355" lon="8.3259583"><ele>195.0</ele><time>2026-03-21T09:37:06.4Z</time></trkpt><trkpt lat="34.3263667" lon="8.3257733"><ele>195.0</ele><time>2026-03-21T09:37:07.4Z</time></trkpt><trkpt lat="34.32638" lon="8.3255983"><ele>195.0</ele><time>2026-03-21T09:37:08.401Z</time></trkpt><trkpt lat="34.3262583" lon="8.3253533"><ele>195.0</ele><time>2026-03-21T09:37:10.093Z</time></trkpt><trkpt lat="34.3263767" lon="8.3250983"><ele>194.66666666666669</ele><time>2026-03-21T09:37:11.775Z</time></trkpt><trkpt lat="34.3263917" lon="8.3249433"><ele>194.33333333333334</ele><time>2026-03-21T09:37:12.774Z</time></trkpt><trkpt lat="34.3264" lon="8.3246933"><ele>194.0</ele><time>2026-03-21T09:37:14.401Z</time></trkpt><trkpt lat="34.326395" lon="8.32454"><ele>194.75</ele><time>2026-03-21T09:37:15.4Z</time></trkpt><trkpt lat="34.3263867" lon="8.3243783"><ele>195.5</ele><time>2026-03-21T09:37:16.4Z</time></trkpt><trkpt lat="34.32638" lon="8.32422"><ele>196.25</ele><time>2026-03-21T09:37:17.4Z</time></trkpt><trkpt lat="34.3263767" lon="8.3240667"><ele>197.0</ele><time>2026-03-21T09:37:18.4Z</time></trkpt><trkpt lat="34.32638" lon="8.32391"><ele>197.0</ele><time>2026-03-21T09:37:19.401Z</time></trkpt><trkpt lat="34.326395" lon="8.3237533"><ele>197.0</ele><time>2026-03-21T09:37:20.4Z</time></trkpt><trkpt lat="34.3264183" lon="8.3236017"><ele>197.0</ele><time>2026-03-21T09:37:21.401Z</time></trkpt><trkpt lat="34.32645" lon="8.3234517"><ele>197.0</ele><time>2026-03-21T09:37:22.401Z</time></trkpt><trkpt lat="34.3264833" lon="8.323305"><ele>197.0</ele><time>2026-03-21T09:37:23.401Z</time></trkpt><trkpt lat="34.326515" lon="8.323165"><ele>197.0</ele><time>2026-03-21T09:37:24.401Z</time></trkpt><trkpt lat="34.3265433" lon="8.3230217"><ele>197.0</ele><time>2026-03-21T09:37:25.401Z</time></trkpt><trkpt lat="34.3265667" lon="8.3228817"><ele>197.0</ele><time>2026-03-21T09:37:26.401Z</time></trkpt><trkpt lat="34.3265767" lon="8.3227417"><ele>197.0</ele><time>2026-03-21T09:37:27.4Z</time></trkpt><trkpt lat="34.3265633" lon="8.3226033"><ele>197.0</ele><time>2026-03-21T09:37:28.4Z</time></trkpt><trkpt lat="34.3265317" lon="8.3224633"><ele>197.0</ele><time>2026-03-21T09:37:29.4Z</time></trkpt><trkpt lat="34.32648" lon="8.322315"><ele>197.0</ele><time>2026-03-21T09:37:30.403Z</time></trkpt><trkpt lat="34.32641" lon="8.32216"><ele>196.5</ele><time>2026-03-21T09:37:31.402Z</time></trkpt><trkpt lat="34.326335" lon="8.3220033"><ele>196.0</ele><time>2026-03-21T09:37:32.401Z</time></trkpt><trkpt lat="34.32626" lon="8.32185"><ele>195.5</ele><time>2026-03-21T09:37:33.4Z</time></trkpt><trkpt lat="34.3261883" lon="8.3216917"><ele>195.0</ele><time>2026-03-21T09:37:34.4Z</time></trkpt><trkpt lat="34.3261217" lon="8.3215367"><ele>194.5</ele><time>2026-03-21T09:37:35.4Z</time></trkpt><trkpt lat="34.3260533" lon="8.32139"><ele>194.0</ele><time>2026-03-21T09:37:36.4Z</time></trkpt><trkpt lat="34.32599" lon="8.321245"><ele>193.5</ele><time>2026-03-21T09:37:37.4Z</time></trkpt><trkpt lat="34.3259333" lon="8.3211017"><ele>193.0</ele><time>2026-03-21T09:37:38.401Z</time></trkpt><trkpt lat="34.32588" lon="8.3209633"><ele>193.0</ele><time>2026-03-21T09:37:39.4Z</time></trkpt><trkpt lat="34.3258267" lon="8.3208233"><ele>193.0</ele><time>2026-03-21T09:37:40.4Z</time></trkpt><trkpt lat="34.3257767" lon="8.3206883"><ele>193.0</ele><time>2026-03-21T09:37:41.401Z</time></trkpt><trkpt lat="34.3257267" lon="8.3205517"><ele>193.0</ele><time>2026-03-21T09:37:42.401Z</time></trkpt><trkpt lat="34.3256817" lon="8.3204067"><ele>193.0</ele><time>2026-03-21T09:37:43.402Z</time></trkpt><trkpt lat="34.32564" lon="8.3202567"><ele>193.0</ele><time>2026-03-21T09:37:44.401Z</time></trkpt><trkpt lat="34.3256067" lon="8.3201083"><ele>193.0</ele><time>2026-03-21T09:37:45.401Z</time></trkpt><trkpt lat="34.3255817" lon="8.319955"><ele>193.0</ele><time>2026-03-21T09:37:46.4Z</time></trkpt><trkpt lat="34.325565" lon="8.3198033"><ele>193.5</ele><time>2026-03-21T09:37:47.402Z</time></trkpt><trkpt lat="34.325565" lon="8.3196633"><ele>194.0</ele><time>2026-03-21T09:37:48.4Z</time></trkpt><trkpt lat="34.3255783" lon="8.3195267"><ele>194.5</ele><time>2026-03-21T09:37:49.402Z</time></trkpt><trkpt lat="34.3256033" lon="8.319395"><ele>195.0</ele><time>2026-03-21T09:37:50.401Z</time></trkpt><trkpt lat="34.3256283" lon="8.3192633"><ele>195.0</ele><time>2026-03-21T09:37:51.402Z</time></trkpt><trkpt lat="34.325645" lon="8.31914"><ele>195.0</ele><time>2026-03-21T09:37:52.4Z</time></trkpt><trkpt lat="34.3256533" lon="8.3190167"><ele>195.0</ele><time>2026-03-21T09:37:53.402Z</time></trkpt><trkpt lat="34.3256467" lon="8.3188883"><ele>195.0</ele><time>2026-03-21T09:37:54.4Z</time></trkpt><trkpt lat="34.3256367" lon="8.3187583"><ele>195.0</ele><time>2026-03-21T09:37:55.401Z</time></trkpt><trkpt lat="34.325615" lon="8.3186233"><ele>194.5</ele><time>2026-03-21T09:37:56.401Z</time></trkpt><trkpt lat="34.3255883" lon="8.3184817"><ele>194.0</ele><time>2026-03-21T09:37:57.4Z</time></trkpt><trkpt lat="34.32556" lon="8.3183367"><ele>193.5</ele><time>2026-03-21T09:37:58.4Z</time></trkpt><trkpt lat="34.3255333" lon="8.3181783"><ele>193.0</ele><time>2026-03-21T09:37:59.4Z</time></trkpt><trkpt lat="34.3255117" lon="8.3180117"><ele>192.25</ele><time>2026-03-21T09:38:00.4Z</time></trkpt><trkpt lat="34.3255017" lon="8.3178317"><ele>191.5</ele><time>2026-03-21T09:38:01.4Z</time></trkpt><trkpt lat="34.3254917" lon="8.3176517"><ele>190.75</ele><time>2026-03-21T09:38:02.401Z</time></trkpt><trkpt lat="34.325475" lon="8.317475"><ele>190.0</ele><time>2026-03-21T09:38:03.4Z</time></trkpt><trkpt lat="34.3254467" lon="8.3173033"><ele>189.66666666666669</ele><time>2026-03-21T09:38:04.401Z</time></trkpt><trkpt lat="34.3254033" lon="8.317125"><ele>189.33333333333334</ele><time>2026-03-21T09:38:05.402Z</time></trkpt><trkpt lat="34.3253433" lon="8.316945"><ele>189.0</ele><time>2026-03-21T09:38:06.401Z</time></trkpt><trkpt lat="34.32527" lon="8.3167617"><ele>189.0</ele><time>2026-03-21T09:38:07.401Z</time></trkpt><trkpt lat="34.32518" lon="8.3165783"><ele>189.0</ele><time>2026-03-21T09:38:08.401Z</time></trkpt><trkpt lat="34.3250733" lon="8.3164067"><ele>189.0</ele><time>2026-03-21T09:38:09.401Z</time></trkpt><trkpt lat="34.3249483" lon="8.3162517"><ele>188.66666666666666</ele><time>2026-03-21T09:38:10.401Z</time></trkpt><trkpt lat="34.3248083" lon="8.316105"><ele>188.33333333333331</ele><time>2026-03-21T09:38:11.401Z</time></trkpt><trkpt lat="34.324665" lon="8.3159783"><ele>188.0</ele><time>2026-03-21T09:38:12.4Z</time></trkpt><trkpt lat="34.324525" lon="8.3158717"><ele>188.0</ele><time>2026-03-21T09:38:13.4Z</time></trkpt><trkpt lat="34.3244017" lon="8.3157667"><ele>188.0</ele><time>2026-03-21T09:38:14.401Z</time></trkpt><trkpt lat="34.3242867" lon="8.315655"><ele>188.0</ele><time>2026-03-21T09:38:15.4Z</time></trkpt><trkpt lat="34.32418" lon="8.315525"><ele>187.66666666666666</ele><time>2026-03-21T09:38:16.402Z</time></trkpt><trkpt lat="34.3240817" lon="8.3153833"><ele>187.33333333333334</ele><time>2026-03-21T09:38:17.401Z</time></trkpt><trkpt lat="34.3239967" lon="8.31522"><ele>187.0</ele><time>2026-03-21T09:38:18.4Z</time></trkpt><trkpt lat="34.3239183" lon="8.31505"><ele>186.66666666666669</ele><time>2026-03-21T09:38:19.401Z</time></trkpt><trkpt lat="34.3238417" lon="8.31488"><ele>186.33333333333334</ele><time>2026-03-21T09:38:20.405Z</time></trkpt><trkpt lat="34.32377" lon="8.31471"><ele>186.0</ele><time>2026-03-21T09:38:21.4Z</time></trkpt><trkpt lat="34.3237017" lon="8.31454"><ele>185.66666666666666</ele><time>2026-03-21T09:38:22.401Z</time></trkpt><trkpt lat="34.3236433" lon="8.3143633"><ele>185.33333333333331</ele><time>2026-03-21T09:38:23.4Z</time></trkpt><trkpt lat="34.3235933" lon="8.3141783"><ele>185.0</ele><time>2026-03-21T09:38:24.4Z</time></trkpt><trkpt lat="34.32356" lon="8.3139833"><ele>184.0</ele><time>2026-03-21T09:38:25.401Z</time></trkpt><trkpt lat="34.323535" lon="8.313775"><ele>183.0</ele><time>2026-03-21T09:38:26.4Z</time></trkpt><trkpt lat="34.32352" lon="8.3135633"><ele>182.0</ele><time>2026-03-21T09:38:27.4Z</time></trkpt><trkpt lat="34.3235083" lon="8.3133483"><ele>182.0</ele><time>2026-03-21T09:38:28.4Z</time></trkpt><trkpt lat="34.3234983" lon="8.31314"><ele>182.0</ele><time>2026-03-21T09:38:29.402Z</time></trkpt><trkpt lat="34.3234867" lon="8.31294"><ele>182.0</ele><time>2026-03-21T09:38:30.401Z</time></trkpt><trkpt lat="34.3234717" lon="8.3127417"><ele>182.33333333333331</ele><time>2026-03-21T09:38:31.401Z</time></trkpt><trkpt lat="34.3234567" lon="8.3125467"><ele>182.66666666666666</ele><time>2026-03-21T09:38:32.401Z</time></trkpt><trkpt lat="34.323435" lon="8.3123567"><ele>183.0</ele><time>2026-03-21T09:38:33.401Z</time></trkpt><trkpt lat="34.3234" lon="8.312175"><ele>182.33333333333334</ele><time>2026-03-21T09:38:34.4Z</time></trkpt><trkpt lat="34.3233517" lon="8.3119967"><ele>181.66666666666669</ele><time>2026-03-21T09:38:35.4Z</time></trkpt><trkpt lat="34.323285" lon="8.3118233"><ele>181.0</ele><time>2026-03-21T09:38:36.4Z</time></trkpt><trkpt lat="34.3232083" lon="8.3116467"><ele>181.0</ele><time>2026-03-21T09:38:37.401Z</time></trkpt><trkpt lat="34.3231233" lon="8.3114767"><ele>181.0</ele><time>2026-03-21T09:38:38.402Z</time></trkpt><trkpt lat="34.3230333" lon="8.311305"><ele>181.0</ele><time>2026-03-21T09:38:39.4Z</time></trkpt><trkpt lat="34.3229467" lon="8.3111283"><ele>181.0</ele><time>2026-03-21T09:38:40.4Z</time></trkpt><trkpt lat="34.322865" lon="8.3109467"><ele>181.0</ele><time>2026-03-21T09:38:41.4Z</time></trkpt><trkpt lat="34.3227917" lon="8.3107617"><ele>181.0</ele><time>2026-03-21T09:38:42.402Z</time></trkpt><trkpt lat="34.3227217" lon="8.3105717"><ele>180.0</ele><time>2026-03-21T09:38:43.402Z</time></trkpt><trkpt lat="34.322655" lon="8.310375"><ele>179.0</ele><time>2026-03-21T09:38:44.401Z</time></trkpt><trkpt lat="34.322585" lon="8.31017"><ele>178.0</ele><time>2026-03-21T09:38:45.4Z</time></trkpt><trkpt lat="34.3225133" lon="8.3099567"><ele>179.0</ele><time>2026-03-21T09:38:46.4Z</time></trkpt><trkpt lat="34.3224433" lon="8.3097383"><ele>180.0</ele><time>2026-03-21T09:38:47.403Z</time></trkpt><trkpt lat="34.3223783" lon="8.309515"><ele>181.0</ele><time>2026-03-21T09:38:48.401Z</time></trkpt><trkpt lat="34.3223117" lon="8.309295"><ele>181.0</ele><time>2026-03-21T09:38:49.402Z</time></trkpt><trkpt lat="34.322245" lon="8.30907"><ele>181.0</ele><time>2026-03-21T09:38:50.402Z</time></trkpt><trkpt lat="34.3221783" lon="8.30885"><ele>181.0</ele><time>2026-03-21T09:38:51.403Z</time></trkpt><trkpt lat="34.3220683" lon="8.308585"><ele>180.0</ele><time>2026-03-21T09:38:52.587Z</time></trkpt><trkpt lat="34.3220117" lon="8.3084233"><ele>179.0</ele><time>2026-03-21T09:38:53.765Z</time></trkpt><trkpt lat="34.3218283" lon="8.3080083"><ele>179.0</ele><time>2026-03-21T09:38:55.401Z</time></trkpt><trkpt lat="34.3217183" lon="8.3078083"><ele>179.0</ele><time>2026-03-21T09:38:56.4Z</time></trkpt><trkpt lat="34.3215817" lon="8.3076"><ele>179.0</ele><time>2026-03-21T09:38:57.4Z</time></trkpt><trkpt lat="34.3214667" lon="8.3074067"><ele>178.0</ele><time>2026-03-21T09:38:58.4Z</time></trkpt><trkpt lat="34.321355" lon="8.307205"><ele>177.0</ele><time>2026-03-21T09:38:59.401Z</time></trkpt><trkpt lat="34.3212367" lon="8.307025"><ele>176.0</ele><time>2026-03-21T09:39:00.4Z</time></trkpt><trkpt lat="34.3211133" lon="8.306845"><ele>176.0</ele><time>2026-03-21T09:39:01.401Z</time></trkpt><trkpt lat="34.3209967" lon="8.3066617"><ele>176.0</ele><time>2026-03-21T09:39:02.401Z</time></trkpt><trkpt lat="34.32088" lon="8.306485"><ele>176.0</ele><time>2026-03-21T09:39:03.4Z</time></trkpt><trkpt lat="34.3207683" lon="8.3063083"><ele>175.33333333333331</ele><time>2026-03-21T09:39:04.4Z</time></trkpt><trkpt lat="34.3206567" lon="8.3061367"><ele>174.66666666666666</ele><time>2026-03-21T09:39:05.405Z</time></trkpt><trkpt lat="34.32055" lon="8.3059683"><ele>174.0</ele><time>2026-03-21T09:39:06.402Z</time></trkpt><trkpt lat="34.3204483" lon="8.3058"><ele>174.0</ele><time>2026-03-21T09:39:07.401Z</time></trkpt><trkpt lat="34.3203417" lon="8.305635"><ele>174.0</ele><time>2026-03-21T09:39:08.401Z</time></trkpt><trkpt lat="34.320235" lon="8.3054733"><ele>174.0</ele><time>2026-03-21T09:39:09.4Z</time></trkpt><trkpt lat="34.3201183" lon="8.305325"><ele>174.0</ele><time>2026-03-21T09:39:10.401Z</time></trkpt><trkpt lat="34.31999" lon="8.3052017"><ele>174.0</ele><time>2026-03-21T09:39:11.4Z</time></trkpt><trkpt lat="34.3198483" lon="8.3051"><ele>174.0</ele><time>2026-03-21T09:39:12.4Z</time></trkpt><trkpt lat="34.3197033" lon="8.3050233"><ele>174.0</ele><time>2026-03-21T09:39:13.401Z</time></trkpt><trkpt lat="34.3195567" lon="8.3049683"><ele>174.0</ele><time>2026-03-21T09:39:14.401Z</time></trkpt><trkpt lat="34.3194083" lon="8.304935"><ele>174.0</ele><time>2026-03-21T09:39:15.401Z</time></trkpt><trkpt lat="34.3192517" lon="8.3049133"><ele>174.0</ele><time>2026-03-21T09:39:16.401Z</time></trkpt><trkpt lat="34.3190867" lon="8.3049"><ele>174.0</ele><time>2026-03-21T09:39:17.402Z</time></trkpt><trkpt lat="34.3189183" lon="8.3048933"><ele>174.0</ele><time>2026-03-21T09:39:18.4Z</time></trkpt><trkpt lat="34.31875" lon="8.3048883"><ele>174.33333333333334</ele><time>2026-03-21T09:39:19.401Z</time></trkpt><trkpt lat="34.318585" lon="8.3048767"><ele>174.66666666666669</ele><time>2026-03-21T09:39:20.402Z</time></trkpt><trkpt lat="34.3184233" lon="8.304855"><ele>175.0</ele><time>2026-03-21T09:39:21.4Z</time></trkpt><trkpt lat="34.3182583" lon="8.3048317"><ele>175.0</ele><time>2026-03-21T09:39:22.401Z</time></trkpt><trkpt lat="34.3180983" lon="8.3048017"><ele>175.0</ele><time>2026-03-21T09:39:23.402Z</time></trkpt><trkpt lat="34.317935" lon="8.3047617"><ele>175.0</ele><time>2026-03-21T09:39:24.402Z</time></trkpt><trkpt lat="34.3177717" lon="8.304715"><ele>174.66666666666669</ele><time>2026-03-21T09:39:25.401Z</time></trkpt><trkpt lat="34.3176033" lon="8.30466"><ele>174.33333333333334</ele><time>2026-03-21T09:39:26.401Z</time></trkpt><trkpt lat="34.3174317" lon="8.3045983"><ele>174.0</ele><time>2026-03-21T09:39:27.401Z</time></trkpt><trkpt lat="34.31726" lon="8.3045417"><ele>174.0</ele><time>2026-03-21T09:39:28.401Z</time></trkpt><trkpt lat="34.3170883" lon="8.3044883"><ele>174.0</ele><time>2026-03-21T09:39:29.4Z</time></trkpt><trkpt lat="34.31692" lon="8.3044283"><ele>174.0</ele><time>2026-03-21T09:39:30.401Z</time></trkpt><trkpt lat="34.316755" lon="8.3043717"><ele>174.0</ele><time>2026-03-21T09:39:31.401Z</time></trkpt><trkpt lat="34.3165933" lon="8.3043117"><ele>174.0</ele><time>2026-03-21T09:39:32.401Z</time></trkpt><trkpt lat="34.3164267" lon="8.3042483"><ele>174.0</ele><time>2026-03-21T09:39:33.401Z</time></trkpt><trkpt lat="34.3162567" lon="8.3041717"><ele>174.0</ele><time>2026-03-21T09:39:34.4Z</time></trkpt><trkpt lat="34.3160933" lon="8.3040767"><ele>174.0</ele><time>2026-03-21T09:39:35.401Z</time></trkpt><trkpt lat="34.3159367" lon="8.3039667"><ele>174.0</ele><time>2026-03-21T09:39:36.4Z</time></trkpt><trkpt lat="34.315785" lon="8.30384"><ele>173.66666666666666</ele><time>2026-03-21T09:39:37.401Z</time></trkpt><trkpt lat="34.315645" lon="8.3036917"><ele>173.33333333333331</ele><time>2026-03-21T09:39:38.402Z</time></trkpt><trkpt lat="34.3155217" lon="8.3035233"><ele>173.0</ele><time>2026-03-21T09:39:39.4Z</time></trkpt><trkpt lat="34.315405" lon="8.3033383"><ele>172.66666666666666</ele><time>2026-03-21T09:39:40.4Z</time></trkpt><trkpt lat="34.3152983" lon="8.303145"><ele>172.33333333333334</ele><time>2026-03-21T09:39:41.401Z</time></trkpt><trkpt lat="34.31519" lon="8.3029467"><ele>172.0</ele><time>2026-03-21T09:39:42.4Z</time></trkpt><trkpt lat="34.3150817" lon="8.30275"><ele>172.0</ele><time>2026-03-21T09:39:43.401Z</time></trkpt><trkpt lat="34.3149683" lon="8.3025483"><ele>172.0</ele><time>2026-03-21T09:39:44.401Z</time></trkpt><trkpt lat="34.314855" lon="8.3023433"><ele>172.0</ele><time>2026-03-21T09:39:45.401Z</time></trkpt><trkpt lat="34.3147367" lon="8.3021417"><ele>171.33333333333334</ele><time>2026-03-21T09:39:46.4Z</time></trkpt><trkpt lat="34.31462" lon="8.301935"><ele>170.66666666666666</ele><time>2026-03-21T09:39:47.401Z</time></trkpt><trkpt lat="34.3145017" lon="8.30173"><ele>170.0</ele><time>2026-03-21T09:39:48.401Z</time></trkpt><trkpt lat="34.3143867" lon="8.301525"><ele>170.0</ele><time>2026-03-21T09:39:49.401Z</time></trkpt><trkpt lat="34.314275" lon="8.301315"><ele>170.0</ele><time>2026-03-21T09:39:50.404Z</time></trkpt><trkpt lat="34.3141633" lon="8.3011083"><ele>170.0</ele><time>2026-03-21T09:39:51.4Z</time></trkpt><trkpt lat="34.3140483" lon="8.3009033"><ele>170.0</ele><time>2026-03-21T09:39:52.4Z</time></trkpt><trkpt lat="34.3139317" lon="8.3006983"><ele>170.0</ele><time>2026-03-21T09:39:53.402Z</time></trkpt><trkpt lat="34.3138167" lon="8.300495"><ele>170.0</ele><time>2026-03-21T09:39:54.4Z</time></trkpt><trkpt lat="34.3137" lon="8.3002967"><ele>169.66666666666666</ele><time>2026-03-21T09:39:55.403Z</time></trkpt><trkpt lat="34.313585" lon="8.3000967"><ele>169.33333333333334</ele><time>2026-03-21T09:39:56.401Z</time></trkpt><trkpt lat="34.3134717" lon="8.2998917"><ele>169.0</ele><time>2026-03-21T09:39:57.401Z</time></trkpt><trkpt lat="34.31336" lon="8.2996883"><ele>169.0</ele><time>2026-03-21T09:39:58.4Z</time></trkpt><trkpt lat="34.3132483" lon="8.299495"><ele>169.0</ele><time>2026-03-21T09:39:59.402Z</time></trkpt><trkpt lat="34.3131367" lon="8.2993083"><ele>169.0</ele><time>2026-03-21T09:40:00.402Z</time></trkpt><trkpt lat="34.31303" lon="8.29912"><ele>168.66666666666669</ele><time>2026-03-21T09:40:01.401Z</time></trkpt><trkpt lat="34.31293" lon="8.2989233"><ele>168.33333333333334</ele><time>2026-03-21T09:40:02.401Z</time></trkpt><trkpt lat="34.31283" lon="8.29872"><ele>168.0</ele><time>2026-03-21T09:40:03.4Z</time></trkpt><trkpt lat="34.3127417" lon="8.2985017"><ele>168.0</ele><time>2026-03-21T09:40:04.4Z</time></trkpt><trkpt lat="34.3126667" lon="8.2982733"><ele>168.0</ele><time>2026-03-21T09:40:05.401Z</time></trkpt><trkpt lat="34.312605" lon="8.29804"><ele>168.0</ele><time>2026-03-21T09:40:06.401Z</time></trkpt><trkpt lat="34.3125567" lon="8.2978033"><ele>168.0</ele><time>2026-03-21T09:40:07.4Z</time></trkpt><trkpt lat="34.3125217" lon="8.297565"><ele>168.0</ele><time>2026-03-21T09:40:08.401Z</time></trkpt><trkpt lat="34.3124967" lon="8.29733"><ele>168.0</ele><time>2026-03-21T09:40:09.4Z</time></trkpt><trkpt lat="34.3124717" lon="8.2971"><ele>167.66666666666666</ele><time>2026-03-21T09:40:10.4Z</time></trkpt><trkpt lat="34.31245" lon="8.2968667"><ele>167.33333333333331</ele><time>2026-03-21T09:40:11.4Z</time></trkpt><trkpt lat="34.31243" lon="8.2966317"><ele>167.0</ele><time>2026-03-21T09:40:12.401Z</time></trkpt><trkpt lat="34.3124083" lon="8.296395"><ele>167.0</ele><time>2026-03-21T09:40:13.401Z</time></trkpt><trkpt lat="34.312385" lon="8.2961583"><ele>167.0</ele><time>2026-03-21T09:40:14.401Z</time></trkpt><trkpt lat="34.3123567" lon="8.2959167"><ele>167.0</ele><time>2026-03-21T09:40:15.401Z</time></trkpt><trkpt lat="34.3123183" lon="8.2956733"><ele>166.0</ele><time>2026-03-21T09:40:16.401Z</time></trkpt><trkpt lat="34.3122733" lon="8.29543"><ele>165.0</ele><time>2026-03-21T09:40:17.402Z</time></trkpt><trkpt lat="34.3122217" lon="8.29519"><ele>164.0</ele><time>2026-03-21T09:40:18.402Z</time></trkpt><trkpt lat="34.3121683" lon="8.2949517"><ele>164.0</ele><time>2026-03-21T09:40:19.401Z</time></trkpt><trkpt lat="34.31211" lon="8.2947117"><ele>164.0</ele><time>2026-03-21T09:40:20.403Z</time></trkpt><trkpt lat="34.3120517" lon="8.2944683"><ele>164.0</ele><time>2026-03-21T09:40:21.401Z</time></trkpt><trkpt lat="34.3119917" lon="8.2942233"><ele>164.0</ele><time>2026-03-21T09:40:22.4Z</time></trkpt><trkpt lat="34.3119267" lon="8.2939867"><ele>164.0</ele><time>2026-03-21T09:40:23.401Z</time></trkpt><trkpt lat="34.3118517" lon="8.2937567"><ele>164.0</ele><time>2026-03-21T09:40:24.4Z</time></trkpt><trkpt lat="34.3117667" lon="8.2935333"><ele>164.0</ele><time>2026-03-21T09:40:25.401Z</time></trkpt><trkpt lat="34.3116767" lon="8.29331"><ele>164.0</ele><time>2026-03-21T09:40:26.404Z</time></trkpt><trkpt lat="34.31158" lon="8.29309"><ele>164.0</ele><time>2026-03-21T09:40:27.4Z</time></trkpt><trkpt lat="34.3114783" lon="8.2928717"><ele>163.33333333333331</ele><time>2026-03-21T09:40:28.401Z</time></trkpt><trkpt lat="34.3113733" lon="8.2926517"><ele>162.66666666666666</ele><time>2026-03-21T09:40:29.401Z</time></trkpt><trkpt lat="34.3112617" lon="8.2924317"><ele>162.0</ele><time>2026-03-21T09:40:30.401Z</time></trkpt><trkpt lat="34.3111517" lon="8.2922083"><ele>161.66666666666666</ele><time>2026-03-21T09:40:31.4Z</time></trkpt><trkpt lat="34.3110433" lon="8.2919917"><ele>161.33333333333331</ele><time>2026-03-21T09:40:32.401Z</time></trkpt><trkpt lat="34.3109367" lon="8.2917783"><ele>161.0</ele><time>2026-03-21T09:40:33.4Z</time></trkpt><trkpt lat="34.3108333" lon="8.2915633"><ele>160.33333333333331</ele><time>2026-03-21T09:40:34.4Z</time></trkpt><trkpt lat="34.310735" lon="8.2913467"><ele>159.66666666666666</ele><time>2026-03-21T09:40:35.401Z</time></trkpt><trkpt lat="34.3106383" lon="8.2911267"><ele>159.0</ele><time>2026-03-21T09:40:36.401Z</time></trkpt><trkpt lat="34.310545" lon="8.290905"><ele>159.0</ele><time>2026-03-21T09:40:37.401Z</time></trkpt><trkpt lat="34.3104567" lon="8.2906833"><ele>159.0</ele><time>2026-03-21T09:40:38.401Z</time></trkpt><trkpt lat="34.3103767" lon="8.29045"><ele>159.0</ele><time>2026-03-21T09:40:39.4Z</time></trkpt><trkpt lat="34.3103017" lon="8.2902083"><ele>159.33333333333334</ele><time>2026-03-21T09:40:40.4Z</time></trkpt><trkpt lat="34.3102333" lon="8.289965"><ele>159.66666666666669</ele><time>2026-03-21T09:40:41.4Z</time></trkpt><trkpt lat="34.31017" lon="8.2897083"><ele>160.0</ele><time>2026-03-21T09:40:42.401Z</time></trkpt><trkpt lat="34.3101083" lon="8.2894517"><ele>160.0</ele><time>2026-03-21T09:40:43.4Z</time></trkpt><trkpt lat="34.3100483" lon="8.2891967"><ele>160.0</ele><time>2026-03-21T09:40:44.402Z</time></trkpt><trkpt lat="34.3099883" lon="8.2889483"><ele>160.0</ele><time>2026-03-21T09:40:45.402Z</time></trkpt><trkpt lat="34.30993" lon="8.2887067"><ele>160.0</ele><time>2026-03-21T09:40:46.4Z</time></trkpt><trkpt lat="34.3098733" lon="8.2884717"><ele>160.0</ele><time>2026-03-21T09:40:47.401Z</time></trkpt><trkpt lat="34.30982" lon="8.2882417"><ele>160.0</ele><time>2026-03-21T09:40:48.401Z</time></trkpt><trkpt lat="34.309765" lon="8.2880167"><ele>159.66666666666669</ele><time>2026-03-21T09:40:49.402Z</time></trkpt><trkpt lat="34.3097083" lon="8.28779"><ele>159.33333333333334</ele><time>2026-03-21T09:40:50.402Z</time></trkpt><trkpt lat="34.30965" lon="8.2875583"><ele>159.0</ele><time>2026-03-21T09:40:51.4Z</time></trkpt><trkpt lat="34.3095917" lon="8.2873233"><ele>159.0</ele><time>2026-03-21T09:40:52.4Z</time></trkpt><trkpt lat="34.3095317" lon="8.2870867"><ele>159.0</ele><time>2026-03-21T09:40:53.4Z</time></trkpt><trkpt lat="34.3094733" lon="8.2868467"><ele>159.0</ele><time>2026-03-21T09:40:54.402Z</time></trkpt><trkpt lat="34.3094133" lon="8.28661"><ele>158.33333333333334</ele><time>2026-03-21T09:40:55.401Z</time></trkpt><trkpt lat="34.309355" lon="8.2863733"><ele>157.66666666666669</ele><time>2026-03-21T09:40:56.402Z</time></trkpt><trkpt lat="34.3092983" lon="8.2861417"><ele>157.0</ele><time>2026-03-21T09:40:57.401Z</time></trkpt><trkpt lat="34.3092417" lon="8.2859117"><ele>157.0</ele><time>2026-03-21T09:40:58.4Z</time></trkpt><trkpt lat="34.3091867" lon="8.28569"><ele>157.0</ele><time>2026-03-21T09:40:59.401Z</time></trkpt><trkpt lat="34.30913" lon="8.2854717"><ele>157.0</ele><time>2026-03-21T09:41:00.402Z</time></trkpt><trkpt lat="34.3090717" lon="8.2852567"><ele>157.0</ele><time>2026-03-21T09:41:01.401Z</time></trkpt><trkpt lat="34.30902" lon="8.2850383"><ele>157.0</ele><time>2026-03-21T09:41:02.403Z</time></trkpt><trkpt lat="34.308975" lon="8.284815"><ele>157.0</ele><time>2026-03-21T09:41:03.401Z</time></trkpt><trkpt lat="34.3089367" lon="8.2845917"><ele>156.0</ele><time>2026-03-21T09:41:04.4Z</time></trkpt><trkpt lat="34.3089033" lon="8.284365"><ele>155.0</ele><time>2026-03-21T09:41:05.401Z</time></trkpt><trkpt lat="34.3088733" lon="8.2841417"><ele>154.0</ele><time>2026-03-21T09:41:06.402Z</time></trkpt><trkpt lat="34.3088483" lon="8.2839133"><ele>153.66666666666669</ele><time>2026-03-21T09:41:07.402Z</time></trkpt><trkpt lat="34.308825" lon="8.2836817"><ele>153.33333333333334</ele><time>2026-03-21T09:41:08.402Z</time></trkpt><trkpt lat="34.3088033" lon="8.2834517"><ele>153.0</ele><time>2026-03-21T09:41:09.401Z</time></trkpt><trkpt lat="34.3087817" lon="8.283225"><ele>153.0</ele><time>2026-03-21T09:41:10.405Z</time></trkpt><trkpt lat="34.3087583" lon="8.2830017"><ele>153.0</ele><time>2026-03-21T09:41:11.401Z</time></trkpt><trkpt lat="34.3087333" lon="8.2827767"><ele>153.0</ele><time>2026-03-21T09:41:12.401Z</time></trkpt><trkpt lat="34.3087083" lon="8.28255"><ele>153.0</ele><time>2026-03-21T09:41:13.4Z</time></trkpt><trkpt lat="34.3086817" lon="8.2823233"><ele>153.0</ele><time>2026-03-21T09:41:14.401Z</time></trkpt><trkpt lat="34.3086583" lon="8.2820933"><ele>153.0</ele><time>2026-03-21T09:41:15.4Z</time></trkpt><trkpt lat="34.308635" lon="8.2818617"><ele>153.0</ele><time>2026-03-21T09:41:16.401Z</time></trkpt><trkpt lat="34.3086183" lon="8.2816317"><ele>153.0</ele><time>2026-03-21T09:41:17.401Z</time></trkpt><trkpt lat="34.3086083" lon="8.2814083"><ele>153.0</ele><time>2026-03-21T09:41:18.401Z</time></trkpt><trkpt lat="34.308615" lon="8.2811867"><ele>153.0</ele><time>2026-03-21T09:41:19.402Z</time></trkpt><trkpt lat="34.30863" lon="8.2809583"><ele>153.0</ele><time>2026-03-21T09:41:20.401Z</time></trkpt><trkpt lat="34.3086533" lon="8.2807317"><ele>153.0</ele><time>2026-03-21T09:41:21.401Z</time></trkpt><trkpt lat="34.3086783" lon="8.28051"><ele>152.66666666666666</ele><time>2026-03-21T09:41:22.401Z</time></trkpt><trkpt lat="34.3087" lon="8.2802917"><ele>152.33333333333331</ele><time>2026-03-21T09:41:23.401Z</time></trkpt><trkpt lat="34.308725" lon="8.2800717"><ele>152.0</ele><time>2026-03-21T09:41:24.401Z</time></trkpt><trkpt lat="34.308755" lon="8.2798483"><ele>151.33333333333331</ele><time>2026-03-21T09:41:25.402Z</time></trkpt><trkpt lat="34.308785" lon="8.2796283"><ele>150.66666666666666</ele><time>2026-03-21T09:41:26.401Z</time></trkpt><trkpt lat="34.3088217" lon="8.2794083"><ele>150.0</ele><time>2026-03-21T09:41:27.402Z</time></trkpt><trkpt lat="34.3088617" lon="8.2791917"><ele>150.0</ele><time>2026-03-21T09:41:28.4Z</time></trkpt><trkpt lat="34.3089117" lon="8.2789733"><ele>150.0</ele><time>2026-03-21T09:41:29.401Z</time></trkpt><trkpt lat="34.3089667" lon="8.2787567"><ele>150.0</ele><time>2026-03-21T09:41:30.402Z</time></trkpt><trkpt lat="34.3090233" lon="8.2785383"><ele>149.66666666666666</ele><time>2026-03-21T09:41:31.4Z</time></trkpt><trkpt lat="34.309085" lon="8.2783167"><ele>149.33333333333331</ele><time>2026-03-21T09:41:32.401Z</time></trkpt><trkpt lat="34.3091467" lon="8.278095"><ele>149.0</ele><time>2026-03-21T09:41:33.401Z</time></trkpt><trkpt lat="34.3092067" lon="8.27788"><ele>149.0</ele><time>2026-03-21T09:41:34.4Z</time></trkpt><trkpt lat="34.3092667" lon="8.2776683"><ele>149.0</ele><time>2026-03-21T09:41:35.4Z</time></trkpt><trkpt lat="34.3093233" lon="8.277455"><ele>149.0</ele><time>2026-03-21T09:41:36.401Z</time></trkpt><trkpt lat="34.3093817" lon="8.2772367"><ele>149.0</ele><time>2026-03-21T09:41:37.401Z</time></trkpt><trkpt lat="34.3094367" lon="8.2770283"><ele>149.0</ele><time>2026-03-21T09:41:38.402Z</time></trkpt><trkpt lat="34.30949" lon="8.2768333"><ele>149.0</ele><time>2026-03-21T09:41:39.4Z</time></trkpt><trkpt lat="34.3095417" lon="8.276645"><ele>149.0</ele><time>2026-03-21T09:41:40.4Z</time></trkpt><trkpt lat="34.3095917" lon="8.2764617"><ele>149.0</ele><time>2026-03-21T09:41:41.401Z</time></trkpt><trkpt lat="34.30964" lon="8.2762783"><ele>149.0</ele><time>2026-03-21T09:41:42.401Z</time></trkpt><trkpt lat="34.3096883" lon="8.2761017"><ele>148.66666666666666</ele><time>2026-03-21T09:41:43.404Z</time></trkpt><trkpt lat="34.30974" lon="8.275925"><ele>148.33333333333334</ele><time>2026-03-21T09:41:44.403Z</time></trkpt><trkpt lat="34.3097917" lon="8.275745"><ele>148.0</ele><time>2026-03-21T09:41:45.4Z</time></trkpt><trkpt lat="34.3098417" lon="8.275565"><ele>147.0</ele><time>2026-03-21T09:41:46.4Z</time></trkpt><trkpt lat="34.30989" lon="8.275385"><ele>146.0</ele><time>2026-03-21T09:41:47.401Z</time></trkpt><trkpt lat="34.3099433" lon="8.2752017"><ele>145.0</ele><time>2026-03-21T09:41:48.401Z</time></trkpt><trkpt lat="34.3099983" lon="8.2750117"><ele>145.0</ele><time>2026-03-21T09:41:49.401Z</time></trkpt><trkpt lat="34.3100567" lon="8.2748183"><ele>145.0</ele><time>2026-03-21T09:41:50.403Z</time></trkpt><trkpt lat="34.3101133" lon="8.2746233"><ele>145.0</ele><time>2026-03-21T09:41:51.4Z</time></trkpt><trkpt lat="34.3101717" lon="8.2744233"><ele>145.0</ele><time>2026-03-21T09:41:52.401Z</time></trkpt><trkpt lat="34.3102283" lon="8.27423"><ele>145.0</ele><time>2026-03-21T09:41:53.401Z</time></trkpt><trkpt lat="34.31028" lon="8.27405"><ele>145.0</ele><time>2026-03-21T09:41:54.401Z</time></trkpt><trkpt lat="34.310325" lon="8.273875"><ele>145.25</ele><time>2026-03-21T09:41:55.401Z</time></trkpt><trkpt lat="34.310355" lon="8.27371"><ele>145.5</ele><time>2026-03-21T09:41:56.401Z</time></trkpt><trkpt lat="34.3103683" lon="8.2735533"><ele>145.75</ele><time>2026-03-21T09:41:57.402Z</time></trkpt><trkpt lat="34.31035" lon="8.2734117"><ele>146.0</ele><time>2026-03-21T09:41:58.401Z</time></trkpt><trkpt lat="34.310315" lon="8.2732667"><ele>146.0</ele><time>2026-03-21T09:41:59.401Z</time></trkpt><trkpt lat="34.31025" lon="8.2731333"><ele>146.0</ele><time>2026-03-21T09:42:00.401Z</time></trkpt><trkpt lat="34.3101667" lon="8.273015"><ele>146.0</ele><time>2026-03-21T09:42:01.401Z</time></trkpt><trkpt lat="34.310065" lon="8.27291"><ele>146.0</ele><time>2026-03-21T09:42:02.402Z</time></trkpt><trkpt lat="34.3099433" lon="8.2728417"><ele>146.0</ele><time>2026-03-21T09:42:03.401Z</time></trkpt><trkpt lat="34.3098067" lon="8.27281"><ele>146.0</ele><time>2026-03-21T09:42:04.4Z</time></trkpt><trkpt lat="34.309665" lon="8.2727983"><ele>146.0</ele><time>2026-03-21T09:42:05.401Z</time></trkpt><trkpt lat="34.30952" lon="8.2728083"><ele>146.0</ele><time>2026-03-21T09:42:06.401Z</time></trkpt><trkpt lat="34.30936" lon="8.2728383"><ele>145.66666666666666</ele><time>2026-03-21T09:42:07.402Z</time></trkpt><trkpt lat="34.309205" lon="8.2728633"><ele>145.33333333333334</ele><time>2026-03-21T09:42:08.402Z</time></trkpt><trkpt lat="34.309045" lon="8.2728833"><ele>145.0</ele><time>2026-03-21T09:42:09.401Z</time></trkpt><trkpt lat="34.3088783" lon="8.272915"><ele>145.0</ele><time>2026-03-21T09:42:10.401Z</time></trkpt><trkpt lat="34.30871" lon="8.27295"><ele>145.0</ele><time>2026-03-21T09:42:11.401Z</time></trkpt><trkpt lat="34.3085367" lon="8.2729867"><ele>145.0</ele><time>2026-03-21T09:42:12.402Z</time></trkpt><trkpt lat="34.3083583" lon="8.2730167"><ele>145.0</ele><time>2026-03-21T09:42:13.401Z</time></trkpt><trkpt lat="34.3081667" lon="8.273055"><ele>145.0</ele><time>2026-03-21T09:42:14.401Z</time></trkpt><trkpt lat="34.3079767" lon="8.27309"><ele>145.0</ele><time>2026-03-21T09:42:15.401Z</time></trkpt><trkpt lat="34.3077917" lon="8.27312"><ele>145.0</ele><time>2026-03-21T09:42:16.4Z</time></trkpt><trkpt lat="34.307595" lon="8.27316"><ele>145.0</ele><time>2026-03-21T09:42:17.401Z</time></trkpt><trkpt lat="34.307405" lon="8.2731917"><ele>145.0</ele><time>2026-03-21T09:42:18.401Z</time></trkpt><trkpt lat="34.3072217" lon="8.27322"><ele>145.66666666666669</ele><time>2026-03-21T09:42:19.401Z</time></trkpt><trkpt lat="34.3070433" lon="8.2732467"><ele>146.33333333333334</ele><time>2026-03-21T09:42:20.401Z</time></trkpt><trkpt lat="34.30687" lon="8.2732733"><ele>147.0</ele><time>2026-03-21T09:42:21.4Z</time></trkpt><trkpt lat="34.3067017" lon="8.2733"><ele>147.0</ele><time>2026-03-21T09:42:22.4Z</time></trkpt><trkpt lat="34.3065367" lon="8.273325"><ele>147.0</ele><time>2026-03-21T09:42:23.4Z</time></trkpt><trkpt lat="34.30637" lon="8.2733517"><ele>147.0</ele><time>2026-03-21T09:42:24.401Z</time></trkpt><trkpt lat="34.3062033" lon="8.2733817"><ele>146.66666666666666</ele><time>2026-03-21T09:42:25.401Z</time></trkpt><trkpt lat="34.306035" lon="8.2734083"><ele>146.33333333333331</ele><time>2026-03-21T09:42:26.403Z</time></trkpt><trkpt lat="34.3058633" lon="8.2734367"><ele>146.0</ele><time>2026-03-21T09:42:27.401Z</time></trkpt><trkpt lat="34.3056883" lon="8.273465"><ele>146.33333333333331</ele><time>2026-03-21T09:42:28.4Z</time></trkpt><trkpt lat="34.30551" lon="8.273495"><ele>146.66666666666666</ele><time>2026-03-21T09:42:29.401Z</time></trkpt><trkpt lat="34.30533" lon="8.273525"><ele>147.0</ele><time>2026-03-21T09:42:30.401Z</time></trkpt><trkpt lat="34.305145" lon="8.2735567"><ele>147.0</ele><time>2026-03-21T09:42:31.402Z</time></trkpt><trkpt lat="34.3049533" lon="8.2735883"><ele>147.0</ele><time>2026-03-21T09:42:32.402Z</time></trkpt><trkpt lat="34.3047633" lon="8.27362"><ele>147.0</ele><time>2026-03-21T09:42:33.401Z</time></trkpt><trkpt lat="34.3045733" lon="8.2736467"><ele>146.66666666666666</ele><time>2026-03-21T09:42:34.401Z</time></trkpt><trkpt lat="34.30439" lon="8.2736733"><ele>146.33333333333331</ele><time>2026-03-21T09:42:35.402Z</time></trkpt><trkpt lat="34.3042117" lon="8.2737033"><ele>146.0</ele><time>2026-03-21T09:42:36.405Z</time></trkpt><trkpt lat="34.3040367" lon="8.2737283"><ele>146.66666666666666</ele><time>2026-03-21T09:42:37.401Z</time></trkpt><trkpt lat="34.3038667" lon="8.2737517"><ele>147.33333333333334</ele><time>2026-03-21T09:42:38.402Z</time></trkpt><trkpt lat="34.3036983" lon="8.2737767"><ele>148.0</ele><time>2026-03-21T09:42:39.402Z</time></trkpt><trkpt lat="34.3035317" lon="8.2738033"><ele>148.0</ele><time>2026-03-21T09:42:40.402Z</time></trkpt><trkpt lat="34.3033683" lon="8.273825"><ele>148.0</ele><time>2026-03-21T09:42:41.402Z</time></trkpt><trkpt lat="34.3032083" lon="8.2738483"><ele>148.0</ele><time>2026-03-21T09:42:42.401Z</time></trkpt><trkpt lat="34.30305" lon="8.2738733"><ele>148.25</ele><time>2026-03-21T09:42:43.401Z</time></trkpt><trkpt lat="34.3028967" lon="8.2738983"><ele>148.5</ele><time>2026-03-21T09:42:44.402Z</time></trkpt><trkpt lat="34.3027483" lon="8.2739233"><ele>148.75</ele><time>2026-03-21T09:42:45.401Z</time></trkpt><trkpt lat="34.3026067" lon="8.27395"><ele>149.0</ele><time>2026-03-21T09:42:46.4Z</time></trkpt><trkpt lat="34.3024733" lon="8.2739717"><ele>149.0</ele><time>2026-03-21T09:42:47.403Z</time></trkpt><trkpt lat="34.3023483" lon="8.2739917"><ele>149.0</ele><time>2026-03-21T09:42:48.401Z</time></trkpt><trkpt lat="34.3022283" lon="8.2740167"><ele>149.0</ele><time>2026-03-21T09:42:49.401Z</time></trkpt><trkpt lat="34.3021167" lon="8.2740417"><ele>149.0</ele><time>2026-03-21T09:42:50.402Z</time></trkpt><trkpt lat="34.3020133" lon="8.2740667"><ele>148.8</ele><time>2026-03-21T09:42:51.4Z</time></trkpt><trkpt lat="34.3019117" lon="8.2740833"><ele>148.60000000000002</ele><time>2026-03-21T09:42:52.401Z</time></trkpt><trkpt lat="34.301815" lon="8.2740883"><ele>148.4</ele><time>2026-03-21T09:42:53.401Z</time></trkpt><trkpt lat="34.3017267" lon="8.2740733"><ele>148.20000000000002</ele><time>2026-03-21T09:42:54.402Z</time></trkpt><trkpt lat="34.3016433" lon="8.2740417"><ele>148.0</ele><time>2026-03-21T09:42:55.401Z</time></trkpt><trkpt lat="34.301575" lon="8.2739867"><ele>148.4</ele><time>2026-03-21T09:42:56.401Z</time></trkpt><trkpt lat="34.3015183" lon="8.273915"><ele>148.8</ele><time>2026-03-21T09:42:57.4Z</time></trkpt><trkpt lat="34.30147" lon="8.27383"><ele>149.2</ele><time>2026-03-21T09:42:58.402Z</time></trkpt><trkpt lat="34.3014467" lon="8.2737067"><ele>149.6</ele><time>2026-03-21T09:42:59.402Z</time></trkpt><trkpt lat="34.3014567" lon="8.273525"><ele>150.0</ele><time>2026-03-21T09:43:00.403Z</time></trkpt><trkpt lat="34.301465" lon="8.27333"><ele>150.0</ele><time>2026-03-21T09:43:01.402Z</time></trkpt><trkpt lat="34.3014583" lon="8.27314"><ele>150.0</ele><time>2026-03-21T09:43:02.402Z</time></trkpt><trkpt lat="34.301445" lon="8.2729367"><ele>150.0</ele><time>2026-03-21T09:43:03.402Z</time></trkpt><trkpt lat="34.3014267" lon="8.2727267"><ele>149.0</ele><time>2026-03-21T09:43:04.4Z</time></trkpt><trkpt lat="34.3014033" lon="8.272515"><ele>148.0</ele><time>2026-03-21T09:43:05.401Z</time></trkpt><trkpt lat="34.3013783" lon="8.2722983"><ele>147.0</ele><time>2026-03-21T09:43:06.402Z</time></trkpt><trkpt lat="34.301355" lon="8.2720783"><ele>147.0</ele><time>2026-03-21T09:43:07.402Z</time></trkpt><trkpt lat="34.3013333" lon="8.27185"><ele>147.0</ele><time>2026-03-21T09:43:08.401Z</time></trkpt><trkpt lat="34.3013233" lon="8.2715983"><ele>147.0</ele><time>2026-03-21T09:43:09.4Z</time></trkpt><trkpt lat="34.3012983" lon="8.2713617"><ele>146.33333333333334</ele><time>2026-03-21T09:43:10.401Z</time></trkpt><trkpt lat="34.3012733" lon="8.2711217"><ele>145.66666666666669</ele><time>2026-03-21T09:43:11.402Z</time></trkpt><trkpt lat="34.3012517" lon="8.2708617"><ele>145.0</ele><time>2026-03-21T09:43:12.401Z</time></trkpt><trkpt lat="34.301225" lon="8.2706133"><ele>144.66666666666669</ele><time>2026-03-21T09:43:13.401Z</time></trkpt><trkpt lat="34.3011983" lon="8.2703567"><ele>144.33333333333334</ele><time>2026-03-21T09:43:14.402Z</time></trkpt><trkpt lat="34.3011733" lon="8.2700933"><ele>144.0</ele><time>2026-03-21T09:43:15.402Z</time></trkpt><trkpt lat="34.301145" lon="8.2698267"><ele>143.33333333333334</ele><time>2026-03-21T09:43:16.401Z</time></trkpt><trkpt lat="34.301115" lon="8.26956"><ele>142.66666666666669</ele><time>2026-03-21T09:43:17.4Z</time></trkpt><trkpt lat="34.3010883" lon="8.2692967"><ele>142.0</ele><time>2026-03-21T09:43:18.401Z</time></trkpt><trkpt lat="34.30106" lon="8.2690383"><ele>142.0</ele><time>2026-03-21T09:43:19.401Z</time></trkpt><trkpt lat="34.3010333" lon="8.268775"><ele>142.0</ele><time>2026-03-21T09:43:20.402Z</time></trkpt><trkpt lat="34.301005" lon="8.2685133"><ele>142.0</ele><time>2026-03-21T09:43:21.401Z</time></trkpt><trkpt lat="34.300975" lon="8.268255"><ele>142.33333333333334</ele><time>2026-03-21T09:43:22.401Z</time></trkpt><trkpt lat="34.3009483" lon="8.2679967"><ele>142.66666666666666</ele><time>2026-03-21T09:43:23.4Z</time></trkpt><trkpt lat="34.3009183" lon="8.2677417"><ele>143.0</ele><time>2026-03-21T09:43:24.4Z</time></trkpt><trkpt lat="34.30089" lon="8.2674867"><ele>143.0</ele><time>2026-03-21T09:43:25.401Z</time></trkpt><trkpt lat="34.30086" lon="8.2672333"><ele>143.0</ele><time>2026-03-21T09:43:26.402Z</time></trkpt><trkpt lat="34.3008317" lon="8.2669833"><ele>143.0</ele><time>2026-03-21T09:43:27.4Z</time></trkpt><trkpt lat="34.3008067" lon="8.2667317"><ele>143.0</ele><time>2026-03-21T09:43:28.4Z</time></trkpt><trkpt lat="34.30078" lon="8.2664833"><ele>143.0</ele><time>2026-03-21T09:43:29.401Z</time></trkpt><trkpt lat="34.3007567" lon="8.2662367"><ele>143.0</ele><time>2026-03-21T09:43:30.401Z</time></trkpt><trkpt lat="34.3007383" lon="8.2659883"><ele>143.33333333333331</ele><time>2026-03-21T09:43:31.4Z</time></trkpt><trkpt lat="34.3007117" lon="8.2657467"><ele>143.66666666666666</ele><time>2026-03-21T09:43:32.402Z</time></trkpt><trkpt lat="34.3006883" lon="8.2654983"><ele>144.0</ele><time>2026-03-21T09:43:33.4Z</time></trkpt><trkpt lat="34.3006633" lon="8.2652483"><ele>144.0</ele><time>2026-03-21T09:43:34.401Z</time></trkpt><trkpt lat="34.3006367" lon="8.265"><ele>144.0</ele><time>2026-03-21T09:43:35.401Z</time></trkpt><trkpt lat="34.3006083" lon="8.264755"><ele>144.0</ele><time>2026-03-21T09:43:36.401Z</time></trkpt><trkpt lat="34.3005867" lon="8.264505"><ele>143.66666666666666</ele><time>2026-03-21T09:43:37.4Z</time></trkpt><trkpt lat="34.3005617" lon="8.2642567"><ele>143.33333333333331</ele><time>2026-03-21T09:43:38.401Z</time></trkpt><trkpt lat="34.3005417" lon="8.264005"><ele>143.0</ele><time>2026-03-21T09:43:39.401Z</time></trkpt><trkpt lat="34.3005167" lon="8.26376"><ele>141.66666666666666</ele><time>2026-03-21T09:43:40.4Z</time></trkpt><trkpt lat="34.3004917" lon="8.2635183"><ele>140.33333333333334</ele><time>2026-03-21T09:43:41.401Z</time></trkpt><trkpt lat="34.300465" lon="8.263275"><ele>139.0</ele><time>2026-03-21T09:43:42.4Z</time></trkpt><trkpt lat="34.3004383" lon="8.2630317"><ele>139.0</ele><time>2026-03-21T09:43:43.401Z</time></trkpt><trkpt lat="34.30041" lon="8.262785"><ele>139.0</ele><time>2026-03-21T09:43:44.402Z</time></trkpt><trkpt lat="34.3003817" lon="8.2625367"><ele>139.0</ele><time>2026-03-21T09:43:45.4Z</time></trkpt><trkpt lat="34.3003533" lon="8.2622817"><ele>139.0</ele><time>2026-03-21T09:43:46.4Z</time></trkpt><trkpt lat="34.300325" lon="8.2620233"><ele>139.0</ele><time>2026-03-21T09:43:47.4Z</time></trkpt><trkpt lat="34.3003" lon="8.2617617"><ele>139.0</ele><time>2026-03-21T09:43:48.401Z</time></trkpt><trkpt lat="34.3002733" lon="8.2615"><ele>138.66666666666669</ele><time>2026-03-21T09:43:49.4Z</time></trkpt><trkpt lat="34.3002467" lon="8.2612367"><ele>138.33333333333334</ele><time>2026-03-21T09:43:50.401Z</time></trkpt><trkpt lat="34.3002183" lon="8.2609733"><ele>138.0</ele><time>2026-03-21T09:43:51.4Z</time></trkpt><trkpt lat="34.30019" lon="8.26071"><ele>137.33333333333334</ele><time>2026-03-21T09:43:52.403Z</time></trkpt><trkpt lat="34.3001667" lon="8.2604433"><ele>136.66666666666669</ele><time>2026-03-21T09:43:53.401Z</time></trkpt><trkpt lat="34.3001383" lon="8.2601833"><ele>136.0</ele><time>2026-03-21T09:43:54.4Z</time></trkpt><trkpt lat="34.3001133" lon="8.2599283"><ele>136.0</ele><time>2026-03-21T09:43:55.401Z</time></trkpt><trkpt lat="34.300085" lon="8.2596817"><ele>136.0</ele><time>2026-03-21T09:43:56.401Z</time></trkpt><trkpt lat="34.3000567" lon="8.2594383"><ele>136.0</ele><time>2026-03-21T09:43:57.401Z</time></trkpt><trkpt lat="34.30003" lon="8.2592"><ele>136.0</ele><time>2026-03-21T09:43:58.401Z</time></trkpt><trkpt lat="34.3000033" lon="8.25897"><ele>136.0</ele><time>2026-03-21T09:43:59.401Z</time></trkpt><trkpt lat="34.29998" lon="8.2587433"><ele>136.0</ele><time>2026-03-21T09:44:00.401Z</time></trkpt><trkpt lat="34.299955" lon="8.25852"><ele>136.33333333333334</ele><time>2026-03-21T09:44:01.402Z</time></trkpt><trkpt lat="34.2999283" lon="8.2582967"><ele>136.66666666666666</ele><time>2026-03-21T09:44:02.405Z</time></trkpt><trkpt lat="34.2999033" lon="8.258065"><ele>137.0</ele><time>2026-03-21T09:44:03.401Z</time></trkpt><trkpt lat="34.2998767" lon="8.257845"><ele>136.33333333333331</ele><time>2026-03-21T09:44:04.401Z</time></trkpt><trkpt lat="34.2998517" lon="8.25762"><ele>135.66666666666666</ele><time>2026-03-21T09:44:05.4Z</time></trkpt><trkpt lat="34.2998267" lon="8.2573967"><ele>135.0</ele><time>2026-03-21T09:44:06.402Z</time></trkpt><trkpt lat="34.2998" lon="8.257175"><ele>135.0</ele><time>2026-03-21T09:44:07.4Z</time></trkpt><trkpt lat="34.2997733" lon="8.25695"><ele>135.0</ele><time>2026-03-21T09:44:08.401Z</time></trkpt><trkpt lat="34.29975" lon="8.25672"><ele>135.0</ele><time>2026-03-21T09:44:09.401Z</time></trkpt><trkpt lat="34.2997267" lon="8.2564883"><ele>135.0</ele><time>2026-03-21T09:44:10.4Z</time></trkpt><trkpt lat="34.2997017" lon="8.2562483"><ele>135.0</ele><time>2026-03-21T09:44:11.402Z</time></trkpt><trkpt lat="34.299675" lon="8.2560133"><ele>135.0</ele><time>2026-03-21T09:44:12.401Z</time></trkpt><trkpt lat="34.2996517" lon="8.25578"><ele>135.0</ele><time>2026-03-21T09:44:13.401Z</time></trkpt><trkpt lat="34.2996267" lon="8.25555"><ele>135.0</ele><time>2026-03-21T09:44:14.401Z</time></trkpt><trkpt lat="34.2996033" lon="8.2553217"><ele>135.0</ele><time>2026-03-21T09:44:15.4Z</time></trkpt><trkpt lat="34.2995817" lon="8.2550917"><ele>135.0</ele><time>2026-03-21T09:44:16.4Z</time></trkpt><trkpt lat="34.29956" lon="8.254865"><ele>135.0</ele><time>2026-03-21T09:44:17.401Z</time></trkpt><trkpt lat="34.2995367" lon="8.2546367"><ele>135.0</ele><time>2026-03-21T09:44:18.402Z</time></trkpt><trkpt lat="34.29951" lon="8.2544067"><ele>135.33333333333334</ele><time>2026-03-21T09:44:19.4Z</time></trkpt><trkpt lat="34.2994867" lon="8.254175"><ele>135.66666666666669</ele><time>2026-03-21T09:44:20.401Z</time></trkpt><trkpt lat="34.299465" lon="8.253945"><ele>136.0</ele><time>2026-03-21T09:44:21.4Z</time></trkpt><trkpt lat="34.29944" lon="8.25372"><ele>135.33333333333334</ele><time>2026-03-21T09:44:22.401Z</time></trkpt><trkpt lat="34.299415" lon="8.2534917"><ele>134.66666666666666</ele><time>2026-03-21T09:44:23.4Z</time></trkpt><trkpt lat="34.2993883" lon="8.2532633"><ele>134.0</ele><time>2026-03-21T09:44:24.401Z</time></trkpt><trkpt lat="34.2993633" lon="8.2530367"><ele>133.33333333333331</ele><time>2026-03-21T09:44:25.401Z</time></trkpt><trkpt lat="34.2993367" lon="8.2528133"><ele>132.66666666666666</ele><time>2026-03-21T09:44:26.401Z</time></trkpt><trkpt lat="34.2993133" lon="8.2525867"><ele>132.0</ele><time>2026-03-21T09:44:27.4Z</time></trkpt><trkpt lat="34.2992883" lon="8.252355"><ele>131.66666666666666</ele><time>2026-03-21T09:44:28.401Z</time></trkpt><trkpt lat="34.2992617" lon="8.2521267"><ele>131.33333333333331</ele><time>2026-03-21T09:44:29.402Z</time></trkpt><trkpt lat="34.2992367" lon="8.2518967"><ele>131.0</ele><time>2026-03-21T09:44:30.401Z</time></trkpt><trkpt lat="34.2992133" lon="8.251665"><ele>130.66666666666666</ele><time>2026-03-21T09:44:31.401Z</time></trkpt><trkpt lat="34.29919" lon="8.2514333"><ele>130.33333333333334</ele><time>2026-03-21T09:44:32.401Z</time></trkpt><trkpt lat="34.2991667" lon="8.2512017"><ele>130.0</ele><time>2026-03-21T09:44:33.401Z</time></trkpt><trkpt lat="34.299145" lon="8.2509733"><ele>130.0</ele><time>2026-03-21T09:44:34.4Z</time></trkpt><trkpt lat="34.2991167" lon="8.2507417"><ele>130.0</ele><time>2026-03-21T09:44:35.4Z</time></trkpt><trkpt lat="34.2990917" lon="8.250505"><ele>130.0</ele><time>2026-03-21T09:44:36.401Z</time></trkpt><trkpt lat="34.2990667" lon="8.2502583"><ele>130.0</ele><time>2026-03-21T09:44:37.4Z</time></trkpt><trkpt lat="34.2990383" lon="8.2500117"><ele>130.0</ele><time>2026-03-21T09:44:38.401Z</time></trkpt><trkpt lat="34.2990133" lon="8.2497583"><ele>130.0</ele><time>2026-03-21T09:44:39.401Z</time></trkpt><trkpt lat="34.2989883" lon="8.2495"><ele>130.0</ele><time>2026-03-21T09:44:40.4Z</time></trkpt><trkpt lat="34.2989683" lon="8.2492383"><ele>130.0</ele><time>2026-03-21T09:44:41.4Z</time></trkpt><trkpt lat="34.29894" lon="8.2489817"><ele>130.0</ele><time>2026-03-21T09:44:42.4Z</time></trkpt><trkpt lat="34.2989117" lon="8.248725"><ele>130.0</ele><time>2026-03-21T09:44:43.4Z</time></trkpt><trkpt lat="34.2988833" lon="8.2484683"><ele>130.0</ele><time>2026-03-21T09:44:44.401Z</time></trkpt><trkpt lat="34.2988533" lon="8.2482167"><ele>130.0</ele><time>2026-03-21T09:44:45.4Z</time></trkpt><trkpt lat="34.298825" lon="8.24796"><ele>129.66666666666669</ele><time>2026-03-21T09:44:46.401Z</time></trkpt><trkpt lat="34.2987967" lon="8.2477017"><ele>129.33333333333334</ele><time>2026-03-21T09:44:47.401Z</time></trkpt><trkpt lat="34.2987667" lon="8.2474483"><ele>129.0</ele><time>2026-03-21T09:44:48.401Z</time></trkpt><trkpt lat="34.29874" lon="8.2471917"><ele>129.0</ele><time>2026-03-21T09:44:49.401Z</time></trkpt><trkpt lat="34.29871" lon="8.24694"><ele>129.0</ele><time>2026-03-21T09:44:50.401Z</time></trkpt><trkpt lat="34.2986833" lon="8.2466833"><ele>129.0</ele><time>2026-03-21T09:44:51.4Z</time></trkpt><trkpt lat="34.2986567" lon="8.2464267"><ele>129.33333333333334</ele><time>2026-03-21T09:44:52.4Z</time></trkpt><trkpt lat="34.29863" lon="8.24617"><ele>129.66666666666669</ele><time>2026-03-21T09:44:53.402Z</time></trkpt><trkpt lat="34.298605" lon="8.2459117"><ele>130.0</ele><time>2026-03-21T09:44:54.402Z</time></trkpt><trkpt lat="34.2985817" lon="8.24565"><ele>129.66666666666669</ele><time>2026-03-21T09:44:55.404Z</time></trkpt><trkpt lat="34.298555" lon="8.2453883"><ele>129.33333333333334</ele><time>2026-03-21T09:44:56.402Z</time></trkpt><trkpt lat="34.2985267" lon="8.24513"><ele>129.0</ele><time>2026-03-21T09:44:57.401Z</time></trkpt><trkpt lat="34.2984983" lon="8.2448733"><ele>129.33333333333334</ele><time>2026-03-21T09:44:58.4Z</time></trkpt><trkpt lat="34.2984667" lon="8.244615"><ele>129.66666666666669</ele><time>2026-03-21T09:44:59.401Z</time></trkpt><trkpt lat="34.2984367" lon="8.244355"><ele>130.0</ele><time>2026-03-21T09:45:00.4Z</time></trkpt><trkpt lat="34.2984067" lon="8.2440917"><ele>128.0</ele><time>2026-03-21T09:45:01.401Z</time></trkpt><trkpt lat="34.2983817" lon="8.243825"><ele>126.0</ele><time>2026-03-21T09:45:02.401Z</time></trkpt><trkpt lat="34.2983567" lon="8.24355"><ele>126.0</ele><time>2026-03-21T09:45:03.4Z</time></trkpt><trkpt lat="34.29833" lon="8.2432733"><ele>126.0</ele><time>2026-03-21T09:45:04.4Z</time></trkpt><trkpt lat="34.2983017" lon="8.2429933"><ele>126.0</ele><time>2026-03-21T09:45:05.4Z</time></trkpt><trkpt lat="34.298275" lon="8.2427133"><ele>126.0</ele><time>2026-03-21T09:45:06.402Z</time></trkpt><trkpt lat="34.2982483" lon="8.2424333"><ele>126.5</ele><time>2026-03-21T09:45:07.4Z</time></trkpt><trkpt lat="34.29822" lon="8.2421517"><ele>127.0</ele><time>2026-03-21T09:45:08.401Z</time></trkpt><trkpt lat="34.2981917" lon="8.2418717"><ele>127.0</ele><time>2026-03-21T09:45:09.401Z</time></trkpt><trkpt lat="34.2981617" lon="8.2415917"><ele>127.0</ele><time>2026-03-21T09:45:10.4Z</time></trkpt><trkpt lat="34.298135" lon="8.24131"><ele>126.0</ele><time>2026-03-21T09:45:11.4Z</time></trkpt><trkpt lat="34.2981067" lon="8.2410267"><ele>125.0</ele><time>2026-03-21T09:45:12.401Z</time></trkpt><trkpt lat="34.2980783" lon="8.24074"><ele>124.5</ele><time>2026-03-21T09:45:13.4Z</time></trkpt><trkpt lat="34.2980517" lon="8.2404467"><ele>124.0</ele><time>2026-03-21T09:45:14.402Z</time></trkpt><trkpt lat="34.2980233" lon="8.2401583"><ele>124.0</ele><time>2026-03-21T09:45:15.401Z</time></trkpt><trkpt lat="34.2979933" lon="8.2398733"><ele>124.0</ele><time>2026-03-21T09:45:16.4Z</time></trkpt><trkpt lat="34.297965" lon="8.239585"><ele>123.5</ele><time>2026-03-21T09:45:17.4Z</time></trkpt><trkpt lat="34.2979367" lon="8.23929"><ele>123.0</ele><time>2026-03-21T09:45:18.401Z</time></trkpt><trkpt lat="34.2978783" lon="8.2387117"><ele>123.0</ele><time>2026-03-21T09:45:20.402Z</time></trkpt><trkpt lat="34.2978467" lon="8.2384283"><ele>123.0</ele><time>2026-03-21T09:45:21.401Z</time></trkpt><trkpt lat="34.297815" lon="8.2381383"><ele>121.5</ele><time>2026-03-21T09:45:22.401Z</time></trkpt><trkpt lat="34.2977817" lon="8.2378483"><ele>120.0</ele><time>2026-03-21T09:45:23.4Z</time></trkpt><trkpt lat="34.2977483" lon="8.237555"><ele>121.5</ele><time>2026-03-21T09:45:24.4Z</time></trkpt><trkpt lat="34.2977183" lon="8.237265"><ele>123.0</ele><time>2026-03-21T09:45:25.4Z</time></trkpt><trkpt lat="34.297685" lon="8.23698"><ele>123.0</ele><time>2026-03-21T09:45:26.401Z</time></trkpt><trkpt lat="34.29765" lon="8.2367017"><ele>123.0</ele><time>2026-03-21T09:45:27.4Z</time></trkpt><trkpt lat="34.2976217" lon="8.236425"><ele>123.0</ele><time>2026-03-21T09:45:28.401Z</time></trkpt><trkpt lat="34.297595" lon="8.2361467"><ele>123.0</ele><time>2026-03-21T09:45:29.4Z</time></trkpt><trkpt lat="34.2975683" lon="8.235865"><ele>122.5</ele><time>2026-03-21T09:45:30.4Z</time></trkpt><trkpt lat="34.2975417" lon="8.2355817"><ele>122.0</ele><time>2026-03-21T09:45:31.4Z</time></trkpt><trkpt lat="34.29751" lon="8.2353"><ele>122.0</ele><time>2026-03-21T09:45:32.401Z</time></trkpt><trkpt lat="34.2974783" lon="8.2350183"><ele>122.0</ele><time>2026-03-21T09:45:33.4Z</time></trkpt><trkpt lat="34.2974467" lon="8.2347333"><ele>121.5</ele><time>2026-03-21T09:45:34.401Z</time></trkpt><trkpt lat="34.2974167" lon="8.2344517"><ele>121.0</ele><time>2026-03-21T09:45:35.402Z</time></trkpt><trkpt lat="34.2973867" lon="8.23417"><ele>119.5</ele><time>2026-03-21T09:45:36.402Z</time></trkpt><trkpt lat="34.2973533" lon="8.2338833"><ele>118.0</ele><time>2026-03-21T09:45:37.4Z</time></trkpt><trkpt lat="34.29732" lon="8.233595"><ele>118.0</ele><time>2026-03-21T09:45:38.402Z</time></trkpt><trkpt lat="34.297285" lon="8.2333067"><ele>118.0</ele><time>2026-03-21T09:45:39.401Z</time></trkpt><trkpt lat="34.29725" lon="8.2330133"><ele>118.5</ele><time>2026-03-21T09:45:40.401Z</time></trkpt><trkpt lat="34.2972133" lon="8.2327167"><ele>119.0</ele><time>2026-03-21T09:45:41.402Z</time></trkpt><trkpt lat="34.2971767" lon="8.23242"><ele>118.0</ele><time>2026-03-21T09:45:42.4Z</time></trkpt><trkpt lat="34.2971433" lon="8.2321167"><ele>117.0</ele><time>2026-03-21T09:45:43.401Z</time></trkpt><trkpt lat="34.297115" lon="8.231815"><ele>117.0</ele><time>2026-03-21T09:45:44.402Z</time></trkpt><trkpt lat="34.297095" lon="8.2314967"><ele>117.0</ele><time>2026-03-21T09:45:45.402Z</time></trkpt><trkpt lat="34.297065" lon="8.2311833"><ele>117.0</ele><time>2026-03-21T09:45:46.401Z</time></trkpt><trkpt lat="34.2970283" lon="8.2308683"><ele>117.0</ele><time>2026-03-21T09:45:47.401Z</time></trkpt><trkpt lat="34.296995" lon="8.2305517"><ele>116.5</ele><time>2026-03-21T09:45:48.401Z</time></trkpt><trkpt lat="34.2969617" lon="8.2302383"><ele>116.0</ele><time>2026-03-21T09:45:49.401Z</time></trkpt><trkpt lat="34.29693" lon="8.2299283"><ele>116.0</ele><time>2026-03-21T09:45:50.405Z</time></trkpt><trkpt lat="34.2969" lon="8.2296233"><ele>116.0</ele><time>2026-03-21T09:45:51.401Z</time></trkpt><trkpt lat="34.2968683" lon="8.229315"><ele>116.0</ele><time>2026-03-21T09:45:52.403Z</time></trkpt><trkpt lat="34.2968367" lon="8.2290083"><ele>116.0</ele><time>2026-03-21T09:45:53.4Z</time></trkpt><trkpt lat="34.2968017" lon="8.2287"><ele>116.5</ele><time>2026-03-21T09:45:54.403Z</time></trkpt><trkpt lat="34.2967717" lon="8.228395"><ele>117.0</ele><time>2026-03-21T09:45:55.401Z</time></trkpt><trkpt lat="34.2967401" lon="8.2280897"><ele>115.0</ele><time>2026-03-21T09:45:56.401Z</time></trkpt><trkpt lat="34.2967129" lon="8.2277847"><ele>113.0</ele><time>2026-03-21T09:45:57.4Z</time></trkpt><trkpt lat="34.2966874" lon="8.2274743"><ele>113.5</ele><time>2026-03-21T09:45:58.405Z</time></trkpt><trkpt lat="34.2966585" lon="8.2271657"><ele>114.0</ele><time>2026-03-21T09:45:59.401Z</time></trkpt><trkpt lat="34.2966299" lon="8.226855"><ele>114.0</ele><time>2026-03-21T09:46:00.401Z</time></trkpt><trkpt lat="34.2966014" lon="8.2265416"><ele>114.0</ele><time>2026-03-21T09:46:01.401Z</time></trkpt><trkpt lat="34.2965712" lon="8.2262238"><ele>114.0</ele><time>2026-03-21T09:46:02.402Z</time></trkpt><trkpt lat="34.2965409" lon="8.2259067"><ele>114.0</ele><time>2026-03-21T09:46:03.401Z</time></trkpt><trkpt lat="34.2965109" lon="8.2255929"><ele>114.0</ele><time>2026-03-21T09:46:04.4Z</time></trkpt><trkpt lat="34.2964798" lon="8.2252881"><ele>114.0</ele><time>2026-03-21T09:46:05.402Z</time></trkpt><trkpt lat="34.2964486" lon="8.2249939"><ele>114.0</ele><time>2026-03-21T09:46:06.401Z</time></trkpt><trkpt lat="34.2964211" lon="8.2247048"><ele>114.0</ele><time>2026-03-21T09:46:07.401Z</time></trkpt><trkpt lat="34.2963949" lon="8.2244229"><ele>114.33333333333334</ele><time>2026-03-21T09:46:08.402Z</time></trkpt><trkpt lat="34.2963678" lon="8.2241529"><ele>114.66666666666667</ele><time>2026-03-21T09:46:09.4Z</time></trkpt><trkpt lat="34.2963425" lon="8.2238911"><ele>115.0</ele><time>2026-03-21T09:46:10.401Z</time></trkpt><trkpt lat="34.2963171" lon="8.2236407"><ele>115.0</ele><time>2026-03-21T09:46:11.401Z</time></trkpt><trkpt lat="34.2962918" lon="8.2233921"><ele>115.0</ele><time>2026-03-21T09:46:12.401Z</time></trkpt><trkpt lat="34.296263" lon="8.2231457"><ele>115.0</ele><time>2026-03-21T09:46:13.401Z</time></trkpt><trkpt lat="34.2962336" lon="8.2228957"><ele>115.0</ele><time>2026-03-21T09:46:14.401Z</time></trkpt><trkpt lat="34.2962047" lon="8.2226428"><ele>115.0</ele><time>2026-03-21T09:46:15.402Z</time></trkpt><trkpt lat="34.2961762" lon="8.2223879"><ele>115.0</ele><time>2026-03-21T09:46:16.4Z</time></trkpt><trkpt lat="34.2961491" lon="8.2221286"><ele>114.66666666666667</ele><time>2026-03-21T09:46:17.401Z</time></trkpt><trkpt lat="34.2961227" lon="8.2218683"><ele>114.33333333333334</ele><time>2026-03-21T09:46:18.401Z</time></trkpt><trkpt lat="34.2960955" lon="8.2216026"><ele>114.0</ele><time>2026-03-21T09:46:19.401Z</time></trkpt><trkpt lat="34.2960625" lon="8.2213357"><ele>112.5</ele><time>2026-03-21T09:46:20.401Z</time></trkpt><trkpt lat="34.2960291" lon="8.2210657"><ele>111.0</ele><time>2026-03-21T09:46:21.401Z</time></trkpt><trkpt lat="34.2959981" lon="8.2207875"><ele>111.5</ele><time>2026-03-21T09:46:22.401Z</time></trkpt><trkpt lat="34.2959683" lon="8.2205"><ele>112.0</ele><time>2026-03-21T09:46:23.402Z</time></trkpt><trkpt lat="34.2959385" lon="8.2202094"><ele>112.0</ele><time>2026-03-21T09:46:24.401Z</time></trkpt><trkpt lat="34.295906" lon="8.2199228"><ele>112.0</ele><time>2026-03-21T09:46:25.401Z</time></trkpt><trkpt lat="34.2958734" lon="8.2196378"><ele>111.5</ele><time>2026-03-21T09:46:26.401Z</time></trkpt><trkpt lat="34.2958413" lon="8.2193546"><ele>111.0</ele><time>2026-03-21T09:46:27.402Z</time></trkpt><trkpt lat="34.2958109" lon="8.2190716"><ele>110.5</ele><time>2026-03-21T09:46:28.401Z</time></trkpt><trkpt lat="34.2957833" lon="8.21879"><ele>110.0</ele><time>2026-03-21T09:46:29.401Z</time></trkpt><trkpt lat="34.2957517" lon="8.2185133"><ele>110.0</ele><time>2026-03-21T09:46:30.401Z</time></trkpt><trkpt lat="34.2957217" lon="8.2182467"><ele>110.0</ele><time>2026-03-21T09:46:31.4Z</time></trkpt><trkpt lat="34.2956933" lon="8.2179767"><ele>110.0</ele><time>2026-03-21T09:46:32.401Z</time></trkpt><trkpt lat="34.2956683" lon="8.2177083"><ele>110.0</ele><time>2026-03-21T09:46:33.4Z</time></trkpt><trkpt lat="34.2956433" lon="8.2174433"><ele>110.0</ele><time>2026-03-21T09:46:34.4Z</time></trkpt><trkpt lat="34.295615" lon="8.2171767"><ele>110.0</ele><time>2026-03-21T09:46:35.402Z</time></trkpt><trkpt lat="34.29559" lon="8.2168967"><ele>109.5</ele><time>2026-03-21T09:46:36.401Z</time></trkpt><trkpt lat="34.2955617" lon="8.2166183"><ele>109.0</ele><time>2026-03-21T09:46:37.401Z</time></trkpt><trkpt lat="34.2955283" lon="8.2163383"><ele>108.5</ele><time>2026-03-21T09:46:38.402Z</time></trkpt><trkpt lat="34.2954983" lon="8.2160567"><ele>108.0</ele><time>2026-03-21T09:46:39.4Z</time></trkpt><trkpt lat="34.2954717" lon="8.2157733"><ele>108.0</ele><time>2026-03-21T09:46:40.4Z</time></trkpt><trkpt lat="34.29544" lon="8.2154883"><ele>108.0</ele><time>2026-03-21T09:46:41.4Z</time></trkpt><trkpt lat="34.2954117" lon="8.2151983"><ele>108.0</ele><time>2026-03-21T09:46:42.401Z</time></trkpt><trkpt lat="34.2953817" lon="8.214905"><ele>108.0</ele><time>2026-03-21T09:46:43.4Z</time></trkpt><trkpt lat="34.2953533" lon="8.2146133"><ele>107.0</ele><time>2026-03-21T09:46:44.402Z</time></trkpt><trkpt lat="34.2953233" lon="8.214325"><ele>106.0</ele><time>2026-03-21T09:46:45.401Z</time></trkpt><trkpt lat="34.29529" lon="8.2140333"><ele>107.0</ele><time>2026-03-21T09:46:46.4Z</time></trkpt><trkpt lat="34.2952533" lon="8.21374"><ele>108.0</ele><time>2026-03-21T09:46:47.401Z</time></trkpt><trkpt lat="34.2952167" lon="8.2134433"><ele>107.5</ele><time>2026-03-21T09:46:48.401Z</time></trkpt><trkpt lat="34.2951833" lon="8.213145"><ele>107.0</ele><time>2026-03-21T09:46:49.401Z</time></trkpt><trkpt lat="34.2951533" lon="8.2128533"><ele>107.0</ele><time>2026-03-21T09:46:50.401Z</time></trkpt><trkpt lat="34.2951267" lon="8.2125717"><ele>107.0</ele><time>2026-03-21T09:46:51.401Z</time></trkpt><trkpt lat="34.2951017" lon="8.2123017"><ele>107.66666666666666</ele><time>2026-03-21T09:46:52.4Z</time></trkpt><trkpt lat="34.295075" lon="8.2120333"><ele>108.33333333333334</ele><time>2026-03-21T09:46:53.401Z</time></trkpt><trkpt lat="34.2950467" lon="8.2117667"><ele>109.0</ele><time>2026-03-21T09:46:54.401Z</time></trkpt><trkpt lat="34.29502" lon="8.2115067"><ele>108.0</ele><time>2026-03-21T09:46:55.401Z</time></trkpt><trkpt lat="34.2949917" lon="8.21125"><ele>107.0</ele><time>2026-03-21T09:46:56.401Z</time></trkpt><trkpt lat="34.2949683" lon="8.2109933"><ele>106.0</ele><time>2026-03-21T09:46:57.401Z</time></trkpt><trkpt lat="34.29494" lon="8.2107383"><ele>106.0</ele><time>2026-03-21T09:46:58.4Z</time></trkpt><trkpt lat="34.2949" lon="8.210485"><ele>106.0</ele><time>2026-03-21T09:46:59.4Z</time></trkpt><trkpt lat="34.2948433" lon="8.2102367"><ele>106.0</ele><time>2026-03-21T09:47:00.4Z</time></trkpt><trkpt lat="34.2947717" lon="8.2099917"><ele>106.33333333333334</ele><time>2026-03-21T09:47:01.402Z</time></trkpt><trkpt lat="34.294695" lon="8.20975"><ele>106.66666666666666</ele><time>2026-03-21T09:47:02.401Z</time></trkpt><trkpt lat="34.2946167" lon="8.2095067"><ele>107.0</ele><time>2026-03-21T09:47:03.4Z</time></trkpt><trkpt lat="34.294555" lon="8.20926"><ele>107.0</ele><time>2026-03-21T09:47:04.4Z</time></trkpt><trkpt lat="34.2945067" lon="8.2090067"><ele>107.0</ele><time>2026-03-21T09:47:05.401Z</time></trkpt><trkpt lat="34.29446" lon="8.2087617"><ele>107.0</ele><time>2026-03-21T09:47:06.401Z</time></trkpt><trkpt lat="34.294415" lon="8.20853"><ele>106.33333333333333</ele><time>2026-03-21T09:47:07.405Z</time></trkpt><trkpt lat="34.294365" lon="8.2083083"><ele>105.66666666666666</ele><time>2026-03-21T09:47:08.402Z</time></trkpt><trkpt lat="34.2943067" lon="8.2081017"><ele>105.0</ele><time>2026-03-21T09:47:09.4Z</time></trkpt><trkpt lat="34.294215" lon="8.2079233"><ele>105.0</ele><time>2026-03-21T09:47:10.4Z</time></trkpt><trkpt lat="34.2941017" lon="8.2077633"><ele>105.0</ele><time>2026-03-21T09:47:11.402Z</time></trkpt><trkpt lat="34.29397" lon="8.2076217"><ele>105.0</ele><time>2026-03-21T09:47:12.4Z</time></trkpt><trkpt lat="34.2938367" lon="8.2074867"><ele>105.0</ele><time>2026-03-21T09:47:13.401Z</time></trkpt><trkpt lat="34.2937" lon="8.2073667"><ele>105.0</ele><time>2026-03-21T09:47:14.402Z</time></trkpt><trkpt lat="34.2935617" lon="8.2072367"><ele>105.0</ele><time>2026-03-21T09:47:15.401Z</time></trkpt><trkpt lat="34.293425" lon="8.207095"><ele>104.66666666666666</ele><time>2026-03-21T09:47:16.4Z</time></trkpt><trkpt lat="34.2932967" lon="8.2069433"><ele>104.33333333333333</ele><time>2026-03-21T09:47:17.4Z</time></trkpt><trkpt lat="34.2931767" lon="8.20678"><ele>104.0</ele><time>2026-03-21T09:47:18.4Z</time></trkpt><trkpt lat="34.2930533" lon="8.206615"><ele>102.66666666666666</ele><time>2026-03-21T09:47:19.401Z</time></trkpt><trkpt lat="34.2929283" lon="8.2064533"><ele>101.33333333333334</ele><time>2026-03-21T09:47:20.401Z</time></trkpt><trkpt lat="34.292795" lon="8.2062983"><ele>100.0</ele><time>2026-03-21T09:47:21.4Z</time></trkpt><trkpt lat="34.292655" lon="8.2061533"><ele>100.0</ele><time>2026-03-21T09:47:22.401Z</time></trkpt><trkpt lat="34.2925117" lon="8.2060133"><ele>100.0</ele><time>2026-03-21T09:47:23.401Z</time></trkpt><trkpt lat="34.2923617" lon="8.2058767"><ele>100.0</ele><time>2026-03-21T09:47:24.401Z</time></trkpt><trkpt lat="34.2922117" lon="8.205735"><ele>99.66666666666667</ele><time>2026-03-21T09:47:25.401Z</time></trkpt><trkpt lat="34.2920633" lon="8.2055867"><ele>99.33333333333334</ele><time>2026-03-21T09:47:26.401Z</time></trkpt><trkpt lat="34.29191" lon="8.205435"><ele>99.0</ele><time>2026-03-21T09:47:27.4Z</time></trkpt><trkpt lat="34.29176" lon="8.2052767"><ele>99.0</ele><time>2026-03-21T09:47:28.401Z</time></trkpt><trkpt lat="34.2916133" lon="8.2051117"><ele>99.0</ele><time>2026-03-21T09:47:29.401Z</time></trkpt><trkpt lat="34.2914667" lon="8.204945"><ele>99.0</ele><time>2026-03-21T09:47:30.401Z</time></trkpt><trkpt lat="34.291325" lon="8.2047817"><ele>99.0</ele><time>2026-03-21T09:47:31.401Z</time></trkpt><trkpt lat="34.2911783" lon="8.2046333"><ele>99.0</ele><time>2026-03-21T09:47:32.401Z</time></trkpt><trkpt lat="34.29103" lon="8.2045"><ele>99.0</ele><time>2026-03-21T09:47:33.4Z</time></trkpt><trkpt lat="34.2908783" lon="8.2043783"><ele>99.0</ele><time>2026-03-21T09:47:34.401Z</time></trkpt><trkpt lat="34.290715" lon="8.2042733"><ele>99.0</ele><time>2026-03-21T09:47:35.4Z</time></trkpt><trkpt lat="34.2905433" lon="8.2041817"><ele>99.0</ele><time>2026-03-21T09:47:36.401Z</time></trkpt><trkpt lat="34.2903683" lon="8.2040933"><ele>98.66666666666666</ele><time>2026-03-21T09:47:37.401Z</time></trkpt><trkpt lat="34.290195" lon="8.2039967"><ele>98.33333333333333</ele><time>2026-03-21T09:47:38.402Z</time></trkpt><trkpt lat="34.2900183" lon="8.20389"><ele>98.0</ele><time>2026-03-21T09:47:39.401Z</time></trkpt><trkpt lat="34.2898467" lon="8.2037683"><ele>98.33333333333333</ele><time>2026-03-21T09:47:40.4Z</time></trkpt><trkpt lat="34.2896833" lon="8.20363"><ele>98.66666666666666</ele><time>2026-03-21T09:47:41.401Z</time></trkpt><trkpt lat="34.2895283" lon="8.2034767"><ele>99.0</ele><time>2026-03-21T09:47:42.401Z</time></trkpt><trkpt lat="34.28939" lon="8.2033017"><ele>99.33333333333334</ele><time>2026-03-21T09:47:43.401Z</time></trkpt><trkpt lat="34.2892583" lon="8.2031083"><ele>99.66666666666667</ele><time>2026-03-21T09:47:44.401Z</time></trkpt><trkpt lat="34.289135" lon="8.2029017"><ele>100.0</ele><time>2026-03-21T09:47:45.4Z</time></trkpt><trkpt lat="34.2890083" lon="8.2026917"><ele>100.0</ele><time>2026-03-21T09:47:46.401Z</time></trkpt><trkpt lat="34.2888867" lon="8.2024817"><ele>100.0</ele><time>2026-03-21T09:47:47.4Z</time></trkpt><trkpt lat="34.2887733" lon="8.202275"><ele>100.0</ele><time>2026-03-21T09:47:48.402Z</time></trkpt><trkpt lat="34.2886633" lon="8.2020833"><ele>100.0</ele><time>2026-03-21T09:47:49.401Z</time></trkpt><trkpt lat="34.2885683" lon="8.201875"><ele>100.0</ele><time>2026-03-21T09:47:50.401Z</time></trkpt><trkpt lat="34.288485" lon="8.2016583"><ele>100.0</ele><time>2026-03-21T09:47:51.401Z</time></trkpt><trkpt lat="34.28841" lon="8.20144"><ele>100.0</ele><time>2026-03-21T09:47:52.4Z</time></trkpt><trkpt lat="34.2883433" lon="8.201215"><ele>100.0</ele><time>2026-03-21T09:47:53.402Z</time></trkpt><trkpt lat="34.2882867" lon="8.2009817"><ele>100.0</ele><time>2026-03-21T09:47:54.402Z</time></trkpt><trkpt lat="34.2882367" lon="8.20074"><ele>99.66666666666667</ele><time>2026-03-21T09:47:55.403Z</time></trkpt><trkpt lat="34.2881933" lon="8.200495"><ele>99.33333333333334</ele><time>2026-03-21T09:47:56.402Z</time></trkpt><trkpt lat="34.288165" lon="8.2002467"><ele>99.0</ele><time>2026-03-21T09:47:57.401Z</time></trkpt><trkpt lat="34.2881483" lon="8.199995"><ele>99.0</ele><time>2026-03-21T09:47:58.401Z</time></trkpt><trkpt lat="34.2881417" lon="8.199745"><ele>99.0</ele><time>2026-03-21T09:47:59.4Z</time></trkpt><trkpt lat="34.288145" lon="8.1994983"><ele>99.0</ele><time>2026-03-21T09:48:00.401Z</time></trkpt><trkpt lat="34.288165" lon="8.199255"><ele>99.0</ele><time>2026-03-21T09:48:01.401Z</time></trkpt><trkpt lat="34.2881933" lon="8.1990183"><ele>99.0</ele><time>2026-03-21T09:48:02.401Z</time></trkpt><trkpt lat="34.288235" lon="8.198785"><ele>99.0</ele><time>2026-03-21T09:48:03.4Z</time></trkpt><trkpt lat="34.288275" lon="8.198555"><ele>98.33333333333334</ele><time>2026-03-21T09:48:04.401Z</time></trkpt><trkpt lat="34.288305" lon="8.1983183"><ele>97.66666666666667</ele><time>2026-03-21T09:48:05.401Z</time></trkpt><trkpt lat="34.2883233" lon="8.1980767"><ele>97.0</ele><time>2026-03-21T09:48:06.4Z</time></trkpt><trkpt lat="34.288325" lon="8.1978267"><ele>97.0</ele><time>2026-03-21T09:48:07.4Z</time></trkpt><trkpt lat="34.2883217" lon="8.19757"><ele>97.0</ele><time>2026-03-21T09:48:08.401Z</time></trkpt><trkpt lat="34.28831" lon="8.1973083"><ele>97.0</ele><time>2026-03-21T09:48:09.4Z</time></trkpt><trkpt lat="34.2883033" lon="8.1970433"><ele>97.5</ele><time>2026-03-21T09:48:10.4Z</time></trkpt><trkpt lat="34.2883067" lon="8.196765"><ele>98.0</ele><time>2026-03-21T09:48:11.401Z</time></trkpt><trkpt lat="34.2883133" lon="8.196475"><ele>97.0</ele><time>2026-03-21T09:48:12.4Z</time></trkpt><trkpt lat="34.2883267" lon="8.1961933"><ele>96.0</ele><time>2026-03-21T09:48:13.401Z</time></trkpt><trkpt lat="34.2883467" lon="8.195915"><ele>96.0</ele><time>2026-03-21T09:48:14.402Z</time></trkpt><trkpt lat="34.2883683" lon="8.1956417"><ele>96.0</ele><time>2026-03-21T09:48:15.4Z</time></trkpt><trkpt lat="34.2883883" lon="8.1953767"><ele>96.0</ele><time>2026-03-21T09:48:16.4Z</time></trkpt><trkpt lat="34.28841" lon="8.1951183"><ele>96.0</ele><time>2026-03-21T09:48:17.401Z</time></trkpt><trkpt lat="34.2884283" lon="8.1948683"><ele>96.0</ele><time>2026-03-21T09:48:18.4Z</time></trkpt><trkpt lat="34.28845" lon="8.19462"><ele>96.0</ele><time>2026-03-21T09:48:19.402Z</time></trkpt><trkpt lat="34.2884717" lon="8.1943733"><ele>96.0</ele><time>2026-03-21T09:48:20.401Z</time></trkpt><trkpt lat="34.288495" lon="8.1941267"><ele>96.0</ele><time>2026-03-21T09:48:21.4Z</time></trkpt><trkpt lat="34.2885183" lon="8.1938783"><ele>96.0</ele><time>2026-03-21T09:48:22.401Z</time></trkpt><trkpt lat="34.2885483" lon="8.1936283"><ele>95.33333333333333</ele><time>2026-03-21T09:48:23.4Z</time></trkpt><trkpt lat="34.288565" lon="8.1933883"><ele>94.66666666666666</ele><time>2026-03-21T09:48:24.4Z</time></trkpt><trkpt lat="34.288585" lon="8.193135"><ele>94.0</ele><time>2026-03-21T09:48:25.402Z</time></trkpt><trkpt lat="34.28859" lon="8.192885"><ele>94.0</ele><time>2026-03-21T09:48:26.402Z</time></trkpt><trkpt lat="34.2885767" lon="8.1926433"><ele>94.0</ele><time>2026-03-21T09:48:27.4Z</time></trkpt><trkpt lat="34.2885517" lon="8.1924017"><ele>94.0</ele><time>2026-03-21T09:48:28.4Z</time></trkpt><trkpt lat="34.2885167" lon="8.19216"><ele>94.0</ele><time>2026-03-21T09:48:29.401Z</time></trkpt><trkpt lat="34.2884867" lon="8.191915"><ele>94.0</ele><time>2026-03-21T09:48:30.4Z</time></trkpt><trkpt lat="34.2884583" lon="8.191665"><ele>94.0</ele><time>2026-03-21T09:48:31.4Z</time></trkpt><trkpt lat="34.2884267" lon="8.1914217"><ele>94.0</ele><time>2026-03-21T09:48:32.401Z</time></trkpt><trkpt lat="34.2884017" lon="8.191185"><ele>94.0</ele><time>2026-03-21T09:48:33.4Z</time></trkpt><trkpt lat="34.2883683" lon="8.1909633"><ele>94.0</ele><time>2026-03-21T09:48:34.401Z</time></trkpt><trkpt lat="34.288325" lon="8.1907583"><ele>94.0</ele><time>2026-03-21T09:48:35.401Z</time></trkpt><trkpt lat="34.288265" lon="8.1905567"><ele>94.0</ele><time>2026-03-21T09:48:36.401Z</time></trkpt><trkpt lat="34.2881867" lon="8.190365"><ele>94.0</ele><time>2026-03-21T09:48:37.401Z</time></trkpt><trkpt lat="34.2880867" lon="8.1901967"><ele>93.66666666666666</ele><time>2026-03-21T09:48:38.402Z</time></trkpt><trkpt lat="34.28797" lon="8.19004"><ele>93.33333333333333</ele><time>2026-03-21T09:48:39.401Z</time></trkpt><trkpt lat="34.2878483" lon="8.1898833"><ele>93.0</ele><time>2026-03-21T09:48:40.401Z</time></trkpt><trkpt lat="34.28772" lon="8.1897317"><ele>93.0</ele><time>2026-03-21T09:48:41.401Z</time></trkpt><trkpt lat="34.2875933" lon="8.1895867"><ele>93.0</ele><time>2026-03-21T09:48:42.4Z</time></trkpt><trkpt lat="34.2874667" lon="8.1894533"><ele>93.0</ele><time>2026-03-21T09:48:43.403Z</time></trkpt><trkpt lat="34.28734" lon="8.18932"><ele>91.33333333333333</ele><time>2026-03-21T09:48:44.401Z</time></trkpt><trkpt lat="34.28721" lon="8.18918"><ele>89.66666666666666</ele><time>2026-03-21T09:48:45.4Z</time></trkpt><trkpt lat="34.2870783" lon="8.189035"><ele>88.0</ele><time>2026-03-21T09:48:46.4Z</time></trkpt><trkpt lat="34.2869667" lon="8.18888"><ele>88.0</ele><time>2026-03-21T09:48:47.4Z</time></trkpt><trkpt lat="34.2868617" lon="8.1887167"><ele>88.0</ele><time>2026-03-21T09:48:48.401Z</time></trkpt><trkpt lat="34.2867833" lon="8.18853"><ele>88.0</ele><time>2026-03-21T09:48:49.401Z</time></trkpt><trkpt lat="34.2867217" lon="8.1883417"><ele>88.66666666666666</ele><time>2026-03-21T09:48:50.402Z</time></trkpt><trkpt lat="34.2866817" lon="8.1881483"><ele>89.33333333333333</ele><time>2026-03-21T09:48:51.4Z</time></trkpt><trkpt lat="34.2866717" lon="8.1879367"><ele>90.0</ele><time>2026-03-21T09:48:52.401Z</time></trkpt><trkpt lat="34.2866717" lon="8.1877317"><ele>90.0</ele><time>2026-03-21T09:48:53.404Z</time></trkpt><trkpt lat="34.28668" lon="8.187515"><ele>90.0</ele><time>2026-03-21T09:48:54.401Z</time></trkpt><trkpt lat="34.2866783" lon="8.1873"><ele>90.0</ele><time>2026-03-21T09:48:55.401Z</time></trkpt><trkpt lat="34.28666" lon="8.1870917"><ele>89.66666666666667</ele><time>2026-03-21T09:48:56.401Z</time></trkpt><trkpt lat="34.2866317" lon="8.1868867"><ele>89.33333333333334</ele><time>2026-03-21T09:48:57.401Z</time></trkpt><trkpt lat="34.286585" lon="8.18668"><ele>89.0</ele><time>2026-03-21T09:48:58.4Z</time></trkpt><trkpt lat="34.2865267" lon="8.1864717"><ele>89.0</ele><time>2026-03-21T09:48:59.403Z</time></trkpt><trkpt lat="34.2864633" lon="8.186265"><ele>89.0</ele><time>2026-03-21T09:49:00.401Z</time></trkpt><trkpt lat="34.2864033" lon="8.1860617"><ele>89.0</ele><time>2026-03-21T09:49:01.402Z</time></trkpt><trkpt lat="34.2863567" lon="8.1858583"><ele>88.0</ele><time>2026-03-21T09:49:02.402Z</time></trkpt><trkpt lat="34.2863133" lon="8.1856567"><ele>87.0</ele><time>2026-03-21T09:49:03.4Z</time></trkpt><trkpt lat="34.286285" lon="8.1854533"><ele>86.0</ele><time>2026-03-21T09:49:04.4Z</time></trkpt><trkpt lat="34.2862633" lon="8.1852517"><ele>86.0</ele><time>2026-03-21T09:49:05.402Z</time></trkpt><trkpt lat="34.2862517" lon="8.1850583"><ele>86.0</ele><time>2026-03-21T09:49:06.4Z</time></trkpt><trkpt lat="34.2862433" lon="8.18488"><ele>86.0</ele><time>2026-03-21T09:49:07.4Z</time></trkpt><trkpt lat="34.2862383" lon="8.18472"><ele>86.0</ele><time>2026-03-21T09:49:08.401Z</time></trkpt><trkpt lat="34.2862317" lon="8.1845733"><ele>85.75</ele><time>2026-03-21T09:49:09.4Z</time></trkpt><trkpt lat="34.2862267" lon="8.184435"><ele>85.5</ele><time>2026-03-21T09:49:10.4Z</time></trkpt><trkpt lat="34.2862267" lon="8.184295"><ele>85.25</ele><time>2026-03-21T09:49:11.401Z</time></trkpt><trkpt lat="34.286225" lon="8.1841567"><ele>85.0</ele><time>2026-03-21T09:49:12.4Z</time></trkpt><trkpt lat="34.2862233" lon="8.1840183"><ele>84.8</ele><time>2026-03-21T09:49:13.401Z</time></trkpt><trkpt lat="34.2862183" lon="8.1838817"><ele>84.6</ele><time>2026-03-21T09:49:14.401Z</time></trkpt><trkpt lat="34.2862083" lon="8.1837483"><ele>84.4</ele><time>2026-03-21T09:49:15.4Z</time></trkpt><trkpt lat="34.286195" lon="8.1836233"><ele>84.2</ele><time>2026-03-21T09:49:16.401Z</time></trkpt><trkpt lat="34.28618" lon="8.1834983"><ele>84.0</ele><time>2026-03-21T09:49:17.401Z</time></trkpt><trkpt lat="34.2861583" lon="8.1833883"><ele>84.0</ele><time>2026-03-21T09:49:18.4Z</time></trkpt><trkpt lat="34.2861333" lon="8.1832867"><ele>84.0</ele><time>2026-03-21T09:49:19.4Z</time></trkpt><trkpt lat="34.2861067" lon="8.18319"><ele>84.0</ele><time>2026-03-21T09:49:20.402Z</time></trkpt><trkpt lat="34.2860783" lon="8.1831"><ele>84.0</ele><time>2026-03-21T09:49:21.4Z</time></trkpt><trkpt lat="34.2860533" lon="8.1830133"><ele>84.0</ele><time>2026-03-21T09:49:22.4Z</time></trkpt><trkpt lat="34.2860317" lon="8.1829283"><ele>84.0</ele><time>2026-03-21T09:49:23.401Z</time></trkpt><trkpt lat="34.2860133" lon="8.1828483"><ele>84.0</ele><time>2026-03-21T09:49:24.401Z</time></trkpt><trkpt lat="34.285995" lon="8.18277"><ele>84.0</ele><time>2026-03-21T09:49:25.401Z</time></trkpt><trkpt lat="34.2859733" lon="8.182695"><ele>84.0</ele><time>2026-03-21T09:49:26.401Z</time></trkpt><trkpt lat="34.2859533" lon="8.1826217"><ele>84.0</ele><time>2026-03-21T09:49:27.4Z</time></trkpt><trkpt lat="34.28592" lon="8.1824783"><ele>84.0</ele><time>2026-03-21T09:49:29.402Z</time></trkpt><trkpt lat="34.2858917" lon="8.18235"><ele>84.0</ele><time>2026-03-21T09:49:31.401Z</time></trkpt><trkpt lat="34.2858633" lon="8.182235"><ele>84.0</ele><time>2026-03-21T09:49:33.401Z</time></trkpt><trkpt lat="34.2858317" lon="8.1821017"><ele>84.0</ele><time>2026-03-21T09:49:35.401Z</time></trkpt><trkpt lat="34.2858033" lon="8.181965"><ele>84.0</ele><time>2026-03-21T09:49:37.401Z</time></trkpt><trkpt lat="34.28577" lon="8.1818267"><ele>84.0</ele><time>2026-03-21T09:49:39.4Z</time></trkpt><trkpt lat="34.2857483" lon="8.1817517"><ele>84.0</ele><time>2026-03-21T09:49:40.4Z</time></trkpt><trkpt lat="34.285725" lon="8.1816717"><ele>84.0</ele><time>2026-03-21T09:49:41.401Z</time></trkpt><trkpt lat="34.2857017" lon="8.18159"><ele>84.0</ele><time>2026-03-21T09:49:42.401Z</time></trkpt><trkpt lat="34.2856733" lon="8.1815067"><ele>84.0</ele><time>2026-03-21T09:49:43.402Z</time></trkpt><trkpt lat="34.2856417" lon="8.1814167"><ele>84.0</ele><time>2026-03-21T09:49:44.401Z</time></trkpt><trkpt lat="34.2856083" lon="8.18133"><ele>84.0</ele><time>2026-03-21T09:49:45.4Z</time></trkpt><trkpt lat="34.2855767" lon="8.1812433"><ele>84.0</ele><time>2026-03-21T09:49:46.401Z</time></trkpt><trkpt lat="34.2855433" lon="8.1811583"><ele>84.0</ele><time>2026-03-21T09:49:47.402Z</time></trkpt><trkpt lat="34.28551" lon="8.1810683"><ele>84.0</ele><time>2026-03-21T09:49:48.4Z</time></trkpt><trkpt lat="34.2854767" lon="8.1809767"><ele>84.0</ele><time>2026-03-21T09:49:49.403Z</time></trkpt><trkpt lat="34.285445" lon="8.18088"><ele>84.0</ele><time>2026-03-21T09:49:50.401Z</time></trkpt><trkpt lat="34.2854083" lon="8.1807833"><ele>84.0</ele><time>2026-03-21T09:49:51.401Z</time></trkpt><trkpt lat="34.2853733" lon="8.1806883"><ele>84.0</ele><time>2026-03-21T09:49:52.4Z</time></trkpt><trkpt lat="34.28534" lon="8.1805917"><ele>84.0</ele><time>2026-03-21T09:49:53.4Z</time></trkpt><trkpt lat="34.285305" lon="8.1804967"><ele>84.0</ele><time>2026-03-21T09:49:54.4Z</time></trkpt><trkpt lat="34.285265" lon="8.1804"><ele>84.0</ele><time>2026-03-21T09:49:55.4Z</time></trkpt><trkpt lat="34.2852217" lon="8.1802917"><ele>84.0</ele><time>2026-03-21T09:49:56.403Z</time></trkpt><trkpt lat="34.2851767" lon="8.1801667"><ele>84.0</ele><time>2026-03-21T09:49:57.401Z</time></trkpt><trkpt lat="34.2851283" lon="8.1800367"><ele>84.0</ele><time>2026-03-21T09:49:58.401Z</time></trkpt><trkpt lat="34.2850733" lon="8.1799"><ele>84.0</ele><time>2026-03-21T09:49:59.401Z</time></trkpt><trkpt lat="34.285025" lon="8.1797633"><ele>84.0</ele><time>2026-03-21T09:50:00.4Z</time></trkpt><trkpt lat="34.2849767" lon="8.1796367"><ele>84.0</ele><time>2026-03-21T09:50:01.401Z</time></trkpt><trkpt lat="34.284935" lon="8.1795233"><ele>84.0</ele><time>2026-03-21T09:50:02.401Z</time></trkpt><trkpt lat="34.2848933" lon="8.1794133"><ele>84.0</ele><time>2026-03-21T09:50:03.4Z</time></trkpt><trkpt lat="34.2848517" lon="8.1793083"><ele>84.0</ele><time>2026-03-21T09:50:04.4Z</time></trkpt><trkpt lat="34.2848117" lon="8.179205"><ele>84.0</ele><time>2026-03-21T09:50:05.4Z</time></trkpt><trkpt lat="34.2847683" lon="8.1790967"><ele>84.0</ele><time>2026-03-21T09:50:06.4Z</time></trkpt><trkpt lat="34.2847233" lon="8.1789833"><ele>83.80000000000001</ele><time>2026-03-21T09:50:07.401Z</time></trkpt><trkpt lat="34.28468" lon="8.1788667"><ele>83.60000000000001</ele><time>2026-03-21T09:50:08.401Z</time></trkpt><trkpt lat="34.2846333" lon="8.1787467"><ele>83.4</ele><time>2026-03-21T09:50:09.401Z</time></trkpt><trkpt lat="34.2845817" lon="8.1786233"><ele>83.2</ele><time>2026-03-21T09:50:10.403Z</time></trkpt><trkpt lat="34.28453" lon="8.1785017"><ele>83.0</ele><time>2026-03-21T09:50:11.4Z</time></trkpt><trkpt lat="34.2844767" lon="8.1783833"><ele>83.0</ele><time>2026-03-21T09:50:12.4Z</time></trkpt><trkpt lat="34.2844267" lon="8.1782617"><ele>83.0</ele><time>2026-03-21T09:50:13.402Z</time></trkpt><trkpt lat="34.284375" lon="8.178145"><ele>83.0</ele><time>2026-03-21T09:50:14.401Z</time></trkpt><trkpt lat="34.2843267" lon="8.1780367"><ele>83.0</ele><time>2026-03-21T09:50:15.401Z</time></trkpt><trkpt lat="34.2842933" lon="8.1779233"><ele>83.0</ele><time>2026-03-21T09:50:16.401Z</time></trkpt><trkpt lat="34.2842717" lon="8.1778117"><ele>82.66666666666667</ele><time>2026-03-21T09:50:17.402Z</time></trkpt><trkpt lat="34.2842617" lon="8.1777133"><ele>82.33333333333334</ele><time>2026-03-21T09:50:18.4Z</time></trkpt><trkpt lat="34.2842567" lon="8.177615"><ele>82.0</ele><time>2026-03-21T09:50:19.401Z</time></trkpt><trkpt lat="34.2842933" lon="8.17752"><ele>81.66666666666667</ele><time>2026-03-21T09:50:20.402Z</time></trkpt><trkpt lat="34.2843417" lon="8.1774667"><ele>81.33333333333333</ele><time>2026-03-21T09:50:21.402Z</time></trkpt><trkpt lat="34.2844233" lon="8.1774333"><ele>81.0</ele><time>2026-03-21T09:50:22.401Z</time></trkpt><trkpt lat="34.284495" lon="8.177415"><ele>81.0</ele><time>2026-03-21T09:50:23.401Z</time></trkpt><trkpt lat="34.2846033" lon="8.1773917"><ele>81.0</ele><time>2026-03-21T09:50:25.401Z</time></trkpt><trkpt lat="34.284715" lon="8.1773767"><ele>81.0</ele><time>2026-03-21T09:50:27.401Z</time></trkpt><trkpt lat="34.2848067" lon="8.1773633"><ele>81.0</ele><time>2026-03-21T09:50:29.4Z</time></trkpt><trkpt lat="34.284885" lon="8.1773217"><ele>81.0</ele><time>2026-03-21T09:50:32.404Z</time></trkpt><trkpt lat="34.2848933" lon="8.1772233"><ele>81.19999999999999</ele><time>2026-03-21T09:51:11.401Z</time></trkpt><trkpt lat="34.2848867" lon="8.1771283"><ele>81.39999999999999</ele><time>2026-03-21T09:51:13.402Z</time></trkpt><trkpt lat="34.2848683" lon="8.177035"><ele>81.6</ele><time>2026-03-21T09:51:14.402Z</time></trkpt><trkpt lat="34.28485" lon="8.17693"><ele>81.8</ele><time>2026-03-21T09:51:15.401Z</time></trkpt><trkpt lat="34.28481" lon="8.17677"><ele>82.0</ele><time>2026-03-21T09:51:16.4Z</time></trkpt><trkpt lat="34.2847717" lon="8.176605"><ele>81.75</ele><time>2026-03-21T09:51:17.402Z</time></trkpt><trkpt lat="34.2847367" lon="8.1764433"><ele>81.5</ele><time>2026-03-21T09:51:18.402Z</time></trkpt><trkpt lat="34.284705" lon="8.1762783"><ele>81.25</ele><time>2026-03-21T09:51:19.401Z</time></trkpt><trkpt lat="34.284685" lon="8.1761"><ele>81.0</ele><time>2026-03-21T09:51:20.401Z</time></trkpt><trkpt lat="34.2846633" lon="8.1759483"><ele>81.0</ele><time>2026-03-21T09:51:21.401Z</time></trkpt><trkpt lat="34.2846433" lon="8.17579"><ele>81.0</ele><time>2026-03-21T09:51:22.402Z</time></trkpt><trkpt lat="34.2846167" lon="8.1756367"><ele>81.0</ele><time>2026-03-21T09:51:23.402Z</time></trkpt><trkpt lat="34.2845883" lon="8.1754783"><ele>81.0</ele><time>2026-03-21T09:51:24.4Z</time></trkpt><trkpt lat="34.28456" lon="8.175315"><ele>81.33333333333333</ele><time>2026-03-21T09:51:25.401Z</time></trkpt><trkpt lat="34.2845367" lon="8.17514"><ele>81.66666666666666</ele><time>2026-03-21T09:51:26.401Z</time></trkpt><trkpt lat="34.2845133" lon="8.174955"><ele>82.0</ele><time>2026-03-21T09:51:27.402Z</time></trkpt><trkpt lat="34.28449" lon="8.1747717"><ele>82.0</ele><time>2026-03-21T09:51:28.401Z</time></trkpt><trkpt lat="34.2844667" lon="8.1745767"><ele>82.0</ele><time>2026-03-21T09:51:29.404Z</time></trkpt><trkpt lat="34.2844367" lon="8.1743817"><ele>82.0</ele><time>2026-03-21T09:51:30.4Z</time></trkpt><trkpt lat="34.2844017" lon="8.1741917"><ele>82.0</ele><time>2026-03-21T09:51:31.402Z</time></trkpt><trkpt lat="34.2843667" lon="8.1740017"><ele>82.0</ele><time>2026-03-21T09:51:32.402Z</time></trkpt><trkpt lat="34.2843283" lon="8.1738133"><ele>82.0</ele><time>2026-03-21T09:51:33.401Z</time></trkpt><trkpt lat="34.2842833" lon="8.173635"><ele>82.0</ele><time>2026-03-21T09:51:34.401Z</time></trkpt><trkpt lat="34.2842483" lon="8.173445"><ele>82.0</ele><time>2026-03-21T09:51:35.401Z</time></trkpt><trkpt lat="34.2842117" lon="8.1732533"><ele>82.0</ele><time>2026-03-21T09:51:36.401Z</time></trkpt><trkpt lat="34.284175" lon="8.1730633"><ele>81.33333333333333</ele><time>2026-03-21T09:51:37.402Z</time></trkpt><trkpt lat="34.28414" lon="8.1728733"><ele>80.66666666666667</ele><time>2026-03-21T09:51:38.401Z</time></trkpt><trkpt lat="34.2841067" lon="8.1726817"><ele>80.0</ele><time>2026-03-21T09:51:39.401Z</time></trkpt><trkpt lat="34.2840717" lon="8.1724917"><ele>80.33333333333334</ele><time>2026-03-21T09:51:40.402Z</time></trkpt><trkpt lat="34.2840333" lon="8.1722967"><ele>80.66666666666667</ele><time>2026-03-21T09:51:41.401Z</time></trkpt><trkpt lat="34.2839933" lon="8.1721017"><ele>81.0</ele><time>2026-03-21T09:51:42.402Z</time></trkpt><trkpt lat="34.2839567" lon="8.171905"><ele>81.33333333333333</ele><time>2026-03-21T09:51:43.402Z</time></trkpt><trkpt lat="34.2839167" lon="8.1717067"><ele>81.66666666666666</ele><time>2026-03-21T09:51:44.401Z</time></trkpt><trkpt lat="34.2838767" lon="8.171505"><ele>82.0</ele><time>2026-03-21T09:51:45.401Z</time></trkpt><trkpt lat="34.2838383" lon="8.1713"><ele>81.33333333333333</ele><time>2026-03-21T09:51:46.401Z</time></trkpt><trkpt lat="34.2838033" lon="8.171095"><ele>80.66666666666667</ele><time>2026-03-21T09:51:47.401Z</time></trkpt><trkpt lat="34.283765" lon="8.1708883"><ele>80.0</ele><time>2026-03-21T09:51:48.404Z</time></trkpt><trkpt lat="34.2837283" lon="8.1706817"><ele>79.66666666666667</ele><time>2026-03-21T09:51:49.402Z</time></trkpt><trkpt lat="34.2836883" lon="8.1704867"><ele>79.33333333333333</ele><time>2026-03-21T09:51:50.402Z</time></trkpt><trkpt lat="34.2836483" lon="8.170295"><ele>79.0</ele><time>2026-03-21T09:51:51.401Z</time></trkpt><trkpt lat="34.2836033" lon="8.1701033"><ele>79.0</ele><time>2026-03-21T09:51:52.401Z</time></trkpt><trkpt lat="34.2835567" lon="8.16991"><ele>79.0</ele><time>2026-03-21T09:51:53.401Z</time></trkpt><trkpt lat="34.2835133" lon="8.169715"><ele>79.0</ele><time>2026-03-21T09:51:54.401Z</time></trkpt><trkpt lat="34.28347" lon="8.16951"><ele>79.0</ele><time>2026-03-21T09:51:55.401Z</time></trkpt><trkpt lat="34.2834267" lon="8.1693033"><ele>79.0</ele><time>2026-03-21T09:51:56.401Z</time></trkpt><trkpt lat="34.2833817" lon="8.169095"><ele>79.0</ele><time>2026-03-21T09:51:57.402Z</time></trkpt><trkpt lat="34.2833367" lon="8.1688867"><ele>78.66666666666666</ele><time>2026-03-21T09:51:58.401Z</time></trkpt><trkpt lat="34.28329" lon="8.16868"><ele>78.33333333333333</ele><time>2026-03-21T09:51:59.401Z</time></trkpt><trkpt lat="34.2832467" lon="8.1684733"><ele>78.0</ele><time>2026-03-21T09:52:00.402Z</time></trkpt><trkpt lat="34.2831983" lon="8.16827"><ele>78.0</ele><time>2026-03-21T09:52:01.402Z</time></trkpt><trkpt lat="34.2831517" lon="8.168065"><ele>78.0</ele><time>2026-03-21T09:52:02.402Z</time></trkpt><trkpt lat="34.2831083" lon="8.16786"><ele>78.0</ele><time>2026-03-21T09:52:03.401Z</time></trkpt><trkpt lat="34.2830683" lon="8.1676533"><ele>77.66666666666667</ele><time>2026-03-21T09:52:04.401Z</time></trkpt><trkpt lat="34.2830317" lon="8.1674517"><ele>77.33333333333334</ele><time>2026-03-21T09:52:05.401Z</time></trkpt><trkpt lat="34.283" lon="8.16726"><ele>77.0</ele><time>2026-03-21T09:52:06.401Z</time></trkpt><trkpt lat="34.2829783" lon="8.1670633"><ele>77.66666666666667</ele><time>2026-03-21T09:52:07.401Z</time></trkpt><trkpt lat="34.282955" lon="8.1668733"><ele>78.33333333333333</ele><time>2026-03-21T09:52:08.401Z</time></trkpt><trkpt lat="34.2829283" lon="8.16669"><ele>79.0</ele><time>2026-03-21T09:52:09.401Z</time></trkpt><trkpt lat="34.2829" lon="8.1664983"><ele>79.33333333333333</ele><time>2026-03-21T09:52:10.401Z</time></trkpt><trkpt lat="34.282875" lon="8.1663067"><ele>79.66666666666667</ele><time>2026-03-21T09:52:11.402Z</time></trkpt><trkpt lat="34.2828483" lon="8.166115"><ele>80.0</ele><time>2026-03-21T09:52:12.402Z</time></trkpt><trkpt lat="34.2828183" lon="8.1659267"><ele>80.0</ele><time>2026-03-21T09:52:13.401Z</time></trkpt><trkpt lat="34.2827883" lon="8.16574"><ele>80.0</ele><time>2026-03-21T09:52:14.401Z</time></trkpt><trkpt lat="34.2827617" lon="8.1655533"><ele>80.0</ele><time>2026-03-21T09:52:15.401Z</time></trkpt><trkpt lat="34.282735" lon="8.165365"><ele>79.33333333333334</ele><time>2026-03-21T09:52:16.401Z</time></trkpt><trkpt lat="34.2827083" lon="8.165175"><ele>78.66666666666667</ele><time>2026-03-21T09:52:17.401Z</time></trkpt><trkpt lat="34.2826783" lon="8.1649883"><ele>78.0</ele><time>2026-03-21T09:52:18.401Z</time></trkpt><trkpt lat="34.2826517" lon="8.1648017"><ele>77.66666666666667</ele><time>2026-03-21T09:52:19.404Z</time></trkpt><trkpt lat="34.2826217" lon="8.1646167"><ele>77.33333333333334</ele><time>2026-03-21T09:52:20.401Z</time></trkpt><trkpt lat="34.282595" lon="8.16443"><ele>77.0</ele><time>2026-03-21T09:52:21.401Z</time></trkpt><trkpt lat="34.2825617" lon="8.16425"><ele>77.0</ele><time>2026-03-21T09:52:22.401Z</time></trkpt><trkpt lat="34.2825333" lon="8.1640733"><ele>77.0</ele><time>2026-03-21T09:52:23.402Z</time></trkpt><trkpt lat="34.2825033" lon="8.1638983"><ele>77.0</ele><time>2026-03-21T09:52:24.401Z</time></trkpt><trkpt lat="34.28247" lon="8.1637233"><ele>77.0</ele><time>2026-03-21T09:52:25.401Z</time></trkpt><trkpt lat="34.2824383" lon="8.1635483"><ele>76.5</ele><time>2026-03-21T09:52:26.402Z</time></trkpt><trkpt lat="34.2824067" lon="8.1633717"><ele>76.0</ele><time>2026-03-21T09:52:27.401Z</time></trkpt><trkpt lat="34.282385" lon="8.1632017"><ele>75.5</ele><time>2026-03-21T09:52:28.401Z</time></trkpt><trkpt lat="34.282365" lon="8.16304"><ele>75.0</ele><time>2026-03-21T09:52:29.401Z</time></trkpt><trkpt lat="34.282345" lon="8.1628983"><ele>75.0</ele><time>2026-03-21T09:52:30.401Z</time></trkpt><trkpt lat="34.2823217" lon="8.1627833"><ele>75.0</ele><time>2026-03-21T09:52:31.401Z</time></trkpt><trkpt lat="34.2822967" lon="8.1627017"><ele>75.0</ele><time>2026-03-21T09:52:32.402Z</time></trkpt><trkpt lat="34.2822433" lon="8.162605"><ele>75.0</ele><time>2026-03-21T09:52:34.401Z</time></trkpt><trkpt lat="34.2821667" lon="8.1625717"><ele>75.0</ele><time>2026-03-21T09:52:36.403Z</time></trkpt><trkpt lat="34.28204" lon="8.1625967"><ele>75.0</ele><time>2026-03-21T09:52:38.404Z</time></trkpt><trkpt lat="34.281955" lon="8.1626333"><ele>75.0</ele><time>2026-03-21T09:52:39.402Z</time></trkpt><trkpt lat="34.2818367" lon="8.1626883"><ele>75.0</ele><time>2026-03-21T09:52:40.402Z</time></trkpt><trkpt lat="34.2817183" lon="8.1627367"><ele>75.0</ele><time>2026-03-21T09:52:41.404Z</time></trkpt><trkpt lat="34.2816" lon="8.16278"><ele>75.0</ele><time>2026-03-21T09:52:42.402Z</time></trkpt><trkpt lat="34.2814533" lon="8.162845"><ele>75.0</ele><time>2026-03-21T09:52:43.405Z</time></trkpt><trkpt lat="34.281325" lon="8.16289"><ele>75.0</ele><time>2026-03-21T09:52:44.402Z</time></trkpt><trkpt lat="34.28121" lon="8.1629317"><ele>75.0</ele><time>2026-03-21T09:52:45.402Z</time></trkpt><trkpt lat="34.2811083" lon="8.1629617"><ele>74.83333333333333</ele><time>2026-03-21T09:52:46.402Z</time></trkpt><trkpt lat="34.2810133" lon="8.1629817"><ele>74.66666666666667</ele><time>2026-03-21T09:52:47.402Z</time></trkpt><trkpt lat="34.2809283" lon="8.1629817"><ele>74.5</ele><time>2026-03-21T09:52:48.402Z</time></trkpt><trkpt lat="34.2808417" lon="8.1629717"><ele>74.33333333333334</ele><time>2026-03-21T09:52:49.402Z</time></trkpt><trkpt lat="34.2807617" lon="8.1629533"><ele>74.16666666666667</ele><time>2026-03-21T09:52:50.403Z</time></trkpt><trkpt lat="34.28069" lon="8.1628917"><ele>74.0</ele><time>2026-03-21T09:52:51.402Z</time></trkpt><trkpt lat="34.2806983" lon="8.162685"><ele>74.0</ele><time>2026-03-21T09:52:52.402Z</time></trkpt><trkpt lat="34.2806733" lon="8.162535"><ele>74.0</ele><time>2026-03-21T09:52:53.401Z</time></trkpt><trkpt lat="34.28065" lon="8.1623817"><ele>74.0</ele><time>2026-03-21T09:52:54.402Z</time></trkpt><trkpt lat="34.2806317" lon="8.1622217"><ele>74.0</ele><time>2026-03-21T09:52:55.401Z</time></trkpt><trkpt lat="34.280615" lon="8.1620683"><ele>74.0</ele><time>2026-03-21T09:52:56.404Z</time></trkpt><trkpt lat="34.2806017" lon="8.16193"><ele>74.0</ele><time>2026-03-21T09:52:57.401Z</time></trkpt><trkpt lat="34.2805867" lon="8.1617983"><ele>74.0</ele><time>2026-03-21T09:52:58.401Z</time></trkpt><trkpt lat="34.28058" lon="8.1616667"><ele>74.0</ele><time>2026-03-21T09:52:59.402Z</time></trkpt><trkpt lat="34.2805783" lon="8.16154"><ele>74.0</ele><time>2026-03-21T09:53:00.402Z</time></trkpt><trkpt lat="34.280585" lon="8.1614133"><ele>74.60000000000001</ele><time>2026-03-21T09:53:01.401Z</time></trkpt><trkpt lat="34.2806" lon="8.16129"><ele>75.2</ele><time>2026-03-21T09:53:02.401Z</time></trkpt><trkpt lat="34.280635" lon="8.16117"><ele>75.80000000000001</ele><time>2026-03-21T09:53:03.4Z</time></trkpt><trkpt lat="34.2806817" lon="8.161055"><ele>76.4</ele><time>2026-03-21T09:53:04.401Z</time></trkpt><trkpt lat="34.280735" lon="8.1609467"><ele>77.0</ele><time>2026-03-21T09:53:05.401Z</time></trkpt><trkpt lat="34.2807917" lon="8.1608317"><ele>77.0</ele><time>2026-03-21T09:53:06.401Z</time></trkpt><trkpt lat="34.280845" lon="8.1607083"><ele>77.0</ele><time>2026-03-21T09:53:07.402Z</time></trkpt><trkpt lat="34.2808883" lon="8.1605783"><ele>77.0</ele><time>2026-03-21T09:53:08.401Z</time></trkpt><trkpt lat="34.28091" lon="8.1604417"><ele>77.0</ele><time>2026-03-21T09:53:09.401Z</time></trkpt><trkpt lat="34.2809217" lon="8.160305"><ele>76.8</ele><time>2026-03-21T09:53:10.403Z</time></trkpt><trkpt lat="34.2809233" lon="8.1601667"><ele>76.6</ele><time>2026-03-21T09:53:11.403Z</time></trkpt><trkpt lat="34.280915" lon="8.1600267"><ele>76.39999999999999</ele><time>2026-03-21T09:53:12.401Z</time></trkpt><trkpt lat="34.2809083" lon="8.1598933"><ele>76.2</ele><time>2026-03-21T09:53:13.406Z</time></trkpt><trkpt lat="34.280905" lon="8.1597717"><ele>76.0</ele><time>2026-03-21T09:53:14.401Z</time></trkpt><trkpt lat="34.2808967" lon="8.1596583"><ele>76.0</ele><time>2026-03-21T09:53:15.402Z</time></trkpt><trkpt lat="34.2808917" lon="8.1595517"><ele>76.0</ele><time>2026-03-21T09:53:16.403Z</time></trkpt><trkpt lat="34.2808883" lon="8.1594517"><ele>76.0</ele><time>2026-03-21T09:53:17.401Z</time></trkpt><trkpt lat="34.28089" lon="8.1593633"><ele>76.0</ele><time>2026-03-21T09:53:18.402Z</time></trkpt><trkpt lat="34.280895" lon="8.159285"><ele>76.0</ele><time>2026-03-21T09:53:19.401Z</time></trkpt><trkpt lat="34.28095" lon="8.1591683"><ele>76.0</ele><time>2026-03-21T09:53:21.401Z</time></trkpt><trkpt lat="34.2810383" lon="8.1591633"><ele>76.0</ele><time>2026-03-21T09:53:22.402Z</time></trkpt><trkpt lat="34.2811283" lon="8.1591467"><ele>76.0</ele><time>2026-03-21T09:53:23.403Z</time></trkpt><trkpt lat="34.2812383" lon="8.1591383"><ele>76.0</ele><time>2026-03-21T09:53:24.401Z</time></trkpt><trkpt lat="34.2813867" lon="8.15913"><ele>76.0</ele><time>2026-03-21T09:53:25.402Z</time></trkpt><trkpt lat="34.2815383" lon="8.1591167"><ele>75.66666666666666</ele><time>2026-03-21T09:53:26.401Z</time></trkpt><trkpt lat="34.281675" lon="8.1590667"><ele>75.33333333333333</ele><time>2026-03-21T09:53:27.401Z</time></trkpt><trkpt lat="34.2818367" lon="8.15903"><ele>75.0</ele><time>2026-03-21T09:53:28.401Z</time></trkpt><trkpt lat="34.2819867" lon="8.1589883"><ele>74.66666666666667</ele><time>2026-03-21T09:53:29.401Z</time></trkpt><trkpt lat="34.2821333" lon="8.158945"><ele>74.33333333333334</ele><time>2026-03-21T09:53:30.401Z</time></trkpt><trkpt lat="34.2822867" lon="8.158905"><ele>74.0</ele><time>2026-03-21T09:53:31.401Z</time></trkpt><trkpt lat="34.2824333" lon="8.1588567"><ele>74.0</ele><time>2026-03-21T09:53:32.402Z</time></trkpt><trkpt lat="34.282575" lon="8.158815"><ele>74.0</ele><time>2026-03-21T09:53:33.405Z</time></trkpt><trkpt lat="34.2827117" lon="8.15877"><ele>74.0</ele><time>2026-03-21T09:53:34.402Z</time></trkpt><trkpt lat="34.2828533" lon="8.1587283"><ele>74.0</ele><time>2026-03-21T09:53:35.401Z</time></trkpt><trkpt lat="34.2829917" lon="8.158685"><ele>73.75</ele><time>2026-03-21T09:53:36.401Z</time></trkpt><trkpt lat="34.283125" lon="8.1586383"><ele>73.5</ele><time>2026-03-21T09:53:37.402Z</time></trkpt><trkpt lat="34.2832683" lon="8.1585933"><ele>73.25</ele><time>2026-03-21T09:53:38.401Z</time></trkpt><trkpt lat="34.283405" lon="8.1585433"><ele>73.0</ele><time>2026-03-21T09:53:39.401Z</time></trkpt><trkpt lat="34.2835483" lon="8.1584917"><ele>73.0</ele><time>2026-03-21T09:53:40.403Z</time></trkpt><trkpt lat="34.2836933" lon="8.1584433"><ele>73.0</ele><time>2026-03-21T09:53:41.402Z</time></trkpt><trkpt lat="34.2838333" lon="8.1583917"><ele>73.0</ele><time>2026-03-21T09:53:42.401Z</time></trkpt><trkpt lat="34.283975" lon="8.1583383"><ele>73.0</ele><time>2026-03-21T09:53:43.402Z</time></trkpt><trkpt lat="34.2841167" lon="8.1582833"><ele>73.0</ele><time>2026-03-21T09:53:44.402Z</time></trkpt><trkpt lat="34.2842617" lon="8.1582333"><ele>73.0</ele><time>2026-03-21T09:53:45.401Z</time></trkpt><trkpt lat="34.284405" lon="8.1581817"><ele>73.0</ele><time>2026-03-21T09:53:46.402Z</time></trkpt><trkpt lat="34.28455" lon="8.1581217"><ele>73.33333333333333</ele><time>2026-03-21T09:53:47.402Z</time></trkpt><trkpt lat="34.284695" lon="8.1580617"><ele>73.66666666666667</ele><time>2026-03-21T09:53:48.401Z</time></trkpt><trkpt lat="34.284845" lon="8.1580017"><ele>74.0</ele><time>2026-03-21T09:53:49.401Z</time></trkpt><trkpt lat="34.2849883" lon="8.1579433"><ele>73.5</ele><time>2026-03-21T09:53:50.403Z</time></trkpt><trkpt lat="34.2851183" lon="8.1578883"><ele>73.0</ele><time>2026-03-21T09:53:51.401Z</time></trkpt><trkpt lat="34.2852433" lon="8.1578317"><ele>72.5</ele><time>2026-03-21T09:53:52.402Z</time></trkpt><trkpt lat="34.2853717" lon="8.157775"><ele>72.0</ele><time>2026-03-21T09:53:53.402Z</time></trkpt><trkpt lat="34.2855033" lon="8.1577167"><ele>72.0</ele><time>2026-03-21T09:53:54.401Z</time></trkpt><trkpt lat="34.28564" lon="8.15766"><ele>72.0</ele><time>2026-03-21T09:53:55.402Z</time></trkpt><trkpt lat="34.28578" lon="8.1576017"><ele>72.0</ele><time>2026-03-21T09:53:56.401Z</time></trkpt><trkpt lat="34.2859217" lon="8.1575367"><ele>72.0</ele><time>2026-03-21T09:53:57.402Z</time></trkpt><trkpt lat="34.2860533" lon="8.15747"><ele>72.0</ele><time>2026-03-21T09:53:58.402Z</time></trkpt><trkpt lat="34.286185" lon="8.157405"><ele>72.0</ele><time>2026-03-21T09:53:59.401Z</time></trkpt><trkpt lat="34.28632" lon="8.1573383"><ele>72.0</ele><time>2026-03-21T09:54:00.402Z</time></trkpt><trkpt lat="34.2864517" lon="8.1572733"><ele>72.0</ele><time>2026-03-21T09:54:01.403Z</time></trkpt><trkpt lat="34.28658" lon="8.15721"><ele>72.0</ele><time>2026-03-21T09:54:02.404Z</time></trkpt><trkpt lat="34.2867133" lon="8.157145"><ele>72.0</ele><time>2026-03-21T09:54:03.401Z</time></trkpt><trkpt lat="34.286845" lon="8.1570833"><ele>72.0</ele><time>2026-03-21T09:54:04.402Z</time></trkpt><trkpt lat="34.28698" lon="8.15702"><ele>72.0</ele><time>2026-03-21T09:54:05.401Z</time></trkpt><trkpt lat="34.2871117" lon="8.1569633"><ele>72.0</ele><time>2026-03-21T09:54:06.401Z</time></trkpt><trkpt lat="34.2872417" lon="8.1569083"><ele>72.0</ele><time>2026-03-21T09:54:07.401Z</time></trkpt><trkpt lat="34.287375" lon="8.156855"><ele>72.0</ele><time>2026-03-21T09:54:08.403Z</time></trkpt><trkpt lat="34.2875083" lon="8.1568083"><ele>72.0</ele><time>2026-03-21T09:54:09.401Z</time></trkpt><trkpt lat="34.2876333" lon="8.15677"><ele>72.0</ele><time>2026-03-21T09:54:10.401Z</time></trkpt><trkpt lat="34.28775" lon="8.15673"><ele>72.0</ele><time>2026-03-21T09:54:11.405Z</time></trkpt><trkpt lat="34.2878517" lon="8.15669"><ele>72.0</ele><time>2026-03-21T09:54:12.401Z</time></trkpt><trkpt lat="34.28795" lon="8.1566483"><ele>72.0</ele><time>2026-03-21T09:54:13.401Z</time></trkpt><trkpt lat="34.2880533" lon="8.1566067"><ele>72.0</ele><time>2026-03-21T09:54:14.401Z</time></trkpt><trkpt lat="34.2881617" lon="8.15656"><ele>72.0</ele><time>2026-03-21T09:54:15.401Z</time></trkpt><trkpt lat="34.28828" lon="8.1565133"><ele>72.0</ele><time>2026-03-21T09:54:16.402Z</time></trkpt><trkpt lat="34.2884067" lon="8.1564633"><ele>72.0</ele><time>2026-03-21T09:54:17.4Z</time></trkpt><trkpt lat="34.2885417" lon="8.1564117"><ele>72.0</ele><time>2026-03-21T09:54:18.401Z</time></trkpt><trkpt lat="34.2886733" lon="8.1563583"><ele>72.0</ele><time>2026-03-21T09:54:19.4Z</time></trkpt><trkpt lat="34.2888067" lon="8.1563"><ele>72.0</ele><time>2026-03-21T09:54:20.4Z</time></trkpt><trkpt lat="34.2889383" lon="8.1562467"><ele>72.0</ele><time>2026-03-21T09:54:21.4Z</time></trkpt><trkpt lat="34.2890683" lon="8.156195"><ele>72.0</ele><time>2026-03-21T09:54:22.401Z</time></trkpt><trkpt lat="34.2892017" lon="8.1561417"><ele>72.0</ele><time>2026-03-21T09:54:23.401Z</time></trkpt><trkpt lat="34.2893317" lon="8.1560883"><ele>72.0</ele><time>2026-03-21T09:54:24.4Z</time></trkpt><trkpt lat="34.28946" lon="8.1560367"><ele>72.0</ele><time>2026-03-21T09:54:25.4Z</time></trkpt><trkpt lat="34.2895867" lon="8.1559817"><ele>72.0</ele><time>2026-03-21T09:54:26.401Z</time></trkpt><trkpt lat="34.289715" lon="8.1559283"><ele>72.25</ele><time>2026-03-21T09:54:27.401Z</time></trkpt><trkpt lat="34.2898483" lon="8.15587"><ele>72.5</ele><time>2026-03-21T09:54:28.401Z</time></trkpt><trkpt lat="34.2899717" lon="8.1558133"><ele>72.75</ele><time>2026-03-21T09:54:29.4Z</time></trkpt><trkpt lat="34.2900867" lon="8.15576"><ele>73.0</ele><time>2026-03-21T09:54:30.4Z</time></trkpt><trkpt lat="34.2901933" lon="8.15571"><ele>73.0</ele><time>2026-03-21T09:54:31.4Z</time></trkpt><trkpt lat="34.2902983" lon="8.1556583"><ele>73.0</ele><time>2026-03-21T09:54:32.4Z</time></trkpt><trkpt lat="34.2904067" lon="8.15561"><ele>73.0</ele><time>2026-03-21T09:54:33.4Z</time></trkpt><trkpt lat="34.290515" lon="8.1555617"><ele>73.0</ele><time>2026-03-21T09:54:34.401Z</time></trkpt><trkpt lat="34.2906217" lon="8.1555117"><ele>73.0</ele><time>2026-03-21T09:54:35.401Z</time></trkpt><trkpt lat="34.2907233" lon="8.1554617"><ele>73.0</ele><time>2026-03-21T09:54:36.405Z</time></trkpt><trkpt lat="34.290825" lon="8.15541"><ele>73.0</ele><time>2026-03-21T09:54:37.4Z</time></trkpt><trkpt lat="34.2909267" lon="8.1553667"><ele>73.0</ele><time>2026-03-21T09:54:38.401Z</time></trkpt><trkpt lat="34.2910283" lon="8.15533"><ele>73.0</ele><time>2026-03-21T09:54:39.4Z</time></trkpt><trkpt lat="34.2911367" lon="8.1552983"><ele>73.0</ele><time>2026-03-21T09:54:40.4Z</time></trkpt><trkpt lat="34.2912467" lon="8.155265"><ele>73.0</ele><time>2026-03-21T09:54:41.4Z</time></trkpt><trkpt lat="34.2913517" lon="8.1552333"><ele>73.0</ele><time>2026-03-21T09:54:42.401Z</time></trkpt><trkpt lat="34.2914533" lon="8.1551983"><ele>73.0</ele><time>2026-03-21T09:54:43.401Z</time></trkpt><trkpt lat="34.2915567" lon="8.1551567"><ele>73.0</ele><time>2026-03-21T09:54:44.401Z</time></trkpt><trkpt lat="34.2916633" lon="8.1551133"><ele>73.0</ele><time>2026-03-21T09:54:45.4Z</time></trkpt><trkpt lat="34.2917683" lon="8.155075"><ele>73.0</ele><time>2026-03-21T09:54:46.4Z</time></trkpt><trkpt lat="34.2918733" lon="8.155035"><ele>73.0</ele><time>2026-03-21T09:54:47.4Z</time></trkpt><trkpt lat="34.2919783" lon="8.1549983"><ele>73.0</ele><time>2026-03-21T09:54:48.4Z</time></trkpt><trkpt lat="34.292085" lon="8.1549633"><ele>73.0</ele><time>2026-03-21T09:54:49.401Z</time></trkpt><trkpt lat="34.2921867" lon="8.1549333"><ele>73.0</ele><time>2026-03-21T09:54:50.401Z</time></trkpt><trkpt lat="34.2922867" lon="8.154905"><ele>73.0</ele><time>2026-03-21T09:54:51.4Z</time></trkpt><trkpt lat="34.2923883" lon="8.1548767"><ele>73.0</ele><time>2026-03-21T09:54:52.4Z</time></trkpt><trkpt lat="34.2924933" lon="8.1548417"><ele>73.0</ele><time>2026-03-21T09:54:53.4Z</time></trkpt><trkpt lat="34.2926033" lon="8.1548033"><ele>73.0</ele><time>2026-03-21T09:54:54.4Z</time></trkpt><trkpt lat="34.2927167" lon="8.1547683"><ele>73.2</ele><time>2026-03-21T09:54:55.401Z</time></trkpt><trkpt lat="34.2928333" lon="8.1547317"><ele>73.4</ele><time>2026-03-21T09:54:56.4Z</time></trkpt><trkpt lat="34.292945" lon="8.1547017"><ele>73.60000000000001</ele><time>2026-03-21T09:54:57.4Z</time></trkpt><trkpt lat="34.2930467" lon="8.1546767"><ele>73.8</ele><time>2026-03-21T09:54:58.401Z</time></trkpt><trkpt lat="34.2931467" lon="8.154655"><ele>74.0</ele><time>2026-03-21T09:54:59.4Z</time></trkpt><trkpt lat="34.293245" lon="8.1546367"><ele>74.2</ele><time>2026-03-21T09:55:00.401Z</time></trkpt><trkpt lat="34.2933467" lon="8.1546133"><ele>74.4</ele><time>2026-03-21T09:55:01.401Z</time></trkpt><trkpt lat="34.2934483" lon="8.15459"><ele>74.6</ele><time>2026-03-21T09:55:02.4Z</time></trkpt><trkpt lat="34.2935517" lon="8.154565"><ele>74.8</ele><time>2026-03-21T09:55:03.4Z</time></trkpt><trkpt lat="34.2936533" lon="8.15454"><ele>75.0</ele><time>2026-03-21T09:55:04.401Z</time></trkpt><trkpt lat="34.2937533" lon="8.1545167"><ele>75.0</ele><time>2026-03-21T09:55:05.4Z</time></trkpt><trkpt lat="34.2938517" lon="8.15449"><ele>75.0</ele><time>2026-03-21T09:55:06.4Z</time></trkpt><trkpt lat="34.2939533" lon="8.1544567"><ele>75.0</ele><time>2026-03-21T09:55:07.4Z</time></trkpt><trkpt lat="34.2940583" lon="8.1544217"><ele>75.0</ele><time>2026-03-21T09:55:08.401Z</time></trkpt><trkpt lat="34.2941667" lon="8.1543817"><ele>75.0</ele><time>2026-03-21T09:55:09.4Z</time></trkpt><trkpt lat="34.2942767" lon="8.1543417"><ele>74.5</ele><time>2026-03-21T09:55:10.4Z</time></trkpt><trkpt lat="34.2943917" lon="8.1543017"><ele>74.0</ele><time>2026-03-21T09:55:11.401Z</time></trkpt><trkpt lat="34.2945117" lon="8.1542567"><ele>73.5</ele><time>2026-03-21T09:55:12.401Z</time></trkpt><trkpt lat="34.2946333" lon="8.1542133"><ele>73.0</ele><time>2026-03-21T09:55:13.401Z</time></trkpt><trkpt lat="34.294755" lon="8.1541667"><ele>73.0</ele><time>2026-03-21T09:55:14.401Z</time></trkpt><trkpt lat="34.2948783" lon="8.1541233"><ele>73.0</ele><time>2026-03-21T09:55:15.401Z</time></trkpt><trkpt lat="34.295005" lon="8.15408"><ele>73.0</ele><time>2026-03-21T09:55:16.4Z</time></trkpt><trkpt lat="34.295135" lon="8.1540417"><ele>73.0</ele><time>2026-03-21T09:55:17.401Z</time></trkpt><trkpt lat="34.29526" lon="8.154"><ele>72.75</ele><time>2026-03-21T09:55:18.401Z</time></trkpt><trkpt lat="34.295385" lon="8.1539517"><ele>72.5</ele><time>2026-03-21T09:55:19.4Z</time></trkpt><trkpt lat="34.29551" lon="8.1539"><ele>72.25</ele><time>2026-03-21T09:55:20.4Z</time></trkpt><trkpt lat="34.295645" lon="8.1538433"><ele>72.0</ele><time>2026-03-21T09:55:21.401Z</time></trkpt><trkpt lat="34.2957833" lon="8.1537883"><ele>72.0</ele><time>2026-03-21T09:55:22.4Z</time></trkpt><trkpt lat="34.2959217" lon="8.1537367"><ele>72.0</ele><time>2026-03-21T09:55:23.401Z</time></trkpt><trkpt lat="34.2960583" lon="8.15369"><ele>72.0</ele><time>2026-03-21T09:55:24.4Z</time></trkpt><trkpt lat="34.29619" lon="8.15365"><ele>72.0</ele><time>2026-03-21T09:55:25.403Z</time></trkpt><trkpt lat="34.29632" lon="8.1536117"><ele>72.0</ele><time>2026-03-21T09:55:26.401Z</time></trkpt><trkpt lat="34.2964483" lon="8.1535717"><ele>72.0</ele><time>2026-03-21T09:55:27.401Z</time></trkpt><trkpt lat="34.29657" lon="8.153535"><ele>72.0</ele><time>2026-03-21T09:55:28.4Z</time></trkpt><trkpt lat="34.29669" lon="8.1535"><ele>72.0</ele><time>2026-03-21T09:55:29.401Z</time></trkpt><trkpt lat="34.2968033" lon="8.1534667"><ele>72.0</ele><time>2026-03-21T09:55:30.402Z</time></trkpt><trkpt lat="34.2969167" lon="8.15343"><ele>72.0</ele><time>2026-03-21T09:55:31.4Z</time></trkpt><trkpt lat="34.2970233" lon="8.1533933"><ele>72.0</ele><time>2026-03-21T09:55:32.4Z</time></trkpt><trkpt lat="34.297125" lon="8.1533667"><ele>72.0</ele><time>2026-03-21T09:55:33.4Z</time></trkpt><trkpt lat="34.2972267" lon="8.1533383"><ele>72.0</ele><time>2026-03-21T09:55:34.402Z</time></trkpt><trkpt lat="34.2973283" lon="8.153305"><ele>71.8</ele><time>2026-03-21T09:55:35.4Z</time></trkpt><trkpt lat="34.2974317" lon="8.1532683"><ele>71.6</ele><time>2026-03-21T09:55:36.401Z</time></trkpt><trkpt lat="34.297535" lon="8.1532267"><ele>71.39999999999999</ele><time>2026-03-21T09:55:37.4Z</time></trkpt><trkpt lat="34.2976383" lon="8.1531833"><ele>71.2</ele><time>2026-03-21T09:55:38.4Z</time></trkpt><trkpt lat="34.2977433" lon="8.1531367"><ele>71.0</ele><time>2026-03-21T09:55:39.401Z</time></trkpt><trkpt lat="34.2978433" lon="8.1530867"><ele>70.8</ele><time>2026-03-21T09:55:40.401Z</time></trkpt><trkpt lat="34.2979467" lon="8.1530317"><ele>70.6</ele><time>2026-03-21T09:55:41.401Z</time></trkpt><trkpt lat="34.2980483" lon="8.15298"><ele>70.4</ele><time>2026-03-21T09:55:42.4Z</time></trkpt><trkpt lat="34.29815" lon="8.152925"><ele>70.2</ele><time>2026-03-21T09:55:43.401Z</time></trkpt><trkpt lat="34.298255" lon="8.1528683"><ele>70.0</ele><time>2026-03-21T09:55:44.401Z</time></trkpt><trkpt lat="34.2983583" lon="8.1528133"><ele>70.5</ele><time>2026-03-21T09:55:45.4Z</time></trkpt><trkpt lat="34.2984633" lon="8.1527583"><ele>71.0</ele><time>2026-03-21T09:55:46.4Z</time></trkpt><trkpt lat="34.2985767" lon="8.1527017"><ele>71.5</ele><time>2026-03-21T09:55:47.402Z</time></trkpt><trkpt lat="34.2986883" lon="8.152645"><ele>72.0</ele><time>2026-03-21T09:55:48.4Z</time></trkpt><trkpt lat="34.298805" lon="8.1525817"><ele>71.5</ele><time>2026-03-21T09:55:49.402Z</time></trkpt><trkpt lat="34.2989267" lon="8.1525183"><ele>71.0</ele><time>2026-03-21T09:55:50.4Z</time></trkpt><trkpt lat="34.2990533" lon="8.1524533"><ele>70.5</ele><time>2026-03-21T09:55:51.4Z</time></trkpt><trkpt lat="34.2991867" lon="8.1523867"><ele>70.0</ele><time>2026-03-21T09:55:52.4Z</time></trkpt><trkpt lat="34.2993217" lon="8.1523183"><ele>70.0</ele><time>2026-03-21T09:55:53.4Z</time></trkpt><trkpt lat="34.299455" lon="8.1522483"><ele>70.0</ele><time>2026-03-21T09:55:54.4Z</time></trkpt><trkpt lat="34.29959" lon="8.152175"><ele>70.0</ele><time>2026-03-21T09:55:55.402Z</time></trkpt><trkpt lat="34.2997267" lon="8.1521"><ele>70.0</ele><time>2026-03-21T09:55:56.4Z</time></trkpt><trkpt lat="34.2998617" lon="8.1520233"><ele>70.25</ele><time>2026-03-21T09:55:57.4Z</time></trkpt><trkpt lat="34.2999983" lon="8.151945"><ele>70.5</ele><time>2026-03-21T09:55:58.401Z</time></trkpt><trkpt lat="34.3001283" lon="8.1518733"><ele>70.75</ele><time>2026-03-21T09:55:59.402Z</time></trkpt><trkpt lat="34.3002517" lon="8.1518067"><ele>71.0</ele><time>2026-03-21T09:56:00.4Z</time></trkpt><trkpt lat="34.3003733" lon="8.1517367"><ele>71.0</ele><time>2026-03-21T09:56:01.401Z</time></trkpt><trkpt lat="34.30049" lon="8.1516683"><ele>71.0</ele><time>2026-03-21T09:56:02.401Z</time></trkpt><trkpt lat="34.300605" lon="8.1516067"><ele>71.0</ele><time>2026-03-21T09:56:03.399Z</time></trkpt><trkpt lat="34.300715" lon="8.1515517"><ele>71.0</ele><time>2026-03-21T09:56:04.401Z</time></trkpt><trkpt lat="34.3008333" lon="8.151495"><ele>71.0</ele><time>2026-03-21T09:56:05.401Z</time></trkpt><trkpt lat="34.3009617" lon="8.1514367"><ele>71.0</ele><time>2026-03-21T09:56:06.4Z</time></trkpt><trkpt lat="34.3010967" lon="8.1513817"><ele>71.0</ele><time>2026-03-21T09:56:07.402Z</time></trkpt><trkpt lat="34.301235" lon="8.1513417"><ele>71.0</ele><time>2026-03-21T09:56:08.4Z</time></trkpt><trkpt lat="34.3013783" lon="8.151315"><ele>70.33333333333334</ele><time>2026-03-21T09:56:09.4Z</time></trkpt><trkpt lat="34.3015233" lon="8.1512883"><ele>69.66666666666667</ele><time>2026-03-21T09:56:10.401Z</time></trkpt><trkpt lat="34.3016733" lon="8.1512733"><ele>69.0</ele><time>2026-03-21T09:56:11.4Z</time></trkpt><trkpt lat="34.3018317" lon="8.15127"><ele>69.0</ele><time>2026-03-21T09:56:12.4Z</time></trkpt><trkpt lat="34.301995" lon="8.1512783"><ele>69.0</ele><time>2026-03-21T09:56:13.401Z</time></trkpt><trkpt lat="34.3021633" lon="8.1512817"><ele>69.0</ele><time>2026-03-21T09:56:14.401Z</time></trkpt><trkpt lat="34.3023433" lon="8.151275"><ele>69.33333333333333</ele><time>2026-03-21T09:56:15.4Z</time></trkpt><trkpt lat="34.3025333" lon="8.151255"><ele>69.66666666666666</ele><time>2026-03-21T09:56:16.4Z</time></trkpt><trkpt lat="34.3027233" lon="8.1512283"><ele>70.0</ele><time>2026-03-21T09:56:17.401Z</time></trkpt><trkpt lat="34.3029133" lon="8.1512067"><ele>70.0</ele><time>2026-03-21T09:56:18.4Z</time></trkpt><trkpt lat="34.303105" lon="8.151185"><ele>70.0</ele><time>2026-03-21T09:56:19.4Z</time></trkpt><trkpt lat="34.3032867" lon="8.1511683"><ele>70.0</ele><time>2026-03-21T09:56:20.402Z</time></trkpt><trkpt lat="34.3034567" lon="8.15115"><ele>70.0</ele><time>2026-03-21T09:56:21.401Z</time></trkpt><trkpt lat="34.3036217" lon="8.1511283"><ele>70.0</ele><time>2026-03-21T09:56:22.4Z</time></trkpt><trkpt lat="34.303785" lon="8.15111"><ele>70.0</ele><time>2026-03-21T09:56:23.4Z</time></trkpt><trkpt lat="34.3039433" lon="8.151095"><ele>70.0</ele><time>2026-03-21T09:56:24.4Z</time></trkpt><trkpt lat="34.3041" lon="8.15108"><ele>70.0</ele><time>2026-03-21T09:56:25.401Z</time></trkpt><trkpt lat="34.3042517" lon="8.151065"><ele>70.0</ele><time>2026-03-21T09:56:26.4Z</time></trkpt><trkpt lat="34.3044" lon="8.1510483"><ele>70.0</ele><time>2026-03-21T09:56:27.4Z</time></trkpt><trkpt lat="34.3045483" lon="8.151035"><ele>70.0</ele><time>2026-03-21T09:56:28.402Z</time></trkpt><trkpt lat="34.3046933" lon="8.1510233"><ele>70.0</ele><time>2026-03-21T09:56:29.401Z</time></trkpt><trkpt lat="34.3048283" lon="8.151015"><ele>70.0</ele><time>2026-03-21T09:56:30.4Z</time></trkpt><trkpt lat="34.3049517" lon="8.1510083"><ele>70.2</ele><time>2026-03-21T09:56:31.4Z</time></trkpt><trkpt lat="34.3050633" lon="8.1510033"><ele>70.4</ele><time>2026-03-21T09:56:32.401Z</time></trkpt><trkpt lat="34.3051667" lon="8.1510017"><ele>70.6</ele><time>2026-03-21T09:56:33.4Z</time></trkpt><trkpt lat="34.3052667" lon="8.1509983"><ele>70.8</ele><time>2026-03-21T09:56:34.4Z</time></trkpt><trkpt lat="34.3053633" lon="8.150985"><ele>71.0</ele><time>2026-03-21T09:56:35.4Z</time></trkpt><trkpt lat="34.3054683" lon="8.1509633"><ele>70.5</ele><time>2026-03-21T09:56:36.401Z</time></trkpt><trkpt lat="34.305585" lon="8.1509417"><ele>70.0</ele><time>2026-03-21T09:56:37.401Z</time></trkpt><trkpt lat="34.3057083" lon="8.1509217"><ele>69.5</ele><time>2026-03-21T09:56:38.401Z</time></trkpt><trkpt lat="34.30584" lon="8.1508983"><ele>69.0</ele><time>2026-03-21T09:56:39.4Z</time></trkpt><trkpt lat="34.30598" lon="8.150875"><ele>69.0</ele><time>2026-03-21T09:56:40.4Z</time></trkpt><trkpt lat="34.3061217" lon="8.1508517"><ele>69.0</ele><time>2026-03-21T09:56:41.402Z</time></trkpt><trkpt lat="34.306265" lon="8.1508233"><ele>69.0</ele><time>2026-03-21T09:56:42.4Z</time></trkpt><trkpt lat="34.306405" lon="8.1507933"><ele>69.0</ele><time>2026-03-21T09:56:43.401Z</time></trkpt><trkpt lat="34.30655" lon="8.1507633"><ele>69.0</ele><time>2026-03-21T09:56:44.401Z</time></trkpt><trkpt lat="34.3066967" lon="8.150735"><ele>69.0</ele><time>2026-03-21T09:56:45.4Z</time></trkpt><trkpt lat="34.3068433" lon="8.150705"><ele>69.0</ele><time>2026-03-21T09:56:46.402Z</time></trkpt><trkpt lat="34.3069917" lon="8.15068"><ele>69.0</ele><time>2026-03-21T09:56:47.401Z</time></trkpt><trkpt lat="34.3071367" lon="8.1506517"><ele>68.66666666666667</ele><time>2026-03-21T09:56:48.401Z</time></trkpt><trkpt lat="34.3072833" lon="8.15063"><ele>68.33333333333334</ele><time>2026-03-21T09:56:49.4Z</time></trkpt><trkpt lat="34.307435" lon="8.1506133"><ele>68.0</ele><time>2026-03-21T09:56:50.402Z</time></trkpt><trkpt lat="34.3075933" lon="8.15059"><ele>68.0</ele><time>2026-03-21T09:56:51.4Z</time></trkpt><trkpt lat="34.30776" lon="8.150565"><ele>68.0</ele><time>2026-03-21T09:56:52.4Z</time></trkpt><trkpt lat="34.3079267" lon="8.1505383"><ele>68.0</ele><time>2026-03-21T09:56:53.4Z</time></trkpt><trkpt lat="34.3080917" lon="8.1505167"><ele>67.66666666666667</ele><time>2026-03-21T09:56:54.4Z</time></trkpt><trkpt lat="34.3082517" lon="8.150495"><ele>67.33333333333333</ele><time>2026-03-21T09:56:55.401Z</time></trkpt><trkpt lat="34.30841" lon="8.1504617"><ele>67.0</ele><time>2026-03-21T09:56:56.4Z</time></trkpt><trkpt lat="34.308565" lon="8.1504283"><ele>67.0</ele><time>2026-03-21T09:56:57.4Z</time></trkpt><trkpt lat="34.30871" lon="8.15039"><ele>67.0</ele><time>2026-03-21T09:56:58.401Z</time></trkpt><trkpt lat="34.3088367" lon="8.150355"><ele>67.0</ele><time>2026-03-21T09:56:59.401Z</time></trkpt><trkpt lat="34.3089533" lon="8.1503183"><ele>67.0</ele><time>2026-03-21T09:57:00.401Z</time></trkpt><trkpt lat="34.3090617" lon="8.1502833"><ele>67.8</ele><time>2026-03-21T09:57:01.401Z</time></trkpt><trkpt lat="34.3091683" lon="8.15025"><ele>68.6</ele><time>2026-03-21T09:57:02.402Z</time></trkpt><trkpt lat="34.3092717" lon="8.1502183"><ele>69.39999999999999</ele><time>2026-03-21T09:57:03.4Z</time></trkpt><trkpt lat="34.3093733" lon="8.1501883"><ele>70.2</ele><time>2026-03-21T09:57:04.402Z</time></trkpt><trkpt lat="34.30946" lon="8.1501667"><ele>71.0</ele><time>2026-03-21T09:57:05.401Z</time></trkpt><trkpt lat="34.309535" lon="8.1501517"><ele>71.0</ele><time>2026-03-21T09:57:06.401Z</time></trkpt><trkpt lat="34.3096083" lon="8.15015"><ele>71.0</ele><time>2026-03-21T09:57:07.405Z</time></trkpt><trkpt lat="34.3096783" lon="8.1501583"><ele>71.0</ele><time>2026-03-21T09:57:08.4Z</time></trkpt><trkpt lat="34.3097467" lon="8.15019"><ele>71.0</ele><time>2026-03-21T09:57:09.4Z</time></trkpt><trkpt lat="34.309805" lon="8.1502517"><ele>71.0</ele><time>2026-03-21T09:57:10.401Z</time></trkpt><trkpt lat="34.30987" lon="8.1503183"><ele>71.0</ele><time>2026-03-21T09:57:11.4Z</time></trkpt><trkpt lat="34.309945" lon="8.1503817"><ele>71.2</ele><time>2026-03-21T09:57:12.401Z</time></trkpt><trkpt lat="34.310025" lon="8.1504433"><ele>71.39999999999999</ele><time>2026-03-21T09:57:13.401Z</time></trkpt><trkpt lat="34.3101167" lon="8.15051"><ele>71.6</ele><time>2026-03-21T09:57:14.401Z</time></trkpt><trkpt lat="34.3102117" lon="8.15058"><ele>71.8</ele><time>2026-03-21T09:57:15.4Z</time></trkpt><trkpt lat="34.3103117" lon="8.1506733"><ele>72.0</ele><time>2026-03-21T09:57:16.4Z</time></trkpt><trkpt lat="34.3104217" lon="8.1507733"><ele>72.0</ele><time>2026-03-21T09:57:17.401Z</time></trkpt><trkpt lat="34.3105433" lon="8.1508783"><ele>72.0</ele><time>2026-03-21T09:57:18.4Z</time></trkpt><trkpt lat="34.31067" lon="8.1509883"><ele>72.0</ele><time>2026-03-21T09:57:19.4Z</time></trkpt><trkpt lat="34.3108017" lon="8.1511217"><ele>72.0</ele><time>2026-03-21T09:57:20.4Z</time></trkpt><trkpt lat="34.310925" lon="8.1512417"><ele>72.0</ele><time>2026-03-21T09:57:21.401Z</time></trkpt><trkpt lat="34.3110383" lon="8.1513567"><ele>72.0</ele><time>2026-03-21T09:57:22.4Z</time></trkpt><trkpt lat="34.3111467" lon="8.1514717"><ele>72.0</ele><time>2026-03-21T09:57:23.402Z</time></trkpt><trkpt lat="34.311255" lon="8.151575"><ele>72.0</ele><time>2026-03-21T09:57:24.4Z</time></trkpt><trkpt lat="34.3113717" lon="8.1516617"><ele>72.0</ele><time>2026-03-21T09:57:25.401Z</time></trkpt><trkpt lat="34.3114917" lon="8.1517433"><ele>72.0</ele><time>2026-03-21T09:57:26.401Z</time></trkpt><trkpt lat="34.3116183" lon="8.15182"><ele>72.25</ele><time>2026-03-21T09:57:27.4Z</time></trkpt><trkpt lat="34.3117483" lon="8.1518917"><ele>72.5</ele><time>2026-03-21T09:57:28.401Z</time></trkpt><trkpt lat="34.3118783" lon="8.1519617"><ele>72.75</ele><time>2026-03-21T09:57:29.4Z</time></trkpt><trkpt lat="34.3120083" lon="8.1520267"><ele>73.0</ele><time>2026-03-21T09:57:30.4Z</time></trkpt><trkpt lat="34.3121367" lon="8.152105"><ele>73.33333333333333</ele><time>2026-03-21T09:57:31.4Z</time></trkpt><trkpt lat="34.312265" lon="8.1521917"><ele>73.66666666666667</ele><time>2026-03-21T09:57:32.401Z</time></trkpt><trkpt lat="34.3123933" lon="8.1522883"><ele>74.0</ele><time>2026-03-21T09:57:33.4Z</time></trkpt><trkpt lat="34.3125217" lon="8.15239"><ele>74.33333333333334</ele><time>2026-03-21T09:57:34.401Z</time></trkpt><trkpt lat="34.3126517" lon="8.152495"><ele>74.66666666666667</ele><time>2026-03-21T09:57:35.4Z</time></trkpt><trkpt lat="34.3127933" lon="8.1526"><ele>75.0</ele><time>2026-03-21T09:57:36.4Z</time></trkpt><trkpt lat="34.31294" lon="8.152705"><ele>75.0</ele><time>2026-03-21T09:57:37.4Z</time></trkpt><trkpt lat="34.3130933" lon="8.1527983"><ele>75.0</ele><time>2026-03-21T09:57:38.402Z</time></trkpt><trkpt lat="34.3132533" lon="8.15289"><ele>75.0</ele><time>2026-03-21T09:57:39.4Z</time></trkpt><trkpt lat="34.3134233" lon="8.1529767"><ele>75.0</ele><time>2026-03-21T09:57:40.401Z</time></trkpt><trkpt lat="34.3135983" lon="8.1530633"><ele>75.0</ele><time>2026-03-21T09:57:41.4Z</time></trkpt><trkpt lat="34.3137767" lon="8.1531317"><ele>75.0</ele><time>2026-03-21T09:57:42.4Z</time></trkpt><trkpt lat="34.3139583" lon="8.1531967"><ele>75.33333333333333</ele><time>2026-03-21T09:57:43.401Z</time></trkpt><trkpt lat="34.3141367" lon="8.1532767"><ele>75.66666666666666</ele><time>2026-03-21T09:57:44.401Z</time></trkpt><trkpt lat="34.3143133" lon="8.1533617"><ele>76.0</ele><time>2026-03-21T09:57:45.401Z</time></trkpt><trkpt lat="34.3144917" lon="8.1534683"><ele>76.0</ele><time>2026-03-21T09:57:46.402Z</time></trkpt><trkpt lat="34.3146683" lon="8.153575"><ele>76.0</ele><time>2026-03-21T09:57:47.401Z</time></trkpt><trkpt lat="34.3148433" lon="8.1536833"><ele>76.0</ele><time>2026-03-21T09:57:48.401Z</time></trkpt><trkpt lat="34.3150217" lon="8.153795"><ele>76.66666666666666</ele><time>2026-03-21T09:57:49.401Z</time></trkpt><trkpt lat="34.3152033" lon="8.1539017"><ele>77.33333333333333</ele><time>2026-03-21T09:57:50.403Z</time></trkpt><trkpt lat="34.3153867" lon="8.15402"><ele>78.0</ele><time>2026-03-21T09:57:51.4Z</time></trkpt><trkpt lat="34.3155617" lon="8.1541367"><ele>78.0</ele><time>2026-03-21T09:57:52.4Z</time></trkpt><trkpt lat="34.31572" lon="8.1542433"><ele>78.0</ele><time>2026-03-21T09:57:53.4Z</time></trkpt><trkpt lat="34.3158567" lon="8.1543267"><ele>78.0</ele><time>2026-03-21T09:57:54.4Z</time></trkpt><trkpt lat="34.3159767" lon="8.1543983"><ele>78.0</ele><time>2026-03-21T09:57:55.4Z</time></trkpt><trkpt lat="34.31608" lon="8.1544583"><ele>78.0</ele><time>2026-03-21T09:57:56.401Z</time></trkpt><trkpt lat="34.3161817" lon="8.1545183"><ele>78.0</ele><time>2026-03-21T09:57:57.401Z</time></trkpt><trkpt lat="34.3162833" lon="8.1545783"><ele>78.0</ele><time>2026-03-21T09:57:58.4Z</time></trkpt><trkpt lat="34.3163867" lon="8.15464"><ele>78.75</ele><time>2026-03-21T09:57:59.402Z</time></trkpt><trkpt lat="34.316495" lon="8.1547017"><ele>79.5</ele><time>2026-03-21T09:58:00.402Z</time></trkpt><trkpt lat="34.3166033" lon="8.1547717"><ele>80.25</ele><time>2026-03-21T09:58:01.401Z</time></trkpt><trkpt lat="34.3167183" lon="8.1548467"><ele>81.0</ele><time>2026-03-21T09:58:02.401Z</time></trkpt><trkpt lat="34.3168417" lon="8.1549233"><ele>81.0</ele><time>2026-03-21T09:58:03.401Z</time></trkpt><trkpt lat="34.31697" lon="8.155015"><ele>81.0</ele><time>2026-03-21T09:58:04.401Z</time></trkpt><trkpt lat="34.3171017" lon="8.1551167"><ele>81.0</ele><time>2026-03-21T09:58:05.401Z</time></trkpt><trkpt lat="34.3172283" lon="8.1552417"><ele>81.33333333333333</ele><time>2026-03-21T09:58:06.401Z</time></trkpt><trkpt lat="34.3173517" lon="8.1553683"><ele>81.66666666666666</ele><time>2026-03-21T09:58:07.403Z</time></trkpt><trkpt lat="34.3174717" lon="8.15548"><ele>82.0</ele><time>2026-03-21T09:58:08.401Z</time></trkpt><trkpt lat="34.3175917" lon="8.1555767"><ele>82.0</ele><time>2026-03-21T09:58:09.4Z</time></trkpt><trkpt lat="34.3177" lon="8.1556567"><ele>82.0</ele><time>2026-03-21T09:58:10.4Z</time></trkpt><trkpt lat="34.3177883" lon="8.1557317"><ele>82.0</ele><time>2026-03-21T09:58:11.401Z</time></trkpt><trkpt lat="34.3178667" lon="8.155815"><ele>82.0</ele><time>2026-03-21T09:58:12.4Z</time></trkpt><trkpt lat="34.317935" lon="8.1559033"><ele>82.0</ele><time>2026-03-21T09:58:13.401Z</time></trkpt><trkpt lat="34.31799" lon="8.1559967"><ele>81.75</ele><time>2026-03-21T09:58:14.401Z</time></trkpt><trkpt lat="34.3180333" lon="8.1561033"><ele>81.5</ele><time>2026-03-21T09:58:15.401Z</time></trkpt><trkpt lat="34.3180717" lon="8.1562317"><ele>81.25</ele><time>2026-03-21T09:58:16.401Z</time></trkpt><trkpt lat="34.3180967" lon="8.156385"><ele>81.0</ele><time>2026-03-21T09:58:17.402Z</time></trkpt><trkpt lat="34.3181183" lon="8.156535"><ele>80.5</ele><time>2026-03-21T09:58:18.4Z</time></trkpt><trkpt lat="34.3181367" lon="8.15668"><ele>80.0</ele><time>2026-03-21T09:58:19.4Z</time></trkpt><trkpt lat="34.31816" lon="8.1568167"><ele>79.5</ele><time>2026-03-21T09:58:20.401Z</time></trkpt><trkpt lat="34.3181917" lon="8.1569583"><ele>79.0</ele><time>2026-03-21T09:58:21.401Z</time></trkpt><trkpt lat="34.318235" lon="8.157105"><ele>79.0</ele><time>2026-03-21T09:58:22.401Z</time></trkpt><trkpt lat="34.3182933" lon="8.15726"><ele>79.0</ele><time>2026-03-21T09:58:23.401Z</time></trkpt><trkpt lat="34.3183633" lon="8.15743"><ele>79.0</ele><time>2026-03-21T09:58:24.401Z</time></trkpt><trkpt lat="34.31844" lon="8.1576333"><ele>79.66666666666666</ele><time>2026-03-21T09:58:25.4Z</time></trkpt><trkpt lat="34.3185133" lon="8.1578583"><ele>80.33333333333333</ele><time>2026-03-21T09:58:26.403Z</time></trkpt><trkpt lat="34.3185817" lon="8.1580933"><ele>81.0</ele><time>2026-03-21T09:58:27.401Z</time></trkpt><trkpt lat="34.3186483" lon="8.1583417"><ele>81.0</ele><time>2026-03-21T09:58:28.401Z</time></trkpt><trkpt lat="34.3187117" lon="8.1585917"><ele>81.0</ele><time>2026-03-21T09:58:29.402Z</time></trkpt><trkpt lat="34.3187683" lon="8.1588267"><ele>81.0</ele><time>2026-03-21T09:58:30.4Z</time></trkpt><trkpt lat="34.31882" lon="8.1590383"><ele>81.0</ele><time>2026-03-21T09:58:31.401Z</time></trkpt><trkpt lat="34.3188683" lon="8.1592283"><ele>81.0</ele><time>2026-03-21T09:58:32.401Z</time></trkpt><trkpt lat="34.3189083" lon="8.15939"><ele>81.0</ele><time>2026-03-21T09:58:33.401Z</time></trkpt><trkpt lat="34.3189283" lon="8.1595367"><ele>81.0</ele><time>2026-03-21T09:58:34.402Z</time></trkpt><trkpt lat="34.3189483" lon="8.1596717"><ele>81.75</ele><time>2026-03-21T09:58:35.4Z</time></trkpt><trkpt lat="34.3189717" lon="8.1598117"><ele>82.5</ele><time>2026-03-21T09:58:36.4Z</time></trkpt><trkpt lat="34.3189983" lon="8.15996"><ele>83.25</ele><time>2026-03-21T09:58:37.401Z</time></trkpt><trkpt lat="34.3190267" lon="8.160095"><ele>84.0</ele><time>2026-03-21T09:58:38.402Z</time></trkpt><trkpt lat="34.3190567" lon="8.1602117"><ele>84.0</ele><time>2026-03-21T09:58:39.4Z</time></trkpt><trkpt lat="34.3190867" lon="8.16032"><ele>84.0</ele><time>2026-03-21T09:58:40.4Z</time></trkpt><trkpt lat="34.3191233" lon="8.1604433"><ele>84.0</ele><time>2026-03-21T09:58:41.401Z</time></trkpt><trkpt lat="34.3191633" lon="8.160565"><ele>84.0</ele><time>2026-03-21T09:58:42.4Z</time></trkpt><trkpt lat="34.3192033" lon="8.1606783"><ele>84.0</ele><time>2026-03-21T09:58:43.403Z</time></trkpt><trkpt lat="34.3192433" lon="8.1607833"><ele>84.6</ele><time>2026-03-21T09:58:44.402Z</time></trkpt><trkpt lat="34.3192867" lon="8.16089"><ele>85.2</ele><time>2026-03-21T09:58:45.4Z</time></trkpt><trkpt lat="34.3193367" lon="8.1610083"><ele>85.8</ele><time>2026-03-21T09:58:46.401Z</time></trkpt><trkpt lat="34.3193817" lon="8.1611317"><ele>86.39999999999999</ele><time>2026-03-21T09:58:47.401Z</time></trkpt><trkpt lat="34.3194283" lon="8.161255"><ele>87.0</ele><time>2026-03-21T09:58:48.4Z</time></trkpt><trkpt lat="34.31948" lon="8.1613867"><ele>87.5</ele><time>2026-03-21T09:58:49.401Z</time></trkpt><trkpt lat="34.3195267" lon="8.16154"><ele>88.0</ele><time>2026-03-21T09:58:50.402Z</time></trkpt><trkpt lat="34.3195667" lon="8.1617"><ele>88.5</ele><time>2026-03-21T09:58:51.4Z</time></trkpt><trkpt lat="34.31961" lon="8.1618683"><ele>89.0</ele><time>2026-03-21T09:58:52.401Z</time></trkpt><trkpt lat="34.3196633" lon="8.162045"><ele>89.0</ele><time>2026-03-21T09:58:53.401Z</time></trkpt><trkpt lat="34.31972" lon="8.162215"><ele>89.0</ele><time>2026-03-21T09:58:54.4Z</time></trkpt><trkpt lat="34.3197783" lon="8.16236"><ele>89.0</ele><time>2026-03-21T09:58:55.401Z</time></trkpt><trkpt lat="34.319835" lon="8.1624933"><ele>89.0</ele><time>2026-03-21T09:58:56.401Z</time></trkpt><trkpt lat="34.3198967" lon="8.16263"><ele>89.5</ele><time>2026-03-21T09:58:57.401Z</time></trkpt><trkpt lat="34.31996" lon="8.1627717"><ele>90.0</ele><time>2026-03-21T09:58:58.402Z</time></trkpt><trkpt lat="34.3200267" lon="8.1629067"><ele>90.5</ele><time>2026-03-21T09:58:59.4Z</time></trkpt><trkpt lat="34.3201017" lon="8.1630283"><ele>91.0</ele><time>2026-03-21T09:59:00.402Z</time></trkpt><trkpt lat="34.3201883" lon="8.1631417"><ele>91.25</ele><time>2026-03-21T09:59:01.401Z</time></trkpt><trkpt lat="34.32028" lon="8.16325"><ele>91.5</ele><time>2026-03-21T09:59:02.401Z</time></trkpt><trkpt lat="34.320375" lon="8.1633517"><ele>91.75</ele><time>2026-03-21T09:59:03.401Z</time></trkpt><trkpt lat="34.3204633" lon="8.1634567"><ele>92.0</ele><time>2026-03-21T09:59:04.402Z</time></trkpt><trkpt lat="34.3205367" lon="8.1635633"><ele>92.8</ele><time>2026-03-21T09:59:05.401Z</time></trkpt><trkpt lat="34.3205933" lon="8.1636767"><ele>93.6</ele><time>2026-03-21T09:59:06.401Z</time></trkpt><trkpt lat="34.320635" lon="8.1637917"><ele>94.39999999999999</ele><time>2026-03-21T09:59:07.403Z</time></trkpt><trkpt lat="34.320665" lon="8.1639133"><ele>95.19999999999999</ele><time>2026-03-21T09:59:08.401Z</time></trkpt><trkpt lat="34.32068" lon="8.1640483"><ele>96.0</ele><time>2026-03-21T09:59:09.4Z</time></trkpt><trkpt lat="34.320685" lon="8.16419"><ele>96.0</ele><time>2026-03-21T09:59:10.401Z</time></trkpt><trkpt lat="34.3206867" lon="8.1643367"><ele>96.0</ele><time>2026-03-21T09:59:11.401Z</time></trkpt><trkpt lat="34.3206883" lon="8.164495"><ele>96.0</ele><time>2026-03-21T09:59:12.401Z</time></trkpt><trkpt lat="34.3206883" lon="8.16465"><ele>96.0</ele><time>2026-03-21T09:59:13.401Z</time></trkpt><trkpt lat="34.3206883" lon="8.1647767"><ele>95.8</ele><time>2026-03-21T09:59:14.402Z</time></trkpt><trkpt lat="34.3206833" lon="8.164895"><ele>95.6</ele><time>2026-03-21T09:59:15.401Z</time></trkpt><trkpt lat="34.3206767" lon="8.16502"><ele>95.4</ele><time>2026-03-21T09:59:16.401Z</time></trkpt><trkpt lat="34.320675" lon="8.16514"><ele>95.2</ele><time>2026-03-21T09:59:17.401Z</time></trkpt><trkpt lat="34.3206683" lon="8.1652617"><ele>95.0</ele><time>2026-03-21T09:59:18.4Z</time></trkpt><trkpt lat="34.32066" lon="8.1653933"><ele>95.0</ele><time>2026-03-21T09:59:19.401Z</time></trkpt><trkpt lat="34.320655" lon="8.16552"><ele>95.0</ele><time>2026-03-21T09:59:20.401Z</time></trkpt><trkpt lat="34.3206533" lon="8.1656267"><ele>95.0</ele><time>2026-03-21T09:59:21.402Z</time></trkpt><trkpt lat="34.3206583" lon="8.16572"><ele>95.0</ele><time>2026-03-21T09:59:22.401Z</time></trkpt><trkpt lat="34.3206633" lon="8.1658017"><ele>95.0</ele><time>2026-03-21T09:59:23.402Z</time></trkpt><trkpt lat="34.3206667" lon="8.1659233"><ele>95.0</ele><time>2026-03-21T09:59:25.4Z</time></trkpt><trkpt lat="34.3206883" lon="8.1659983"><ele>95.0</ele><time>2026-03-21T09:59:28.4Z</time></trkpt><trkpt lat="34.3206867" lon="8.165905"><ele>95.0</ele><time>2026-03-21T09:59:33.401Z</time></trkpt><trkpt lat="34.3207033" lon="8.1658133"><ele>95.0</ele><time>2026-03-21T09:59:36.401Z</time></trkpt><trkpt lat="34.320785" lon="8.1657683"><ele>95.0</ele><time>2026-03-21T09:59:38.4Z</time></trkpt><trkpt lat="34.3208667" lon="8.1657433"><ele>95.0</ele><time>2026-03-21T09:59:40.403Z</time></trkpt><trkpt lat="34.3209167" lon="8.165695"><ele>95.0</ele><time>2026-03-21T09:59:42.401Z</time></trkpt><trkpt lat="34.32097" lon="8.165615"><ele>95.0</ele><time>2026-03-21T09:59:45.4Z</time></trkpt><trkpt lat="34.3210167" lon="8.1655333"><ele>95.0</ele><time>2026-03-21T09:59:48.4Z</time></trkpt><trkpt lat="34.3209767" lon="8.1654517"><ele>95.0</ele><time>2026-03-21T09:59:51.401Z</time></trkpt><trkpt lat="34.3208967" lon="8.1654617"><ele>95.0</ele><time>2026-03-21T09:59:54.401Z</time></trkpt><trkpt lat="34.3209083" lon="8.1655833"><ele>95.0</ele><time>2026-03-21T09:59:57.401Z</time></trkpt><trkpt lat="34.3209767" lon="8.1656817"><ele>95.0</ele><time>2026-03-21T09:59:59.402Z</time></trkpt><trkpt lat="34.3210683" lon="8.1657017"><ele>95.0</ele><time>2026-03-21T10:00:02.402Z</time></trkpt><trkpt lat="34.321135" lon="8.16562"><ele>95.0</ele><time>2026-03-21T10:00:05.402Z</time></trkpt><trkpt lat="34.3211533" lon="8.1655467"><ele>95.0</ele><time>2026-03-21T10:00:07.401Z</time></trkpt><trkpt lat="34.3210867" lon="8.1655283"><ele>95.0</ele><time>2026-03-21T10:08:39.403Z</time></trkpt><trkpt lat="34.3211417" lon="8.1654867"><ele>95.0</ele><time>2026-03-21T10:17:09.403Z</time></trkpt><trkpt lat="34.3211217" lon="8.16556"><ele>95.0</ele><time>2026-03-21T10:25:06.401Z</time></trkpt><trkpt lat="34.320975" lon="8.1656017"><ele>95.0</ele><time>2026-03-21T10:25:12.401Z</time></trkpt><trkpt lat="34.3209033" lon="8.165615"><ele>95.0</ele><time>2026-03-21T10:25:14.402Z</time></trkpt><trkpt lat="34.3208383" lon="8.16563"><ele>95.0</ele><time>2026-03-21T10:25:16.402Z</time></trkpt><trkpt lat="34.32076" lon="8.1656767"><ele>95.0</ele><time>2026-03-21T10:25:19.4Z</time></trkpt><trkpt lat="34.320715" lon="8.1657467"><ele>95.0</ele><time>2026-03-21T10:25:21.401Z</time></trkpt><trkpt lat="34.3207183" lon="8.1658617"><ele>95.0</ele><time>2026-03-21T10:25:23.401Z</time></trkpt><trkpt lat="34.3207767" lon="8.1659867"><ele>95.4</ele><time>2026-03-21T10:25:25.402Z</time></trkpt><trkpt lat="34.32084" lon="8.1660717"><ele>95.8</ele><time>2026-03-21T10:25:27.401Z</time></trkpt><trkpt lat="34.3209167" lon="8.1661283"><ele>96.19999999999999</ele><time>2026-03-21T10:25:29.401Z</time></trkpt><trkpt lat="34.321" lon="8.1661783"><ele>96.6</ele><time>2026-03-21T10:25:31.401Z</time></trkpt><trkpt lat="34.3210967" lon="8.16623"><ele>97.0</ele><time>2026-03-21T10:25:33.4Z</time></trkpt><trkpt lat="34.321195" lon="8.1662933"><ele>97.0</ele><time>2026-03-21T10:25:35.401Z</time></trkpt><trkpt lat="34.3212867" lon="8.1663833"><ele>97.0</ele><time>2026-03-21T10:25:37.401Z</time></trkpt><trkpt lat="34.32137" lon="8.1664767"><ele>97.0</ele><time>2026-03-21T10:25:39.4Z</time></trkpt><trkpt lat="34.32143" lon="8.16652"><ele>97.0</ele><time>2026-03-21T10:25:41.401Z</time></trkpt><trkpt lat="34.3214767" lon="8.1665783"><ele>97.0</ele><time>2026-03-21T10:26:31.401Z</time></trkpt><trkpt lat="34.3215867" lon="8.1667033"><ele>98.16666666666667</ele><time>2026-03-21T10:26:33.402Z</time></trkpt><trkpt lat="34.3216533" lon="8.1667867"><ele>99.33333333333334</ele><time>2026-03-21T10:26:34.402Z</time></trkpt><trkpt lat="34.3217183" lon="8.1668683"><ele>100.5</ele><time>2026-03-21T10:26:35.401Z</time></trkpt><trkpt lat="34.3217783" lon="8.1669417"><ele>101.66666666666666</ele><time>2026-03-21T10:26:36.401Z</time></trkpt><trkpt lat="34.32183" lon="8.1670083"><ele>102.83333333333333</ele><time>2026-03-21T10:26:37.401Z</time></trkpt><trkpt lat="34.32188" lon="8.1670783"><ele>104.0</ele><time>2026-03-21T10:26:38.401Z</time></trkpt><trkpt lat="34.321935" lon="8.167145"><ele>104.0</ele><time>2026-03-21T10:26:39.402Z</time></trkpt><trkpt lat="34.32199" lon="8.167215"><ele>104.0</ele><time>2026-03-21T10:26:40.402Z</time></trkpt><trkpt lat="34.322045" lon="8.1672883"><ele>104.0</ele><time>2026-03-21T10:26:41.401Z</time></trkpt><trkpt lat="34.3220933" lon="8.1673583"><ele>104.0</ele><time>2026-03-21T10:26:42.401Z</time></trkpt><trkpt lat="34.32213" lon="8.16743"><ele>104.0</ele><time>2026-03-21T10:26:43.402Z</time></trkpt><trkpt lat="34.32217" lon="8.1675"><ele>104.0</ele><time>2026-03-21T10:26:44.401Z</time></trkpt><trkpt lat="34.3222133" lon="8.1675683"><ele>104.0</ele><time>2026-03-21T10:26:45.4Z</time></trkpt><trkpt lat="34.322255" lon="8.1676283"><ele>104.80000000000001</ele><time>2026-03-21T10:26:46.401Z</time></trkpt><trkpt lat="34.3223417" lon="8.16774"><ele>105.60000000000001</ele><time>2026-03-21T10:26:48.402Z</time></trkpt><trkpt lat="34.3224317" lon="8.1678283"><ele>106.4</ele><time>2026-03-21T10:26:50.402Z</time></trkpt><trkpt lat="34.3224967" lon="8.16793"><ele>107.2</ele><time>2026-03-21T10:26:52.401Z</time></trkpt><trkpt lat="34.32255" lon="8.1680233"><ele>108.0</ele><time>2026-03-21T10:26:54.401Z</time></trkpt><trkpt lat="34.3226033" lon="8.168085"><ele>108.0</ele><time>2026-03-21T10:26:56.401Z</time></trkpt><trkpt lat="34.322685" lon="8.1681433"><ele>108.0</ele><time>2026-03-21T10:26:58.401Z</time></trkpt><trkpt lat="34.32276" lon="8.1681983"><ele>108.0</ele><time>2026-03-21T10:27:00.402Z</time></trkpt><trkpt lat="34.322835" lon="8.168265"><ele>108.0</ele><time>2026-03-21T10:27:02.401Z</time></trkpt><trkpt lat="34.3228917" lon="8.16832"><ele>108.0</ele><time>2026-03-21T10:27:04.401Z</time></trkpt><trkpt lat="34.3229433" lon="8.168385"><ele>108.0</ele><time>2026-03-21T10:27:06.401Z</time></trkpt><trkpt lat="34.3229983" lon="8.1684533"><ele>109.2</ele><time>2026-03-21T10:27:08.401Z</time></trkpt><trkpt lat="34.3230483" lon="8.1685633"><ele>110.4</ele><time>2026-03-21T10:27:10.401Z</time></trkpt><trkpt lat="34.32309" lon="8.1686667"><ele>111.60000000000001</ele><time>2026-03-21T10:27:12.401Z</time></trkpt><trkpt lat="34.3231317" lon="8.1687483"><ele>112.80000000000001</ele><time>2026-03-21T10:27:14.401Z</time></trkpt><trkpt lat="34.323175" lon="8.168845"><ele>114.0</ele><time>2026-03-21T10:27:16.401Z</time></trkpt><trkpt lat="34.32323" lon="8.1689483"><ele>116.0</ele><time>2026-03-21T10:27:18.402Z</time></trkpt><trkpt lat="34.3232967" lon="8.16905"><ele>118.0</ele><time>2026-03-21T10:27:20.401Z</time></trkpt><trkpt lat="34.3233717" lon="8.16915"><ele>120.0</ele><time>2026-03-21T10:27:22.401Z</time></trkpt><trkpt lat="34.3234167" lon="8.1692083"><ele>122.0</ele><time>2026-03-21T10:27:23.401Z</time></trkpt><trkpt lat="34.3234467" lon="8.1692783"><ele>124.0</ele><time>2026-03-21T10:27:24.401Z</time></trkpt><trkpt lat="34.3234733" lon="8.1693567"><ele>126.0</ele><time>2026-03-21T10:27:25.401Z</time></trkpt><trkpt lat="34.3234933" lon="8.1694383"><ele>126.0</ele><time>2026-03-21T10:27:26.402Z</time></trkpt><trkpt lat="34.323515" lon="8.1695183"><ele>126.0</ele><time>2026-03-21T10:27:27.401Z</time></trkpt><trkpt lat="34.3235383" lon="8.1695917"><ele>126.0</ele><time>2026-03-21T10:27:28.402Z</time></trkpt><trkpt lat="34.3236117" lon="8.16972"><ele>126.0</ele><time>2026-03-21T10:27:30.402Z</time></trkpt><trkpt lat="34.3236517" lon="8.169785"><ele>126.0</ele><time>2026-03-21T10:27:31.401Z</time></trkpt><trkpt lat="34.323685" lon="8.1698517"><ele>126.0</ele><time>2026-03-21T10:27:32.402Z</time></trkpt><trkpt lat="34.32374" lon="8.169975"><ele>127.0</ele><time>2026-03-21T10:27:34.402Z</time></trkpt><trkpt lat="34.323775" lon="8.17005"><ele>128.0</ele><time>2026-03-21T10:27:36.401Z</time></trkpt><trkpt lat="34.323815" lon="8.1701217"><ele>129.0</ele><time>2026-03-21T10:28:35.4Z</time></trkpt><trkpt lat="34.3238783" lon="8.1702233"><ele>130.0</ele><time>2026-03-21T10:28:37.4Z</time></trkpt><trkpt lat="34.32395" lon="8.1703483"><ele>131.0</ele><time>2026-03-21T10:28:39.401Z</time></trkpt><trkpt lat="34.3240133" lon="8.17047"><ele>131.0</ele><time>2026-03-21T10:28:41.4Z</time></trkpt><trkpt lat="34.3240767" lon="8.1705917"><ele>131.0</ele><time>2026-03-21T10:28:43.401Z</time></trkpt><trkpt lat="34.3241383" lon="8.1707183"><ele>131.0</ele><time>2026-03-21T10:28:45.401Z</time></trkpt><trkpt lat="34.32417" lon="8.1707917"><ele>131.0</ele><time>2026-03-21T10:28:46.4Z</time></trkpt><trkpt lat="34.3242067" lon="8.170865"><ele>131.0</ele><time>2026-03-21T10:28:47.4Z</time></trkpt><trkpt lat="34.3242417" lon="8.170935"><ele>131.0</ele><time>2026-03-21T10:28:48.4Z</time></trkpt><trkpt lat="34.324285" lon="8.171065"><ele>132.33333333333331</ele><time>2026-03-21T10:28:50.402Z</time></trkpt><trkpt lat="34.3243067" lon="8.1711417"><ele>133.66666666666666</ele><time>2026-03-21T10:28:51.401Z</time></trkpt><trkpt lat="34.3243267" lon="8.17122"><ele>135.0</ele><time>2026-03-21T10:28:52.402Z</time></trkpt><trkpt lat="34.32436" lon="8.17135"><ele>136.33333333333334</ele><time>2026-03-21T10:28:54.401Z</time></trkpt><trkpt lat="34.3243883" lon="8.171435"><ele>137.66666666666669</ele><time>2026-03-21T10:28:56.4Z</time></trkpt><trkpt lat="34.324425" lon="8.1715533"><ele>139.0</ele><time>2026-03-21T10:28:58.401Z</time></trkpt><trkpt lat="34.3244683" lon="8.1716817"><ele>139.33333333333334</ele><time>2026-03-21T10:29:00.4Z</time></trkpt><trkpt lat="34.324515" lon="8.1718183"><ele>139.66666666666669</ele><time>2026-03-21T10:29:02.401Z</time></trkpt><trkpt lat="34.3245383" lon="8.1718983"><ele>140.0</ele><time>2026-03-21T10:29:03.401Z</time></trkpt><trkpt lat="34.3245617" lon="8.1719817"><ele>140.33333333333334</ele><time>2026-03-21T10:29:04.401Z</time></trkpt><trkpt lat="34.324585" lon="8.1720617"><ele>140.66666666666666</ele><time>2026-03-21T10:29:05.4Z</time></trkpt><trkpt lat="34.3246033" lon="8.17214"><ele>141.0</ele><time>2026-03-21T10:29:06.4Z</time></trkpt><trkpt lat="34.324615" lon="8.172215"><ele>141.0</ele><time>2026-03-21T10:29:07.401Z</time></trkpt></trkseg></trk></gpx>